# Wetter Temperatur Luftdruck Luftfeuchtigkeit Sichtweite Windgeschwindigkeit Windrichtung Zeit
1 Rain 10 1004 81 10000 5.1 360 01:25 05.04.2020
2 Rain 10 1006 93 8000 7.7 360 00:43 05.04.2020
3 Rain 10 1006 93 8000 7.7 360 00:21 05.04.2020
4 Rain 10 1005 81 10000 3.6 310 23:42 04.04.2020
5 Rain 11 1005 81 10000 3.6 310 23:23 04.04.2020
6 Rain 11 1006 81 10000 4.1 310 22:57 04.04.2020
7 Rain 11 1005 87 8000 6.2 350 22:39 04.04.2020
8 Rain 11 1005 87 8000 6.2 350 22:21 04.04.2020
9 Rain 11 1005 81 10000 7.7 360 21:58 04.04.2020
10 Rain 11 1005 76 10000 8.2 360 21:39 04.04.2020
11 Rain 11 1005 76 10000 7.7 350 21:19 04.04.2020
12 Rain 12 1005 76 10000 7.7 350 20:58 04.04.2020
13 Rain 12 1005 81 10000 6.2 350 20:39 04.04.2020
14 Rain 12 1005 81 10000 6.2 350 20:20 04.04.2020
15 Rain 12 1005 87 8000 7.2 330 19:56 04.04.2020
16 Rain 12 1004 81 9000 7.7 340 19:37 04.04.2020
17 Rain 12 1005 81 9000 6.7 340 19:18 04.04.2020
18 Rain 12 1005 81 9000 6.7 340 18:55 04.04.2020
19 Rain 12 1005 76 10000 7.7 340 18:37 04.04.2020
20 Rain 12 1004 81 10000 8.7 340 18:18 04.04.2020
21 Rain 12 1005 76 10000 7.7 340 17:40 04.04.2020
22 Rain 12 1005 76 10000 7.2 330 17:20 04.04.2020
23 Rain 13 1005 76 10000 7.2 330 16:55 04.04.2020
24 Rain 13 1005 76 10000 6.2 320 16:37 04.04.2020
25 Rain 13 1005 76 10000 6.2 320 16:37 04.04.2020
26 Rain 13 1006 81 8000 5.7 340 16:18 04.04.2020
27 Rain 12 1006 81 8000 5.7 340 15:40 04.04.2020
28 Rain 12 1006 81 8000 5.7 340 15:22 04.04.2020
29 Rain 12 1006 81 9000 7.7 330 14:57 04.04.2020
30 Rain 12 1006 87 8000 6.7 330 14:39 04.04.2020
31 Rain 12 1006 87 8000 6.7 330 14:21 04.04.2020
32 Rain 12 1007 81 8000 5.1 340 13:55 04.04.2020
33 Rain 12 1008 81 9000 5.1 330 13:37 04.04.2020
34 Rain 12 1008 81 9000 4.1 320 13:18 04.04.2020
35 Rain 12 1007 81 10000 3.6 320 12:44 04.04.2020
36 Rain 12 1008 76 10000 1.5 0 12:23 04.04.2020
37 Rain 12 1008 76 10000 1.5 0 12:23 04.04.2020
38 Rain 12 1008 76 10000 1.5 0 11:55 04.04.2020
39 Rain 12 1008 87 10000 1.5 0 11:37 04.04.2020
40 Rain 12 1010 93 10000 1.5 0 11:18 04.04.2020
41 Rain 12 1011 81 9000 7.7 30 10:55 04.04.2020
42 Rain 12 1010 93 10000 1.5 0 10:37 04.04.2020
43 Rain 12 1010 93 9000 6.03 6 10:18 04.04.2020
44 Rain 11 1010 93 9000 6.03 6 09:54 04.04.2020
45 Rain 11 1010 93 10000 1.5 0 09:36 04.04.2020
46 Clouds 11 1009 93 10000 5.74 360 09:18 04.04.2020
47 Clouds 11 1009 100 10000 1.5 0 08:38 04.04.2020
48 Clouds 11 1009 100 10000 1.5 0 08:19 04.04.2020
49 Rain 10 1010 93 10000 5.86 352 07:41 04.04.2020
50 Rain 10 1010 93 10000 5.86 352 07:23 04.04.2020
51 Rain 10 1010 100 8000 3.1 290 06:47 04.04.2020
52 Rain 10 1009 93 8000 3.81 9 06:18 04.04.2020
53 Rain 10 1010 93 8000 2.1 320 05:41 04.04.2020
54 Rain 10 1010 93 8000 2.1 320 05:23 04.04.2020
55 Rain 10 1010 93 0 1.5 0 04:27 04.04.2020
56 Rain 10 1011 93 0 1.5 0 03:49 04.04.2020
57 Rain 10 1011 87 0 0.5 0 02:50 04.04.2020
58 Rain 10 1011 87 0 0.5 0 02:32 04.04.2020
59 Rain 10 1012 87 8000 2.53 20 01:53 04.04.2020
60 Rain 10 1012 87 8000 2.53 20 01:24 04.04.2020
61 Rain 10 1013 81 0 1 0 00:48 04.04.2020
62 Rain 10 1013 81 0 1 0 00:28 04.04.2020
63 Clouds 10 1013 87 0 2.1 360 23:39 03.04.2020
64 Clouds 10 1013 87 0 2.1 360 23:21 03.04.2020
65 Clouds 10 1014 81 10000 3.08 12 22:57 03.04.2020
66 Clouds 10 1014 87 10000 3.08 12 22:39 03.04.2020
67 Clouds 10 1014 87 10000 3.08 12 22:18 03.04.2020
68 Clouds 10 1014 76 10000 2.6 70 21:43 03.04.2020
69 Clouds 10 1014 76 10000 2.6 70 21:24 03.04.2020
70 Clouds 10 1014 76 10000 2.6 70 20:57 03.04.2020
71 Clouds 10 1014 76 10000 2.6 70 20:57 03.04.2020
72 Clouds 10 1014 81 10000 2.1 60 20:37 03.04.2020
73 Clouds 10 1014 81 10000 2.1 90 20:19 03.04.2020
74 Clouds 10 1014 81 10000 2.1 90 19:57 03.04.2020
75 Clouds 10 1014 81 10000 3.1 100 19:38 03.04.2020
76 Clouds 10 1013 81 10000 3.6 80 19:20 03.04.2020
77 Clouds 10 1013 81 10000 3.6 80 18:58 03.04.2020
78 Clouds 10 1013 81 10000 4.1 80 18:40 03.04.2020
79 Clouds 11 1013 81 10000 4.1 80 18:22 03.04.2020
80 Clouds 11 1013 76 10000 4.1 80 17:55 03.04.2020
81 Clouds 11 1013 76 10000 4.1 80 17:36 03.04.2020
82 Clouds 11 1013 76 10000 2.6 70 17:18 03.04.2020
83 Clouds 11 1013 76 10000 0.76 95 16:43 03.04.2020
84 Clouds 11 1013 76 10000 0.76 95 16:21 03.04.2020
85 Rain 11 1014 87 9000 0.76 95 15:58 03.04.2020
86 Rain 11 1014 81 8000 0.76 95 15:39 03.04.2020
87 -273 0 0 0 0 0 15:20 03.04.2020
88 Rain 11 1015 79 0 0.45 258 14:55 03.04.2020
89 Drizzle 11 1016 71 10000 1.5 0 14:37 03.04.2020
90 Drizzle 11 1016 71 10000 1.5 0 14:19 03.04.2020
91 Rain 11 1015 76 8000 1.05 142 13:42 03.04.2020
92 Rain 11 1015 76 8000 1.05 142 13:24 03.04.2020
93 Rain 12 1015 71 8000 1.05 142 12:45 03.04.2020
94 Rain 12 1015 62 10000 1.27 145 12:21 03.04.2020
95 Rain 12 1015 62 10000 1.27 145 11:57 03.04.2020
96 Rain 12 1015 62 10000 1.27 145 11:57 03.04.2020
97 Clouds 12 1016 62 10000 2.1 180 11:39 03.04.2020
98 Clouds 12 1016 62 10000 2.1 180 11:21 03.04.2020
99 Clouds 12 1016 62 10000 2.1 180 11:21 03.04.2020
100 Clouds 12 1015 62 10000 2.1 70 10:59 03.04.2020
101 Clouds 12 1016 66 10000 1.27 145 10:39 03.04.2020
102 Clouds 12 1016 66 10000 1.27 145 10:20 03.04.2020
103 Clouds 12 1016 66 10000 1.27 145 09:59 03.04.2020
104 Clouds 11 1015 66 10000 1.27 145 09:40 03.04.2020
105 Clouds 11 1015 71 10000 1.86 53 09:22 03.04.2020
106 Clouds 10 1015 71 10000 1.71 47 08:57 03.04.2020
107 Clouds 10 1015 71 10000 1.71 47 08:38 03.04.2020
108 Clouds 10 1015 70 10000 1.71 47 08:20 03.04.2020
109 Clouds 10 1015 76 10000 1.71 47 07:48 03.04.2020
110 Clouds 10 1015 76 10000 1.71 47 07:29 03.04.2020
111 Clouds 9 1015 75 10000 1.71 47 06:42 03.04.2020
112 Clouds 9 1014 81 10000 1.71 47 06:23 03.04.2020
113 Clouds 9 1014 75 10000 1.5 0 05:39 03.04.2020
114 Clouds 8 1014 81 10000 1.5 0 03:42 03.04.2020
115 Clouds 8 1014 81 10000 1.5 0 02:56 03.04.2020
116 Clouds 8 1014 81 10000 3.04 23 02:18 03.04.2020
117 Clouds 9 1014 75 10000 1.5 0 01:22 03.04.2020
118 Clouds 9 1014 70 10000 3.04 23 00:37 03.04.2020
119 Clouds 9 1014 70 10000 1.5 0 00:19 03.04.2020
120 Clouds 9 1014 70 10000 1.5 0 23:42 02.04.2020
121 Clouds 9 1014 70 10000 1.5 0 23:23 02.04.2020
122 Clouds 9 1014 66 10000 1.5 0 22:58 02.04.2020
123 Clouds 10 1014 61 10000 1.5 0 22:38 02.04.2020
124 Clouds 10 1013 61 10000 1.5 0 22:20 02.04.2020
125 Clouds 10 1013 61 10000 1.5 0 21:39 02.04.2020
126 Clouds 10 1013 57 10000 2.6 330 21:20 02.04.2020
127 Clouds 10 1013 57 10000 2.6 330 20:58 02.04.2020
128 Clouds 10 1013 57 10000 3.1 310 20:40 02.04.2020
129 Clouds 11 1013 57 10000 3.1 310 20:21 02.04.2020
130 Clouds 11 1012 58 10000 2.1 340 19:44 02.04.2020
131 Rain 11 1012 58 10000 2.1 340 19:21 02.04.2020
132 Rain 12 1012 50 10000 3.6 330 18:59 02.04.2020
133 Rain 12 1011 50 10000 2.6 360 18:41 02.04.2020
134 Clouds 13 1011 50 10000 2.6 360 18:20 02.04.2020
135 Clouds 13 1011 47 10000 3.6 340 17:57 02.04.2020
136 Clouds 13 1011 41 10000 4.6 340 17:39 02.04.2020
137 Clouds 14 1011 41 10000 4.6 340 17:20 02.04.2020
138 Clouds 14 1011 44 10000 4.1 350 16:56 02.04.2020
139 Clouds 14 1010 41 10000 4.1 330 16:37 02.04.2020
140 Clouds 14 1010 41 10000 4.1 330 16:19 02.04.2020
141 Clouds 14 1011 50 10000 4.6 350 15:54 02.04.2020
142 Clouds 14 1010 44 10000 5.1 330 15:36 02.04.2020
143 Clouds 14 1010 36 10000 4.6 320 15:18 02.04.2020
144 Clouds 14 1010 38 10000 3.1 330 14:40 02.04.2020
145 Clouds 14 1010 38 10000 3.1 330 14:40 02.04.2020
146 Clouds 14 1011 44 10000 6.2 300 14:20 02.04.2020
147 Clouds 14 1010 38 10000 3.1 330 13:58 02.04.2020
148 Clouds 13 1010 38 10000 3.6 330 13:39 02.04.2020
149 Clouds 14 1010 41 10000 5.1 320 13:21 02.04.2020
150 Clouds 14 1010 41 10000 5.1 320 12:56 02.04.2020
151 Clouds 14 1010 41 10000 5.1 320 12:56 02.04.2020
152 Clouds 13 1010 41 10000 5.1 320 12:37 02.04.2020
153 Clouds 13 1010 44 10000 3.6 350 12:19 02.04.2020
154 Clouds 13 1010 44 10000 3.6 350 11:57 02.04.2020
155 Clouds 13 1010 47 10000 3.1 340 11:38 02.04.2020
156 Clouds 12 1010 50 10000 4.1 340 11:19 02.04.2020
157 Clouds 12 1010 50 10000 4.1 340 11:19 02.04.2020
158 Clouds 12 1010 50 10000 4.1 340 10:55 02.04.2020
159 Clouds 12 1010 50 10000 4.1 340 10:55 02.04.2020
160 Clouds 12 1010 47 10000 3.6 330 10:37 02.04.2020
161 Clouds 12 1009 43 10000 3.1 320 10:18 02.04.2020
162 Clouds 12 1009 43 10000 3.6 320 09:43 02.04.2020
163 Clouds 11 1009 43 10000 3.6 320 09:25 02.04.2020
164 Clouds 11 1009 46 10000 4.1 310 08:58 02.04.2020
165 Clouds 11 1008 53 10000 1.5 330 08:40 02.04.2020
166 Clouds 10 1008 53 10000 1.5 330 08:22 02.04.2020
167 Clouds 10 1008 61 10000 1.5 300 07:44 02.04.2020
168 Clouds 9 1008 57 10000 2.1 310 07:20 02.04.2020
169 Clouds 9 1008 57 10000 2.1 310 06:58 02.04.2020
170 Clouds 9 1008 57 10000 3.6 320 06:21 02.04.2020
171 Clouds 9 1007 57 10000 6.54 300 05:44 02.04.2020
172 Clouds 10 1007 61 10000 2.6 290 03:57 02.04.2020
173 Clouds 11 1007 62 10000 5.1 300 01:34 02.04.2020
174 Clouds 12 1007 66 10000 4.1 290 00:48 02.04.2020
175 Clouds 12 1007 66 10000 4.1 290 00:26 02.04.2020
176 Clouds 12 1007 76 10000 4.1 290 23:54 01.04.2020
177 Clouds 13 1007 87 10000 1.66 200 23:36 01.04.2020
178 Clouds 13 1007 87 8000 1.66 200 23:18 01.04.2020
179 Clouds 13 1007 87 8000 1.66 200 22:40 01.04.2020
180 Clouds 13 1008 82 8000 1.66 200 22:21 01.04.2020
181 Clouds 13 1008 82 8000 1.66 200 21:55 01.04.2020
182 Clouds 13 1008 82 8000 1.66 200 21:36 01.04.2020
183 Clouds 13 1008 82 8000 4.98 155 21:18 01.04.2020
184 Clouds 13 1008 82 8000 4.98 155 20:54 01.04.2020
185 Clouds 12 1008 82 8000 4.98 155 20:36 01.04.2020
186 Clouds 13 1008 82 8000 4.98 155 20:18 01.04.2020
187 Clouds 13 1009 82 8000 4.98 155 19:41 01.04.2020
188 Clouds 13 1009 82 8000 4.98 155 19:21 01.04.2020
189 Rain 13 1009 82 7000 2.1 140 18:46 01.04.2020
190 Rain 13 1009 82 7000 2.1 140 18:27 01.04.2020
191 Rain 13 1009 76 8000 3.1 170 17:59 01.04.2020
192 Rain 13 1009 76 8000 3.1 170 17:59 01.04.2020
193 Clouds 14 1009 76 10000 3.6 150 17:39 01.04.2020
194 Clouds 14 1009 76 10000 3.6 150 17:20 01.04.2020
195 Clouds 13 1009 72 10000 4.6 150 16:59 01.04.2020
196 Rain 13 1010 82 9000 2.6 160 16:41 01.04.2020
197 Rain 14 1010 82 9000 2.6 160 16:22 01.04.2020
198 Rain 13 1010 76 8000 5.7 170 15:58 01.04.2020
199 Clouds 14 1010 67 10000 5.1 170 15:38 01.04.2020
200 Clouds 14 1010 67 10000 5.1 170 15:38 01.04.2020
201 Clouds 14 1010 67 10000 5.1 170 15:20 01.04.2020
202 Clouds 14 1010 63 10000 6.2 170 14:57 01.04.2020
203 Clouds 14 1010 63 10000 5.1 180 14:38 01.04.2020
204 Clouds 15 1010 55 10000 4.6 180 14:19 01.04.2020
205 Clouds 15 1012 58 10000 4.1 90 13:57 01.04.2020
206 Clouds 15 1010 59 10000 4.1 160 13:37 01.04.2020
207 Clouds 15 1011 63 10000 3.1 170 13:18 01.04.2020
208 Clouds 15 1011 63 10000 3.1 170 12:54 01.04.2020
209 Clouds 15 1011 59 10000 3.1 180 12:36 01.04.2020
210 Clouds 14 1012 59 10000 2.1 160 12:18 01.04.2020
211 Clouds 14 1012 59 10000 2.6 140 11:40 01.04.2020
212 Clouds 13 1012 59 10000 2.6 140 11:21 01.04.2020
213 Clouds 13 1012 62 10000 2.6 140 10:57 01.04.2020
214 Clouds 13 1012 62 10000 3.1 110 10:37 01.04.2020
215 Clouds 13 1012 58 10000 1.5 0 10:18 01.04.2020
216 Clouds 13 1012 58 10000 1.5 0 09:55 01.04.2020
217 Clouds 13 1012 62 10000 1.5 0 09:37 01.04.2020
218 Clouds 12 1013 66 9000 1.5 0 09:18 01.04.2020
219 Clouds 11 1013 71 9000 4.05 17 08:40 01.04.2020
220 Clouds 11 1013 81 10000 4.05 17 08:18 01.04.2020
221 Clouds 11 1012 87 10000 4.05 17 07:42 01.04.2020
222 Clouds 10 1012 93 10000 4.05 17 07:20 01.04.2020
223 Clouds 9 1012 93 10000 1.5 0 06:47 01.04.2020
224 Clouds 9 1012 93 10000 1.5 0 06:23 01.04.2020
225 Clouds 9 1012 93 10000 3.95 15 05:55 01.04.2020
226 Clouds 10 1012 93 10000 3.95 15 04:30 01.04.2020
227 Clouds 10 1012 87 10000 3.95 15 03:28 01.04.2020
228 Clouds 10 1012 87 10000 4.51 10 02:49 01.04.2020
229 Clear 11 1012 87 10000 4.58 9 01:56 01.04.2020
230 Clear 11 1013 87 10000 4.58 9 01:37 01.04.2020
231 Clear 11 1013 81 10000 4.58 9 01:18 01.04.2020
232 Clear 11 1013 81 10000 4.58 9 00:45 01.04.2020
233 Clouds 11 1013 76 10000 4.92 9 00:19 01.04.2020
234 Clouds 11 1013 76 10000 4.92 9 23:42 31.03.2020
235 Clouds 12 1013 76 10000 4.92 9 23:23 31.03.2020
236 Clouds 12 1013 76 10000 4.92 9 22:58 31.03.2020
237 Clouds 12 1013 76 10000 4.92 9 22:37 31.03.2020
238 Clouds 12 1012 71 10000 4.92 9 22:19 31.03.2020
239 Clouds 12 1012 71 10000 4.92 9 21:56 31.03.2020
240 Clouds 12 1012 66 10000 1.5 0 21:37 31.03.2020
241 Clouds 13 1012 62 10000 5.27 9 21:19 31.03.2020
242 Clouds 13 1012 67 10000 2.6 340 20:55 31.03.2020
243 Clouds 13 1011 62 10000 2.1 350 20:36 31.03.2020
244 Clouds 14 1011 62 10000 2.1 350 20:18 31.03.2020
245 Clouds 14 1011 62 10000 2.1 350 20:18 31.03.2020
246 Clouds 14 1011 58 10000 2.1 350 19:41 31.03.2020
247 Clouds 14 1010 55 10000 2.1 360 19:22 31.03.2020
248 Clouds 15 1010 55 10000 2.1 360 18:58 31.03.2020
249 Clouds 15 1010 48 10000 1.5 350 18:39 31.03.2020
250 Clouds 17 1010 42 10000 3.1 350 18:18 31.03.2020
251 Clouds 17 1010 42 10000 3.1 350 17:55 31.03.2020
252 Clouds 17 1010 34 10000 5.1 360 17:37 31.03.2020
253 Clouds 17 1010 34 10000 4.1 340 17:18 31.03.2020
254 Clouds 17 1009 32 10000 5.1 350 16:40 31.03.2020
255 Clouds 18 1009 32 10000 6.2 360 16:19 31.03.2020
256 Clouds 18 1009 32 10000 6.2 360 15:57 31.03.2020
257 Clouds 18 1009 30 10000 5.1 340 15:39 31.03.2020
258 Clouds 18 1010 37 10000 6.2 350 15:20 31.03.2020
259 Clouds 18 1010 37 10000 6.2 350 14:57 31.03.2020
260 Clouds 18 1010 40 10000 5.1 340 14:38 31.03.2020
261 Clouds 18 1010 40 10000 6.2 350 14:20 31.03.2020
262 Clouds 18 1010 42 10000 6.2 350 13:43 31.03.2020
263 Clouds 18 1010 42 10000 6.2 360 13:20 31.03.2020
264 Clouds 18 1010 42 10000 6.2 360 12:57 31.03.2020
265 Clouds 18 1010 42 10000 6.2 330 12:39 31.03.2020
266 Clouds 17 1010 45 10000 6.2 340 12:19 31.03.2020
267 Clouds 17 1010 48 10000 5.1 340 11:40 31.03.2020
268 Clouds 17 1011 48 10000 4.1 330 11:20 31.03.2020
269 Clouds 17 1011 48 10000 4.1 330 10:59 31.03.2020
270 Clouds 17 1011 51 10000 5.1 350 10:40 31.03.2020
271 Clouds 17 1011 51 10000 6.2 340 10:22 31.03.2020
272 Clouds 16 1011 51 10000 6.2 340 09:59 31.03.2020
273 Clouds 16 1010 51 10000 6.2 330 09:40 31.03.2020
274 Clouds 15 1011 48 10000 8.7 30 09:22 31.03.2020
275 Clouds 14 1010 51 10000 6.2 340 08:57 31.03.2020
276 Clouds 13 1010 51 10000 6.2 340 08:38 31.03.2020
277 Clouds 14 1010 47 10000 5.1 350 08:19 31.03.2020
278 Clouds 14 1010 47 10000 5.1 350 08:19 31.03.2020
279 Clouds 13 1010 47 10000 5.1 350 07:56 31.03.2020
280 Clouds 13 1009 50 10000 4.1 350 07:37 31.03.2020
281 Clouds 13 1009 50 10000 4.1 350 07:18 31.03.2020
282 Clouds 12 1009 50 10000 5.1 340 06:45 31.03.2020
283 Clouds 12 1009 50 10000 4.6 330 06:18 31.03.2020
284 Clouds 12 1009 50 10000 4.1 350 05:39 31.03.2020
285 Clouds 12 1009 70 10000 4.69 354 03:34 31.03.2020
286 Clouds 12 1009 70 10000 3.67 1 01:59 31.03.2020
287 Clouds 12 1009 66 10000 1.5 0 01:40 31.03.2020
288 Clouds 12 1010 66 10000 1.5 0 00:47 31.03.2020
289 Clouds 12 1011 76 10000 2.1 270 00:25 31.03.2020
290 Clouds 12 1010 66 10000 1.5 0 23:56 30.03.2020
291 Clouds 12 1010 66 10000 1.5 0 23:37 30.03.2020
292 Clouds 12 1010 66 10000 1.5 0 23:18 30.03.2020
293 Clouds 12 1010 66 10000 1.5 0 22:55 30.03.2020
294 Clouds 12 1010 76 10000 1.5 0 22:36 30.03.2020
295 Clouds 12 1010 76 10000 1.5 0 22:18 30.03.2020
296 Clouds 13 1010 76 10000 1.5 0 21:54 30.03.2020
297 Clouds 13 1010 76 10000 1.5 0 21:36 30.03.2020
298 Clouds 13 1009 87 10000 1.5 0 21:18 30.03.2020
299 Clouds 13 1009 67 10000 1.5 0 20:40 30.03.2020
300 Clouds 13 1009 67 10000 1.5 0 20:22 30.03.2020
301 Clouds 14 1009 58 10000 1.5 0 19:59 30.03.2020
302 Clouds 14 1009 58 10000 2.1 160 19:39 30.03.2020
303 Clouds 14 1009 58 10000 2.1 160 19:21 30.03.2020
304 Clouds 15 1009 55 10000 2.6 150 18:56 30.03.2020
305 Clouds 15 1009 51 10000 1.5 0 18:37 30.03.2020
306 Clouds 16 1008 55 10000 2.1 190 18:19 30.03.2020
307 Clouds 16 1008 55 10000 2.1 190 17:55 30.03.2020
308 Clouds 17 1008 52 10000 2.6 190 17:36 30.03.2020
309 Clouds 17 1008 52 10000 3.6 180 17:18 30.03.2020
310 Clouds 17 1008 52 10000 3.6 200 16:41 30.03.2020
311 Clouds 17 1009 52 10000 4.6 180 16:22 30.03.2020
312 Clouds 17 1009 52 10000 4.6 180 15:57 30.03.2020
313 Clouds 18 1009 45 10000 3.1 200 15:39 30.03.2020
314 Clouds 18 1009 45 10000 3.1 200 15:21 30.03.2020
315 Clouds 18 1009 45 10000 3.1 200 14:59 30.03.2020
316 Clouds 18 1009 48 10000 3.6 190 14:38 30.03.2020
317 Clouds 17 1009 45 10000 3.6 180 14:19 30.03.2020
318 Clouds 17 1009 45 10000 3.6 180 14:19 30.03.2020
319 Clouds 17 1009 45 10000 3.6 180 13:58 30.03.2020
320 Clouds 18 1010 45 10000 2.6 170 13:39 30.03.2020
321 Clouds 17 1010 45 10000 1.5 0 13:20 30.03.2020
322 Clouds 17 1010 42 10000 1.5 0 12:45 30.03.2020
323 Clouds 16 1012 55 10000 3.6 120 12:22 30.03.2020
324 Clouds 16 1012 54 10000 2.6 100 11:59 30.03.2020
325 Clouds 16 1012 62 10000 2.6 90 11:41 30.03.2020
326 Clouds 16 1012 62 10000 2.6 90 11:22 30.03.2020
327 Clouds 16 1011 55 10000 0.99 142 10:57 30.03.2020
328 Clouds 15 1011 55 10000 1.5 0 10:37 30.03.2020
329 Clouds 15 1011 55 10000 0.99 142 10:19 30.03.2020
330 Clouds 14 1011 62 10000 0.99 142 09:41 30.03.2020
331 Clear 13 1011 58 10000 1.26 30 09:20 30.03.2020
332 Clear 13 1011 58 10000 1.44 25 08:58 30.03.2020
333 Clear 12 1011 71 10000 1.44 25 08:38 30.03.2020
334 Clear 11 1011 81 10000 1.44 25 08:20 30.03.2020
335 Clear 10 1011 87 10000 1.44 25 07:44 30.03.2020
336 Clear 9 1011 87 10000 1.44 25 07:23 30.03.2020
337 Clear 9 1011 87 10000 1.5 0 06:47 30.03.2020
338 Clear 8 1011 87 10000 1.5 0 06:25 30.03.2020
339 Clear 8 1011 87 10000 0.38 41 05:44 30.03.2020
340 Rain 8 1011 93 10000 1.5 0 04:31 30.03.2020
341 Clouds 8 1010 87 10000 0.38 41 03:57 30.03.2020
342 Clouds 9 1010 87 10000 1.5 0 02:45 30.03.2020
343 Clouds 9 1008 87 10000 0.52 171 01:58 30.03.2020
344 Clouds 10 1011 93 10000 1.5 0 01:18 30.03.2020
345 Clouds 10 1011 93 10000 0.52 171 00:29 30.03.2020
346 Clouds 10 1011 87 10000 0.94 154 23:57 29.03.2020
347 Clouds 10 1011 87 10000 0.94 154 23:57 29.03.2020
348 Clouds 10 1012 93 10000 0.94 154 23:39 29.03.2020
349 Clouds 11 1012 87 10000 0.94 154 23:20 29.03.2020
350 Clouds 11 1012 87 10000 0.94 154 22:55 29.03.2020
351 Clouds 11 1012 87 10000 0.94 154 22:55 29.03.2020
352 Clouds 11 1012 87 10000 1.5 0 22:37 29.03.2020
353 Clouds 11 1012 87 10000 1.5 0 22:37 29.03.2020
354 Clouds 11 1012 87 10000 0.94 154 22:18 29.03.2020
355 Clouds 11 1011 87 10000 1.5 0 21:39 29.03.2020
356 Clouds 11 1011 87 10000 1.5 0 21:20 29.03.2020
357 Clouds 11 1011 87 10000 2.37 160 20:56 29.03.2020
358 Clouds 12 1010 87 10000 2.37 160 20:37 29.03.2020
359 Clouds 12 1010 81 10000 2.37 160 20:19 29.03.2020
360 Clouds 12 1010 81 10000 2.37 160 19:58 29.03.2020
361 Clouds 12 1010 81 10000 2.37 160 19:40 29.03.2020
362 Clouds 13 1010 76 10000 2.37 160 19:22 29.03.2020
363 Clouds 13 1010 72 10000 1.5 0 18:57 29.03.2020
364 Clouds 14 1010 72 10000 1.5 0 18:38 29.03.2020
365 Clouds 14 1009 72 10000 1.5 0 18:19 29.03.2020
366 Clouds 14 1009 72 10000 1.5 0 17:56 29.03.2020
367 Clouds 14 1009 63 10000 1.5 0 17:38 29.03.2020
368 Clouds 14 1009 62 10000 1.5 0 17:19 29.03.2020
369 Clouds 14 1009 62 10000 1.5 0 16:56 29.03.2020
370 Clouds 14 1009 51 10000 1.5 0 16:38 29.03.2020
371 Clouds 14 1011 66 10000 0.5 0 16:19 29.03.2020
372 Clouds 14 1009 55 10000 1.5 0 15:42 29.03.2020
373 Clouds 15 1009 55 10000 1.5 0 15:24 29.03.2020
374 Clouds 14 1009 59 10000 1.5 0 14:59 29.03.2020
375 Clouds 14 1009 59 10000 1.5 0 14:40 29.03.2020
376 Rain 14 1009 59 10000 2.6 230 14:20 29.03.2020
377 Rain 15 1009 59 10000 2.6 230 13:58 29.03.2020
378 Clouds 15 1009 51 10000 2.1 200 13:40 29.03.2020
379 Clouds 15 1009 51 10000 1.5 0 13:20 29.03.2020
380 Clouds 15 1009 51 10000 1.5 0 13:20 29.03.2020
381 Clouds 15 1009 51 10000 1.5 0 12:56 29.03.2020
382 Clouds 15 1010 55 10000 1.5 0 12:37 29.03.2020
383 Clouds 15 1010 55 10000 1.5 0 12:37 29.03.2020
384 Clouds 15 1010 51 10000 1.5 0 12:19 29.03.2020
385 Clouds 15 1010 51 10000 1.5 0 12:19 29.03.2020
386 Clouds 15 1010 51 10000 1.5 0 11:55 29.03.2020
387 Clouds 14 1011 62 10000 2.1 130 11:37 29.03.2020
388 Clouds 14 1010 59 10000 1.5 0 11:18 29.03.2020
389 Clouds 14 1010 59 10000 1.5 0 11:18 29.03.2020
390 Clouds 14 1010 59 10000 1.5 0 10:38 29.03.2020
391 Clouds 14 1010 67 10000 1.5 0 10:19 29.03.2020
392 Clouds 14 1010 62 10000 1.5 0 09:41 29.03.2020
393 Clouds 13 1010 62 10000 1.5 0 09:22 29.03.2020
394 Clouds 12 1010 67 10000 1.5 0 08:57 29.03.2020
395 Clouds 12 1010 71 10000 1.57 329 08:39 29.03.2020
396 Clouds 12 1010 81 10000 1.5 0 08:20 29.03.2020
397 Clouds 11 1010 87 10000 1.5 0 07:44 29.03.2020
398 Clouds 10 1010 93 10000 1.57 329 07:21 29.03.2020
399 Clouds 9 1010 93 10000 1.84 334 05:58 29.03.2020
400 Clouds 9 1010 93 10000 1.5 0 04:55 29.03.2020
401 Clouds 9 1010 93 10000 1.5 0 03:33 29.03.2020
402 Clouds 10 1010 93 10000 1.91 349 01:57 29.03.2020
403 Clouds 10 1010 87 10000 1.91 349 01:37 29.03.2020
404 Clouds 10 1011 93 10000 1.5 0 01:19 29.03.2020
405 Rain 10 1011 93 10000 1.5 0 00:39 29.03.2020
406 Clouds 10 1011 93 10000 1.5 0 23:59 28.03.2020
407 Clouds 10 1011 87 10000 1.5 0 23:40 28.03.2020
408 Clouds 10 1011 93 10000 1.5 0 23:22 28.03.2020
409 Clouds 10 1011 87 10000 1.5 0 22:42 28.03.2020
410 Clouds 11 1011 87 10000 1.5 0 22:22 28.03.2020
411 Clouds 11 1011 87 10000 1.82 14 21:57 28.03.2020
412 Clouds 11 1011 87 10000 1.5 0 21:39 28.03.2020
413 Clouds 11 1011 93 10000 1.5 0 21:19 28.03.2020
414 Clouds 11 1011 93 10000 1.5 0 20:56 28.03.2020
415 Rain 11 1011 93 10000 1.82 14 20:37 28.03.2020
416 Rain 12 1011 87 10000 1.02 109 20:18 28.03.2020
417 Rain 12 1011 87 10000 0.53 110 19:55 28.03.2020
418 Rain 12 1011 87 10000 0.53 110 19:36 28.03.2020
419 Rain 12 1010 81 10000 0.53 110 19:18 28.03.2020
420 Clouds 12 1011 82 10000 0.53 110 18:39 28.03.2020
421 Clouds 12 1010 82 10000 1.5 0 18:20 28.03.2020
422 Rain 12 1010 82 10000 0.53 110 17:41 28.03.2020
423 Rain 13 1010 82 10000 1.5 0 17:22 28.03.2020
424 Clouds 13 1010 82 10000 1.5 0 16:59 28.03.2020
425 Rain 13 1010 76 10000 2.6 170 16:38 28.03.2020
426 Rain 13 1010 76 10000 3.6 170 16:18 28.03.2020
427 Clouds 14 1010 62 10000 4.6 180 15:40 28.03.2020
428 Clouds 14 1012 62 10000 4.6 120 15:20 28.03.2020
429 Clouds 15 1010 62 10000 4.6 180 14:59 28.03.2020
430 Clouds 14 1010 51 10000 3.6 180 14:40 28.03.2020
431 Clouds 14 1010 51 10000 3.6 180 14:21 28.03.2020
432 Clouds 15 1011 45 10000 3.1 170 13:43 28.03.2020
433 Clouds 15 1011 45 10000 3.1 170 13:23 28.03.2020
434 Clouds 15 1011 45 10000 2.6 160 12:41 28.03.2020
435 Clouds 15 1012 48 10000 2.6 170 12:22 28.03.2020
436 Clouds 15 1012 48 10000 2.6 170 11:55 28.03.2020
437 Rain 14 1012 51 10000 3.19 159 11:37 28.03.2020
438 Rain 14 1012 51 10000 1.33 143 11:18 28.03.2020
439 Clouds 14 1012 58 10000 1.33 143 10:39 28.03.2020
440 Clouds 14 1012 58 10000 1.33 143 10:20 28.03.2020
441 Clouds 13 1013 66 10000 1.5 0 09:43 28.03.2020
442 Clouds 13 1013 66 10000 1.5 0 09:24 28.03.2020
443 Clouds 13 1013 71 10000 2.1 150 08:58 28.03.2020
444 Clouds 13 1013 62 10000 1.5 0 08:40 28.03.2020
445 Clouds 12 1013 62 10000 1.5 0 08:21 28.03.2020
446 Clouds 11 1012 66 10000 2.11 343 07:46 28.03.2020
447 Clouds 11 1013 76 10000 2.11 343 07:28 28.03.2020
448 Clouds 9 1012 81 10000 2.11 343 06:36 28.03.2020
449 Clouds 8 1012 81 10000 2.11 343 05:54 28.03.2020
450 Clouds 8 1012 76 10000 2.83 323 05:21 28.03.2020
451 Clouds 8 1012 76 10000 2.83 323 05:21 28.03.2020
452 Clouds 8 1012 76 10000 3.1 300 04:42 28.03.2020
453 Clouds 8 1012 76 10000 2.1 300 03:54 28.03.2020
454 Clouds 9 1014 81 10000 1.5 110 02:26 28.03.2020
455 Clouds 9 1013 76 10000 3.13 320 01:43 28.03.2020
456 Clouds 9 1013 76 10000 2.1 330 01:18 28.03.2020
457 Clouds 9 1013 76 10000 3.38 322 00:45 28.03.2020
458 Clouds 9 1013 76 10000 3.38 322 00:20 28.03.2020
459 Clouds 9 1013 76 10000 3.38 322 23:42 27.03.2020
460 Clouds 9 1013 81 10000 2.6 340 23:22 27.03.2020
461 Clouds 9 1013 81 10000 2.6 340 22:56 27.03.2020
462 Clouds 10 1013 81 10000 4.33 309 22:38 27.03.2020
463 Clouds 10 1013 81 10000 2.1 320 22:20 27.03.2020
464 Clouds 10 1013 81 10000 2.1 320 21:55 27.03.2020
465 Clouds 10 1013 76 10000 2.6 320 21:37 27.03.2020
466 Clouds 10 1013 76 10000 5.1 330 21:19 27.03.2020
467 Clouds 10 1013 76 10000 4.1 320 20:42 27.03.2020
468 Clouds 10 1012 81 10000 3.6 320 20:21 27.03.2020
469 Clouds 10 1012 81 10000 3.6 320 19:59 27.03.2020
470 Clouds 10 1012 81 10000 2.6 330 19:40 27.03.2020
471 Clouds 11 1012 81 10000 3.1 350 19:22 27.03.2020
472 Clouds 11 1012 81 10000 3.1 350 18:56 27.03.2020
473 Clouds 11 1011 81 10000 2.1 330 18:38 27.03.2020
474 Clouds 11 1011 76 10000 3.1 320 18:19 27.03.2020
475 Clouds 11 1011 76 10000 3.1 320 17:40 27.03.2020
476 Clouds 11 1010 81 10000 2.6 320 17:20 27.03.2020
477 Rain 11 1010 87 10000 2.6 280 16:54 27.03.2020
478 Rain 11 1010 87 10000 2.6 280 16:36 27.03.2020
479 Rain 11 1010 87 10000 2.6 280 16:36 27.03.2020
480 Rain 11 1010 93 8000 5.37 311 16:18 27.03.2020
481 Rain 11 1010 93 8000 5.37 311 15:41 27.03.2020
482 Rain 11 1011 93 8000 5.37 311 15:22 27.03.2020
483 Rain 11 1011 93 8000 5.37 311 14:46 27.03.2020
484 Rain 11 1011 93 8000 5.37 311 14:25 27.03.2020
485 Rain 11 1011 93 8000 5.37 311 14:25 27.03.2020
486 Rain 11 1010 87 7000 6.64 296 13:56 27.03.2020
487 Rain 11 1010 87 7000 6.64 296 13:37 27.03.2020
488 Rain 11 1010 87 7000 6.64 296 13:37 27.03.2020
489 Rain 11 1010 93 7000 6.64 296 13:19 27.03.2020
490 Rain 11 1010 93 7000 6.16 313 12:51 27.03.2020
491 Rain 11 1010 93 7000 2.1 270 12:21 27.03.2020
492 Rain 11 1010 93 7000 2.1 270 11:59 27.03.2020
493 Rain 11 1010 93 7000 2.1 270 11:41 27.03.2020
494 Rain 11 1010 93 7000 2.1 280 11:22 27.03.2020
495 Rain 11 1010 93 7000 2.1 300 10:54 27.03.2020
496 Rain 11 1010 93 7000 2.1 300 10:36 27.03.2020
497 Rain 11 1010 81 8000 4.1 320 10:18 27.03.2020
498 Rain 11 1010 81 8000 4.1 320 09:56 27.03.2020
499 Drizzle 11 1010 81 10000 4.1 320 09:37 27.03.2020
500 Rain 11 1009 81 10000 4.1 330 09:18 27.03.2020
501 Rain 11 1009 81 10000 4.1 330 08:55 27.03.2020
502 Drizzle 12 1009 81 10000 5.1 320 08:36 27.03.2020
503 Clouds 12 1009 71 10000 4.1 330 08:18 27.03.2020
504 Clouds 12 1009 71 10000 4.1 330 07:49 27.03.2020
505 Clouds 12 1009 71 10000 3.1 340 07:22 27.03.2020
506 Clouds 11 1009 71 10000 2.6 340 06:45 27.03.2020
507 Rain 11 1010 85 0 4.47 360 06:26 27.03.2020
508 Clouds 11 1009 71 10000 2.6 330 04:21 27.03.2020
509 Rain 11 1010 81 10000 2.6 310 02:25 27.03.2020
510 Rain 11 1010 81 10000 2.6 320 01:22 27.03.2020
511 Clouds 12 1010 76 10000 2.6 340 00:47 27.03.2020
512 Clouds 11 1010 76 10000 2.1 330 00:23 27.03.2020
513 Clouds 12 1011 81 10000 3.1 310 23:42 26.03.2020
514 Clouds 11 1011 81 10000 2.6 330 23:21 26.03.2020
515 Clouds 11 1011 81 10000 3.1 320 22:58 26.03.2020
516 Rain 11 1011 81 10000 3.1 320 22:37 26.03.2020
517 Rain 11 1011 81 10000 3.1 320 22:19 26.03.2020
518 Rain 11 1011 81 10000 3.6 340 21:55 26.03.2020
519 Rain 11 1011 71 10000 1.5 0 21:36 26.03.2020
520 Clouds 11 1011 81 10000 3.6 340 21:18 26.03.2020
521 Clouds 11 1011 81 10000 4.6 10 20:41 26.03.2020
522 Clouds 11 1011 81 10000 4.6 10 20:23 26.03.2020
523 Clouds 11 1011 81 10000 4.6 10 20:23 26.03.2020
524 Clouds 11 1011 81 10000 4.6 10 20:23 26.03.2020
525 Clouds 11 1011 81 10000 3.6 320 19:58 26.03.2020
526 Clouds 11 1011 81 10000 3.1 340 19:40 26.03.2020
527 Clouds 11 1011 81 10000 3.1 340 19:40 26.03.2020
528 Rain 11 1011 81 10000 2.1 340 19:22 26.03.2020
529 Rain 11 1011 81 10000 2.1 340 18:59 26.03.2020
530 Rain 11 1011 81 8000 2.6 340 18:41 26.03.2020
531 Rain 11 1011 87 8000 1.5 0 18:23 26.03.2020
532 Rain 11 1011 87 8000 1.5 0 17:45 26.03.2020
533 Rain 11 1011 87 8000 1.5 0 17:20 26.03.2020
534 Rain 11 1011 87 8000 1.5 0 16:59 26.03.2020
535 Rain 12 1011 82 9000 1.5 0 16:39 26.03.2020
536 Rain 12 1011 82 9000 1.5 0 16:39 26.03.2020
537 Rain 12 1011 82 9000 1.5 0 16:21 26.03.2020
538 Rain 12 1010 87 7000 2.6 330 15:56 26.03.2020
539 Rain 12 1011 87 7000 2.6 320 15:38 26.03.2020
540 Rain 12 1011 76 8000 2.6 340 15:20 26.03.2020
541 Drizzle 12 1010 76 10000 4.1 20 14:44 26.03.2020
542 Drizzle 12 1010 76 10000 4.1 20 14:26 26.03.2020
543 Drizzle 12 1010 76 10000 5.1 20 13:59 26.03.2020
544 Rain 12 1011 84 0 2.68 16 13:40 26.03.2020
545 Clouds 12 1010 71 10000 5.7 20 13:21 26.03.2020
546 Clouds 12 1011 76 10000 5.1 20 12:54 26.03.2020
547 Rain 12 1011 76 10000 3.6 30 12:36 26.03.2020
548 Rain 12 1011 87 9000 1.5 0 12:18 26.03.2020
549 Rain 12 1011 87 7000 1.5 0 11:43 26.03.2020
550 Rain 12 1011 82 7000 1.5 0 11:19 26.03.2020
551 Drizzle 12 1011 87 10000 1.5 0 10:42 26.03.2020
552 Drizzle 12 1011 87 10000 1.5 0 10:42 26.03.2020
553 Drizzle 12 1011 76 10000 2.1 340 10:20 26.03.2020
554 Drizzle 12 1011 76 10000 2.1 340 09:59 26.03.2020
555 Rain 12 1011 81 10000 1.5 0 09:41 26.03.2020
556 Rain 12 1011 93 10000 1.5 0 09:19 26.03.2020
557 Rain 11 1011 93 9000 1.5 0 08:44 26.03.2020
558 Rain 11 1011 93 9000 1.5 0 08:26 26.03.2020
559 Rain 11 1011 93 9000 1.5 0 07:57 26.03.2020
560 Rain 11 1011 93 9000 1.5 0 07:57 26.03.2020
561 Rain 11 1011 93 9000 1.5 0 07:38 26.03.2020
562 Drizzle 11 1010 87 10000 1.5 0 07:19 26.03.2020
563 Drizzle 11 1010 87 10000 1.5 0 06:35 26.03.2020
564 Clouds 11 1010 100 10000 1.5 0 05:51 26.03.2020
565 Rain 10 1011 93 8000 5.13 11 03:47 26.03.2020
566 Rain 10 1011 93 8000 5.13 11 03:26 26.03.2020
567 Rain 10 1012 93 8000 5.13 11 02:52 26.03.2020
568 Rain 10 1012 93 8000 1.5 0 01:19 26.03.2020
569 Rain 10 1013 93 8000 7.48 10 00:33 26.03.2020
570 Rain 10 1013 87 10000 1.5 0 23:44 25.03.2020
571 Rain 10 1014 81 10000 1.5 0 23:26 25.03.2020
572 Rain 10 1014 81 10000 1.5 0 22:56 25.03.2020
573 Clouds 11 1014 71 10000 2.6 300 22:38 25.03.2020
574 Clouds 11 1014 71 10000 2.6 300 22:19 25.03.2020
575 Clouds 11 1014 71 10000 2.1 30 22:19 25.03.2020
576 Clouds 11 1014 71 10000 2.1 30 21:54 25.03.2020
577 Clouds 11 1013 71 10000 2.6 30 21:36 25.03.2020
578 Clouds 11 1013 71 10000 1.5 0 21:18 25.03.2020
579 Clouds 11 1014 66 10000 2.6 300 20:39 25.03.2020
580 Clouds 11 1014 66 10000 2.6 300 20:20 25.03.2020
581 Clouds 11 1013 71 10000 2.6 250 19:57 25.03.2020
582 Clouds 11 1014 71 10000 2.6 270 19:38 25.03.2020
583 Clouds 11 1015 66 10000 3.1 300 19:20 25.03.2020
584 Clouds 11 1015 66 10000 3.1 300 18:54 25.03.2020
585 Clouds 11 1015 66 10000 2.6 300 18:36 25.03.2020
586 Clouds 11 1014 66 10000 3.6 330 18:18 25.03.2020
587 Clouds 11 1015 66 10000 3.1 350 17:41 25.03.2020
588 Clouds 11 1015 66 10000 4.1 350 17:22 25.03.2020
589 Clouds 11 1015 66 10000 4.1 350 16:59 25.03.2020
590 Rain 11 1014 66 10000 5.1 340 16:39 25.03.2020
591 Rain 11 1015 75 0 4.02 29 16:21 25.03.2020
592 Rain 11 1015 75 0 4.02 29 16:21 25.03.2020
593 Rain 11 1015 62 10000 4.6 330 15:44 25.03.2020
594 Rain 12 1015 62 10000 6.2 330 15:21 25.03.2020
595 Rain 12 1015 62 10000 6.2 330 14:59 25.03.2020
596 Rain 12 1015 62 10000 6.2 330 14:59 25.03.2020
597 Rain 12 1015 62 10000 5.1 330 14:40 25.03.2020
598 Rain 12 1015 58 10000 5.7 10 14:20 25.03.2020
599 Rain 12 1016 58 10000 6.7 350 13:46 25.03.2020
600 Rain 12 1016 58 10000 6.7 350 13:25 25.03.2020
601 Rain 12 1018 68 0 3.58 14 12:55 25.03.2020
602 Rain 12 1016 58 10000 5.1 360 12:37 25.03.2020
603 Rain 12 1017 54 10000 6.2 360 12:18 25.03.2020
604 Rain 13 1017 58 10000 3.6 350 11:41 25.03.2020
605 Rain 13 1017 54 10000 4.1 10 11:21 25.03.2020
606 Clouds 13 1017 54 10000 4.1 10 10:59 25.03.2020
607 Clouds 13 1016 58 10000 7.2 10 10:40 25.03.2020
608 Clouds 13 1018 65 0 5.81 12 10:19 25.03.2020
609 Clouds 13 1018 65 0 5.81 12 10:19 25.03.2020
610 Clouds 12 1017 65 0 5.36 11 09:59 25.03.2020
611 Clouds 13 1016 58 10000 6.7 30 09:40 25.03.2020
612 Clouds 13 1016 58 10000 6.7 30 09:21 25.03.2020
613 Clouds 13 1016 58 10000 3.6 30 08:43 25.03.2020
614 Clouds 12 1016 58 10000 3.6 30 08:25 25.03.2020
615 Rain 11 1018 72 0 3.13 19 07:59 25.03.2020
616 Clouds 11 1016 62 10000 1.5 0 07:39 25.03.2020
617 Clouds 11 1016 76 10000 1.5 0 07:19 25.03.2020
618 Clouds 11 1015 76 10000 1.5 0 06:45 25.03.2020
619 Clouds 10 1015 76 10000 1.5 0 06:25 25.03.2020
620 Clouds 10 1015 87 10000 1.5 0 05:50 25.03.2020
621 Clear 10 1016 79 0 3.58 22 04:59 25.03.2020
622 Clouds 10 1015 81 10000 1.5 0 04:36 25.03.2020
623 Clouds 10 1015 81 10000 2.1 300 03:34 25.03.2020
624 Clouds 10 1015 76 10000 2.6 330 01:55 25.03.2020
625 Clouds 10 1015 71 10000 2.1 310 01:20 25.03.2020
626 Clouds 10 1015 71 10000 2.6 320 00:43 25.03.2020
627 Clouds 11 1015 71 10000 2.1 320 00:19 25.03.2020
628 Clouds 11 1015 71 10000 2.1 320 23:42 24.03.2020
629 Clouds 11 1015 66 10000 3.6 330 23:22 24.03.2020
630 Clouds 11 1015 66 10000 3.6 330 22:55 24.03.2020
631 Clouds 11 1015 76 10000 2.6 330 22:37 24.03.2020
632 Clouds 11 1015 76 10000 2.6 330 22:37 24.03.2020
633 Clouds 11 1015 76 10000 2.6 330 22:37 24.03.2020
634 Clouds 11 1015 76 10000 2.6 330 22:19 24.03.2020
635 Clouds 11 1015 76 10000 3.6 340 21:55 24.03.2020
636 Clouds 11 1015 76 10000 4.1 330 21:36 24.03.2020
637 Clouds 12 1015 71 10000 3.1 320 21:18 24.03.2020
638 Clouds 12 1014 71 10000 2.6 320 20:42 24.03.2020
639 Clouds 12 1014 71 10000 2.6 320 20:23 24.03.2020
640 Clouds 12 1014 71 10000 2.1 320 19:56 24.03.2020
641 Clouds 12 1014 71 10000 2.1 320 19:56 24.03.2020
642 Clouds 13 1014 76 10000 3.1 320 19:38 24.03.2020
643 Clouds 13 1014 71 10000 1.5 0 19:18 24.03.2020
644 Clouds 13 1014 71 10000 1.5 0 18:55 24.03.2020
645 Clouds 13 1013 62 10000 1.5 0 18:36 24.03.2020
646 Clouds 14 1013 58 10000 2.6 320 18:18 24.03.2020
647 Clouds 14 1013 58 10000 3.1 330 17:41 24.03.2020
648 Rain 14 1014 55 0 1.34 273 17:22 24.03.2020
649 Clouds 14 1014 67 10000 3.1 40 16:58 24.03.2020
650 Clouds 15 1014 67 10000 3.1 60 16:39 24.03.2020
651 Clouds 15 1014 67 10000 3.1 60 16:21 24.03.2020
652 Clouds 15 1014 67 10000 4.1 60 16:20 24.03.2020
653 -273 0 0 0 0 0 16:20 24.03.2020
654 Clouds 15 1014 67 10000 4.1 60 15:55 24.03.2020
655 Clouds 16 1012 51 10000 3.1 340 15:37 24.03.2020
656 Clouds 16 1012 51 10000 3.6 350 15:19 24.03.2020
657 Clouds 16 1012 51 10000 3.1 360 14:42 24.03.2020
658 Clouds 16 1012 55 10000 3.6 330 14:19 24.03.2020
659 Clouds 16 1012 51 10000 3.1 340 13:42 24.03.2020
660 Clouds 16 1012 51 10000 3.6 360 13:24 24.03.2020
661 Clouds 16 1012 51 10000 3.6 360 12:55 24.03.2020
662 Clouds 15 1012 55 10000 3.1 360 12:37 24.03.2020
663 Clouds 16 1012 59 10000 3.6 330 12:18 24.03.2020
664 Clouds 15 1013 59 10000 3.6 340 11:39 24.03.2020
665 Clouds 14 1013 59 10000 4.1 350 11:20 24.03.2020
666 Clouds 14 1013 62 10000 3.6 350 10:43 24.03.2020
667 Clouds 13 1014 72 10000 1 0 10:20 24.03.2020
668 Rain 14 1014 72 10000 1 0 09:59 24.03.2020
669 Clouds 13 1013 67 10000 5.1 350 09:40 24.03.2020
670 Clouds 13 1013 67 10000 5.1 350 09:22 24.03.2020
671 Rain 13 1013 66 10000 6.2 330 08:39 24.03.2020
672 Clouds 12 1013 66 10000 6.2 330 08:20 24.03.2020
673 Clouds 12 1012 71 10000 3.6 320 07:48 24.03.2020
674 Clouds 11 1012 71 10000 3.6 320 07:25 24.03.2020
675 Clouds 11 1012 71 10000 4.1 340 06:58 24.03.2020
676 Clouds 11 1012 81 10000 4.1 330 06:31 24.03.2020
677 Clouds 10 1011 76 10000 3.6 320 05:22 24.03.2020
678 Clouds 11 1011 76 10000 3.1 320 04:27 24.03.2020
679 Rain 10 1011 81 10000 3.1 320 03:18 24.03.2020
680 Clouds 11 1011 81 10000 3.1 320 01:49 24.03.2020
681 Clouds 11 1011 81 10000 3.6 330 00:49 24.03.2020
682 Clouds 11 1011 81 10000 3.6 330 00:26 24.03.2020
683 Clouds 11 1012 87 10000 4.1 320 23:46 23.03.2020
684 Clouds 11 1011 81 10000 3.6 330 23:26 23.03.2020
685 Clouds 11 1011 81 10000 3.6 330 22:56 23.03.2020
686 Clouds 11 1012 87 10000 3.6 340 22:37 23.03.2020
687 Clouds 11 1012 81 10000 2.6 330 22:19 23.03.2020
688 Rain 11 1012 81 10000 3.35 3 21:44 23.03.2020
689 Rain 11 1012 93 10000 3.35 3 21:21 23.03.2020
690 Rain 11 1012 93 10000 3.35 3 20:58 23.03.2020
691 Rain 12 1011 87 10000 3.35 3 20:40 23.03.2020
692 Rain 11 1011 87 10000 2.94 26 20:22 23.03.2020
693 Rain 12 1011 81 7000 3.1 330 19:54 23.03.2020
694 Rain 12 1012 87 7000 2.6 330 19:36 23.03.2020
695 Rain 12 1011 87 6000 3.6 310 19:18 23.03.2020
696 Drizzle 12 1011 87 10000 2.94 26 18:42 23.03.2020
697 Drizzle 13 1011 82 10000 2.94 26 18:23 23.03.2020
698 Drizzle 13 1011 82 10000 2.94 26 17:56 23.03.2020
699 Drizzle 13 1011 82 10000 2.94 26 17:56 23.03.2020
700 Rain 13 1010 82 10000 2.94 26 17:38 23.03.2020
701 Rain 13 1010 77 10000 2.29 162 17:18 23.03.2020
702 Rain 14 1010 77 10000 2.29 162 16:43 23.03.2020
703 Rain 14 1010 77 10000 2.29 162 16:25 23.03.2020
704 Rain 14 1010 82 8000 2.29 162 15:43 23.03.2020
705 Rain 14 1010 77 8000 2.29 162 15:21 23.03.2020
706 Rain 14 1010 77 8000 2.29 162 14:57 23.03.2020
707 Rain 14 1010 77 8000 2.29 162 14:37 23.03.2020
708 Rain 14 1010 82 8000 3.53 171 14:18 23.03.2020
709 Rain 14 1010 82 8000 3.53 171 14:18 23.03.2020
710 Rain 15 1010 72 8000 3.53 171 13:41 23.03.2020
711 Rain 15 1010 72 8000 3.53 171 13:41 23.03.2020
712 Rain 15 1011 59 10000 3.53 171 13:22 23.03.2020
713 Rain 15 1011 59 10000 3.67 176 12:58 23.03.2020
714 Rain 15 1011 63 10000 3.67 176 12:40 23.03.2020
715 Clouds 15 1011 67 10000 3.67 176 12:22 23.03.2020
716 Clouds 15 1011 72 10000 3.67 176 11:42 23.03.2020
717 Clouds 16 1011 72 10000 2.12 196 11:22 23.03.2020
718 Clouds 15 1011 72 10000 2.12 196 10:58 23.03.2020
719 Clouds 15 1011 77 9000 2.12 196 10:40 23.03.2020
720 Clouds 15 1011 77 9000 2.12 196 10:40 23.03.2020
721 Rain 15 1012 82 9000 2.12 196 10:22 23.03.2020
722 Rain 15 1012 82 9000 2.12 196 09:58 23.03.2020
723 Rain 14 1012 87 8000 2.12 196 09:40 23.03.2020
724 Rain 14 1012 87 8000 2.12 196 09:19 23.03.2020
725 Rain 14 1012 100 7000 2.12 196 08:38 23.03.2020
726 Rain 14 1012 100 7000 1.35 64 08:19 23.03.2020
727 Rain 13 1011 93 7000 1.35 64 07:51 23.03.2020
728 Rain 13 1011 93 7000 1.35 64 07:32 23.03.2020
729 Rain 13 1011 100 10000 1.35 64 06:55 23.03.2020
730 Rain 12 1011 100 8000 1.35 64 06:32 23.03.2020
731 Rain 12 1011 93 10000 1.35 64 05:43 23.03.2020
732 Rain 12 1011 100 10000 2.08 35 03:54 23.03.2020
733 Clouds 13 1011 93 10000 2.08 35 02:43 23.03.2020
734 Clouds 13 1012 87 10000 1.66 174 01:42 23.03.2020
735 Clouds 13 1012 87 10000 0.5 110 00:46 23.03.2020
736 Clouds 13 1012 87 10000 0.5 110 00:26 23.03.2020
737 Clouds 13 1012 87 10000 0.5 110 23:42 22.03.2020
738 Clouds 13 1012 82 10000 0.5 110 23:24 22.03.2020
739 Clouds 13 1012 87 10000 1.93 130 22:41 22.03.2020
740 Clouds 13 1012 87 10000 1.93 130 22:20 22.03.2020
741 Clouds 13 1012 87 10000 1.93 130 21:41 22.03.2020
742 Clouds 13 1012 87 10000 1.93 130 21:23 22.03.2020
743 Clouds 13 1014 82 10000 1 320 20:58 22.03.2020
744 Clouds 13 1012 87 10000 1.93 130 20:40 22.03.2020
745 Clouds 13 1012 87 10000 3.48 146 20:22 22.03.2020
746 Clouds 14 1012 87 10000 3.48 146 19:56 22.03.2020
747 Clouds 14 1012 82 10000 3.48 146 19:38 22.03.2020
748 Clouds 14 1012 82 10000 3.48 146 19:19 22.03.2020
749 Clouds 14 1012 82 10000 3.48 146 18:57 22.03.2020
750 Clouds 14 1012 82 10000 1.5 0 18:39 22.03.2020
751 Clouds 14 1012 77 10000 3.6 170 18:19 22.03.2020
752 Clouds 14 1012 77 10000 3.6 170 17:56 22.03.2020
753 Clouds 15 1011 72 10000 1.5 0 17:37 22.03.2020
754 Clouds 15 1011 72 10000 1.5 0 17:19 22.03.2020
755 Clouds 15 1011 72 10000 1.5 0 16:57 22.03.2020
756 Clouds 15 1011 67 10000 1.5 0 16:39 22.03.2020
757 Clouds 15 1011 67 10000 1.5 0 16:20 22.03.2020
758 Drizzle 16 1012 67 10000 2.6 190 15:40 22.03.2020
759 Drizzle 16 1012 67 10000 2.6 190 15:19 22.03.2020
760 Clouds 16 1012 67 10000 2.1 180 14:46 22.03.2020
761 Clouds 16 1012 72 10000 2.6 160 14:18 22.03.2020
762 Clouds 16 1012 72 10000 3.6 160 13:43 22.03.2020
763 Clouds 16 1012 72 9000 4.6 160 13:20 22.03.2020
764 Clouds 16 1012 72 9000 4.6 160 12:57 22.03.2020
765 Clouds 16 1013 67 9000 4.1 160 12:38 22.03.2020
766 Clouds 16 1013 67 9000 4.6 170 12:18 22.03.2020
767 Clouds 16 1013 67 9000 1.5 0 11:43 22.03.2020
768 Clouds 16 1013 67 9000 1.5 0 11:25 22.03.2020
769 Clouds 16 1013 72 9000 1.5 0 10:58 22.03.2020
770 Clouds 16 1013 72 9000 1.5 0 10:39 22.03.2020
771 Clouds 16 1013 72 9000 1.5 0 10:21 22.03.2020
772 Clouds 16 1013 67 9000 4.29 157 09:45 22.03.2020
773 Clouds 15 1013 67 9000 4.29 157 09:27 22.03.2020
774 Clouds 15 1013 62 10000 1.5 0 08:48 22.03.2020
775 Clouds 15 1013 62 10000 1.5 0 08:30 22.03.2020
776 Clouds 14 1013 71 10000 1.5 0 07:54 22.03.2020
777 Clouds 13 1013 76 10000 1.5 0 07:36 22.03.2020
778 Clouds 12 1013 76 10000 1.5 0 06:41 22.03.2020
779 Clouds 11 1013 81 10000 1.5 0 05:47 22.03.2020
780 Clouds 11 1013 76 10000 1.5 0 04:39 22.03.2020
781 Clouds 12 1013 71 10000 1.5 0 01:47 22.03.2020
782 Clouds 12 1014 76 10000 1.5 0 00:50 22.03.2020
783 Clouds 12 1014 76 10000 1.5 0 00:31 22.03.2020
784 Clouds 12 1014 71 10000 1.5 0 23:46 21.03.2020
785 Clouds 12 1014 71 10000 1.5 0 23:22 21.03.2020
786 Clouds 12 1014 71 10000 1.5 0 22:59 21.03.2020
787 Clouds 12 1014 76 10000 1.5 0 22:38 21.03.2020
788 Clouds 12 1014 76 10000 1.5 0 22:19 21.03.2020
789 Clouds 13 1014 71 10000 2.57 139 21:58 21.03.2020
790 Clouds 13 1014 76 10000 2.57 139 21:38 21.03.2020
791 Clouds 13 1015 71 10000 2.57 139 21:19 21.03.2020
792 Clouds 13 1015 71 10000 1.5 0 20:42 21.03.2020
793 Clear 14 1014 71 10000 3.09 171 20:22 21.03.2020
794 Clear 14 1014 71 10000 2.96 169 19:55 21.03.2020
795 Clear 14 1014 67 10000 2.96 169 19:37 21.03.2020
796 Clear 14 1014 62 10000 2.96 169 19:18 21.03.2020
797 Clear 15 1014 62 10000 2.96 169 18:41 21.03.2020
798 Clear 15 1014 59 10000 1.5 0 18:21 21.03.2020
799 Clear 16 1014 59 10000 1.5 0 17:59 21.03.2020
800 Clear 16 1014 48 10000 1.5 0 17:41 21.03.2020
801 Clear 17 1014 52 10000 1.5 0 17:22 21.03.2020
802 Clear 18 1014 55 10000 1.5 0 16:42 21.03.2020
803 Clear 19 1014 55 10000 1.5 0 16:24 21.03.2020
804 Clear 19 1014 55 10000 1.5 0 16:24 21.03.2020
805 Clear 19 1014 48 10000 2.6 170 15:59 21.03.2020
806 Clouds 19 1014 37 10000 3.1 190 15:40 21.03.2020
807 Clouds 19 1014 37 10000 3.1 190 15:22 21.03.2020
808 Clouds 20 1014 32 10000 2.6 200 14:57 21.03.2020
809 Clouds 20 1014 32 10000 2.6 200 14:38 21.03.2020
810 Clouds 20 1014 32 10000 2.6 200 14:38 21.03.2020
811 Clouds 20 1014 32 10000 3.1 210 14:20 21.03.2020
812 Clouds 20 1014 32 10000 3.1 210 13:58 21.03.2020
813 Clouds 20 1015 32 10000 3.1 210 13:39 21.03.2020
814 Clouds 19 1015 32 10000 3.1 210 13:21 21.03.2020
815 Clear 20 1015 32 10000 3.1 220 12:57 21.03.2020
816 Clear 19 1015 35 10000 3.1 220 12:37 21.03.2020
817 Clear 20 1016 32 10000 2.6 220 12:19 21.03.2020
818 Clear 20 1016 32 10000 2.6 210 11:55 21.03.2020
819 Clear 20 1016 32 10000 2.6 210 11:37 21.03.2020
820 Clear 19 1016 35 10000 1.5 0 11:18 21.03.2020
821 Clear 19 1016 35 10000 1.5 0 10:56 21.03.2020
822 Clear 19 1017 37 10000 1.5 0 10:38 21.03.2020
823 Clear 18 1017 37 10000 1.5 0 10:18 21.03.2020
824 Clear 17 1017 36 10000 1.5 0 09:40 21.03.2020
825 Clear 17 1017 36 10000 1.5 0 09:21 21.03.2020
826 Clear 17 1017 39 10000 1.5 0 08:58 21.03.2020
827 Clear 17 1017 48 10000 0.58 235 08:39 21.03.2020
828 Clear 15 1017 48 10000 2.58 13 08:21 21.03.2020
829 Clear 14 1018 62 10000 2.67 16 07:40 21.03.2020
830 Clear 13 1018 62 10000 2.67 16 07:21 21.03.2020
831 Clear 11 1017 61 10000 1.5 0 06:45 21.03.2020
832 Clear 11 1018 70 10000 2.67 16 06:26 21.03.2020
833 Clear 9 1018 61 10000 1.5 320 05:41 21.03.2020
834 Clear 10 1017 65 10000 2.86 2 04:42 21.03.2020
835 Clear 10 1018 61 10000 2.86 2 02:40 21.03.2020
836 Clear 10 1018 65 10000 2.76 349 02:18 21.03.2020
837 Clear 10 1019 61 10000 2.84 352 01:31 21.03.2020
838 Clear 11 1019 57 10000 2.84 352 00:47 21.03.2020
839 Clear 11 1019 57 10000 2.84 352 00:25 21.03.2020
840 Clear 11 1019 57 10000 2.84 352 23:48 20.03.2020
841 Clear 12 1019 50 10000 3.01 355 23:24 20.03.2020
842 Clear 12 1019 50 10000 3.01 355 22:56 20.03.2020
843 Clear 11 1020 57 10000 3.01 355 22:37 20.03.2020
844 Clear 12 1020 53 10000 3.01 355 22:19 20.03.2020
845 Clear 12 1020 53 10000 3.01 355 21:54 20.03.2020
846 Clear 12 1020 61 10000 3.01 355 21:36 20.03.2020
847 Clear 13 1019 50 10000 3.01 355 21:18 20.03.2020
848 Clear 13 1019 47 10000 3.01 355 20:42 20.03.2020
849 Clear 13 1019 38 10000 1.5 320 20:21 20.03.2020
850 Clear 13 1019 38 10000 1.5 320 19:59 20.03.2020
851 Clear 14 1019 38 10000 1.5 360 19:40 20.03.2020
852 Clear 14 1019 44 10000 1.5 350 19:18 20.03.2020
853 Clear 14 1019 44 10000 1.5 350 18:54 20.03.2020
854 Clear 14 1019 41 10000 2.1 360 18:36 20.03.2020
855 Clouds 15 1019 36 10000 2.6 350 18:18 20.03.2020
856 Clouds 15 1019 36 10000 3.6 360 17:39 20.03.2020
857 Clouds 16 1019 34 10000 3.1 350 17:21 20.03.2020
858 Clouds 16 1019 34 10000 3.1 350 16:57 20.03.2020
859 Clouds 17 1019 32 10000 4.1 10 16:39 20.03.2020
860 Clouds 17 1019 29 10000 5.7 350 16:18 20.03.2020
861 Clouds 17 1019 32 10000 5.1 10 15:42 20.03.2020
862 Clouds 17 1019 29 10000 5.7 340 15:21 20.03.2020
863 Clouds 17 1019 29 10000 5.7 340 14:54 20.03.2020
864 Clouds 17 1019 32 10000 5.1 350 14:36 20.03.2020
865 Clouds 18 1020 36 10000 11.3 40 14:18 20.03.2020
866 Clouds 18 1019 29 10000 5.7 340 13:40 20.03.2020
867 Clouds 17 1021 39 10000 8.7 10 13:19 20.03.2020
868 Clouds 17 1020 29 10000 5.1 340 12:39 20.03.2020
869 Clouds 17 1020 32 10000 5.1 360 12:20 20.03.2020
870 Clouds 17 1020 32 10000 5.1 360 12:20 20.03.2020
871 Clouds 17 1020 32 10000 5.1 360 12:20 20.03.2020
872 Clouds 17 1020 32 10000 5.1 360 11:57 20.03.2020
873 Clouds 17 1020 32 10000 5.7 350 11:38 20.03.2020
874 Clouds 16 1021 38 10000 8.7 20 11:18 20.03.2020
875 Clouds 16 1020 31 10000 3.6 350 10:41 20.03.2020
876 Clouds 16 1021 39 10000 5.7 330 10:21 20.03.2020
877 Clouds 16 1021 39 10000 5.7 330 09:56 20.03.2020
878 Clear 16 1021 33 10000 3.6 340 09:37 20.03.2020
879 Clear 16 1021 33 10000 3.1 350 09:18 20.03.2020
880 Clear 15 1021 36 10000 2.6 350 08:42 20.03.2020
881 Clear 12 1021 41 10000 1.5 0 08:22 20.03.2020
882 Clear 11 1021 43 10000 3.67 348 07:48 20.03.2020
883 Clear 11 1021 43 10000 3.67 348 07:30 20.03.2020
884 Clear 10 1021 57 10000 1.5 0 06:58 20.03.2020
885 Clear 8 1021 50 10000 3.67 348 06:40 20.03.2020
886 Clouds 6 1020 60 10000 2.73 344 04:51 20.03.2020
887 Clouds 7 1020 48 10000 2.73 344 03:21 20.03.2020
888 Clouds 6 1021 41 10000 1.55 359 01:57 20.03.2020
889 Clouds 7 1022 44 10000 1.83 352 00:59 20.03.2020
890 Clouds 7 1022 44 10000 1.83 352 00:30 20.03.2020
891 Clouds 7 1022 48 10000 1.83 352 23:47 19.03.2020
892 Clouds 7 1022 48 10000 1.83 352 23:28 19.03.2020
893 Clouds 7 1023 60 10000 1.45 23 22:57 19.03.2020
894 Clouds 7 1023 60 10000 1.45 23 22:38 19.03.2020
895 Clouds 8 1023 56 10000 1.45 23 22:19 19.03.2020
896 Clouds 8 1023 56 10000 1.45 23 21:42 19.03.2020
897 Clouds 9 1023 52 10000 1.45 23 21:20 19.03.2020
898 Clouds 9 1023 52 10000 1.45 23 20:59 19.03.2020
899 Clouds 9 1023 49 10000 1.45 23 20:41 19.03.2020
900 Clouds 9 1023 49 10000 2.73 3 20:22 19.03.2020
901 Clouds 10 1023 42 10000 2.73 3 19:55 19.03.2020
902 Clouds 10 1023 39 10000 2.73 3 19:37 19.03.2020
903 Clouds 10 1022 28 10000 2.73 3 19:19 19.03.2020
904 Clouds 11 1022 28 10000 3.1 360 18:55 19.03.2020
905 Clouds 11 1022 28 10000 3.1 360 18:37 19.03.2020
906 Clouds 11 1022 28 10000 3.1 360 18:37 19.03.2020
907 Clouds 11 1022 26 10000 4.1 360 18:19 19.03.2020
908 Clouds 12 1022 24 10000 4.1 360 17:41 19.03.2020
909 Clouds 13 1022 26 10000 6.2 340 17:19 19.03.2020
910 Clouds 14 1024 37 10000 7.2 50 16:44 19.03.2020
911 Clouds 14 1024 37 10000 7.2 50 16:24 19.03.2020
912 Clouds 14 1022 30 10000 4.1 330 15:54 19.03.2020
913 Clouds 14 1022 30 10000 4.1 340 15:36 19.03.2020
914 Clouds 14 1023 33 10000 5.1 340 15:18 19.03.2020
915 Clouds 14 1024 38 10000 10.3 50 14:42 19.03.2020
916 Clouds 14 1023 36 10000 5.1 360 14:20 19.03.2020
917 Clouds 14 1024 35 10000 8.2 30 13:41 19.03.2020
918 Clouds 14 1024 36 10000 5.1 360 13:19 19.03.2020
919 Clouds 14 1024 36 10000 5.1 360 12:57 19.03.2020
920 Clouds 14 1024 33 10000 6.2 340 12:39 19.03.2020
921 Clouds 14 1024 41 10000 6.2 340 12:21 19.03.2020
922 Clouds 13 1024 41 10000 6.2 360 11:42 19.03.2020
923 Clouds 13 1024 41 10000 6.2 350 11:24 19.03.2020
924 Clouds 13 1025 43 10000 6.2 360 10:57 19.03.2020
925 Clouds 13 1025 43 10000 6.2 360 10:38 19.03.2020
926 Clouds 12 1025 41 10000 5.1 350 10:19 19.03.2020
927 Clouds 12 1026 43 10000 5.1 360 09:45 19.03.2020
928 Clouds 12 1026 43 10000 5.1 360 09:27 19.03.2020
929 Clouds 11 1026 47 10000 5.1 360 08:59 19.03.2020
930 Clouds 11 1026 50 10000 6.2 360 08:41 19.03.2020
931 Clouds 10 1026 53 10000 5.1 340 08:19 19.03.2020
932 Clouds 10 1026 53 10000 6.17 11 07:44 19.03.2020
933 Clouds 10 1026 53 10000 6.17 11 07:25 19.03.2020
934 Clouds 8 1025 70 10000 6.17 11 06:35 19.03.2020
935 Clouds 8 1025 70 10000 1.5 0 05:48 19.03.2020
936 Clouds 8 1025 75 10000 1.5 0 04:57 19.03.2020
937 Clouds 8 1025 65 10000 1.5 0 04:39 19.03.2020
938 Clouds 9 1025 70 10000 1.5 0 02:49 19.03.2020
939 Clouds 9 1025 65 10000 1.5 0 01:21 19.03.2020
940 Clouds 9 1025 70 10000 1.5 0 00:28 19.03.2020
941 Clouds 9 1026 61 10000 1.5 0 23:48 18.03.2020
942 Clouds 9 1026 61 10000 1.5 0 23:30 18.03.2020
943 Clouds 9 1025 53 10000 1.5 0 22:56 18.03.2020
944 Clouds 9 1025 53 10000 1.5 0 22:38 18.03.2020
945 Clouds 9 1025 57 10000 2.1 360 22:20 18.03.2020
946 Clouds 9 1025 53 10000 3.1 10 21:42 18.03.2020
947 Clouds 9 1025 53 10000 3.1 10 21:21 18.03.2020
948 Clouds 9 1025 53 10000 2.1 330 20:59 18.03.2020
949 Clouds 10 1025 53 10000 1.5 0 20:40 18.03.2020
950 Clouds 10 1025 53 10000 1.5 0 20:40 18.03.2020
951 Clouds 10 1025 50 10000 2.1 340 20:20 18.03.2020
952 Clouds 10 1025 50 10000 2.1 340 19:58 18.03.2020
953 Clouds 10 1024 50 10000 2.6 10 19:39 18.03.2020
954 Clouds 10 1024 53 10000 1.5 0 19:20 18.03.2020
955 Clouds 10 1024 50 10000 1.5 0 18:41 18.03.2020
956 Clouds 11 1024 54 10000 2.6 360 18:21 18.03.2020
957 Clouds 11 1024 53 10000 8.7 20 17:59 18.03.2020
958 Clouds 12 1023 47 10000 3.6 10 17:41 18.03.2020
959 Clouds 12 1024 54 10000 11.3 40 17:22 18.03.2020
960 Clouds 13 1022 41 10000 4.6 20 16:58 18.03.2020
961 Clouds 13 1024 54 10000 8.7 60 16:40 18.03.2020
962 Clouds 14 1022 44 10000 5.1 30 16:20 18.03.2020
963 Clouds 14 1022 44 10000 5.1 30 16:20 18.03.2020
964 Clouds 14 1021 39 10000 4.6 350 15:45 18.03.2020
965 Clouds 14 1023 50 10000 9.3 60 15:23 18.03.2020
966 Clouds 14 1021 42 10000 3.6 350 14:57 18.03.2020
967 Clouds 15 1023 54 10000 8.7 70 14:39 18.03.2020
968 Clouds 15 1023 54 10000 9.8 60 14:20 18.03.2020
969 Clouds 15 1023 50 10000 9.3 30 13:39 18.03.2020
970 Clouds 15 1023 51 10000 8.2 30 13:19 18.03.2020
971 Clouds 15 1023 51 10000 8.2 30 13:19 18.03.2020
972 Clouds 16 1021 31 10000 4.6 330 12:42 18.03.2020
973 Clouds 16 1022 33 10000 5.1 330 12:20 18.03.2020
974 Clear 16 1022 40 10000 5.1 330 11:57 18.03.2020
975 Clear 16 1022 40 10000 5.1 330 11:37 18.03.2020
976 Clear 15 1024 54 10000 7.7 40 11:18 18.03.2020
977 Clear 14 1024 50 10000 7.2 30 10:54 18.03.2020
978 Clear 14 1024 50 10000 7.2 30 10:36 18.03.2020
979 Clear 15 1022 38 10000 1.53 48 10:18 18.03.2020
980 Clear 14 1022 44 10000 1.53 48 09:41 18.03.2020
981 Clear 13 1023 41 10000 1.53 48 09:22 18.03.2020
982 Clear 13 1023 43 10000 1.53 48 08:40 18.03.2020
983 Clear 11 1023 43 10000 2.51 1 08:21 18.03.2020
984 Clear 9 1023 46 10000 2.42 7 07:49 18.03.2020
985 Clear 10 1023 46 10000 2.42 7 07:31 18.03.2020
986 Clear 8 1022 46 10000 2.42 7 06:55 18.03.2020
987 Clear 7 1022 46 10000 2.42 7 06:37 18.03.2020
988 Clear 6 1023 69 10000 1.5 0 05:37 18.03.2020
989 Clear 6 1023 69 10000 2.51 359 04:38 18.03.2020
990 Clear 6 1023 69 10000 2.51 359 03:21 18.03.2020
991 Clear 6 1021 65 10000 2.51 359 02:36 18.03.2020
992 Clear 6 1024 65 10000 1.5 0 01:42 18.03.2020
993 Clear 6 1026 74 10000 1 0 00:43 18.03.2020
994 Clear 7 1024 52 10000 1.5 0 00:21 18.03.2020
995 Clear 7 1024 49 10000 1.5 0 23:42 17.03.2020
996 Clear 7 1025 56 10000 1.5 0 23:20 17.03.2020
997 Clear 7 1025 45 10000 1.5 0 22:45 17.03.2020
998 Clear 8 1025 45 10000 1.5 0 22:26 17.03.2020
999 Clear 8 1025 49 10000 1.5 0 21:44 17.03.2020
1000 Clear 8 1025 49 10000 1.5 0 21:25 17.03.2020
1001 Clear 9 1025 45 10000 1.5 0 20:58 17.03.2020
1002 Clear 9 1025 46 10000 1.5 0 20:38 17.03.2020
1003 Clear 9 1025 46 10000 1.5 0 20:38 17.03.2020
1004 Clear 9 1025 46 10000 1.5 0 20:19 17.03.2020
1005 Clear 10 1025 44 10000 1.5 0 19:42 17.03.2020
1006 Clear 10 1025 53 10000 1.5 0 19:20 17.03.2020
1007 Clear 10 1025 53 10000 1.5 0 18:58 17.03.2020
1008 Clear 10 1025 44 10000 1.5 0 18:40 17.03.2020
1009 Clear 11 1025 44 10000 2.6 350 18:21 17.03.2020
1010 Clear 11 1025 35 10000 3.1 350 17:56 17.03.2020
1011 Clear 11 1025 35 10000 3.1 350 17:38 17.03.2020
1012 Clear 12 1025 35 10000 3.1 360 17:19 17.03.2020
1013 Clear 13 1025 30 10000 3.6 350 16:42 17.03.2020
1014 Clear 13 1026 30 10000 4.1 330 16:19 17.03.2020
1015 Clear 13 1026 33 10000 4.6 350 15:47 17.03.2020
1016 Clear 13 1026 33 10000 4.6 350 15:23 17.03.2020
1017 Clear 14 1026 33 10000 5.1 350 14:49 17.03.2020
1018 Clear 14 1026 33 10000 5.1 350 14:30 17.03.2020
1019 Clouds 13 1026 33 10000 5.1 340 13:58 17.03.2020
1020 Clouds 13 1027 35 10000 6.2 340 13:40 17.03.2020
1021 Clouds 13 1027 37 10000 5.1 340 13:22 17.03.2020
1022 Clouds 13 1028 37 10000 5.1 330 12:47 17.03.2020
1023 Clouds 13 1028 41 10000 4.6 340 12:25 17.03.2020
1024 Clouds 13 1028 41 10000 4.6 340 11:57 17.03.2020
1025 Clouds 12 1028 44 10000 5.1 350 11:39 17.03.2020
1026 Clouds 12 1029 43 10000 5.1 340 11:20 17.03.2020
1027 Clouds 11 1029 46 10000 4.1 340 10:54 17.03.2020
1028 Clouds 11 1029 46 10000 4.1 340 10:36 17.03.2020
1029 Clouds 11 1029 46 10000 4.6 350 10:18 17.03.2020
1030 Clouds 11 1029 46 10000 3.6 350 09:45 17.03.2020
1031 Clouds 10 1030 46 10000 4.1 350 09:20 17.03.2020
1032 Clouds 10 1030 47 10000 4.1 350 08:57 17.03.2020
1033 Clouds 9 1030 50 10000 3.6 340 08:39 17.03.2020
1034 Clouds 8 1030 53 10000 2.6 340 08:18 17.03.2020
1035 Clouds 8 1030 57 10000 3.6 340 07:47 17.03.2020
1036 Clouds 8 1029 56 10000 3.6 340 07:20 17.03.2020
1037 Clouds 7 1029 56 10000 2.6 350 06:45 17.03.2020
1038 Clouds 7 1029 56 10000 5.1 330 06:25 17.03.2020
1039 Clouds 6 1028 57 10000 6.2 350 05:20 17.03.2020
1040 Clouds 7 1028 57 10000 5.1 340 03:31 17.03.2020
1041 Clouds 7 1028 58 10000 5.1 340 01:50 17.03.2020
1042 Clouds 7 1028 58 10000 5.1 340 01:31 17.03.2020
1043 Clouds 7 1028 59 10000 5.1 340 00:52 17.03.2020
1044 Clouds 7 1028 59 10000 6.2 350 00:18 17.03.2020
1045 Clouds 8 1029 61 10000 9.8 20 23:34 16.03.2020
1046 Clouds 8 1028 49 10000 5.1 360 22:58 16.03.2020
1047 Clouds 8 1029 61 10000 11.3 20 22:38 16.03.2020
1048 Clouds 8 1028 52 10000 5.1 340 22:19 16.03.2020
1049 Clouds 8 1028 49 10000 7.7 350 21:44 16.03.2020
1050 Clouds 8 1028 49 10000 7.7 350 21:25 16.03.2020
1051 Clouds 8 1028 49 10000 5.1 350 20:59 16.03.2020
1052 Clouds 8 1029 49 10000 7.7 350 20:39 16.03.2020
1053 Clouds 8 1028 49 10000 6.2 350 20:20 16.03.2020
1054 Clouds 8 1028 49 10000 6.2 350 19:46 16.03.2020
1055 Clouds 8 1028 49 10000 6.2 350 19:24 16.03.2020
1056 Clouds 8 1028 49 10000 6.2 350 18:59 16.03.2020
1057 Clouds 8 1028 49 10000 5.1 360 18:39 16.03.2020
1058 Clouds 8 1028 49 10000 5.1 360 18:19 16.03.2020
1059 Clouds 8 1027 49 10000 5.1 340 17:46 16.03.2020
1060 Clouds 8 1027 49 10000 5.1 340 17:25 16.03.2020
1061 Clouds 9 1027 46 10000 6.2 360 16:56 16.03.2020
1062 Rain 9 1027 46 10000 6.2 350 16:37 16.03.2020
1063 Rain 9 1026 46 10000 7.2 360 16:19 16.03.2020
1064 Rain 9 1027 46 10000 7.7 360 15:42 16.03.2020
1065 Rain 9 1027 46 10000 7.7 360 15:23 16.03.2020
1066 Rain 9 1027 46 10000 7.7 360 15:23 16.03.2020
1067 Rain 9 1027 49 10000 12.9 20 14:45 16.03.2020
1068 Rain 9 1026 40 10000 9.3 360 14:20 16.03.2020
1069 Rain 10 1025 50 10000 9.3 360 13:47 16.03.2020
1070 Rain 10 1025 50 10000 9.3 360 13:27 16.03.2020
1071 Rain 9 1026 50 10000 8.7 360 12:57 16.03.2020
1072 Rain 10 1026 53 10000 9.8 360 12:38 16.03.2020
1073 Rain 9 1027 53 10000 8.7 360 12:20 16.03.2020
1074 Rain 9 1027 53 10000 9.3 10 11:43 16.03.2020
1075 Rain 9 1027 57 10000 6.7 360 11:23 16.03.2020
1076 Rain 8 1027 61 10000 7.7 360 10:44 16.03.2020
1077 Rain 8 1027 61 10000 7.7 360 10:24 16.03.2020
1078 Clouds 9 1026 61 10000 5.1 10 09:56 16.03.2020
1079 Rain 8 1026 61 10000 5.1 350 09:37 16.03.2020
1080 Rain 8 1026 66 10000 7.7 350 09:19 16.03.2020
1081 Drizzle 8 1025 75 10000 5.1 360 08:40 16.03.2020
1082 Drizzle 8 1025 75 10000 4.1 350 08:21 16.03.2020
1083 Rain 7 1024 75 9000 4.1 360 07:42 16.03.2020
1084 Rain 7 1024 75 9000 4.1 360 07:19 16.03.2020
1085 Rain 7 1023 81 9000 6.2 10 06:29 16.03.2020
1086 Rain 7 1023 81 10000 5.1 360 05:59 16.03.2020
1087 Drizzle 8 1021 76 10000 4.6 350 04:21 16.03.2020
1088 Clouds 9 1020 76 10000 4.1 340 01:46 16.03.2020
1089 Rain 9 1019 71 10000 4.1 340 00:45 16.03.2020
1090 Rain 9 1019 71 10000 4.1 340 00:26 16.03.2020
1091 Rain 9 1019 76 10000 4.1 340 23:40 15.03.2020
1092 Rain 9 1019 76 8000 4.6 330 23:19 15.03.2020
1093 Drizzle 10 1018 66 10000 3.6 330 22:42 15.03.2020
1094 Clouds 10 1018 76 10000 11.8 40 22:21 15.03.2020
1095 Clouds 11 1017 62 10000 1.5 0 21:39 15.03.2020
1096 Clouds 11 1017 62 10000 1.5 0 21:21 15.03.2020
1097 Clouds 11 1017 66 10000 1.5 0 20:58 15.03.2020
1098 Clouds 11 1017 66 10000 1.5 0 20:40 15.03.2020
1099 Clouds 11 1017 66 10000 2.1 350 20:19 15.03.2020
1100 Clouds 11 1017 66 10000 2.1 350 19:55 15.03.2020
1101 Clouds 11 1016 66 10000 2.1 310 19:37 15.03.2020
1102 Clouds 11 1016 62 10000 2.1 350 19:18 15.03.2020
1103 Clouds 11 1016 67 10000 3.1 350 18:42 15.03.2020
1104 Clouds 12 1016 67 10000 3.1 50 18:24 15.03.2020
1105 Clouds 12 1016 67 10000 3.1 50 17:59 15.03.2020
1106 Clouds 12 1015 67 10000 3.6 60 17:39 15.03.2020
1107 Clouds 12 1016 71 10000 9.3 10 17:20 15.03.2020
1108 Clouds 13 1015 67 10000 2.6 330 16:55 15.03.2020
1109 Clouds 13 1014 67 10000 3.1 320 16:37 15.03.2020
1110 Clouds 13 1016 71 10000 11.3 30 16:18 15.03.2020
1111 Clouds 14 1014 63 10000 6.2 340 15:42 15.03.2020
1112 Clouds 14 1014 63 10000 6.2 340 15:22 15.03.2020
1113 Clouds 15 1013 63 10000 6.2 350 14:47 15.03.2020
1114 Clouds 15 1013 63 10000 6.2 350 14:28 15.03.2020
1115 Clouds 16 1013 63 10000 7.2 360 13:59 15.03.2020
1116 Clouds 16 1013 63 10000 7.2 360 13:39 15.03.2020
1117 Clouds 16 1013 63 10000 7.2 360 13:39 15.03.2020
1118 Clouds 16 1013 63 10000 7.2 360 13:21 15.03.2020
1119 Clouds 16 1013 63 10000 7.2 350 12:57 15.03.2020
1120 Clouds 16 1013 59 10000 7.2 330 12:38 15.03.2020
1121 Clouds 17 1013 56 10000 6.2 350 12:20 15.03.2020
1122 Clouds 17 1013 59 10000 6.2 330 11:40 15.03.2020
1123 Clouds 17 1013 59 10000 6.2 340 11:22 15.03.2020
1124 Clouds 17 1013 59 10000 6.2 330 10:56 15.03.2020
1125 Clouds 17 1013 59 10000 6.2 330 10:38 15.03.2020
1126 Clouds 17 1013 59 10000 6.2 330 10:20 15.03.2020
1127 Clouds 17 1012 59 10000 4.1 350 09:41 15.03.2020
1128 Clouds 17 1012 59 10000 4.1 350 09:22 15.03.2020
1129 Clouds 17 1012 55 10000 2.07 20 08:54 15.03.2020
1130 Clouds 17 1012 59 10000 3.34 13 08:36 15.03.2020
1131 Clouds 15 1012 67 10000 2.88 7 08:18 15.03.2020
1132 Clouds 14 1011 82 10000 2.88 7 07:44 15.03.2020
1133 Clouds 14 1011 82 10000 2.88 7 06:54 15.03.2020
1134 Clouds 13 1011 81 10000 2.88 7 06:24 15.03.2020
1135 Clouds 12 1010 81 10000 1.5 0 05:43 15.03.2020
1136 Clouds 12 1010 81 10000 1.5 0 04:47 15.03.2020
1137 Clouds 12 1010 81 10000 1.5 0 04:28 15.03.2020
1138 Clouds 12 1010 87 10000 1.21 338 03:54 15.03.2020
1139 Clouds 13 1010 76 10000 1.21 338 02:48 15.03.2020
1140 Clouds 13 1011 81 10000 0.5 348 01:50 15.03.2020
1141 Clouds 14 1011 71 10000 0.36 28 00:51 15.03.2020
1142 Clouds 14 1011 71 10000 0.36 28 00:28 15.03.2020
1143 Clouds 14 1011 76 10000 0.36 28 23:58 14.03.2020
1144 Clouds 14 1011 71 10000 0.36 28 23:37 14.03.2020
1145 Clouds 14 1012 71 10000 1.14 162 23:18 14.03.2020
1146 Clouds 15 1012 71 10000 1.14 162 22:44 14.03.2020
1147 Clouds 15 1012 71 10000 1.14 162 22:26 14.03.2020
1148 Clouds 15 1012 71 10000 1.14 162 21:57 14.03.2020
1149 Clouds 15 1012 72 10000 1.14 162 21:37 14.03.2020
1150 Clouds 16 1012 72 10000 1.14 162 21:18 14.03.2020
1151 Clouds 16 1012 72 10000 1.14 162 20:59 14.03.2020
1152 Clouds 16 1012 67 10000 1.14 162 20:41 14.03.2020
1153 Clouds 16 1012 67 10000 2.39 210 20:20 14.03.2020
1154 Clouds 16 1012 67 10000 2.39 210 19:59 14.03.2020
1155 Clouds 16 1012 63 10000 2.39 210 19:40 14.03.2020
1156 Clouds 16 1012 63 10000 2.39 210 19:20 14.03.2020
1157 Clouds 17 1011 63 10000 2.39 210 18:39 14.03.2020
1158 Clouds 17 1011 55 10000 3.1 200 18:19 14.03.2020
1159 Clouds 18 1011 48 10000 3.6 190 17:41 14.03.2020
1160 Clouds 18 1011 45 10000 3.6 190 17:21 14.03.2020
1161 Clouds 19 1011 45 10000 3.6 190 16:57 14.03.2020
1162 Clouds 20 1011 49 10000 4.1 180 16:38 14.03.2020
1163 Clouds 20 1011 40 10000 3.1 200 16:18 14.03.2020
1164 Clouds 21 1011 38 10000 2.6 210 15:28 14.03.2020
1165 Clouds 21 1011 35 10000 3.1 200 14:59 14.03.2020
1166 Clouds 21 1011 35 10000 3.1 200 14:59 14.03.2020
1167 Clouds 21 1011 38 10000 3.1 210 14:39 14.03.2020
1168 Clouds 21 1011 35 10000 3.6 200 14:20 14.03.2020
1169 Clouds 21 1011 35 10000 3.6 200 13:56 14.03.2020
1170 Clouds 21 1011 38 10000 3.6 210 13:38 14.03.2020
1171 Clouds 21 1011 40 10000 3.1 200 13:19 14.03.2020
1172 Clouds 22 1012 38 10000 3.1 200 12:44 14.03.2020
1173 Clouds 22 1012 33 10000 2.1 200 12:25 14.03.2020
1174 Clouds 22 1013 33 10000 1.5 0 11:45 14.03.2020
1175 Clouds 22 1013 38 10000 1.5 0 11:26 14.03.2020
1176 Clear 22 1013 40 10000 1.5 0 10:55 14.03.2020
1177 Clear 22 1013 40 10000 1.5 0 10:36 14.03.2020
1178 Clear 20 1013 40 10000 1.5 0 10:18 14.03.2020
1179 Clear 20 1013 43 10000 1.5 0 09:41 14.03.2020
1180 Clear 20 1013 43 10000 0.14 114 09:22 14.03.2020
1181 Clear 19 1013 48 10000 1.5 0 08:47 14.03.2020
1182 Clear 19 1013 48 10000 1.5 0 08:27 14.03.2020
1183 Clear 16 1013 67 10000 1.5 0 07:45 14.03.2020
1184 Clear 15 1012 66 10000 2.6 340 07:23 14.03.2020
1185 Clear 14 1012 66 10000 2.6 340 06:59 14.03.2020
1186 Clear 12 1012 81 10000 1.5 0 06:39 14.03.2020
1187 Clear 12 1011 76 10000 1.46 6 04:57 14.03.2020
1188 Clear 12 1012 81 10000 1.46 6 03:40 14.03.2020
1189 Clear 12 1011 71 10000 1.46 6 02:53 14.03.2020
1190 Clear 13 1011 71 10000 2.6 330 01:50 14.03.2020
1191 Clear 13 1011 76 10000 1.57 346 00:36 14.03.2020
1192 Clear 14 1010 62 10000 2.1 340 23:44 13.03.2020
1193 Clear 14 1010 62 10000 2.1 340 23:24 13.03.2020
1194 Clear 14 1010 54 10000 2.1 330 22:46 13.03.2020
1195 Clear 15 1010 54 10000 2.1 330 22:24 13.03.2020
1196 Clear 15 1010 58 10000 2.6 310 21:42 13.03.2020
1197 Clear 15 1010 55 10000 2.6 320 21:21 13.03.2020
1198 Clear 15 1010 55 10000 2.6 320 20:56 13.03.2020
1199 Clear 16 1010 51 10000 2.6 350 20:37 13.03.2020
1200 Clear 16 1010 55 10000 1.5 350 20:18 13.03.2020
1201 Clear 16 1011 58 10000 1 270 19:42 13.03.2020
1202 Clear 16 1009 48 10000 5.1 330 19:23 13.03.2020
1203 Clear 17 1009 42 10000 5.1 330 18:44 13.03.2020
1204 Clear 17 1009 42 10000 5.1 330 18:25 13.03.2020
1205 Clear 19 1008 35 10000 5.1 330 17:43 13.03.2020
1206 Clear 20 1008 33 10000 6.2 330 17:22 13.03.2020
1207 Clear 21 1008 33 10000 6.2 330 16:59 13.03.2020
1208 Clear 21 1008 31 10000 6.2 350 16:39 13.03.2020
1209 Clear 21 1008 31 10000 7.2 360 16:21 13.03.2020
1210 Clear 21 1008 31 10000 7.2 360 15:54 13.03.2020
1211 Clear 21 1008 29 10000 7.2 350 15:36 13.03.2020
1212 Clear 21 1010 40 10000 7.2 50 15:18 13.03.2020
1213 Clear 21 1009 29 10000 8.2 340 14:40 13.03.2020
1214 Clear 22 1009 29 10000 8.2 340 14:22 13.03.2020
1215 Clear 22 1011 37 10000 6.7 50 13:55 13.03.2020
1216 Clear 22 1009 29 10000 7.2 340 13:37 13.03.2020
1217 Clear 21 1010 31 10000 7.2 340 13:18 13.03.2020
1218 Clear 21 1010 31 10000 7.7 340 12:39 13.03.2020
1219 Clear 21 1010 31 10000 7.2 340 12:21 13.03.2020
1220 Clear 21 1010 31 10000 7.2 340 11:57 13.03.2020
1221 Clear 21 1011 33 10000 7.2 350 11:37 13.03.2020
1222 Clear 20 1011 35 10000 6.2 350 11:19 13.03.2020
1223 Clear 20 1011 37 10000 7.2 340 10:47 13.03.2020
1224 Clear 20 1011 37 10000 7.2 340 10:26 13.03.2020
1225 Clear 19 1012 37 10000 6.2 330 09:56 13.03.2020
1226 Clear 18 1012 37 10000 5.1 330 09:38 13.03.2020
1227 Clear 19 1012 40 10000 4.1 330 09:19 13.03.2020
1228 Clear 18 1012 40 10000 2.6 310 08:42 13.03.2020
1229 Clear 16 1012 42 10000 2.1 320 08:22 13.03.2020
1230 Clear 15 1012 45 10000 4.1 330 07:47 13.03.2020
1231 Clear 15 1012 45 10000 4.1 330 07:27 13.03.2020
1232 Clear 15 1011 45 10000 3.1 320 06:47 13.03.2020
1233 Clear 14 1011 45 10000 3.1 320 06:26 13.03.2020
1234 Clear 13 1011 51 10000 3.1 330 05:49 13.03.2020
1235 Clear 13 1012 51 10000 4.6 340 05:20 13.03.2020
1236 Clear 14 1011 54 10000 4.6 340 04:37 13.03.2020
1237 Clear 13 1013 54 10000 5.1 360 02:58 13.03.2020
1238 Clear 13 1014 58 10000 1.5 0 01:43 13.03.2020
1239 Clear 13 1014 58 10000 1.5 0 01:18 13.03.2020
1240 Clear 13 1014 58 10000 1.5 0 00:47 13.03.2020
1241 Clear 13 1014 58 10000 1.5 0 00:23 13.03.2020
1242 Clear 14 1014 51 10000 1.5 0 23:48 12.03.2020
1243 Clear 14 1014 51 10000 1.5 0 23:26 12.03.2020
1244 Clear 14 1015 51 10000 2.1 50 22:56 12.03.2020
1245 Clear 14 1015 51 10000 1.5 0 22:38 12.03.2020
1246 Clear 14 1015 48 10000 5.1 350 22:19 12.03.2020
1247 Clear 14 1015 45 10000 6.2 340 21:43 12.03.2020
1248 Clear 15 1015 45 10000 6.2 340 21:24 12.03.2020
1249 Clear 15 1015 42 10000 3.6 330 20:56 12.03.2020
1250 Clear 15 1015 44 10000 4.6 320 20:37 12.03.2020
1251 Clear 15 1015 44 10000 6.2 320 20:18 12.03.2020
1252 Clear 14 1015 44 10000 6.2 330 19:39 12.03.2020
1253 Clear 15 1015 44 10000 5.1 330 19:20 12.03.2020
1254 Clear 15 1015 42 10000 5.1 310 18:43 12.03.2020
1255 Clear 15 1015 42 10000 5.1 310 18:43 12.03.2020
1256 Clear 15 1015 42 10000 4.6 320 18:24 12.03.2020
1257 Clear 15 1015 45 10000 5.1 330 17:57 12.03.2020
1258 Clear 16 1015 45 10000 5.1 330 17:38 12.03.2020
1259 Clear 16 1015 42 10000 4.6 330 17:19 12.03.2020
1260 Clear 17 1015 42 10000 4.6 330 16:54 12.03.2020
1261 Clouds 17 1015 42 10000 5.7 340 16:36 12.03.2020
1262 Clouds 17 1016 39 10000 4.6 340 16:18 12.03.2020
1263 Clouds 18 1016 42 10000 4.1 340 15:43 12.03.2020
1264 Clouds 18 1016 42 10000 4.1 340 15:24 12.03.2020
1265 Clouds 18 1016 37 10000 5.1 340 14:39 12.03.2020
1266 Clouds 18 1017 40 10000 4.1 350 14:19 12.03.2020
1267 Clouds 18 1017 40 10000 5.1 360 13:41 12.03.2020
1268 Clouds 18 1017 40 10000 5.1 360 13:22 12.03.2020
1269 Clouds 18 1017 39 10000 5.7 340 12:56 12.03.2020
1270 Clouds 18 1017 42 10000 5.7 350 12:38 12.03.2020
1271 Clouds 18 1018 42 10000 4.6 350 12:20 12.03.2020
1272 Clouds 17 1018 42 10000 4.6 350 11:56 12.03.2020
1273 Clouds 17 1018 42 10000 5.1 340 11:37 12.03.2020
1274 Clouds 17 1019 48 10000 4.6 350 11:19 12.03.2020
1275 Clouds 17 1019 48 10000 4.6 350 10:58 12.03.2020
1276 Clouds 16 1019 45 10000 3.6 340 10:40 12.03.2020
1277 Clouds 16 1018 48 10000 3.6 330 10:22 12.03.2020
1278 Clear 16 1019 48 10000 3.6 330 09:45 12.03.2020
1279 Clear 15 1019 48 10000 3.6 330 09:25 12.03.2020
1280 Clear 15 1019 51 10000 4.1 340 08:43 12.03.2020
1281 Clear 13 1019 51 10000 4.1 340 08:20 12.03.2020
1282 Clear 12 1019 54 10000 3.1 360 07:53 12.03.2020
1283 Clear 11 1018 62 10000 3.1 350 07:24 12.03.2020
1284 Clear 11 1018 62 10000 3.1 350 06:59 12.03.2020
1285 Clear 9 1017 62 10000 1.5 0 05:48 12.03.2020
1286 Clear 9 1017 66 10000 1.5 0 05:25 12.03.2020
1287 Clear 9 1018 87 10000 1.5 0 02:41 12.03.2020
1288 Clear 9 1018 87 10000 2.92 352 01:31 12.03.2020
1289 Clear 9 1018 81 10000 1.5 0 00:47 12.03.2020
1290 Clear 9 1018 81 10000 1.5 0 00:27 12.03.2020
1291 Clear 9 1018 87 10000 1.5 0 23:47 11.03.2020
1292 Clear 10 1018 87 10000 1.5 0 23:25 11.03.2020
1293 Rain 10 1018 81 10000 1.5 0 22:48 11.03.2020
1294 Rain 10 1018 81 10000 1.5 0 22:30 11.03.2020
1295 Clear 10 1018 87 10000 1.5 0 21:59 11.03.2020
1296 Clear 10 1018 87 10000 1.5 0 21:41 11.03.2020
1297 Clear 10 1018 87 10000 1.5 0 21:22 11.03.2020
1298 Clear 10 1018 87 10000 1.5 0 20:58 11.03.2020
1299 Clouds 11 1018 81 10000 1.5 0 20:39 11.03.2020
1300 Clouds 11 1018 81 10000 1.5 0 20:20 11.03.2020
1301 Clouds 11 1018 81 10000 1.5 0 19:57 11.03.2020
1302 Clouds 11 1018 81 10000 1.5 0 19:38 11.03.2020
1303 Clouds 12 1017 82 10000 1.97 339 19:20 11.03.2020
1304 Clouds 12 1017 76 10000 1.97 339 18:43 11.03.2020
1305 Clouds 12 1017 76 10000 1.97 339 18:24 11.03.2020
1306 Clouds 13 1017 76 10000 1.97 339 17:59 11.03.2020
1307 Clouds 13 1017 67 10000 1.97 339 17:39 11.03.2020
1308 Clouds 14 1017 71 10000 1.66 193 17:21 11.03.2020
1309 Clouds 14 1016 71 10000 2.1 70 16:47 11.03.2020
1310 Clouds 14 1016 71 10000 2.1 70 16:24 11.03.2020
1311 Clouds 14 1016 71 10000 3.1 60 15:59 11.03.2020
1312 Clouds 14 1016 71 10000 3.1 60 15:59 11.03.2020
1313 Rain 14 1016 71 10000 3.1 70 15:41 11.03.2020
1314 Rain 14 1016 71 10000 3.1 70 15:22 11.03.2020
1315 Drizzle 14 1016 67 10000 3.6 80 14:44 11.03.2020
1316 Rain 14 1016 59 10000 3.6 170 14:23 11.03.2020
1317 Rain 14 1016 59 10000 3.6 170 14:23 11.03.2020
1318 Rain 14 1016 59 10000 3.6 170 13:57 11.03.2020
1319 Rain 14 1016 48 10000 2.6 180 13:38 11.03.2020
1320 Rain 15 1016 51 10000 2.6 200 13:20 11.03.2020
1321 Rain 15 1016 45 10000 2.6 180 12:40 11.03.2020
1322 Clouds 15 1018 55 10000 4.6 40 12:20 11.03.2020
1323 Clouds 15 1018 55 10000 4.6 40 11:56 11.03.2020
1324 Clouds 15 1016 48 10000 2.1 190 11:37 11.03.2020
1325 Clouds 15 1018 54 10000 4.6 40 11:19 11.03.2020
1326 Clouds 15 1017 48 10000 0.56 126 10:43 11.03.2020
1327 Clouds 15 1017 45 10000 0.56 126 10:19 11.03.2020
1328 Clouds 15 1017 51 10000 0.56 126 09:43 11.03.2020
1329 Clouds 14 1017 51 10000 0.56 126 09:25 11.03.2020
1330 Clouds 14 1017 51 10000 0.56 126 08:58 11.03.2020
1331 Clouds 14 1017 58 10000 0.56 126 08:40 11.03.2020
1332 Clouds 13 1017 58 10000 2.64 3 08:19 11.03.2020
1333 Clouds 12 1016 66 10000 2.64 3 07:44 11.03.2020
1334 Clouds 11 1016 66 10000 2.64 3 07:19 11.03.2020
1335 Clouds 10 1015 71 10000 2.64 3 06:46 11.03.2020
1336 Clouds 9 1015 71 10000 2.6 330 05:42 11.03.2020
1337 Clouds 9 1014 71 10000 2.46 348 04:52 11.03.2020
1338 Clouds 10 1015 71 10000 1 360 02:30 11.03.2020
1339 Clouds 10 1014 81 10000 3.2 325 01:43 11.03.2020
1340 Clouds 10 1014 81 10000 3.02 325 00:53 11.03.2020
1341 Clouds 11 1014 87 10000 3.02 325 00:21 11.03.2020
1342 Clouds 11 1014 81 10000 3.02 325 23:45 10.03.2020
1343 Clouds 11 1014 81 10000 1.35 282 23:22 10.03.2020
1344 Clouds 11 1014 81 10000 1.35 282 22:55 10.03.2020
1345 Clouds 11 1014 81 10000 1.35 282 22:36 10.03.2020
1346 Clouds 11 1014 81 10000 1.35 282 22:18 10.03.2020
1347 Clouds 11 1014 81 10000 1.35 282 21:55 10.03.2020
1348 Clouds 11 1014 81 10000 1.35 282 21:37 10.03.2020
1349 Clouds 11 1015 71 10000 1 230 21:18 10.03.2020
1350 Clouds 11 1013 87 10000 1.35 282 20:41 10.03.2020
1351 Clouds 11 1013 87 10000 1.7 195 20:19 10.03.2020
1352 Clouds 12 1013 81 10000 1.77 207 19:58 10.03.2020
1353 Clouds 12 1013 76 10000 1.77 207 19:40 10.03.2020
1354 Clouds 12 1012 71 10000 1.77 207 19:21 10.03.2020
1355 Clouds 12 1012 71 10000 1.77 207 18:54 10.03.2020
1356 Clouds 12 1012 66 10000 1.77 207 18:36 10.03.2020
1357 Clouds 13 1012 62 10000 1.77 207 18:18 10.03.2020
1358 Clouds 13 1012 62 10000 1.5 160 17:41 10.03.2020
1359 Clouds 14 1011 58 10000 4.1 170 17:22 10.03.2020
1360 Clouds 14 1011 54 10000 4.6 170 16:40 10.03.2020
1361 Clouds 14 1011 54 10000 4.6 170 16:20 10.03.2020
1362 Clouds 15 1011 54 10000 4.6 160 15:58 10.03.2020
1363 Clouds 15 1011 54 10000 4.6 160 15:58 10.03.2020
1364 Clouds 15 1011 54 10000 4.6 170 15:40 10.03.2020
1365 Clouds 15 1011 54 10000 4.1 170 15:19 10.03.2020
1366 Clouds 15 1011 54 10000 4.1 170 14:57 10.03.2020
1367 Clouds 15 1011 51 10000 3.6 180 14:39 10.03.2020
1368 Clouds 15 1011 48 10000 4.6 200 14:18 10.03.2020
1369 Clouds 16 1011 42 10000 3.1 230 13:43 10.03.2020
1370 Clouds 16 1011 42 10000 3.1 230 13:25 10.03.2020
1371 Clouds 16 1012 48 10000 5.7 240 12:42 10.03.2020
1372 Clouds 16 1011 39 10000 3.6 240 12:21 10.03.2020
1373 Clouds 16 1011 45 10000 2.6 260 11:59 10.03.2020
1374 Clouds 15 1011 48 10000 3.1 250 11:41 10.03.2020
1375 Clouds 15 1011 48 10000 2.6 280 11:23 10.03.2020
1376 Clouds 15 1012 44 10000 2.6 250 10:54 10.03.2020
1377 Clouds 15 1012 44 10000 2.6 250 10:36 10.03.2020
1378 Rain 14 1010 51 10000 2.1 0 10:18 10.03.2020
1379 Rain 14 1010 44 10000 2.1 0 09:44 10.03.2020
1380 Clouds 14 1010 51 10000 1.5 0 09:20 10.03.2020
1381 Clouds 14 1010 51 10000 1.5 0 08:54 10.03.2020
1382 Clouds 13 1010 51 10000 1.5 0 08:35 10.03.2020
1383 Clear 12 1009 54 10000 1.5 0 07:58 10.03.2020
1384 Clear 12 1009 54 10000 1.5 0 07:40 10.03.2020
1385 Clear 11 1009 58 10000 1.5 0 07:19 10.03.2020
1386 Clear 10 1008 62 10000 1.5 0 06:37 10.03.2020
1387 Clouds 9 1007 71 10000 1.5 0 05:42 10.03.2020
1388 Clouds 9 1007 71 10000 2.1 10 05:18 10.03.2020
1389 Clouds 9 1007 76 10000 2.6 360 04:29 10.03.2020
1390 Clouds 10 1007 71 10000 1 180 02:58 10.03.2020
1391 Clouds 10 1007 87 10000 0.5 0 01:32 10.03.2020
1392 Clouds 10 1006 87 10000 5.98 297 00:50 10.03.2020
1393 Clouds 10 1006 87 10000 5.98 297 00:28 10.03.2020
1394 Clouds 10 1006 87 10000 5.98 297 23:42 09.03.2020
1395 Clouds 10 1006 87 10000 4.64 313 23:22 09.03.2020
1396 Clouds 10 1006 87 10000 1.5 0 22:57 09.03.2020
1397 Clouds 10 1006 87 10000 1.5 0 22:38 09.03.2020
1398 Clouds 10 1006 87 10000 1.5 0 22:38 09.03.2020
1399 Clouds 10 1006 81 10000 4.64 313 22:19 09.03.2020
1400 Clouds 10 1006 87 10000 4.64 313 21:43 09.03.2020
1401 Clouds 10 1006 87 10000 4.64 313 21:22 09.03.2020
1402 Clouds 10 1005 87 10000 1.5 0 20:58 09.03.2020
1403 Clouds 10 1005 87 10000 4.64 313 20:40 09.03.2020
1404 Clouds 10 1005 87 10000 4.64 313 20:40 09.03.2020
1405 Clouds 10 1006 87 10000 1.5 0 20:21 09.03.2020
1406 Clouds 10 1006 87 10000 1.5 0 19:56 09.03.2020
1407 Clouds 10 1006 87 10000 1.5 0 19:38 09.03.2020
1408 Rain 10 1006 87 10000 4.91 331 19:18 09.03.2020
1409 Rain 10 1006 87 10000 4.91 331 18:55 09.03.2020
1410 Rain 10 1006 93 10000 4.91 331 18:37 09.03.2020
1411 Rain 10 1006 87 10000 4.91 331 18:18 09.03.2020
1412 Rain 10 1006 87 10000 4.91 331 17:55 09.03.2020
1413 Rain 10 1006 87 10000 4.91 331 17:55 09.03.2020
1414 Rain 10 1006 87 10000 4.91 331 17:36 09.03.2020
1415 Rain 10 1006 81 10000 4.79 345 17:18 09.03.2020
1416 Rain 10 1006 81 10000 4.79 345 16:42 09.03.2020
1417 Rain 10 1006 81 10000 4.79 345 16:22 09.03.2020
1418 Rain 10 1005 81 8000 3.1 340 15:59 09.03.2020
1419 Rain 10 1005 81 8000 3.1 340 15:40 09.03.2020
1420 Clouds 11 1005 76 10000 4.1 340 15:21 09.03.2020
1421 Clouds 11 1005 76 10000 4.1 340 15:21 09.03.2020
1422 Clouds 11 1006 71 10000 3.1 310 14:59 09.03.2020
1423 Rain 11 1006 71 10000 3.1 310 14:38 09.03.2020
1424 Rain 11 1005 76 10000 5.1 350 14:20 09.03.2020
1425 Rain 10 1006 81 10000 4.1 340 13:58 09.03.2020
1426 Rain 10 1006 81 10000 4.1 340 13:39 09.03.2020
1427 Rain 10 1007 81 10000 4.1 330 13:20 09.03.2020
1428 Rain 10 1007 87 10000 3.6 330 12:58 09.03.2020
1429 Rain 10 1007 87 10000 3.6 330 12:39 09.03.2020
1430 Rain 10 1007 87 8000 2.6 310 12:18 09.03.2020
1431 Rain 10 1007 93 8000 7.11 339 11:40 09.03.2020
1432 Rain 10 1008 100 8000 6.94 355 11:20 09.03.2020
1433 Rain 10 1008 93 8000 3.1 340 10:57 09.03.2020
1434 Rain 10 1008 93 8000 4.1 340 10:39 09.03.2020
1435 Rain 10 1008 93 8000 4.1 340 10:18 09.03.2020
1436 Rain 10 1009 93 8000 4.1 320 09:42 09.03.2020
1437 Rain 10 1009 93 8000 4.1 330 09:24 09.03.2020
1438 Rain 10 1009 100 6000 4.1 340 08:46 09.03.2020
1439 Rain 10 1010 100 6000 2.1 290 08:28 09.03.2020
1440 Rain 10 1009 93 6000 2.1 340 07:57 09.03.2020
1441 Rain 10 1010 93 6000 2.1 340 07:37 09.03.2020
1442 Rain 10 1010 93 6000 2.1 340 07:18 09.03.2020
1443 Rain 10 1010 93 6000 3.1 330 06:39 09.03.2020
1444 Rain 11 1010 100 6000 3.6 340 06:21 09.03.2020
1445 Rain 11 1010 87 6000 2.6 300 05:42 09.03.2020
1446 Rain 12 1009 71 10000 2.1 300 04:57 09.03.2020
1447 Clouds 12 1009 71 10000 2.6 320 04:39 09.03.2020
1448 Clouds 13 1009 71 10000 2.6 320 04:19 09.03.2020
1449 Clouds 13 1010 76 10000 1.5 0 02:51 09.03.2020
1450 Clouds 14 1012 82 10000 1.5 0 00:44 09.03.2020
1451 Clouds 14 1012 82 10000 1.5 0 00:25 09.03.2020
1452 Clouds 14 1012 82 10000 1.5 0 23:58 08.03.2020
1453 Clouds 14 1012 82 10000 1.5 0 23:38 08.03.2020
1454 Clouds 15 1012 76 10000 1.94 146 23:18 08.03.2020
1455 Clouds 15 1012 76 10000 1.94 146 22:40 08.03.2020
1456 Clouds 15 1013 76 10000 1.94 146 22:22 08.03.2020
1457 Clouds 15 1013 76 10000 1.94 146 21:59 08.03.2020
1458 Clouds 15 1013 76 10000 1.94 146 21:40 08.03.2020
1459 Clouds 15 1013 82 10000 1.5 0 21:20 08.03.2020
1460 Clouds 15 1013 77 10000 1.5 0 20:57 08.03.2020
1461 Clouds 15 1013 82 10000 1.5 0 20:37 08.03.2020
1462 Clouds 16 1013 82 10000 1.5 0 20:19 08.03.2020
1463 Clouds 16 1013 82 10000 1.5 0 19:40 08.03.2020
1464 Clouds 16 1013 77 10000 2.6 140 19:19 08.03.2020
1465 Clouds 16 1013 72 10000 2.6 130 18:55 08.03.2020
1466 Clouds 16 1013 72 10000 3.1 150 18:37 08.03.2020
1467 Clouds 16 1013 72 10000 3.1 150 18:18 08.03.2020
1468 Clouds 17 1013 72 10000 3.1 150 17:39 08.03.2020
1469 Clouds 17 1013 72 10000 4.1 150 17:21 08.03.2020
1470 Clouds 17 1013 72 10000 4.1 150 16:58 08.03.2020
1471 Clouds 17 1014 59 10000 6.2 170 16:40 08.03.2020
1472 Clouds 18 1014 59 10000 6.2 170 16:21 08.03.2020
1473 Clouds 18 1013 68 10000 5.1 150 15:41 08.03.2020
1474 Clouds 18 1013 68 10000 5.1 150 15:22 08.03.2020
1475 Clouds 19 1013 68 10000 5.1 150 14:57 08.03.2020
1476 Clouds 19 1013 68 10000 5.1 140 14:37 08.03.2020
1477 Clouds 19 1013 68 10000 5.1 140 14:19 08.03.2020
1478 Clouds 18 1013 68 10000 4.6 140 13:41 08.03.2020
1479 Clouds 19 1013 68 10000 4.6 140 13:20 08.03.2020
1480 Rain 19 1013 72 10000 6.2 140 12:49 08.03.2020
1481 Clouds 18 1014 77 10000 6.2 150 12:30 08.03.2020
1482 Clouds 18 1014 77 10000 6.2 150 11:59 08.03.2020
1483 Clouds 18 1014 77 10000 6.2 150 11:41 08.03.2020
1484 Clouds 18 1014 72 10000 7.2 140 11:21 08.03.2020
1485 Clouds 18 1014 72 10000 7.2 140 11:21 08.03.2020
1486 Clouds 17 1014 72 9000 5.1 140 10:42 08.03.2020
1487 Clouds 17 1014 72 9000 5.1 140 10:42 08.03.2020
1488 Clouds 17 1014 72 9000 5.1 140 10:24 08.03.2020
1489 Clouds 17 1013 72 9000 4.1 140 09:59 08.03.2020
1490 Drizzle 17 1015 59 9000 5.7 170 09:38 08.03.2020
1491 Drizzle 17 1015 59 9000 5.7 170 09:20 08.03.2020
1492 Clouds 17 1013 72 9000 4.6 130 08:42 08.03.2020
1493 Drizzle 16 1015 67 9000 0.5 0 08:21 08.03.2020
1494 Clouds 16 1013 72 9000 2.6 110 07:46 08.03.2020
1495 Clouds 16 1012 72 9000 2.6 120 07:27 08.03.2020
1496 Clouds 16 1012 72 8000 3.1 140 06:43 08.03.2020
1497 Clouds 16 1012 72 8000 1.5 0 06:25 08.03.2020
1498 Clouds 16 1012 72 9000 2.1 130 05:43 08.03.2020
1499 Clouds 15 1012 77 10000 5.84 139 03:52 08.03.2020
1500 Clouds 16 1012 72 10000 2.6 140 02:58 08.03.2020
1501 Clouds 15 1012 72 10000 3.1 150 01:38 08.03.2020
1502 Clouds 16 1013 67 10000 2.1 120 01:18 08.03.2020
1503 Clouds 16 1014 76 10000 1.5 0 00:30 08.03.2020
1504 Clouds 15 1012 67 10000 1.5 0 23:57 07.03.2020
1505 Clouds 15 1012 67 10000 2.6 150 23:36 07.03.2020
1506 Clouds 15 1012 67 10000 2.6 150 23:18 07.03.2020
1507 Clouds 15 1013 82 10000 5.82 135 22:38 07.03.2020
1508 Clouds 15 1013 82 10000 5.82 135 22:19 07.03.2020
1509 Clouds 15 1013 82 10000 5.82 135 21:44 07.03.2020
1510 Clouds 15 1013 82 10000 5.82 135 21:22 07.03.2020
1511 Clouds 15 1013 77 10000 5.82 135 20:41 07.03.2020
1512 Clouds 15 1013 77 10000 7.6 140 20:22 07.03.2020
1513 Clouds 15 1013 77 10000 7.6 140 19:54 07.03.2020
1514 Clouds 15 1012 77 10000 7.6 140 19:36 07.03.2020
1515 Clouds 15 1012 77 10000 7.6 140 19:18 07.03.2020
1516 Clouds 15 1012 72 10000 7.6 140 18:39 07.03.2020
1517 Clouds 16 1012 67 10000 2.1 150 18:21 07.03.2020
1518 Clouds 16 1012 67 10000 2.6 160 17:42 07.03.2020
1519 Clouds 17 1012 67 10000 4.1 160 17:20 07.03.2020
1520 Clouds 17 1011 59 10000 5.1 150 16:57 07.03.2020
1521 Clouds 17 1011 59 10000 5.1 150 16:39 07.03.2020
1522 Clouds 18 1011 59 10000 7.2 150 16:21 07.03.2020
1523 Clouds 18 1011 59 10000 8.2 150 15:55 07.03.2020
1524 Clouds 18 1011 59 10000 8.2 150 15:37 07.03.2020
1525 Clouds 18 1011 59 10000 6.2 150 15:19 07.03.2020
1526 Clouds 18 1011 59 10000 7.7 130 14:45 07.03.2020
1527 Rain 18 1011 59 10000 7.2 150 14:24 07.03.2020
1528 Rain 18 1011 63 10000 7.7 140 13:57 07.03.2020
1529 Rain 18 1011 63 10000 7.7 140 13:38 07.03.2020
1530 Clouds 17 1011 68 10000 8.2 150 13:18 07.03.2020
1531 Clouds 17 1011 68 10000 8.2 150 12:40 07.03.2020
1532 Clouds 16 1012 72 10000 9.3 160 12:20 07.03.2020
1533 Clouds 16 1012 72 10000 7.7 150 11:57 07.03.2020
1534 Clouds 16 1012 72 10000 5.7 140 11:38 07.03.2020
1535 Clouds 16 1012 72 10000 5.7 140 11:19 07.03.2020
1536 Clouds 16 1013 72 10000 4.6 140 10:40 07.03.2020
1537 Clouds 16 1013 72 10000 4.6 140 10:20 07.03.2020
1538 Clouds 16 1012 72 10000 4.1 140 09:56 07.03.2020
1539 Clouds 16 1012 72 10000 3.1 110 09:37 07.03.2020
1540 Clouds 16 1012 72 10000 3.1 110 09:18 07.03.2020
1541 Clouds 15 1012 67 10000 5.31 143 08:44 07.03.2020
1542 Clouds 14 1012 71 10000 1.08 131 08:21 07.03.2020
1543 Clouds 13 1012 76 10000 1 0 07:51 07.03.2020
1544 Clouds 12 1012 81 10000 1.08 131 07:23 07.03.2020
1545 Clouds 11 1011 87 10000 1.08 131 06:56 07.03.2020
1546 Clouds 10 1011 87 10000 1.08 131 06:30 07.03.2020
1547 Clouds 10 1011 87 10000 1.08 131 05:53 07.03.2020
1548 Clear 10 1011 87 10000 0.25 293 04:43 07.03.2020
1549 Clear 11 1011 81 10000 0.25 293 02:47 07.03.2020
1550 Clear 11 1011 81 10000 0.25 293 02:24 07.03.2020
1551 Clouds 12 1011 81 10000 2.38 307 01:26 07.03.2020
1552 Clouds 12 1011 81 10000 2.36 304 00:39 07.03.2020
1553 Clouds 12 1011 81 10000 2.36 304 00:20 07.03.2020
1554 Clouds 13 1011 76 10000 2.36 304 23:45 06.03.2020
1555 Clouds 13 1011 81 10000 2.36 304 23:26 06.03.2020
1556 Clouds 13 1012 76 10000 2.1 140 22:48 06.03.2020
1557 Clouds 13 1011 81 10000 1.64 280 22:22 06.03.2020
1558 Clouds 13 1012 81 10000 1.64 280 21:59 06.03.2020
1559 Clouds 13 1012 81 10000 1.64 280 21:41 06.03.2020
1560 Clouds 13 1011 81 10000 1.64 280 21:18 06.03.2020
1561 Clouds 13 1011 76 10000 1.64 280 20:39 06.03.2020
1562 Clouds 13 1011 76 10000 0.96 200 20:20 06.03.2020
1563 Clouds 13 1011 71 10000 0.96 200 19:51 06.03.2020
1564 Clouds 13 1011 76 10000 0.96 200 19:33 06.03.2020
1565 Clouds 14 1012 66 10000 2.6 230 18:58 06.03.2020
1566 Clouds 14 1011 71 10000 0.96 200 18:39 06.03.2020
1567 Clouds 14 1011 71 10000 0.96 200 18:19 06.03.2020
1568 Clouds 14 1010 71 10000 2.6 170 17:43 06.03.2020
1569 Clouds 14 1010 62 10000 2.6 160 17:25 06.03.2020
1570 Clouds 15 1010 62 10000 2.6 160 16:59 06.03.2020
1571 Clouds 15 1010 63 10000 4.1 160 16:41 06.03.2020
1572 Clouds 16 1010 63 10000 4.1 160 16:20 06.03.2020
1573 Clouds 16 1010 59 10000 4.6 160 15:45 06.03.2020
1574 Clouds 16 1010 63 10000 3.1 180 15:25 06.03.2020
1575 Clouds 16 1010 59 10000 3.6 180 14:55 06.03.2020
1576 Clouds 16 1010 59 10000 3.6 180 14:37 06.03.2020
1577 Clouds 16 1010 59 10000 3.6 180 14:19 06.03.2020
1578 Clouds 16 1010 55 10000 3.6 160 13:43 06.03.2020
1579 Clouds 16 1010 48 10000 2.6 180 13:22 06.03.2020
1580 Clouds 16 1010 51 10000 2.1 180 12:57 06.03.2020
1581 Clouds 16 1011 51 10000 2.6 200 12:38 06.03.2020
1582 Clouds 16 1011 51 10000 2.6 200 12:19 06.03.2020
1583 Clouds 16 1011 51 10000 2.6 200 12:19 06.03.2020
1584 Clouds 16 1011 48 10000 3.1 180 11:57 06.03.2020
1585 Clouds 16 1011 48 10000 2.6 190 11:38 06.03.2020
1586 Clouds 16 1011 48 10000 2.6 190 11:19 06.03.2020
1587 Clouds 16 1011 55 10000 2.1 140 10:39 06.03.2020
1588 Clouds 15 1011 55 10000 2.1 140 10:21 06.03.2020
1589 Clouds 15 1011 55 10000 2.46 224 09:55 06.03.2020
1590 Clouds 15 1011 58 10000 2.46 224 09:37 06.03.2020
1591 Clouds 15 1011 58 10000 2.46 224 09:19 06.03.2020
1592 Clouds 14 1011 67 10000 2.46 224 08:45 06.03.2020
1593 Clouds 14 1011 71 10000 2.46 224 08:27 06.03.2020
1594 Clouds 12 1011 81 10000 2.37 310 07:57 06.03.2020
1595 Clouds 11 1010 81 10000 2.37 310 07:38 06.03.2020
1596 Clear 10 1010 93 10000 2.37 310 06:59 06.03.2020
1597 Clouds 9 1010 93 10000 2.37 310 06:40 06.03.2020
1598 Clouds 8 1010 93 10000 2.37 310 05:46 06.03.2020
1599 Clouds 8 1009 87 10000 2.37 310 05:27 06.03.2020
1600 Clouds 8 1009 87 10000 2.94 309 04:58 06.03.2020
1601 Clouds 9 1009 87 10000 2.94 309 02:55 06.03.2020
1602 Clouds 9 1009 87 10000 2.31 310 01:41 06.03.2020
1603 Clouds 10 1009 87 10000 2.31 310 01:23 06.03.2020
1604 Clouds 10 1009 81 10000 3.01 308 00:37 06.03.2020
1605 Clouds 10 1009 81 10000 3.01 308 00:18 06.03.2020
1606 Clouds 10 1009 87 10000 3.01 308 23:42 05.03.2020
1607 Clouds 10 1009 81 10000 1.24 41 23:19 05.03.2020
1608 Clouds 10 1008 76 10000 1.24 41 22:40 05.03.2020
1609 Clouds 11 1008 71 10000 1.24 41 22:22 05.03.2020
1610 Clouds 10 1008 71 10000 1.24 41 22:22 05.03.2020
1611 Clouds 11 1008 71 10000 1.24 41 21:57 05.03.2020
1612 Clouds 11 1008 71 10000 1.24 41 21:38 05.03.2020
1613 Clouds 11 1008 62 10000 1.24 41 21:20 05.03.2020
1614 Clouds 11 1008 62 10000 1.5 0 20:59 05.03.2020
1615 Clouds 12 1008 62 10000 1.5 0 20:40 05.03.2020
1616 Clouds 12 1007 66 10000 1.5 0 20:20 05.03.2020
1617 Clouds 12 1007 62 10000 1.5 0 19:58 05.03.2020
1618 Clouds 12 1007 62 10000 1.5 0 19:39 05.03.2020
1619 Clouds 12 1007 62 10000 1.5 0 19:39 05.03.2020
1620 Clouds 12 1007 58 10000 1.5 0 19:19 05.03.2020
1621 Clouds 12 1007 54 10000 2.1 360 18:57 05.03.2020
1622 Clouds 13 1006 54 10000 2.1 360 18:37 05.03.2020
1623 Clouds 13 1006 54 10000 2.1 360 18:18 05.03.2020
1624 Clouds 13 1006 48 10000 1.94 8 17:42 05.03.2020
1625 Clouds 14 1005 51 10000 1.94 8 17:24 05.03.2020
1626 Clouds 14 1005 42 10000 1.35 335 16:59 05.03.2020
1627 Clouds 15 1005 42 10000 1.35 335 16:41 05.03.2020
1628 Clouds 15 1005 39 10000 1.35 335 16:21 05.03.2020
1629 Clouds 15 1004 39 10000 1.35 335 15:45 05.03.2020
1630 Clouds 16 1004 36 10000 2.1 320 15:24 05.03.2020
1631 Clouds 16 1004 36 10000 3.1 320 14:59 05.03.2020
1632 Clouds 16 1004 36 10000 3.1 320 14:41 05.03.2020
1633 Clouds 16 1004 42 10000 2.6 340 14:22 05.03.2020
1634 Clouds 16 1005 42 10000 2.1 300 13:57 05.03.2020
1635 Clouds 16 1005 36 10000 3.1 320 13:38 05.03.2020
1636 Clouds 16 1005 36 10000 3.1 320 13:20 05.03.2020
1637 Clouds 16 1005 36 10000 3.1 340 12:42 05.03.2020
1638 Clouds 16 1005 36 10000 3.1 320 12:21 05.03.2020
1639 Clouds 16 1007 44 10000 2.1 90 11:58 05.03.2020
1640 Clouds 16 1007 44 10000 2.1 90 11:38 05.03.2020
1641 Clouds 15 1007 44 10000 1.5 0 11:19 05.03.2020
1642 Clouds 15 1006 41 10000 2.1 10 10:58 05.03.2020
1643 Clouds 15 1006 41 10000 2.1 10 10:58 05.03.2020
1644 Clouds 15 1006 47 10000 3.1 330 10:40 05.03.2020
1645 Clouds 15 1006 47 10000 3.1 330 10:21 05.03.2020
1646 Clouds 15 1006 44 10000 4.1 340 09:59 05.03.2020
1647 Clouds 14 1006 44 10000 4.1 340 09:40 05.03.2020
1648 Clouds 14 1007 54 10000 1 0 09:19 05.03.2020
1649 Clouds 13 1006 54 10000 2.6 360 08:42 05.03.2020
1650 Clouds 12 1006 66 10000 2.91 336 08:22 05.03.2020
1651 Clouds 12 1006 71 10000 2.91 336 07:44 05.03.2020
1652 Clouds 11 1006 71 10000 2.91 336 07:21 05.03.2020
1653 Clouds 9 1005 81 10000 2.91 336 06:45 05.03.2020
1654 Clouds 9 1005 81 10000 2.91 336 06:45 05.03.2020
1655 Clouds 9 1005 81 10000 1.5 0 06:20 05.03.2020
1656 Clouds 9 1005 81 10000 2.1 280 05:36 05.03.2020
1657 Clouds 9 1005 87 10000 1.5 0 04:25 05.03.2020
1658 Clouds 9 1005 81 10000 1.5 0 03:58 05.03.2020
1659 Clouds 9 1005 81 10000 1.5 0 03:18 05.03.2020
1660 Clouds 10 1006 71 10000 2.1 330 01:28 05.03.2020
1661 Clouds 10 1006 66 10000 2.6 340 00:56 05.03.2020
1662 Clouds 11 1006 71 10000 2.6 350 23:58 04.03.2020
1663 Clouds 11 1006 71 10000 2.6 350 23:58 04.03.2020
1664 Clouds 11 1006 71 10000 2.6 350 23:40 04.03.2020
1665 Clouds 11 1006 71 10000 2.6 330 23:21 04.03.2020
1666 Clouds 12 1006 71 10000 2.6 360 22:56 04.03.2020
1667 Clouds 12 1006 71 10000 2.6 360 22:37 04.03.2020
1668 Clouds 12 1006 71 10000 1.5 0 22:19 04.03.2020
1669 Clouds 12 1006 62 10000 1.5 0 21:56 04.03.2020
1670 Clouds 12 1006 66 10000 1.5 0 21:37 04.03.2020
1671 Clouds 12 1006 66 10000 1.5 0 21:18 04.03.2020
1672 Clouds 12 1006 62 10000 1.5 0 20:40 04.03.2020
1673 Clouds 13 1006 62 10000 1.5 0 20:22 04.03.2020
1674 Clouds 13 1006 62 10000 1.5 0 19:58 04.03.2020
1675 Clouds 13 1006 62 10000 1.5 0 19:39 04.03.2020
1676 Clouds 13 1006 58 10000 1.5 0 19:21 04.03.2020
1677 Clouds 14 1006 54 10000 1.5 0 18:42 04.03.2020
1678 Clouds 14 1005 58 10000 2.1 340 18:24 04.03.2020
1679 Clouds 14 1005 55 10000 4.13 285 17:59 04.03.2020
1680 Clouds 15 1005 55 10000 4.13 285 17:39 04.03.2020
1681 Clouds 15 1005 59 10000 1.5 0 17:20 04.03.2020
1682 Clouds 15 1005 59 10000 1.5 0 16:56 04.03.2020
1683 Clouds 16 1004 59 10000 1.5 0 16:37 04.03.2020
1684 Clouds 16 1004 59 10000 1.5 0 16:19 04.03.2020
1685 Clouds 16 1004 67 10000 1.5 0 15:45 04.03.2020
1686 Clouds 16 1004 63 10000 2.6 30 15:26 04.03.2020
1687 Clouds 16 1004 63 10000 2.1 300 14:59 04.03.2020
1688 Clouds 16 1004 63 10000 2.1 300 14:40 04.03.2020
1689 Clouds 16 1004 72 10000 2.6 250 14:20 04.03.2020
1690 Clouds 16 1004 77 10000 6.2 160 13:58 04.03.2020
1691 Clouds 16 1004 77 10000 6.2 160 13:39 04.03.2020
1692 Clouds 17 1004 72 10000 6.2 150 13:20 04.03.2020
1693 Clouds 16 1005 72 10000 5.7 150 12:55 04.03.2020
1694 Clouds 17 1005 72 10000 7.2 140 12:37 04.03.2020
1695 Clouds 17 1005 72 10000 7.2 140 12:19 04.03.2020
1696 Clouds 17 1005 68 10000 9.3 150 11:42 04.03.2020
1697 Clouds 17 1005 68 10000 9.3 150 11:42 04.03.2020
1698 Clouds 17 1005 72 10000 9.3 150 11:23 04.03.2020
1699 Clouds 17 1005 68 10000 7.2 150 10:59 04.03.2020
1700 Clouds 17 1005 68 10000 7.2 150 10:59 04.03.2020
1701 Rain 17 1005 68 10000 7.2 150 10:41 04.03.2020
1702 Rain 17 1005 68 10000 7.7 150 10:22 04.03.2020
1703 Clouds 17 1005 72 10000 9.3 150 09:44 04.03.2020
1704 Clouds 16 1005 72 10000 9.3 150 09:22 04.03.2020
1705 Clouds 16 1005 72 10000 9.8 140 08:58 04.03.2020
1706 Rain 16 1005 72 10000 9.8 140 08:40 04.03.2020
1707 Rain 16 1006 72 10000 9.3 140 08:21 04.03.2020
1708 Rain 16 1005 72 10000 10.8 150 07:41 04.03.2020
1709 Rain 16 1005 72 10000 7.7 140 07:23 04.03.2020
1710 Clouds 15 1006 72 10000 7.7 140 06:49 04.03.2020
1711 Clouds 15 1006 72 10000 7.7 140 06:25 04.03.2020
1712 Clouds 15 1006 77 10000 6.7 130 05:54 04.03.2020
1713 -273 0 0 0 0 0 04:54 04.03.2020
1714 Clouds 14 1007 77 10000 5.1 120 03:49 04.03.2020
1715 Clouds 14 1008 77 10000 5.1 130 03:30 04.03.2020
1716 Clouds 14 1008 77 10000 4.6 140 02:58 04.03.2020
1717 Clouds 14 1008 77 10000 5.1 150 02:22 04.03.2020
1718 Clouds 14 1009 82 10000 3.6 130 01:56 04.03.2020
1719 Clouds 14 1009 77 10000 4.6 130 01:22 04.03.2020
1720 Clouds 14 1010 82 10000 2.1 120 00:36 04.03.2020
1721 Clouds 14 1010 82 10000 2.1 120 00:18 04.03.2020
1722 Clouds 14 1010 76 10000 2.6 150 23:40 03.03.2020
1723 Clouds 14 1010 77 10000 2.6 130 23:22 03.03.2020
1724 Clouds 14 1010 72 10000 4.1 110 22:41 03.03.2020
1725 Clouds 14 1010 82 10000 3.1 120 22:20 03.03.2020
1726 Clouds 14 1011 77 10000 3.6 110 21:59 03.03.2020
1727 Clouds 14 1011 77 10000 3.6 110 21:40 03.03.2020
1728 Clouds 14 1011 77 10000 4.6 140 21:21 03.03.2020
1729 Clouds 14 1011 72 10000 2.6 120 20:57 03.03.2020
1730 Clouds 15 1011 72 10000 2.6 120 20:38 03.03.2020
1731 Clouds 15 1011 72 10000 2.1 130 20:18 03.03.2020
1732 Clouds 15 1011 72 10000 2.1 130 20:18 03.03.2020
1733 Clouds 15 1011 67 10000 3.6 140 19:56 03.03.2020
1734 Clouds 15 1011 63 10000 4.1 160 19:37 03.03.2020
1735 Clouds 15 1011 63 10000 4.1 160 19:37 03.03.2020
1736 Clouds 16 1011 63 10000 4.1 160 19:18 03.03.2020
1737 Clouds 16 1011 63 10000 3.6 140 18:55 03.03.2020
1738 Clouds 16 1011 67 10000 5.1 140 18:37 03.03.2020
1739 Clouds 16 1011 67 10000 5.1 140 18:18 03.03.2020
1740 Clouds 16 1011 63 10000 6.2 140 17:41 03.03.2020
1741 Clouds 17 1011 63 10000 5.1 130 17:22 03.03.2020
1742 Clouds 17 1011 59 10000 5.7 140 16:59 03.03.2020
1743 Clouds 18 1011 52 10000 4.1 150 16:39 03.03.2020
1744 Rain 18 1011 52 10000 4.1 150 16:21 03.03.2020
1745 Clouds 18 1012 52 10000 4.1 160 15:59 03.03.2020
1746 Clouds 18 1012 52 10000 4.1 160 15:41 03.03.2020
1747 Clouds 19 1012 52 10000 5.1 150 15:20 03.03.2020
1748 Clouds 19 1012 52 10000 5.7 160 14:43 03.03.2020
1749 Clouds 19 1013 52 10000 6.7 160 14:21 03.03.2020
1750 Clouds 19 1013 55 10000 6.2 150 13:59 03.03.2020
1751 Clouds 19 1013 55 10000 6.2 150 13:41 03.03.2020
1752 Clouds 19 1013 55 10000 6.2 150 13:23 03.03.2020
1753 Clouds 19 1014 59 10000 7.7 150 12:55 03.03.2020
1754 Clouds 19 1014 56 10000 6.2 150 12:36 03.03.2020
1755 Clouds 19 1014 56 10000 6.2 150 12:18 03.03.2020
1756 Clouds 19 1015 59 10000 6.7 160 11:38 03.03.2020
1757 Clouds 19 1015 59 10000 6.7 160 11:19 03.03.2020
1758 Clouds 19 1015 59 10000 6.7 160 11:19 03.03.2020
1759 Clouds 19 1015 59 10000 5.7 150 10:57 03.03.2020
1760 Clouds 18 1015 59 10000 5.7 150 10:38 03.03.2020
1761 Clouds 18 1015 68 10000 6.2 150 10:19 03.03.2020
1762 Clouds 18 1015 68 10000 6.2 150 09:45 03.03.2020
1763 Clouds 18 1015 72 10000 5.1 150 09:23 03.03.2020
1764 Clouds 18 1015 72 10000 5.1 150 08:59 03.03.2020
1765 Clouds 17 1015 72 10000 5.1 160 08:39 03.03.2020
1766 Clouds 16 1015 72 10000 5.1 160 08:21 03.03.2020
1767 Clouds 15 1015 87 10000 1.5 0 07:44 03.03.2020
1768 Clouds 15 1016 67 10000 2.1 230 07:23 03.03.2020
1769 Clouds 14 1016 71 10000 3.1 220 06:54 03.03.2020
1770 Clouds 14 1016 71 10000 3.1 250 06:27 03.03.2020
1771 Clouds 12 1014 100 10000 1.5 0 05:48 03.03.2020
1772 Clouds 12 1014 93 10000 1.5 0 05:30 03.03.2020
1773 Clouds 11 1014 93 10000 1.5 0 04:44 03.03.2020
1774 Clouds 12 1014 87 10000 3.54 107 02:24 03.03.2020
1775 Clouds 12 1015 81 10000 1.5 0 01:20 03.03.2020
1776 Clouds 12 1015 81 10000 1.57 111 00:38 03.03.2020
1777 Clouds 12 1015 81 10000 1.57 111 00:19 03.03.2020
1778 Clouds 12 1015 81 10000 1.57 111 23:42 02.03.2020
1779 Clouds 12 1015 76 10000 0.39 63 23:23 02.03.2020
1780 Clouds 12 1015 81 10000 1.5 0 22:56 02.03.2020
1781 Clouds 12 1015 76 10000 0.39 63 22:37 02.03.2020
1782 Clouds 13 1015 76 10000 0.39 63 22:19 02.03.2020
1783 Clouds 13 1015 71 10000 0.39 63 21:42 02.03.2020
1784 Clouds 13 1015 71 10000 0.39 63 21:24 02.03.2020
1785 Clouds 13 1016 71 10000 0.39 63 20:59 02.03.2020
1786 Clouds 13 1016 71 10000 0.39 63 20:41 02.03.2020
1787 Clouds 14 1015 76 10000 0.52 156 20:22 02.03.2020
1788 Clouds 14 1016 71 10000 0.52 156 19:57 02.03.2020
1789 Clouds 14 1016 71 10000 0.52 156 19:39 02.03.2020
1790 Clouds 14 1015 67 10000 1.5 0 19:20 02.03.2020
1791 Clouds 15 1015 71 10000 0.52 156 18:55 02.03.2020
1792 Clouds 15 1015 71 10000 0.52 156 18:37 02.03.2020
1793 Clouds 15 1015 67 10000 0.52 156 18:18 02.03.2020
1794 Clouds 15 1015 67 10000 0.52 156 17:56 02.03.2020
1795 Clouds 15 1015 67 10000 0.52 156 17:37 02.03.2020
1796 Clouds 15 1015 72 10000 1.55 165 17:19 02.03.2020
1797 Clouds 16 1014 67 10000 1.55 165 16:41 02.03.2020
1798 Clouds 16 1014 63 10000 1.55 165 16:23 02.03.2020
1799 Clouds 16 1014 63 10000 2.1 160 15:54 02.03.2020
1800 Clouds 16 1014 63 10000 2.1 160 15:36 02.03.2020
1801 Clouds 16 1014 63 10000 3.1 190 15:18 02.03.2020
1802 Clouds 17 1015 63 10000 2.6 190 14:37 02.03.2020
1803 Clouds 17 1014 59 10000 3.1 170 14:19 02.03.2020
1804 Clouds 17 1014 59 10000 3.1 170 14:19 02.03.2020
1805 Clouds 17 1014 59 10000 3.1 170 14:19 02.03.2020
1806 Clouds 17 1015 59 10000 3.1 180 13:44 02.03.2020
1807 Clouds 17 1015 63 10000 3.1 170 13:20 02.03.2020
1808 Clouds 17 1015 59 10000 3.1 190 12:59 02.03.2020
1809 Clouds 17 1015 59 10000 3.1 190 12:41 02.03.2020
1810 Clouds 17 1016 63 10000 4.1 180 12:19 02.03.2020
1811 Clouds 17 1016 67 10000 2.17 221 11:39 02.03.2020
1812 Clouds 17 1016 63 10000 2.6 180 11:20 02.03.2020
1813 Clouds 17 1016 63 10000 2.6 180 10:57 02.03.2020
1814 Clouds 17 1016 63 10000 2.45 220 10:37 02.03.2020
1815 Clouds 16 1016 63 10000 2.45 220 10:19 02.03.2020
1816 Clouds 16 1016 67 10000 2.45 220 09:49 02.03.2020
1817 Clouds 15 1016 71 10000 2.45 220 09:31 02.03.2020
1818 Clouds 14 1016 71 10000 2.45 220 08:49 02.03.2020
1819 Clouds 13 1016 81 10000 2.45 220 08:23 02.03.2020
1820 Clouds 12 1016 81 10000 0.61 293 07:52 02.03.2020
1821 Clouds 12 1016 81 10000 0.61 293 07:32 02.03.2020
1822 Clear 10 1017 70 10000 1 0 06:53 02.03.2020
1823 Clear 10 1016 71 10000 0.5 360 06:26 02.03.2020
1824 Clear 10 1015 93 10000 1.5 0 05:26 02.03.2020
1825 Clear 10 1016 87 10000 1.89 310 03:57 02.03.2020
1826 Clear 10 1016 93 10000 2.6 360 02:57 02.03.2020
1827 Clear 10 1016 87 10000 2.1 360 02:30 02.03.2020
1828 Clear 10 1017 81 10000 1.5 0 01:37 02.03.2020
1829 Clear 10 1017 81 10000 1.5 0 01:19 02.03.2020
1830 Clear 10 1017 87 10000 1.95 310 00:22 02.03.2020
1831 Clear 10 1017 87 10000 1.95 310 23:43 01.03.2020
1832 Clear 10 1017 87 10000 1.95 310 23:24 01.03.2020
1833 Clear 10 1017 81 10000 2.1 320 22:55 01.03.2020
1834 Clear 10 1017 81 10000 1.5 0 22:36 01.03.2020
1835 Clear 10 1017 81 10000 1.5 0 22:18 01.03.2020
1836 Clear 10 1017 81 10000 1.5 0 21:41 01.03.2020
1837 Clear 11 1017 81 10000 1.7 282 21:23 01.03.2020
1838 Clear 11 1017 76 10000 1.7 282 20:56 01.03.2020
1839 Clear 11 1017 76 10000 1.7 282 20:37 01.03.2020
1840 Clear 11 1017 76 10000 1.48 204 20:19 01.03.2020
1841 Clear 11 1017 81 10000 1.48 204 19:42 01.03.2020
1842 Clear 11 1017 71 10000 1.48 204 19:22 01.03.2020
1843 Clear 11 1017 71 10000 1.48 204 18:58 01.03.2020
1844 Clear 12 1017 71 10000 1.48 204 18:39 01.03.2020
1845 Clear 12 1017 62 10000 1.5 0 18:19 01.03.2020
1846 Clear 12 1017 62 10000 2.6 160 17:57 01.03.2020
1847 Clear 12 1017 62 10000 2.6 160 17:38 01.03.2020
1848 Clear 13 1016 58 10000 3.1 160 17:19 01.03.2020
1849 Clear 13 1016 51 10000 3.1 160 16:55 01.03.2020
1850 Clear 14 1016 47 10000 3.1 190 16:36 01.03.2020
1851 Clear 14 1016 47 10000 3.1 190 16:18 01.03.2020
1852 Clear 15 1016 48 10000 3.6 170 15:55 01.03.2020
1853 Clear 15 1017 41 10000 3.1 140 15:37 01.03.2020
1854 Clear 15 1017 41 10000 3.1 140 15:18 01.03.2020
1855 Clear 15 1017 44 10000 3.1 150 14:55 01.03.2020
1856 Clear 15 1017 41 10000 3.6 180 14:36 01.03.2020
1857 Clouds 15 1017 41 10000 3.6 180 14:18 01.03.2020
1858 Clouds 15 1017 38 10000 1.5 0 13:43 01.03.2020
1859 Clear 15 1018 41 10000 2.1 160 13:21 01.03.2020
1860 Clear 15 1018 41 10000 1.5 0 12:59 01.03.2020
1861 Clear 15 1018 41 10000 1.5 0 12:40 01.03.2020
1862 Clear 14 1019 44 10000 2.1 130 12:20 01.03.2020
1863 Clear 14 1019 41 10000 2.6 180 11:41 01.03.2020
1864 Clear 14 1020 47 10000 2.1 180 11:22 01.03.2020
1865 Clear 13 1020 47 10000 2.6 180 10:57 01.03.2020
1866 Clear 13 1020 47 10000 2.6 180 10:38 01.03.2020
1867 Clouds 13 1020 54 10000 1.5 0 10:19 01.03.2020
1868 Clouds 12 1020 54 10000 1.5 0 09:46 01.03.2020
1869 Clouds 13 1020 54 10000 1.5 0 09:46 01.03.2020
1870 Clouds 12 1020 54 10000 1.5 0 09:27 01.03.2020
1871 Clouds 11 1020 53 10000 1.5 0 08:57 01.03.2020
1872 Clouds 11 1020 53 10000 1.5 0 08:38 01.03.2020
1873 Clouds 10 1020 61 10000 1.5 0 08:19 01.03.2020
1874 Clouds 9 1020 65 10000 1.5 0 07:42 01.03.2020
1875 Clouds 8 1020 80 10000 1.5 0 07:23 01.03.2020
1876 Clouds 6 1020 58 10000 1.5 0 06:51 01.03.2020
1877 Clouds 5 1020 58 10000 1.5 0 06:29 01.03.2020
1878 Clouds 5 1019 69 10000 1.5 0 04:19 01.03.2020
1879 Clouds 6 1020 69 10000 1.5 0 02:27 01.03.2020
1880 Clouds 6 1021 65 10000 1.5 0 01:53 01.03.2020
1881 Clouds 6 1021 51 10000 1.5 0 01:22 01.03.2020
1882 Clouds 6 1021 69 10000 1.5 0 00:43 01.03.2020
1883 Clouds 6 1021 51 10000 1.5 0 00:21 01.03.2020
1884 Clouds 6 1021 51 10000 2.1 350 23:49 29.02.2020
1885 Clouds 6 1021 51 10000 1.5 0 23:30 29.02.2020
1886 Clouds 6 1021 60 10000 1.5 0 22:44 29.02.2020
1887 Clouds 7 1021 50 10000 2.6 360 22:24 29.02.2020
1888 Clouds 7 1021 50 10000 1.5 0 21:42 29.02.2020
1889 Clouds 7 1020 70 10000 1.5 0 21:24 29.02.2020
1890 Clouds 8 1020 50 10000 1.5 0 20:44 29.02.2020
1891 Clouds 8 1020 49 10000 1.5 0 20:22 29.02.2020
1892 Clouds 8 1020 48 10000 1.5 0 19:57 29.02.2020
1893 Clouds 8 1020 48 10000 1.5 0 19:38 29.02.2020
1894 Clouds 9 1020 48 10000 1.5 0 19:20 29.02.2020
1895 Clouds 9 1020 48 10000 1.5 0 19:20 29.02.2020
1896 Clouds 9 1019 46 10000 2.1 320 18:44 29.02.2020
1897 Clouds 9 1019 57 10000 2.1 10 18:25 29.02.2020
1898 Clouds 10 1019 43 10000 2.6 30 17:58 29.02.2020
1899 Clouds 10 1019 37 10000 3.6 10 17:40 29.02.2020
1900 Clouds 10 1019 37 10000 3.6 10 17:40 29.02.2020
1901 Clouds 11 1019 37 10000 3.6 10 17:21 29.02.2020
1902 Clouds 11 1018 32 10000 3.6 360 16:56 29.02.2020
1903 Clouds 11 1018 30 10000 5.1 10 16:37 29.02.2020
1904 Clouds 12 1018 30 10000 5.1 10 16:18 29.02.2020
1905 Clouds 12 1018 28 10000 4.6 340 15:41 29.02.2020
1906 Clouds 12 1018 30 10000 3.6 350 15:23 29.02.2020
1907 Clouds 12 1018 28 10000 5.1 330 14:42 29.02.2020
1908 Clouds 12 1017 30 10000 4.6 350 14:24 29.02.2020
1909 Clouds 12 1018 30 10000 5.1 360 13:58 29.02.2020
1910 Clouds 12 1018 30 10000 5.1 360 13:38 29.02.2020
1911 Clouds 12 1018 30 10000 4.6 350 13:20 29.02.2020
1912 Clouds 12 1018 30 10000 5.1 340 12:43 29.02.2020
1913 Clouds 12 1018 30 10000 5.1 360 12:23 29.02.2020
1914 Clouds 12 1017 28 10000 7.2 340 11:58 29.02.2020
1915 Rain 12 1018 30 10000 5.7 330 11:39 29.02.2020
1916 Rain 11 1018 30 10000 5.7 330 11:21 29.02.2020
1917 Rain 11 1017 27 10000 5.1 330 10:47 29.02.2020
1918 Clouds 11 1016 32 10000 6.7 330 10:28 29.02.2020
1919 Clouds 10 1016 32 10000 7.7 340 09:50 29.02.2020
1920 Clouds 10 1016 34 10000 7.7 340 09:27 29.02.2020
1921 Clouds 9 1016 31 10000 5.1 330 08:55 29.02.2020
1922 Clouds 9 1016 34 10000 4.1 330 08:37 29.02.2020
1923 Clouds 9 1016 34 10000 4.1 330 08:19 29.02.2020
1924 Clouds 8 1015 34 10000 5.7 340 07:41 29.02.2020
1925 Clouds 7 1015 39 10000 5.1 340 07:19 29.02.2020
1926 Clouds 7 1015 39 10000 5.1 330 06:50 29.02.2020
1927 Clouds 7 1014 39 10000 4.1 300 06:25 29.02.2020
1928 Clouds 7 1014 42 10000 4.1 310 05:48 29.02.2020
1929 Clouds 7 1013 42 10000 3.6 320 04:50 29.02.2020
1930 Clouds 7 1013 49 10000 5.1 330 03:43 29.02.2020
1931 Clouds 7 1012 45 10000 5.7 330 03:22 29.02.2020
1932 Rain 8 1011 43 10000 5.1 340 02:38 29.02.2020
1933 Rain 9 1011 57 10000 5.1 350 01:26 29.02.2020
1934 Rain 9 1010 76 10000 3.6 330 00:37 29.02.2020
1935 Rain 9 1010 81 10000 2.6 300 23:56 28.02.2020
1936 Rain 9 1009 81 10000 2.1 240 23:36 28.02.2020
1937 Rain 11 1009 81 10000 2.1 240 23:18 28.02.2020
1938 Rain 12 1009 87 10000 3.04 280 22:41 28.02.2020
1939 Rain 12 1009 71 10000 3.04 280 22:19 28.02.2020
1940 Clouds 12 1009 76 10000 1.5 0 21:41 28.02.2020
1941 Clouds 12 1009 66 10000 3.04 280 21:21 28.02.2020
1942 Clouds 12 1009 66 10000 3.04 280 21:21 28.02.2020
1943 Clouds 12 1009 66 10000 3.04 280 20:56 28.02.2020
1944 Clouds 12 1009 66 10000 3.04 280 20:37 28.02.2020
1945 Clouds 12 1009 66 10000 1.62 274 20:19 28.02.2020
1946 Clouds 12 1009 66 10000 1.62 274 20:19 28.02.2020
1947 Clouds 12 1009 66 10000 1.62 274 19:56 28.02.2020
1948 Clouds 12 1010 66 10000 1.62 274 19:37 28.02.2020
1949 Clouds 12 1010 66 10000 1.62 274 19:18 28.02.2020
1950 Clouds 12 1010 71 10000 1.62 274 18:44 28.02.2020
1951 Clouds 13 1009 66 10000 1.5 0 18:23 28.02.2020
1952 Clouds 13 1009 58 10000 1.5 0 17:41 28.02.2020
1953 Rain 13 1009 54 10000 2.6 220 17:23 28.02.2020
1954 Rain 13 1009 54 10000 2.6 220 17:23 28.02.2020
1955 Clouds 14 1009 51 10000 2.1 200 16:56 28.02.2020
1956 Clouds 14 1009 51 10000 2.1 200 16:37 28.02.2020
1957 Clouds 14 1010 48 10000 3.6 230 16:19 28.02.2020
1958 Clouds 15 1010 38 10000 2.6 200 15:55 28.02.2020
1959 Clouds 15 1010 38 10000 2.6 200 15:55 28.02.2020
1960 Clouds 15 1010 44 10000 3.6 210 15:36 28.02.2020
1961 Clouds 15 1010 44 10000 3.6 210 15:18 28.02.2020
1962 Clouds 15 1010 41 10000 3.6 210 14:42 28.02.2020
1963 Clouds 15 1010 38 10000 3.6 210 14:19 28.02.2020
1964 Clouds 15 1011 36 10000 3.6 200 13:58 28.02.2020
1965 Clouds 15 1011 38 10000 3.6 210 13:40 28.02.2020
1966 Clouds 15 1011 38 10000 3.6 210 13:19 28.02.2020
1967 Clouds 14 1012 41 10000 2.6 210 12:44 28.02.2020
1968 Clouds 14 1012 44 10000 4.1 250 12:26 28.02.2020
1969 Clouds 14 1013 41 10000 4.1 270 11:56 28.02.2020
1970 Clouds 14 1013 41 10000 4.1 250 11:37 28.02.2020
1971 Clouds 13 1013 41 10000 4.1 250 11:18 28.02.2020
1972 Clouds 13 1014 47 10000 3.6 250 10:43 28.02.2020
1973 Clouds 13 1014 44 10000 4.1 280 10:23 28.02.2020
1974 Clouds 12 1014 47 10000 2.6 210 09:47 28.02.2020
1975 Clouds 13 1014 50 10000 1.5 0 09:22 28.02.2020
1976 Clouds 12 1014 47 10000 1.5 0 08:58 28.02.2020
1977 Clouds 12 1014 47 10000 1.5 0 08:40 28.02.2020
1978 Clear 11 1014 50 10000 4.5 307 08:20 28.02.2020
1979 Clear 10 1014 57 10000 1.5 0 07:42 28.02.2020
1980 Clear 9 1014 65 10000 1.5 0 07:24 28.02.2020
1981 Clear 7 1013 65 10000 4.5 307 06:47 28.02.2020
1982 Clear 7 1013 61 10000 2.1 0 06:26 28.02.2020
1983 Clouds 8 1013 53 10000 1.5 0 04:47 28.02.2020
1984 Clouds 8 1012 53 10000 2.1 350 04:19 28.02.2020
1985 Clouds 9 1012 53 10000 3.1 330 02:47 28.02.2020
1986 Clouds 9 1013 61 10000 2.1 10 02:28 28.02.2020
1987 Clouds 10 1013 50 10000 2.6 0 01:33 28.02.2020
1988 Clouds 10 1013 57 10000 1.5 0 00:30 28.02.2020
1989 Clouds 10 1012 50 10000 4.1 300 23:42 27.02.2020
1990 Clouds 10 1012 46 10000 5.1 300 23:22 27.02.2020
1991 Clouds 10 1012 46 10000 5.1 320 22:55 27.02.2020
1992 Clouds 11 1012 46 10000 4.6 300 22:37 27.02.2020
1993 Clouds 11 1012 46 10000 4.6 300 22:19 27.02.2020
1994 Clouds 11 1012 50 10000 4.1 280 21:41 27.02.2020
1995 Clouds 11 1012 46 10000 3.1 280 21:19 27.02.2020
1996 Clouds 11 1011 46 10000 3.1 270 20:58 27.02.2020
1997 Clouds 11 1011 46 10000 3.1 270 20:40 27.02.2020
1998 Clouds 12 1011 46 10000 4.1 270 20:21 27.02.2020
1999 Clouds 12 1011 43 10000 4.1 290 19:56 27.02.2020
2000 Clouds 12 1010 47 10000 5.1 280 19:38 27.02.2020
2001 Clouds 12 1010 47 10000 5.1 280 19:19 27.02.2020
2002 Clouds 12 1010 49 10000 7.7 270 18:42 27.02.2020
2003 Clouds 13 1010 35 10000 5.1 270 18:24 27.02.2020
2004 Clouds 13 1009 35 10000 6.2 280 17:59 27.02.2020
2005 Clouds 13 1009 35 10000 6.2 280 17:40 27.02.2020
2006 Clouds 14 1009 30 10000 6.2 300 17:20 27.02.2020
2007 Clouds 14 1009 38 10000 6.2 290 16:59 27.02.2020
2008 Clouds 14 1009 38 10000 6.2 290 16:39 27.02.2020
2009 Clouds 15 1008 41 10000 5.1 290 16:19 27.02.2020
2010 Clouds 15 1007 42 10000 5.1 290 15:58 27.02.2020
2011 Clouds 15 1007 45 10000 5.1 280 15:37 27.02.2020
2012 Clouds 16 1007 45 10000 5.1 280 15:19 27.02.2020
2013 Clouds 16 1007 42 10000 5.1 290 14:56 27.02.2020
2014 Clouds 16 1006 42 10000 5.1 250 14:37 27.02.2020
2015 Clouds 17 1006 42 10000 5.1 250 14:19 27.02.2020
2016 Clouds 17 1006 42 10000 5.1 260 13:42 27.02.2020
2017 Clouds 17 1007 45 10000 6.2 290 13:21 27.02.2020
2018 Clouds 17 1007 45 10000 6.2 290 13:21 27.02.2020
2019 Clouds 17 1007 51 10000 4.1 280 12:55 27.02.2020
2020 Clouds 17 1007 45 10000 5.1 250 12:37 27.02.2020
2021 Clouds 18 1007 45 10000 5.1 250 12:18 27.02.2020
2022 Clouds 18 1007 45 10000 3.6 180 11:41 27.02.2020
2023 Clouds 17 1007 52 10000 3.6 170 11:21 27.02.2020
2024 Clouds 17 1008 52 10000 5.44 221 10:44 27.02.2020
2025 Clouds 17 1007 59 10000 5.44 221 10:23 27.02.2020
2026 Clouds 17 1007 59 10000 5.44 221 09:49 27.02.2020
2027 Rain 17 1007 63 10000 5.44 221 09:29 27.02.2020
2028 Clouds 16 1007 63 10000 5.44 221 08:58 27.02.2020
2029 Clouds 16 1007 63 10000 5.44 221 08:40 27.02.2020
2030 Clouds 15 1009 87 10000 7.7 190 08:22 27.02.2020
2031 Clouds 14 1007 77 10000 3.1 160 07:44 27.02.2020
2032 Clouds 14 1007 77 10000 4.33 226 07:25 27.02.2020
2033 Clouds 14 1007 82 10000 2.6 100 06:46 27.02.2020
2034 Clouds 14 1007 76 10000 3.6 80 05:43 27.02.2020
2035 Clouds 13 1007 71 10000 1.5 0 03:40 27.02.2020
2036 Clouds 14 1008 71 10000 1.5 0 02:21 27.02.2020
2037 Clouds 13 1008 87 10000 5.33 214 00:45 27.02.2020
2038 Clouds 13 1008 87 10000 5.33 214 00:26 27.02.2020
2039 Clouds 13 1008 81 10000 5.33 214 23:40 26.02.2020
2040 Clouds 14 1008 81 10000 3.66 214 23:19 26.02.2020
2041 Clouds 14 1009 81 10000 3.66 214 22:57 26.02.2020
2042 Clouds 14 1009 81 10000 3.66 214 22:39 26.02.2020
2043 Clouds 14 1009 81 10000 3.66 214 22:20 26.02.2020
2044 Clouds 14 1009 81 10000 3.66 214 21:56 26.02.2020
2045 Clouds 14 1009 81 10000 3.66 214 21:37 26.02.2020
2046 Clouds 14 1009 81 10000 3.66 214 21:18 26.02.2020
2047 Clouds 14 1008 81 10000 3.66 214 20:55 26.02.2020
2048 Clouds 14 1008 76 10000 3.66 214 20:37 26.02.2020
2049 Clouds 14 1008 76 10000 3.66 214 20:37 26.02.2020
2050 Clouds 15 1008 76 10000 2.14 230 20:18 26.02.2020
2051 Clouds 15 1008 76 10000 2.14 230 20:18 26.02.2020
2052 Clouds 15 1008 82 10000 2.14 230 19:45 26.02.2020
2053 Clouds 15 1008 76 10000 2.14 230 19:21 26.02.2020
2054 Clouds 15 1008 76 10000 2.14 230 19:21 26.02.2020
2055 Clouds 15 1008 67 10000 2.14 230 18:58 26.02.2020
2056 Clouds 15 1008 67 10000 2.14 230 18:40 26.02.2020
2057 Clouds 15 1007 63 10000 1.5 0 18:22 26.02.2020
2058 Clouds 15 1007 55 10000 2.14 230 17:56 26.02.2020
2059 Clouds 15 1007 55 10000 2.14 230 17:37 26.02.2020
2060 Rain 15 1007 55 10000 2.43 177 17:18 26.02.2020
2061 Rain 16 1007 55 10000 2.43 177 16:43 26.02.2020
2062 Rain 16 1007 59 10000 1.5 0 16:22 26.02.2020
2063 Clouds 16 1007 59 10000 2.1 160 15:56 26.02.2020
2064 Clouds 17 1008 55 10000 2.1 170 15:37 26.02.2020
2065 Clouds 17 1008 55 10000 2.1 170 15:18 26.02.2020
2066 Clouds 17 1008 55 10000 2.6 160 14:42 26.02.2020
2067 Clouds 17 1008 63 10000 2.6 170 14:22 26.02.2020
2068 Clouds 18 1008 55 10000 3.1 180 13:43 26.02.2020
2069 Clouds 18 1008 48 10000 2.6 200 13:22 26.02.2020
2070 Clouds 18 1009 48 10000 2.6 200 12:42 26.02.2020
2071 Clouds 18 1009 55 10000 3.1 190 12:23 26.02.2020
2072 Clouds 17 1010 55 10000 3.1 210 11:59 26.02.2020
2073 Clouds 17 1010 55 10000 3.1 210 11:41 26.02.2020
2074 Clouds 17 1010 63 10000 2.6 200 11:22 26.02.2020
2075 Clouds 17 1010 63 10000 2.6 200 11:22 26.02.2020
2076 Clouds 17 1010 63 10000 1.5 0 10:56 26.02.2020
2077 Clouds 17 1011 67 10000 3.14 236 10:38 26.02.2020
2078 Clouds 16 1011 67 10000 3.14 236 10:20 26.02.2020
2079 Clouds 16 1011 67 10000 3.14 236 10:20 26.02.2020
2080 Clouds 16 1011 72 10000 3.14 236 09:41 26.02.2020
2081 Clouds 15 1011 71 10000 3.14 236 09:21 26.02.2020
2082 Clouds 15 1011 76 9000 3.14 236 08:55 26.02.2020
2083 Clouds 14 1012 71 10000 2.1 270 08:36 26.02.2020
2084 Clouds 14 1011 81 9000 1.76 296 08:18 26.02.2020
2085 Clouds 13 1012 76 10000 4.1 180 07:41 26.02.2020
2086 Rain 12 1012 81 10000 2.6 170 07:23 26.02.2020
2087 Clouds 11 1011 93 8000 1.76 296 06:49 26.02.2020
2088 Clouds 11 1012 87 10000 2.1 210 06:31 26.02.2020
2089 Clouds 10 1011 93 10000 1.76 296 05:48 26.02.2020
2090 Clouds 10 1011 93 10000 0.57 308 05:19 26.02.2020
2091 Clouds 10 1011 100 10000 0.57 308 03:45 26.02.2020
2092 Clouds 11 1014 87 10000 2.6 170 02:18 26.02.2020
2093 Clouds 11 1013 87 10000 0.54 132 01:34 26.02.2020
2094 Clouds 11 1013 87 10000 0.54 132 00:47 26.02.2020
2095 Clouds 11 1013 87 10000 0.54 132 00:21 26.02.2020
2096 Clouds 11 1014 93 10000 0.54 132 23:43 25.02.2020
2097 Clouds 11 1014 93 10000 0.54 132 23:25 25.02.2020
2098 Clouds 12 1015 87 10000 1.11 108 22:58 25.02.2020
2099 Clouds 12 1015 87 10000 1.11 108 22:40 25.02.2020
2100 Clouds 12 1015 93 10000 1.11 108 22:19 25.02.2020
2101 Clouds 12 1015 87 10000 1.5 0 21:38 25.02.2020
2102 Clouds 12 1015 87 10000 1.11 108 21:20 25.02.2020
2103 Clear 12 1016 87 10000 1.11 108 20:57 25.02.2020
2104 Clear 13 1016 81 10000 1.11 108 20:39 25.02.2020
2105 Clear 13 1016 81 10000 1.71 154 20:20 25.02.2020
2106 Clear 13 1016 87 10000 1.71 154 19:58 25.02.2020
2107 Clear 13 1016 87 10000 1.71 154 19:40 25.02.2020
2108 Clear 13 1016 82 10000 1.71 154 19:19 25.02.2020
2109 Clear 13 1016 87 10000 1.5 0 18:41 25.02.2020
2110 Clouds 13 1016 82 10000 1.5 0 18:21 25.02.2020
2111 Clouds 13 1016 82 10000 1.5 0 18:21 25.02.2020
2112 Clouds 14 1016 77 10000 1.5 0 17:57 25.02.2020
2113 Clouds 14 1016 72 10000 1.5 0 17:37 25.02.2020
2114 Clouds 15 1016 72 10000 1.5 0 17:19 25.02.2020
2115 Clouds 15 1016 67 10000 2.6 190 16:58 25.02.2020
2116 Clouds 16 1016 67 10000 2.6 190 16:39 25.02.2020
2117 Clouds 16 1016 59 10000 3.1 190 16:20 25.02.2020
2118 Clouds 17 1016 55 10000 3.1 190 15:56 25.02.2020
2119 Clouds 17 1016 48 10000 2.6 180 15:37 25.02.2020
2120 Clouds 17 1016 48 10000 2.6 180 15:18 25.02.2020
2121 Clouds 17 1016 45 10000 2.6 190 14:54 25.02.2020
2122 Clouds 17 1017 45 10000 3.1 190 14:36 25.02.2020
2123 Clouds 18 1017 45 10000 3.1 190 14:18 25.02.2020
2124 Clouds 17 1017 48 10000 3.1 210 13:54 25.02.2020
2125 Clouds 17 1017 48 10000 3.1 210 13:54 25.02.2020
2126 Clouds 17 1017 52 10000 3.1 200 13:36 25.02.2020
2127 Clouds 17 1017 52 10000 3.1 200 13:18 25.02.2020
2128 Clouds 18 1018 48 10000 2.6 200 12:40 25.02.2020
2129 Clouds 17 1018 45 10000 2.1 240 12:20 25.02.2020
2130 Clouds 18 1019 48 10000 1.5 0 11:56 25.02.2020
2131 Clouds 18 1019 48 10000 1.5 0 11:38 25.02.2020
2132 Clouds 16 1019 48 10000 1.5 0 11:19 25.02.2020
2133 Clouds 16 1019 48 10000 1.5 0 11:19 25.02.2020
2134 Clouds 16 1019 48 10000 1.5 0 11:19 25.02.2020
2135 Clouds 16 1019 51 10000 1.5 0 10:57 25.02.2020
2136 Clouds 16 1019 51 10000 1.5 0 10:39 25.02.2020
2137 Clouds 16 1019 51 10000 1.5 0 10:20 25.02.2020
2138 Clouds 16 1019 59 10000 1.5 0 09:41 25.02.2020
2139 Clouds 16 1019 59 10000 1.5 0 09:20 25.02.2020
2140 Clouds 15 1019 58 10000 0.55 171 08:45 25.02.2020
2141 Clouds 14 1019 62 10000 0.55 171 08:26 25.02.2020
2142 Clouds 13 1019 66 10000 1.5 0 07:51 25.02.2020
2143 Clouds 12 1019 71 10000 2.6 10 07:25 25.02.2020
2144 Clouds 11 1019 66 10000 2.6 330 06:59 25.02.2020
2145 Clouds 11 1019 66 10000 2.6 330 06:26 25.02.2020
2146 Clouds 11 1018 58 10000 2.6 320 05:23 25.02.2020
2147 Clear 13 1017 38 10000 3.1 360 02:44 25.02.2020
2148 Clear 14 1017 36 10000 3.1 360 01:19 25.02.2020
2149 Clear 13 1017 47 10000 2.93 350 00:34 25.02.2020
2150 Clear 12 1017 66 10000 2.93 350 23:57 24.02.2020
2151 Clear 13 1017 76 10000 2.93 350 23:39 24.02.2020
2152 Clear 13 1017 76 10000 1.77 345 23:19 24.02.2020
2153 Clear 12 1017 81 10000 1.77 345 22:38 24.02.2020
2154 Clear 11 1017 81 10000 1.77 345 22:19 24.02.2020
2155 Clear 11 1017 81 10000 1.77 345 21:56 24.02.2020
2156 Clear 11 1017 76 10000 1.77 345 21:38 24.02.2020
2157 Clear 11 1017 76 10000 1.77 345 21:19 24.02.2020
2158 Clear 11 1016 81 10000 1.5 0 20:56 24.02.2020
2159 Clear 11 1016 81 10000 1.5 0 20:37 24.02.2020
2160 Clear 11 1016 81 10000 1.61 13 20:18 24.02.2020
2161 Clear 12 1015 81 10000 1.61 13 19:56 24.02.2020
2162 Clear 12 1015 76 10000 1.61 13 19:37 24.02.2020
2163 Clear 12 1015 76 10000 1.61 13 19:19 24.02.2020
2164 Clear 12 1015 71 10000 1.61 13 18:42 24.02.2020
2165 Clear 13 1015 66 10000 1.61 13 18:23 24.02.2020
2166 Clear 13 1014 62 10000 1.61 13 17:57 24.02.2020
2167 Clear 14 1014 51 10000 1.61 13 17:38 24.02.2020
2168 Clear 15 1014 51 10000 2.44 226 17:19 24.02.2020
2169 -273 0 0 0 0 0 16:55 24.02.2020
2170 Clear 15 1014 48 10000 2.44 226 16:55 24.02.2020
2171 Clear 16 1014 48 10000 2.1 170 16:37 24.02.2020
2172 Clear 16 1014 48 10000 2.1 170 16:18 24.02.2020
2173 Clear 17 1014 48 10000 2.6 180 15:56 24.02.2020
2174 Clear 17 1014 48 10000 2.6 180 15:38 24.02.2020
2175 Clear 17 1014 45 10000 3.6 180 15:19 24.02.2020
2176 Clear 17 1014 45 10000 2.1 210 14:41 24.02.2020
2177 Clear 17 1014 48 10000 3.1 200 14:23 24.02.2020
2178 Clear 17 1014 48 10000 3.1 210 13:59 24.02.2020
2179 Clear 17 1014 48 10000 3.1 210 13:41 24.02.2020
2180 Clear 17 1014 55 10000 3.1 210 13:22 24.02.2020
2181 Clear 17 1014 51 10000 3.1 200 12:58 24.02.2020
2182 Clear 16 1014 51 10000 3.1 200 12:40 24.02.2020
2183 Clear 16 1014 55 10000 1.5 0 12:22 24.02.2020
2184 Clear 16 1015 55 10000 1.5 0 11:48 24.02.2020
2185 Clear 15 1015 54 10000 1.5 0 11:29 24.02.2020
2186 Clear 14 1016 58 10000 1.5 0 10:51 24.02.2020
2187 Clear 14 1016 50 10000 2.64 235 10:31 24.02.2020
2188 Clear 14 1017 58 10000 2.64 235 09:56 24.02.2020
2189 Clear 13 1017 58 10000 2.64 235 09:38 24.02.2020
2190 Clear 12 1017 54 10000 2.64 235 09:19 24.02.2020
2191 Clear 12 1017 57 10000 2.64 235 08:48 24.02.2020
2192 Clear 11 1017 66 10000 1.5 0 08:28 24.02.2020
2193 Clear 10 1017 70 10000 0.55 289 07:52 24.02.2020
2194 Clear 9 1017 80 10000 0.55 289 07:31 24.02.2020
2195 Clear 7 1017 80 10000 1.5 0 06:48 24.02.2020
2196 Clear 6 1017 80 10000 1.5 0 06:22 24.02.2020
2197 Clear 5 1018 59 10000 1.5 0 05:33 24.02.2020
2198 Clear 6 1018 56 10000 1.5 0 04:49 24.02.2020
2199 Clear 5 1019 80 10000 1.5 0 02:57 24.02.2020
2200 Clouds 6 1020 80 10000 1.5 0 01:53 24.02.2020
2201 Clouds 6 1020 75 10000 1.5 0 01:28 24.02.2020
2202 Clouds 6 1020 75 10000 1.5 0 01:28 24.02.2020
2203 Clouds 6 1021 75 10000 1.5 0 00:38 24.02.2020
2204 Clouds 6 1021 75 10000 1.5 0 00:19 24.02.2020
2205 Clouds 6 1021 75 10000 1.5 0 23:42 23.02.2020
2206 Clouds 6 1022 70 10000 1.5 0 23:23 23.02.2020
2207 Clouds 7 1021 80 10000 1.5 0 22:58 23.02.2020
2208 Clouds 6 1021 80 10000 1.5 0 22:40 23.02.2020
2209 Clouds 6 1022 80 10000 0.9 22 22:21 23.02.2020
2210 Clouds 7 1022 75 10000 1.5 0 21:46 23.02.2020
2211 Clouds 7 1022 57 10000 1.5 0 21:20 23.02.2020
2212 Clouds 8 1022 57 10000 1.5 0 20:58 23.02.2020
2213 Clouds 8 1022 57 10000 1.5 0 20:40 23.02.2020
2214 Clear 8 1022 53 10000 2.6 300 20:22 23.02.2020
2215 Clear 8 1022 65 10000 1.5 0 19:59 23.02.2020
2216 Clear 8 1022 65 10000 1.5 0 19:40 23.02.2020
2217 Clear 9 1023 66 10000 2.6 250 19:19 23.02.2020
2218 Clear 9 1023 57 10000 1.5 0 18:59 23.02.2020
2219 Clear 9 1023 57 10000 1.5 0 18:37 23.02.2020
2220 Clear 9 1022 66 10000 1.5 0 18:19 23.02.2020
2221 Clear 9 1022 61 10000 1.5 0 17:58 23.02.2020
2222 Clear 9 1022 61 10000 1.5 0 17:39 23.02.2020
2223 Clouds 10 1023 53 10000 1.5 0 17:21 23.02.2020
2224 Clouds 11 1023 50 10000 2.6 360 16:54 23.02.2020
2225 Clouds 11 1022 50 10000 3.6 350 16:36 23.02.2020
2226 Clouds 11 1022 50 10000 3.6 350 16:18 23.02.2020
2227 Clouds 12 1023 47 10000 4.6 360 15:40 23.02.2020
2228 Clouds 12 1023 54 10000 4.1 360 15:21 23.02.2020
2229 Clouds 12 1022 54 10000 4.6 350 14:59 23.02.2020
2230 Clouds 12 1022 54 10000 4.6 350 14:40 23.02.2020
2231 Clouds 12 1023 50 10000 4.1 350 14:22 23.02.2020
2232 Clouds 12 1023 50 10000 4.1 350 14:22 23.02.2020
2233 Clouds 12 1023 58 10000 4.6 340 13:57 23.02.2020
2234 Clouds 12 1023 58 10000 4.1 340 13:39 23.02.2020
2235 Clouds 12 1023 58 10000 4.1 340 13:20 23.02.2020
2236 Clouds 12 1024 62 10000 4.1 330 12:43 23.02.2020
2237 Clouds 12 1025 61 10000 4.1 340 12:23 23.02.2020
2238 Clouds 11 1025 66 10000 4.6 340 11:58 23.02.2020
2239 Clouds 11 1026 66 10000 4.1 340 11:37 23.02.2020
2240 Clouds 10 1026 66 10000 4.1 340 11:19 23.02.2020
2241 Clouds 10 1025 66 10000 3.6 340 10:56 23.02.2020
2242 Clouds 10 1025 66 10000 3.6 340 10:56 23.02.2020
2243 Clouds 10 1025 70 10000 3.6 340 10:37 23.02.2020
2244 Clouds 10 1025 70 10000 3.6 340 10:19 23.02.2020
2245 Clouds 10 1025 70 10000 2.6 330 09:40 23.02.2020
2246 Clouds 9 1025 66 10000 2.1 340 09:21 23.02.2020
2247 Clouds 9 1025 75 10000 3.6 340 08:57 23.02.2020
2248 Clouds 9 1025 75 10000 2.6 340 08:39 23.02.2020
2249 Clouds 8 1025 75 10000 2.6 340 08:19 23.02.2020
2250 Clouds 8 1025 75 10000 3.6 330 07:40 23.02.2020
2251 Clouds 8 1025 75 10000 3.1 340 07:18 23.02.2020
2252 Rain 7 1024 75 10000 1.5 0 05:54 23.02.2020
2253 Rain 7 1024 75 10000 1.5 0 04:48 23.02.2020
2254 Clouds 8 1025 87 10000 1.5 0 03:35 23.02.2020
2255 Clouds 8 1025 81 10000 1.5 0 02:38 23.02.2020
2256 Clouds 8 1025 81 10000 1.5 0 02:38 23.02.2020
2257 Clouds 8 1025 81 10000 4.1 350 01:26 23.02.2020
2258 Clouds 8 1025 81 10000 4.6 350 00:55 23.02.2020
2259 Rain 8 1025 81 9000 4.6 350 00:36 23.02.2020
2260 Rain 8 1025 81 9000 4.6 350 00:18 23.02.2020
2261 Rain 8 1025 87 9000 5.1 330 23:41 22.02.2020
2262 Rain 7 1026 87 9000 5.1 330 23:19 22.02.2020
2263 Rain 7 1026 87 9000 4.1 340 22:44 22.02.2020
2264 Rain 7 1025 87 9000 1.5 0 22:19 22.02.2020
2265 Clouds 7 1025 75 10000 1.5 0 21:43 22.02.2020
2266 Clouds 7 1025 81 10000 1.5 0 21:24 22.02.2020
2267 Clouds 7 1025 87 10000 1.5 0 20:54 22.02.2020
2268 Rain 7 1025 87 8000 2.6 70 20:36 22.02.2020
2269 Rain 7 1025 87 8000 2.6 70 20:18 22.02.2020
2270 Rain 6 1025 81 10000 1.5 0 19:42 22.02.2020
2271 Rain 6 1025 81 10000 1.5 0 19:42 22.02.2020
2272 Rain 6 1025 81 10000 1.5 0 19:22 22.02.2020
2273 Rain 7 1025 75 10000 2.6 340 18:54 22.02.2020
2274 Rain 7 1025 87 8000 2.1 330 18:36 22.02.2020
2275 Rain 7 1025 87 8000 2.1 330 18:18 22.02.2020
2276 Rain 7 1024 87 6000 6.2 360 17:43 22.02.2020
2277 Rain 8 1024 87 6000 4.1 360 17:25 22.02.2020
2278 Rain 8 1024 81 8000 5.1 310 16:58 22.02.2020
2279 Rain 8 1024 81 8000 5.1 310 16:40 22.02.2020
2280 Clouds 8 1023 70 10000 2.6 350 16:20 22.02.2020
2281 Clouds 8 1023 70 10000 3.1 350 15:46 22.02.2020
2282 Clouds 8 1023 75 10000 4.1 350 15:27 22.02.2020
2283 Clouds 8 1023 75 10000 4.1 350 15:27 22.02.2020
2284 Rain 8 1023 75 10000 4.1 350 14:59 22.02.2020
2285 Rain 8 1023 75 10000 4.1 350 14:40 22.02.2020
2286 Rain 8 1023 75 10000 4.1 350 14:40 22.02.2020
2287 Rain 9 1023 70 10000 5.1 350 14:20 22.02.2020
2288 Clouds 8 1023 81 10000 4.1 350 13:43 22.02.2020
2289 Rain 8 1023 70 10000 4.1 350 13:20 22.02.2020
2290 Rain 8 1023 70 10000 5.1 350 12:58 22.02.2020
2291 Rain 8 1024 70 10000 5.1 350 12:39 22.02.2020
2292 Clouds 8 1024 70 10000 5.1 350 12:20 22.02.2020
2293 Rain 8 1023 70 10000 5.1 340 11:42 22.02.2020
2294 Rain 7 1024 70 10000 4.1 340 11:24 22.02.2020
2295 Clouds 7 1023 70 10000 4.1 340 10:55 22.02.2020
2296 Rain 7 1023 81 10000 4.1 340 10:36 22.02.2020
2297 Rain 7 1023 81 10000 4.1 340 10:18 22.02.2020
2298 Rain 6 1023 81 10000 3.1 330 09:42 22.02.2020
2299 Rain 6 1023 75 10000 3.1 350 09:22 22.02.2020
2300 Rain 6 1024 81 10000 5.7 360 08:57 22.02.2020
2301 Rain 6 1024 81 10000 5.7 360 08:38 22.02.2020
2302 Clouds 7 1021 66 10000 3.6 340 08:20 22.02.2020
2303 Clouds 7 1021 61 10000 4.1 340 07:39 22.02.2020
2304 Clouds 7 1021 61 10000 3.1 340 07:18 22.02.2020
2305 Clouds 7 1021 65 10000 4.13 2 06:43 22.02.2020
2306 Clouds 6 1020 75 10000 2.93 350 04:54 22.02.2020
2307 Clouds 7 1020 86 10000 2.93 350 04:28 22.02.2020
2308 Clouds 6 1020 80 10000 2.93 350 02:42 22.02.2020
2309 Clouds 6 1021 86 10000 3.02 344 01:51 22.02.2020
2310 Clouds 6 1021 75 10000 3.02 344 01:30 22.02.2020
2311 Clouds 6 1021 86 10000 3.02 341 00:50 22.02.2020
2312 Clouds 6 1021 86 10000 1.5 0 00:32 22.02.2020
2313 Clouds 7 1021 86 10000 3.02 341 23:56 21.02.2020
2314 Clouds 7 1021 80 10000 3.02 341 23:37 21.02.2020
2315 Clouds 7 1021 80 10000 2.99 330 23:18 21.02.2020
2316 Clouds 7 1021 80 10000 2.99 330 23:18 21.02.2020
2317 Clouds 7 1021 86 10000 2.99 330 22:42 21.02.2020
2318 Clouds 7 1021 81 10000 2.99 330 22:24 21.02.2020
2319 Clouds 7 1021 75 10000 2.99 330 21:56 21.02.2020
2320 Clouds 7 1021 75 10000 2.99 330 21:56 21.02.2020
2321 Clouds 7 1021 75 10000 2.99 330 21:37 21.02.2020
2322 Clouds 7 1021 75 10000 2.99 330 21:19 21.02.2020
2323 Clouds 8 1021 66 10000 2.1 10 20:43 21.02.2020
2324 Clouds 8 1021 66 10000 2.6 360 20:25 21.02.2020
2325 Clouds 8 1021 75 10000 1.5 0 19:40 21.02.2020
2326 Clouds 8 1021 75 10000 1.5 0 19:22 21.02.2020
2327 Clouds 8 1020 66 10000 3.36 346 18:44 21.02.2020
2328 Clouds 8 1020 66 10000 3.6 340 18:24 21.02.2020
2329 Clouds 9 1020 66 10000 1.5 0 17:58 21.02.2020
2330 Clouds 9 1020 66 10000 1.5 0 17:38 21.02.2020
2331 Clouds 9 1020 66 10000 1.5 0 17:38 21.02.2020
2332 Clouds 9 1020 62 10000 2.6 350 17:20 21.02.2020
2333 Clouds 10 1019 62 10000 2.6 330 16:56 21.02.2020
2334 Clouds 10 1019 66 10000 1.5 0 16:38 21.02.2020
2335 Clouds 10 1019 66 10000 1.5 0 16:20 21.02.2020
2336 Clouds 10 1019 66 10000 2.6 330 15:44 21.02.2020
2337 Clouds 10 1019 66 10000 4.6 350 15:19 21.02.2020
2338 Clouds 10 1019 66 10000 3.6 340 14:55 21.02.2020
2339 Clouds 10 1019 66 10000 3.6 340 14:37 21.02.2020
2340 Clouds 10 1019 66 10000 4.6 350 14:18 21.02.2020
2341 Clouds 10 1019 66 10000 3.6 340 13:42 21.02.2020
2342 Clouds 10 1019 71 10000 4.1 340 13:21 21.02.2020
2343 Clouds 10 1019 66 10000 5.1 340 12:47 21.02.2020
2344 Clouds 10 1019 66 10000 5.1 340 12:27 21.02.2020
2345 Clouds 10 1019 66 10000 3.6 310 11:59 21.02.2020
2346 Clouds 10 1020 66 10000 3.6 330 11:40 21.02.2020
2347 Clouds 10 1020 66 10000 3.6 330 11:21 21.02.2020
2348 Clouds 10 1019 76 10000 4.1 340 10:55 21.02.2020
2349 Clouds 10 1019 71 10000 5.1 340 10:36 21.02.2020
2350 Clouds 9 1019 71 10000 5.1 340 10:18 21.02.2020
2351 Clouds 9 1018 76 10000 5.1 340 09:42 21.02.2020
2352 Clouds 9 1019 75 10000 5.7 330 09:24 21.02.2020
2353 Clouds 9 1018 70 10000 5.7 350 08:58 21.02.2020
2354 Clouds 9 1018 70 10000 5.7 350 08:39 21.02.2020
2355 Drizzle 8 1018 75 10000 4.6 350 08:21 21.02.2020
2356 Clouds 8 1018 75 10000 4.6 350 07:57 21.02.2020
2357 Clouds 8 1018 75 10000 4.6 350 07:39 21.02.2020
2358 Clouds 8 1017 75 9000 4.1 360 07:18 21.02.2020
2359 Drizzle 7 1016 75 8000 5.1 350 06:42 21.02.2020
2360 Clouds 8 1016 75 10000 5.1 340 06:24 21.02.2020
2361 Clouds 8 1015 75 10000 6.2 340 05:42 21.02.2020
2362 Drizzle 8 1015 81 9000 5.1 360 04:30 21.02.2020
2363 Drizzle 8 1015 81 8000 5.7 350 03:56 21.02.2020
2364 Rain 8 1014 81 8000 5.1 350 03:20 21.02.2020
2365 Rain 8 1014 81 9000 7.2 340 01:50 21.02.2020
2366 Clouds 8 1014 81 10000 7.2 340 01:23 21.02.2020
2367 Clouds 8 1014 81 10000 7.7 350 00:40 21.02.2020
2368 Clouds 8 1014 81 10000 5.1 340 00:21 21.02.2020
2369 Rain 8 1013 81 9000 5.1 340 23:43 20.02.2020
2370 Rain 8 1013 81 9000 5.1 340 23:22 20.02.2020
2371 Rain 8 1013 81 9000 5.1 340 23:22 20.02.2020
2372 Drizzle 8 1013 87 9000 5.1 350 22:55 20.02.2020
2373 Rain 8 1013 81 8000 6.2 340 22:37 20.02.2020
2374 Rain 8 1013 81 8000 6.2 340 22:18 20.02.2020
2375 Rain 8 1013 81 8000 5.7 340 21:54 20.02.2020
2376 Drizzle 9 1012 81 10000 6.2 340 21:36 20.02.2020
2377 Drizzle 9 1012 81 10000 6.2 340 21:18 20.02.2020
2378 Drizzle 10 1012 76 10000 5.1 340 20:54 20.02.2020
2379 Clouds 10 1012 76 10000 5.1 340 20:36 20.02.2020
2380 Clouds 10 1012 76 10000 5.1 340 20:18 20.02.2020
2381 Clouds 10 1011 81 10000 6.2 340 19:42 20.02.2020
2382 Rain 10 1011 81 10000 3.6 310 19:24 20.02.2020
2383 Rain 10 1011 81 10000 2.6 310 18:58 20.02.2020
2384 Rain 10 1010 81 10000 3.1 330 18:37 20.02.2020
2385 Rain 10 1010 81 10000 3.1 330 18:19 20.02.2020
2386 Rain 10 1010 66 10000 4.6 320 17:40 20.02.2020
2387 Rain 11 1010 66 10000 4.6 320 17:22 20.02.2020
2388 Rain 12 1009 62 10000 4.6 330 16:58 20.02.2020
2389 Clouds 12 1009 58 10000 4.1 350 16:39 20.02.2020
2390 Clouds 12 1009 58 10000 4.1 350 16:19 20.02.2020
2391 Clouds 13 1008 54 10000 5.7 310 15:58 20.02.2020
2392 Clouds 13 1008 54 10000 5.7 310 15:39 20.02.2020
2393 Clouds 14 1008 51 10000 4.6 310 15:20 20.02.2020
2394 Clouds 15 1008 51 10000 3.1 280 14:54 20.02.2020
2395 Clouds 15 1008 44 10000 2.1 280 14:36 20.02.2020
2396 Clouds 15 1008 44 10000 2.1 280 14:18 20.02.2020
2397 Clouds 16 1008 42 10000 3.6 290 13:43 20.02.2020
2398 Clouds 15 1009 45 10000 2.6 260 13:19 20.02.2020
2399 Clouds 16 1009 48 10000 1.5 0 12:56 20.02.2020
2400 Clouds 15 1010 55 10000 3.6 260 12:37 20.02.2020
2401 Clouds 15 1010 55 10000 3.6 260 12:18 20.02.2020
2402 Clouds 14 1010 51 10000 2.1 280 11:42 20.02.2020
2403 Clouds 14 1011 67 10000 2.1 280 11:22 20.02.2020
2404 Clouds 14 1011 67 10000 2.1 280 11:22 20.02.2020
2405 Clouds 14 1011 76 10000 3.17 265 10:57 20.02.2020
2406 Clouds 13 1011 93 9000 3.17 265 10:39 20.02.2020
2407 Rain 13 1011 93 9000 3.17 265 10:21 20.02.2020
2408 Rain 12 1011 93 9000 3.17 265 09:46 20.02.2020
2409 Rain 12 1012 100 7000 3.17 265 09:25 20.02.2020
2410 Rain 12 1012 93 6000 3.17 265 08:59 20.02.2020
2411 Rain 11 1012 100 5000 3.17 265 08:39 20.02.2020
2412 Rain 11 1012 100 5000 2.73 288 08:21 20.02.2020
2413 Rain 11 1011 100 4000 2.36 290 07:45 20.02.2020
2414 Rain 11 1011 93 5000 2.36 290 07:26 20.02.2020
2415 Rain 11 1011 93 6000 2.36 290 06:55 20.02.2020
2416 Rain 10 1011 93 8000 2.36 290 06:27 20.02.2020
2417 Rain 11 1011 93 8000 2.36 290 05:46 20.02.2020
2418 Clouds 10 1011 93 9000 2.23 299 04:56 20.02.2020
2419 Clouds 10 1012 93 8000 2.23 299 04:23 20.02.2020
2420 Clouds 10 1012 93 8000 2.23 299 03:35 20.02.2020
2421 Clouds 11 1012 87 8000 2.23 299 02:28 20.02.2020
2422 Clouds 11 1013 87 9000 0.78 334 01:18 20.02.2020
2423 Clouds 11 1014 87 9000 0.78 334 00:34 20.02.2020
2424 Clouds 11 1014 87 9000 0.78 334 23:52 19.02.2020
2425 Clouds 11 1014 87 9000 1.5 0 23:23 19.02.2020
2426 Clouds 12 1014 81 9000 1.34 125 22:55 19.02.2020
2427 Clouds 12 1014 81 9000 1.34 125 22:37 19.02.2020
2428 Clouds 12 1014 81 9000 1.34 125 22:18 19.02.2020
2429 Clouds 12 1015 81 9000 1.34 125 21:55 19.02.2020
2430 Clouds 12 1015 87 9000 1.34 125 21:36 19.02.2020
2431 Clouds 12 1015 87 9000 1.34 125 21:18 19.02.2020
2432 Clouds 12 1015 81 9000 1.34 125 20:55 19.02.2020
2433 Clouds 12 1015 81 9000 1.34 125 20:36 19.02.2020
2434 Clouds 12 1015 81 9000 1.78 143 20:18 19.02.2020
2435 Clouds 12 1015 81 9000 1.78 143 19:54 19.02.2020
2436 Clouds 12 1015 87 10000 1.78 143 19:36 19.02.2020
2437 Clouds 12 1015 87 10000 1.78 143 19:18 19.02.2020
2438 Clouds 12 1015 82 10000 1.78 143 18:55 19.02.2020
2439 Clouds 12 1015 82 10000 1.78 143 18:37 19.02.2020
2440 Clouds 12 1015 82 10000 1.78 143 18:19 19.02.2020
2441 Clouds 13 1015 82 10000 1.5 0 17:42 19.02.2020
2442 Clouds 13 1015 82 10000 1.5 0 17:42 19.02.2020
2443 Clouds 13 1015 71 10000 2.6 190 17:19 19.02.2020
2444 Clouds 14 1015 71 10000 2.6 180 16:44 19.02.2020
2445 Clouds 14 1015 67 10000 3.1 190 16:19 19.02.2020
2446 Clouds 15 1015 67 10000 2.6 190 15:58 19.02.2020
2447 Clouds 14 1015 67 10000 2.6 190 15:39 19.02.2020
2448 Clouds 15 1015 67 10000 3.6 180 15:20 19.02.2020
2449 Clouds 15 1015 59 10000 3.6 190 14:42 19.02.2020
2450 Clouds 15 1015 59 10000 3.6 190 14:42 19.02.2020
2451 Clouds 15 1015 55 10000 3.1 190 14:23 19.02.2020
2452 Clouds 16 1016 55 10000 3.1 180 13:59 19.02.2020
2453 Clouds 16 1016 55 10000 3.1 180 13:40 19.02.2020
2454 Clouds 16 1016 55 10000 2.1 180 13:20 19.02.2020
2455 Clouds 16 1017 55 10000 2.1 180 12:40 19.02.2020
2456 Clouds 16 1017 59 10000 2.1 190 12:19 19.02.2020
2457 Clouds 16 1017 59 10000 2.1 190 12:19 19.02.2020
2458 Clouds 15 1017 55 10000 1.5 0 11:58 19.02.2020
2459 Clouds 15 1018 58 10000 1.5 0 11:37 19.02.2020
2460 Clouds 14 1018 58 10000 1.5 0 11:19 19.02.2020
2461 Clouds 14 1018 58 10000 1.5 0 11:19 19.02.2020
2462 Clouds 14 1018 62 10000 1.5 0 10:56 19.02.2020
2463 Clear 14 1018 62 10000 1.5 0 10:37 19.02.2020
2464 Clear 14 1018 62 10000 1.5 0 10:19 19.02.2020
2465 Clear 14 1019 62 10000 1.36 130 09:56 19.02.2020
2466 Clear 13 1019 66 10000 1.36 130 09:37 19.02.2020
2467 Clear 13 1019 66 10000 1.36 130 09:18 19.02.2020
2468 Clear 12 1019 76 10000 1.5 0 08:43 19.02.2020
2469 Clouds 11 1019 76 10000 1.5 0 08:23 19.02.2020
2470 Clouds 10 1019 81 10000 1.5 0 07:41 19.02.2020
2471 Clouds 9 1018 93 10000 1.5 0 07:20 19.02.2020
2472 Clouds 8 1018 87 10000 1.5 0 06:47 19.02.2020
2473 Clouds 7 1018 93 10000 1.86 28 06:19 19.02.2020
2474 Clouds 7 1018 93 10000 1.5 0 04:20 19.02.2020
2475 Clouds 8 1018 93 10000 1.56 11 02:54 19.02.2020
2476 Clouds 8 1018 93 10000 1.56 11 02:29 19.02.2020
2477 Clouds 8 1018 87 10000 1.42 32 01:23 19.02.2020
2478 Clouds 8 1018 87 10000 1.32 40 00:49 19.02.2020
2479 Clouds 8 1018 87 10000 1.32 40 00:29 19.02.2020
2480 Clouds 8 1019 87 10000 1.32 40 23:44 18.02.2020
2481 Clouds 8 1019 81 10000 0.65 81 23:20 18.02.2020
2482 Clouds 9 1019 87 10000 1.5 0 22:57 18.02.2020
2483 Clouds 9 1019 87 10000 1.5 0 22:39 18.02.2020
2484 Clouds 9 1019 87 10000 1.5 0 22:19 18.02.2020
2485 Clouds 9 1019 87 10000 1.5 0 21:55 18.02.2020
2486 Clouds 9 1019 87 10000 1.5 0 21:55 18.02.2020
2487 Clouds 10 1019 81 10000 0.65 81 21:37 18.02.2020
2488 Clouds 10 1019 81 10000 0.65 81 21:37 18.02.2020
2489 Clouds 10 1019 81 10000 0.65 81 21:18 18.02.2020
2490 Clouds 10 1019 81 10000 0.65 81 21:18 18.02.2020
2491 Clouds 10 1018 87 10000 1.5 0 20:56 18.02.2020
2492 Clouds 10 1018 87 10000 1.5 0 20:56 18.02.2020
2493 Clouds 10 1018 87 10000 1.5 0 20:56 18.02.2020
2494 Clouds 10 1018 87 10000 1.5 0 20:37 18.02.2020
2495 Clouds 11 1018 81 10000 1.51 141 20:19 18.02.2020
2496 Clear 11 1018 76 10000 1.51 141 19:42 18.02.2020
2497 Clear 11 1018 76 10000 1.51 141 19:20 18.02.2020
2498 Clear 11 1018 71 10000 1.51 141 18:59 18.02.2020
2499 Clear 11 1018 71 10000 1.51 141 18:59 18.02.2020
2500 Clear 12 1018 71 10000 1.51 141 18:40 18.02.2020
2501 Clear 12 1018 71 10000 1.51 141 18:20 18.02.2020
2502 Clear 12 1018 71 10000 1.51 141 17:55 18.02.2020
2503 Clear 12 1017 71 10000 2.1 170 17:37 18.02.2020
2504 Clear 13 1017 71 10000 2.1 170 17:18 18.02.2020
2505 Clear 14 1017 67 10000 4.1 180 16:39 18.02.2020
2506 Clear 14 1017 58 10000 4.1 180 16:19 18.02.2020
2507 Clear 15 1017 41 10000 4.1 180 15:40 18.02.2020
2508 Clear 15 1017 36 10000 2.6 190 15:20 18.02.2020
2509 Clear 15 1017 42 10000 2.6 170 14:57 18.02.2020
2510 Clear 15 1017 42 10000 2.6 170 14:57 18.02.2020
2511 Clear 15 1017 42 10000 2.6 170 14:38 18.02.2020
2512 Clear 16 1017 42 10000 2.6 170 14:20 18.02.2020
2513 Clear 16 1017 38 10000 3.1 160 13:42 18.02.2020
2514 Clear 16 1017 48 10000 3.08 173 13:23 18.02.2020
2515 Clear 16 1018 39 10000 1.5 0 12:56 18.02.2020
2516 Clear 16 1018 39 10000 3.08 173 12:38 18.02.2020
2517 Clear 16 1018 39 10000 3.08 173 12:19 18.02.2020
2518 Clear 16 1019 38 10000 3.08 173 11:44 18.02.2020
2519 Clear 15 1019 41 10000 3.08 173 11:26 18.02.2020
2520 Clear 14 1021 50 10000 1 0 10:57 18.02.2020
2521 Clear 14 1019 38 10000 0.67 184 10:39 18.02.2020
2522 Clear 13 1020 47 10000 0.67 184 10:18 18.02.2020
2523 Clear 13 1020 47 10000 0.67 184 09:56 18.02.2020
2524 Clear 13 1020 47 10000 0.67 184 09:37 18.02.2020
2525 Clear 13 1020 47 10000 0.67 184 09:37 18.02.2020
2526 Clear 12 1020 47 10000 0.67 184 09:18 18.02.2020
2527 Clear 11 1020 53 10000 0.67 184 08:43 18.02.2020
2528 Clear 10 1020 66 10000 1.62 1 08:21 18.02.2020
2529 Clear 9 1020 75 10000 1.57 3 07:57 18.02.2020
2530 Clear 8 1020 80 10000 1.57 3 07:34 18.02.2020
2531 Clear 6 1020 80 10000 1.57 3 06:57 18.02.2020
2532 Clear 6 1020 80 10000 1.57 3 06:39 18.02.2020
2533 Clouds 5 1019 86 10000 1.57 3 06:20 18.02.2020
2534 Clouds 6 1020 86 10000 1.5 0 05:34 18.02.2020
2535 Clouds 6 1020 80 10000 1.5 0 04:39 18.02.2020
2536 Clouds 6 1020 80 10000 1.5 0 03:36 18.02.2020
2537 Clouds 7 1020 75 10000 1.5 0 02:38 18.02.2020
2538 Clouds 7 1021 70 10000 1.5 0 01:19 18.02.2020
2539 Clouds 7 1022 61 10000 2.6 320 00:22 18.02.2020
2540 Clouds 7 1022 66 10000 1.5 0 23:57 17.02.2020
2541 Clouds 8 1022 70 10000 1.5 0 23:38 17.02.2020
2542 Clouds 8 1022 70 10000 1.5 0 23:19 17.02.2020
2543 Clouds 8 1022 65 10000 1.5 0 22:41 17.02.2020
2544 Clouds 9 1022 57 10000 2.1 300 22:21 17.02.2020
2545 Clouds 9 1022 61 10000 2.1 340 21:59 17.02.2020
2546 Clouds 10 1023 50 10000 2.6 320 21:38 17.02.2020
2547 Clouds 10 1023 50 10000 2.6 320 21:18 17.02.2020
2548 Clouds 10 1023 54 10000 3.6 330 20:42 17.02.2020
2549 Clouds 10 1023 54 10000 3.6 330 20:42 17.02.2020
2550 Clouds 10 1023 54 10000 2.6 340 20:21 17.02.2020
2551 Clouds 10 1023 54 10000 2.6 330 19:59 17.02.2020
2552 Clouds 10 1023 58 10000 2.6 330 19:40 17.02.2020
2553 Clouds 10 1023 58 10000 2.6 330 19:40 17.02.2020
2554 Clouds 10 1023 58 10000 2.6 330 19:20 17.02.2020
2555 Clouds 11 1023 54 10000 4.1 350 18:38 17.02.2020
2556 Clouds 11 1023 54 10000 4.1 350 18:20 17.02.2020
2557 Clouds 11 1023 54 10000 4.1 350 18:20 17.02.2020
2558 Clear 12 1022 54 10000 4.1 350 17:59 17.02.2020
2559 Clear 12 1022 50 10000 5.1 340 17:38 17.02.2020
2560 Clear 12 1022 50 10000 5.1 340 17:38 17.02.2020
2561 Clear 12 1022 50 10000 5.1 340 17:19 17.02.2020
2562 Clouds 14 1022 50 10000 5.1 320 16:58 17.02.2020
2563 Clouds 14 1022 50 10000 5.1 320 16:40 17.02.2020
2564 Clouds 14 1022 47 10000 5.1 320 16:21 17.02.2020
2565 Clouds 14 1023 47 10000 4.6 330 15:45 17.02.2020
2566 Clouds 14 1023 47 10000 4.6 330 15:45 17.02.2020
2567 Clouds 14 1023 51 10000 4.1 350 15:26 17.02.2020
2568 Clouds 15 1023 47 10000 4.6 340 14:56 17.02.2020
2569 Clouds 15 1023 47 10000 5.1 330 14:38 17.02.2020
2570 Clouds 15 1023 47 10000 5.1 330 14:19 17.02.2020
2571 Clouds 14 1024 51 10000 4.6 340 13:41 17.02.2020
2572 Clouds 14 1024 47 10000 5.1 340 13:22 17.02.2020
2573 Clouds 15 1024 54 10000 5.1 330 12:59 17.02.2020
2574 Clouds 15 1024 54 10000 5.1 330 12:41 17.02.2020
2575 Clouds 14 1025 54 10000 6.2 330 12:22 17.02.2020
2576 Clouds 14 1026 54 10000 5.7 340 11:47 17.02.2020
2577 Clouds 14 1026 50 10000 6.7 330 11:29 17.02.2020
2578 Clouds 13 1026 58 10000 4.6 340 10:58 17.02.2020
2579 Clouds 13 1026 58 10000 4.6 340 10:40 17.02.2020
2580 Clouds 13 1026 58 10000 5.1 340 10:21 17.02.2020
2581 Clouds 13 1026 58 10000 5.1 340 10:21 17.02.2020
2582 Clouds 12 1026 54 10000 5.1 330 09:58 17.02.2020
2583 Clouds 13 1027 54 10000 5.1 320 09:40 17.02.2020
2584 Clouds 12 1027 54 10000 5.1 320 09:19 17.02.2020
2585 Clouds 12 1026 58 10000 4.6 330 08:56 17.02.2020
2586 Clouds 11 1026 62 10000 5.1 320 08:38 17.02.2020
2587 Clouds 11 1026 62 10000 5.1 320 08:19 17.02.2020
2588 Clouds 10 1026 62 10000 4.6 310 07:40 17.02.2020
2589 Clouds 9 1026 66 10000 3.1 320 07:22 17.02.2020
2590 Clouds 9 1026 66 10000 4.6 330 06:51 17.02.2020
2591 Clouds 9 1026 66 10000 4.1 330 06:30 17.02.2020
2592 Clouds 9 1026 57 10000 5.1 340 05:40 17.02.2020
2593 Clouds 9 1027 61 10000 7.2 10 04:58 17.02.2020
2594 Clouds 9 1027 66 10000 6.2 340 03:20 17.02.2020
2595 Clouds 9 1027 66 10000 4.1 350 01:36 17.02.2020
2596 Clouds 9 1027 61 10000 2.6 340 00:41 17.02.2020
2597 Clouds 9 1028 61 10000 5.1 330 00:19 17.02.2020
2598 Clouds 9 1028 61 10000 4.1 300 23:52 16.02.2020
2599 Clouds 9 1028 61 10000 3.1 320 23:29 16.02.2020
2600 Clouds 9 1028 61 10000 4.1 330 22:57 16.02.2020
2601 Clouds 9 1028 57 10000 5.1 340 22:38 16.02.2020
2602 Clouds 9 1028 57 10000 5.1 340 22:20 16.02.2020
2603 Clouds 9 1028 57 10000 5.1 330 21:56 16.02.2020
2604 Clouds 9 1028 57 10000 5.1 330 21:38 16.02.2020
2605 Clouds 9 1028 57 10000 5.1 330 21:20 16.02.2020
2606 Clouds 9 1028 57 10000 4.1 310 20:56 16.02.2020
2607 Clouds 9 1028 53 10000 5.1 330 20:38 16.02.2020
2608 Clouds 9 1028 53 10000 5.1 330 20:20 16.02.2020
2609 Clouds 9 1028 53 10000 5.1 330 19:57 16.02.2020
2610 Clouds 9 1028 53 10000 4.1 330 19:37 16.02.2020
2611 Clouds 9 1028 53 10000 4.1 330 19:18 16.02.2020
2612 Clouds 10 1028 53 10000 4.1 310 18:42 16.02.2020
2613 Clouds 10 1028 53 10000 4.1 350 18:23 16.02.2020
2614 Clouds 10 1027 53 10000 2.6 340 17:55 16.02.2020
2615 Clouds 10 1027 50 10000 4.1 350 17:36 16.02.2020
2616 Clouds 11 1027 50 10000 4.1 350 17:18 16.02.2020
2617 Clouds 11 1027 47 10000 4.6 340 16:39 16.02.2020
2618 Clouds 12 1026 47 10000 4.6 340 16:21 16.02.2020
2619 Clouds 12 1026 47 10000 4.6 340 16:21 16.02.2020
2620 Clouds 12 1026 44 10000 5.1 350 15:59 16.02.2020
2621 Clouds 12 1026 44 10000 5.1 350 15:40 16.02.2020
2622 Clouds 12 1026 41 10000 4.6 360 15:21 16.02.2020
2623 Clouds 12 1026 38 10000 5.1 350 14:41 16.02.2020
2624 Clouds 13 1026 38 10000 6.7 340 14:23 16.02.2020
2625 Clouds 13 1027 41 10000 5.1 340 13:55 16.02.2020
2626 Clouds 13 1027 44 10000 6.2 360 13:36 16.02.2020
2627 Clouds 13 1027 44 10000 6.2 360 13:18 16.02.2020
2628 Rain 13 1027 44 10000 6.2 360 12:39 16.02.2020
2629 Clouds 13 1027 47 10000 5.1 350 12:19 16.02.2020
2630 Clouds 13 1027 44 10000 4.6 360 11:40 16.02.2020
2631 Clouds 12 1027 44 10000 5.1 10 11:20 16.02.2020
2632 Clouds 12 1027 50 10000 5.7 350 10:58 16.02.2020
2633 Clouds 12 1027 50 10000 5.7 350 10:40 16.02.2020
2634 Clouds 12 1027 50 10000 4.1 350 10:21 16.02.2020
2635 Clouds 12 1027 50 10000 4.1 350 10:21 16.02.2020
2636 Clouds 12 1027 50 10000 4.1 350 10:21 16.02.2020
2637 Clouds 12 1027 58 10000 3.6 330 09:59 16.02.2020
2638 Clouds 12 1027 58 10000 3.6 330 09:38 16.02.2020
2639 Clouds 12 1027 54 10000 4.1 350 09:20 16.02.2020
2640 Clouds 11 1027 58 10000 4.1 350 08:50 16.02.2020
2641 Clouds 10 1027 54 10000 3.6 350 08:22 16.02.2020
2642 Clouds 10 1027 62 10000 3.1 330 07:59 16.02.2020
2643 Clouds 10 1027 62 10000 3.1 330 07:40 16.02.2020
2644 Clouds 9 1026 62 10000 2.6 340 06:47 16.02.2020
2645 Clouds 9 1026 62 10000 3.1 360 05:53 16.02.2020
2646 Clouds 9 1025 62 10000 2.1 300 04:37 16.02.2020
2647 Clouds 10 1025 62 10000 3.1 360 03:20 16.02.2020
2648 Clouds 10 1024 66 10000 1.5 0 01:58 16.02.2020
2649 Clouds 10 1024 66 10000 1.5 0 01:38 16.02.2020
2650 Clouds 10 1024 66 10000 1.5 0 01:19 16.02.2020
2651 Clouds 10 1024 71 10000 1.5 0 00:42 16.02.2020
2652 Clouds 10 1024 76 10000 1.5 0 00:22 16.02.2020
2653 Clouds 10 1024 71 10000 6 358 23:43 15.02.2020
2654 Clouds 10 1024 66 10000 1.5 0 23:25 15.02.2020
2655 Clouds 10 1024 66 10000 1.5 0 22:58 15.02.2020
2656 Clouds 10 1024 66 10000 1.5 0 22:40 15.02.2020
2657 Clouds 11 1024 62 10000 3.6 350 22:19 15.02.2020
2658 Clouds 11 1023 62 10000 3.6 340 21:56 15.02.2020
2659 Clouds 11 1023 66 10000 2.1 320 21:37 15.02.2020
2660 Clouds 11 1023 66 10000 2.1 320 21:19 15.02.2020
2661 Clouds 11 1023 66 10000 2.6 350 20:39 15.02.2020
2662 Clouds 11 1023 66 10000 2.6 330 20:20 15.02.2020
2663 Clouds 11 1023 71 10000 4.1 330 19:44 15.02.2020
2664 Clouds 11 1022 71 10000 3.6 340 19:22 15.02.2020
2665 Clouds 11 1022 71 10000 3.6 340 19:22 15.02.2020
2666 Clouds 11 1022 71 10000 4.1 330 18:43 15.02.2020
2667 Clouds 11 1021 66 10000 2.6 330 18:23 15.02.2020
2668 Clouds 11 1021 66 10000 2.6 340 17:58 15.02.2020
2669 Clouds 11 1021 66 10000 2.6 340 17:38 15.02.2020
2670 Clouds 11 1020 66 10000 5.1 340 17:20 15.02.2020
2671 Clouds 11 1020 71 10000 4.1 340 16:43 15.02.2020
2672 Clouds 11 1020 71 10000 4.1 340 16:24 15.02.2020
2673 Clouds 11 1019 71 10000 6.2 340 15:58 15.02.2020
2674 Clouds 11 1019 71 10000 6.2 340 15:40 15.02.2020
2675 Clouds 11 1019 71 10000 6.2 340 15:40 15.02.2020
2676 Clouds 11 1018 71 10000 6.2 350 15:22 15.02.2020
2677 Clouds 11 1018 71 10000 6.2 350 14:45 15.02.2020
2678 Clouds 11 1018 62 10000 6.2 340 14:19 15.02.2020
2679 Clouds 11 1018 58 10000 7.7 350 13:56 15.02.2020
2680 Clouds 11 1017 66 10000 5.7 350 13:38 15.02.2020
2681 Clouds 11 1017 66 10000 5.7 350 13:20 15.02.2020
2682 Clouds 11 1017 66 10000 5.1 350 12:42 15.02.2020
2683 Clouds 11 1017 71 10000 6.2 340 12:24 15.02.2020
2684 Clouds 12 1017 71 10000 7.2 340 11:52 15.02.2020
2685 Clouds 12 1017 76 10000 7.2 340 11:33 15.02.2020
2686 Rain 12 1017 76 10000 5.1 340 10:57 15.02.2020
2687 Rain 12 1016 76 9000 5.1 330 10:39 15.02.2020
2688 Rain 12 1016 76 9000 5.1 330 10:39 15.02.2020
2689 Rain 12 1016 76 9000 5.1 330 10:20 15.02.2020
2690 Clouds 12 1016 76 10000 4.1 330 09:44 15.02.2020
2691 Clouds 12 1015 71 10000 3.1 320 09:25 15.02.2020
2692 Clouds 12 1015 71 10000 1.5 0 08:46 15.02.2020
2693 Clouds 12 1014 81 10000 1.5 0 08:26 15.02.2020
2694 Clouds 12 1014 81 10000 2.6 330 07:59 15.02.2020
2695 Clouds 12 1014 81 10000 2.6 330 07:59 15.02.2020
2696 Clouds 12 1014 81 10000 2.6 330 07:39 15.02.2020
2697 Clouds 11 1013 81 10000 3.6 330 07:21 15.02.2020
2698 Rain 11 1012 81 10000 3.1 340 06:38 15.02.2020
2699 Clouds 11 1012 81 10000 3.1 350 05:56 15.02.2020
2700 Clouds 11 1012 87 10000 1.5 0 04:49 15.02.2020
2701 Clouds 11 1011 82 10000 3.1 320 04:21 15.02.2020
2702 Rain 11 1011 93 8000 2.1 250 02:58 15.02.2020
2703 Rain 11 1012 87 9000 2.6 330 02:26 15.02.2020
2704 Rain 12 1012 93 9000 2.65 61 01:50 15.02.2020
2705 Rain 12 1012 87 9000 1.85 85 01:31 15.02.2020
2706 Rain 13 1012 93 9000 2.6 190 00:29 15.02.2020
2707 Clouds 13 1012 93 9000 2.6 180 23:47 14.02.2020
2708 Clouds 12 1013 93 9000 2.6 150 23:21 14.02.2020
2709 Clouds 12 1013 93 9000 2.1 130 22:58 14.02.2020
2710 Clouds 12 1013 93 9000 2.1 130 22:40 14.02.2020
2711 Clouds 12 1014 93 9000 2.6 120 22:21 14.02.2020
2712 Rain 12 1014 93 9000 3.6 130 21:49 14.02.2020
2713 Rain 12 1014 93 9000 3.6 130 21:49 14.02.2020
2714 Rain 12 1014 87 9000 2.1 120 21:30 14.02.2020
2715 Clouds 12 1014 87 10000 2.1 120 20:48 14.02.2020
2716 Clouds 12 1015 87 10000 2.1 130 20:21 14.02.2020
2717 Drizzle 12 1015 87 10000 2.6 160 19:59 14.02.2020
2718 Drizzle 12 1015 87 10000 2.6 160 19:41 14.02.2020
2719 Drizzle 12 1015 87 10000 2.6 160 19:41 14.02.2020
2720 Drizzle 12 1015 87 10000 2.6 160 19:41 14.02.2020
2721 Drizzle 12 1015 87 10000 2.6 160 19:41 14.02.2020
2722 Clouds 12 1015 82 10000 4.1 150 19:23 14.02.2020
2723 Clouds 12 1015 82 10000 3.6 170 18:57 14.02.2020
2724 Clouds 13 1015 82 10000 3.6 170 18:39 14.02.2020
2725 Drizzle 13 1016 76 10000 3.1 140 18:20 14.02.2020
2726 Clouds 13 1016 76 10000 3.1 150 17:44 14.02.2020
2727 Clouds 13 1016 71 10000 4.72 140 17:22 14.02.2020
2728 Clouds 13 1016 71 10000 5.16 149 16:59 14.02.2020
2729 Clouds 13 1016 71 10000 5.16 149 16:40 14.02.2020
2730 Clouds 13 1016 71 10000 5.16 149 16:22 14.02.2020
2731 Clouds 14 1016 71 10000 5.16 149 15:56 14.02.2020
2732 Clouds 14 1017 71 10000 5.16 149 15:37 14.02.2020
2733 Clouds 14 1017 71 10000 5.16 149 15:19 14.02.2020
2734 Clouds 14 1017 71 10000 5.16 149 14:58 14.02.2020
2735 Clouds 14 1017 71 10000 5.16 149 14:40 14.02.2020
2736 Clouds 14 1017 71 10000 3.94 161 14:21 14.02.2020
2737 Clouds 14 1018 71 10000 3.94 161 13:55 14.02.2020
2738 Clouds 14 1018 67 10000 3.94 161 13:37 14.02.2020
2739 Clouds 14 1018 67 10000 3.29 162 13:18 14.02.2020
2740 Clouds 14 1019 71 10000 3.29 162 12:56 14.02.2020
2741 Clouds 14 1019 71 10000 3.29 162 12:56 14.02.2020
2742 Clouds 14 1019 71 10000 3.29 162 12:38 14.02.2020
2743 Clouds 14 1019 71 10000 3.29 162 12:38 14.02.2020
2744 Clouds 14 1019 71 10000 3.29 162 12:18 14.02.2020
2745 Clouds 14 1020 67 10000 3.29 162 11:55 14.02.2020
2746 Clouds 14 1020 71 10000 3.29 162 11:36 14.02.2020
2747 Clouds 13 1020 71 10000 2.46 156 11:18 14.02.2020
2748 Clouds 13 1020 71 10000 2.46 156 10:41 14.02.2020
2749 Clouds 13 1021 71 10000 2.46 156 10:22 14.02.2020
2750 Clouds 12 1021 71 10000 2.46 156 09:44 14.02.2020
2751 Clouds 12 1021 76 10000 2.46 156 09:23 14.02.2020
2752 Clouds 12 1021 76 10000 2.46 156 09:23 14.02.2020
2753 Clouds 12 1021 81 10000 2.46 156 08:57 14.02.2020
2754 Clouds 11 1021 81 10000 2.46 156 08:38 14.02.2020
2755 Clouds 11 1021 81 10000 1.13 155 08:20 14.02.2020
2756 Clouds 10 1021 81 10000 1.26 152 07:49 14.02.2020
2757 Clouds 10 1021 87 10000 1.26 152 07:29 14.02.2020
2758 Clouds 9 1021 81 10000 1.26 152 06:39 14.02.2020
2759 Clouds 9 1021 81 10000 1.26 152 06:18 14.02.2020
2760 Clouds 9 1022 87 10000 1.26 152 05:28 14.02.2020
2761 Clouds 9 1022 81 10000 0.7 161 03:48 14.02.2020
2762 Clouds 9 1023 81 10000 0.7 161 02:56 14.02.2020
2763 Clouds 9 1023 81 10000 0.7 161 02:56 14.02.2020
2764 Clouds 9 1023 87 10000 0.45 62 01:57 14.02.2020
2765 Clouds 9 1024 87 10000 0.58 103 00:45 14.02.2020
2766 Clouds 9 1024 87 10000 0.58 103 00:45 14.02.2020
2767 Clouds 10 1024 81 10000 0.58 103 00:26 14.02.2020
2768 Clouds 9 1024 81 10000 0.58 103 23:57 13.02.2020
2769 Clouds 9 1025 81 10000 0.58 103 23:38 13.02.2020
2770 Clouds 9 1025 81 10000 0.73 119 23:18 13.02.2020
2771 Clouds 10 1025 81 10000 0.73 119 22:40 13.02.2020
2772 Clouds 10 1025 81 10000 0.73 119 22:19 13.02.2020
2773 Clouds 10 1025 76 10000 0.73 119 21:57 13.02.2020
2774 Clouds 10 1024 81 10000 0.73 119 21:37 13.02.2020
2775 Clouds 10 1024 81 10000 0.73 119 21:19 13.02.2020
2776 Clouds 10 1025 81 10000 0.73 119 20:42 13.02.2020
2777 Clouds 10 1024 71 10000 0.82 145 20:22 13.02.2020
2778 Clouds 11 1024 71 10000 1.5 0 19:57 13.02.2020
2779 Clouds 11 1024 66 10000 3.1 80 19:38 13.02.2020
2780 Clouds 11 1024 66 10000 3.1 80 19:20 13.02.2020
2781 Clouds 11 1024 71 10000 4.1 80 18:57 13.02.2020
2782 Clouds 11 1024 62 10000 4.1 80 18:39 13.02.2020
2783 Clouds 12 1024 62 10000 4.1 80 18:20 13.02.2020
2784 Clouds 12 1024 62 10000 4.1 80 17:57 13.02.2020
2785 Clouds 12 1024 62 10000 2.6 90 17:37 13.02.2020
2786 Clouds 12 1024 62 10000 2.6 90 17:18 13.02.2020
2787 Clouds 13 1023 62 10000 2.6 170 16:42 13.02.2020
2788 Clouds 14 1023 59 10000 2.6 180 16:21 13.02.2020
2789 Clouds 14 1023 55 10000 1.5 0 15:58 13.02.2020
2790 Clouds 15 1023 55 10000 1.5 0 15:39 13.02.2020
2791 Clouds 15 1023 51 10000 1.5 0 15:20 13.02.2020
2792 Clouds 15 1023 48 10000 1.5 0 14:59 13.02.2020
2793 Clouds 15 1023 48 10000 1.5 0 14:40 13.02.2020
2794 Clouds 15 1025 58 10000 4.6 70 14:21 13.02.2020
2795 Clouds 16 1023 48 10000 1.5 0 13:54 13.02.2020
2796 Clouds 15 1024 51 10000 1.5 0 13:36 13.02.2020
2797 Clouds 15 1024 51 10000 1.5 0 13:18 13.02.2020
2798 Clouds 15 1024 45 10000 2.6 30 12:48 13.02.2020
2799 Clouds 15 1024 51 10000 3.1 350 12:29 13.02.2020
2800 Clouds 15 1024 48 10000 3.1 10 11:57 13.02.2020
2801 Clouds 15 1024 48 10000 4.1 30 11:39 13.02.2020
2802 Clouds 14 1024 48 10000 4.1 30 11:18 13.02.2020
2803 Clouds 15 1024 48 10000 2.6 350 10:43 13.02.2020
2804 Clouds 15 1024 51 10000 1.5 0 10:23 13.02.2020
2805 Clouds 14 1024 59 10000 1.5 0 09:46 13.02.2020
2806 Clouds 14 1024 62 10000 2.6 350 09:24 13.02.2020
2807 Clouds 14 1024 62 10000 2.6 350 09:24 13.02.2020
2808 Clouds 13 1024 67 10000 2.6 360 08:48 13.02.2020
2809 Clouds 12 1024 71 10000 2.1 340 08:20 13.02.2020
2810 Clouds 12 1023 71 10000 1.5 0 07:45 13.02.2020
2811 Clouds 11 1023 76 10000 1.5 0 07:24 13.02.2020
2812 Clouds 11 1022 76 10000 3.1 330 06:56 13.02.2020
2813 Clouds 11 1022 71 10000 3.95 13 06:38 13.02.2020
2814 Clouds 11 1021 76 10000 1.5 0 05:57 13.02.2020
2815 Clouds 11 1021 76 10000 1.5 0 05:20 13.02.2020
2816 Clouds 11 1020 76 10000 3.1 310 04:24 13.02.2020
2817 Clouds 11 1019 76 10000 2.6 320 03:45 13.02.2020
2818 Clouds 11 1019 81 10000 3.6 330 02:59 13.02.2020
2819 Clouds 11 1019 81 10000 3.6 330 02:37 13.02.2020
2820 Clouds 11 1019 81 10000 2.1 320 02:18 13.02.2020
2821 Clouds 11 1019 87 10000 3.37 21 01:27 13.02.2020
2822 Clouds 11 1018 81 10000 3.65 14 00:32 13.02.2020
2823 Clouds 12 1018 81 10000 3.65 14 23:58 12.02.2020
2824 Clouds 12 1018 81 10000 3.65 14 23:37 12.02.2020
2825 Clouds 12 1018 87 10000 2.96 360 23:18 12.02.2020
2826 Clouds 12 1017 81 10000 2.96 360 22:44 12.02.2020
2827 Clouds 12 1017 81 10000 2.96 360 22:24 12.02.2020
2828 Clouds 12 1017 81 10000 2.96 360 21:57 12.02.2020
2829 Clouds 12 1017 81 10000 2.96 360 21:39 12.02.2020
2830 Clouds 12 1016 87 10000 2.96 360 21:19 12.02.2020
2831 Clouds 12 1016 82 10000 2.96 360 20:55 12.02.2020
2832 Clouds 12 1016 82 10000 2.96 360 20:37 12.02.2020
2833 Clouds 13 1016 82 10000 2.65 11 20:18 12.02.2020
2834 Clouds 13 1015 82 10000 2.65 11 19:44 12.02.2020
2835 Clouds 13 1015 82 10000 3.45 19 19:23 12.02.2020
2836 Clouds 14 1015 72 10000 2.65 11 18:54 12.02.2020
2837 Clouds 13 1014 67 10000 2.65 11 18:36 12.02.2020
2838 Clouds 14 1014 67 10000 3.45 19 18:18 12.02.2020
2839 Clouds 15 1014 63 10000 2.65 11 17:42 12.02.2020
2840 Clouds 15 1014 59 10000 1.65 44 17:20 12.02.2020
2841 Clouds 16 1013 55 10000 1.65 44 16:58 12.02.2020
2842 Clouds 17 1013 55 10000 1.65 44 16:37 12.02.2020
2843 Clouds 17 1013 52 10000 1.5 330 16:18 12.02.2020
2844 Clouds 18 1013 46 10000 3.6 30 15:40 12.02.2020
2845 Clouds 18 1013 46 10000 3.6 30 15:20 12.02.2020
2846 Clouds 18 1013 49 10000 2.6 10 14:56 12.02.2020
2847 Clouds 18 1012 49 10000 1.5 210 14:38 12.02.2020
2848 Clouds 19 1012 49 10000 1.5 210 14:19 12.02.2020
2849 Clouds 19 1012 49 10000 2.1 200 13:56 12.02.2020
2850 Clouds 19 1012 52 10000 1.5 0 13:37 12.02.2020
2851 Clouds 19 1012 52 10000 1.5 0 13:18 12.02.2020
2852 Clouds 19 1013 49 10000 1.5 0 12:55 12.02.2020
2853 Clouds 20 1013 52 10000 1 0 12:36 12.02.2020
2854 Clouds 19 1013 52 10000 1 0 12:18 12.02.2020
2855 Clouds 19 1013 52 10000 1 0 12:18 12.02.2020
2856 Clouds 19 1015 52 10000 0.5 0 11:54 12.02.2020
2857 Clouds 19 1015 52 10000 0.5 0 11:36 12.02.2020
2858 Clouds 19 1013 59 10000 0.5 110 11:18 12.02.2020
2859 Clouds 18 1013 59 10000 1.5 130 10:42 12.02.2020
2860 Clouds 18 1013 59 10000 1.5 140 10:21 12.02.2020
2861 Clear 17 1013 67 10000 1.63 42 09:58 12.02.2020
2862 Clear 17 1013 72 10000 1.63 42 09:40 12.02.2020
2863 Clear 16 1013 72 10000 1.63 42 09:19 12.02.2020
2864 Clear 15 1013 72 10000 1.63 42 08:57 12.02.2020
2865 Clear 15 1013 72 10000 1.63 42 08:37 12.02.2020
2866 Clouds 14 1013 72 10000 2.93 354 08:19 12.02.2020
2867 Clouds 13 1013 82 10000 2.93 354 07:43 12.02.2020
2868 Clouds 12 1013 81 10000 2.93 354 07:23 12.02.2020
2869 Clouds 11 1012 81 10000 2.93 354 06:53 12.02.2020
2870 Clouds 11 1012 87 10000 2.93 354 06:20 12.02.2020
2871 Clouds 11 1012 81 10000 2.93 354 05:36 12.02.2020
2872 Clouds 11 1012 81 10000 3.23 324 04:57 12.02.2020
2873 Clouds 12 1012 81 10000 3.23 324 04:39 12.02.2020
2874 Clouds 12 1011 76 10000 3.23 324 03:32 12.02.2020
2875 Clouds 12 1012 81 10000 3.23 324 02:58 12.02.2020
2876 Clouds 12 1012 87 10000 3.23 324 02:28 12.02.2020
2877 Clouds 12 1012 87 10000 3.23 324 02:28 12.02.2020
2878 Clouds 12 1012 81 10000 4.07 310 01:50 12.02.2020
2879 Clouds 12 1012 81 10000 3.59 315 00:45 12.02.2020
2880 Clouds 13 1012 87 10000 3.59 315 00:26 12.02.2020
2881 Clouds 12 1012 81 10000 3.59 315 23:56 11.02.2020
2882 Clouds 13 1012 81 10000 3.59 315 23:38 11.02.2020
2883 Clouds 13 1012 81 10000 3.44 299 23:20 11.02.2020
2884 Clouds 13 1012 81 10000 3.44 299 22:55 11.02.2020
2885 Clouds 13 1012 76 10000 3.44 299 22:37 11.02.2020
2886 Clouds 13 1012 76 10000 3.44 299 22:37 11.02.2020
2887 Clouds 14 1012 76 10000 3.44 299 22:18 11.02.2020
2888 Clouds 14 1012 71 10000 3.44 299 21:55 11.02.2020
2889 Clouds 14 1012 71 10000 2.1 90 21:37 11.02.2020
2890 Clouds 14 1012 71 10000 2.1 90 21:18 11.02.2020
2891 Clouds 14 1012 71 10000 2.1 90 21:18 11.02.2020
2892 Clouds 14 1012 71 10000 2.1 90 21:18 11.02.2020
2893 Clouds 14 1011 71 10000 1.5 0 20:54 11.02.2020
2894 Clouds 14 1011 82 10000 1.5 0 20:36 11.02.2020
2895 Clouds 15 1011 82 10000 1.5 0 20:18 11.02.2020
2896 Clouds 14 1011 76 10000 3.39 276 19:41 11.02.2020
2897 Clouds 15 1011 71 10000 1.5 0 19:23 11.02.2020
2898 Clouds 14 1011 71 10000 1.5 0 18:56 11.02.2020
2899 Clouds 14 1011 67 10000 3.39 276 18:37 11.02.2020
2900 Clouds 14 1011 67 10000 3.39 276 18:19 11.02.2020
2901 Clouds 15 1011 63 10000 3.1 210 17:55 11.02.2020
2902 Clouds 15 1011 59 10000 4.1 220 17:36 11.02.2020
2903 Clouds 15 1011 59 10000 4.1 220 17:18 11.02.2020
2904 Clouds 15 1011 59 10000 4.1 200 16:55 11.02.2020
2905 Clouds 15 1011 59 10000 4.1 200 16:55 11.02.2020
2906 Clouds 16 1011 52 10000 4.1 230 16:36 11.02.2020
2907 Clouds 16 1011 52 10000 4.1 230 16:18 11.02.2020
2908 Clouds 16 1011 55 10000 5.1 220 15:43 11.02.2020
2909 Clouds 16 1011 52 10000 3.1 220 15:23 11.02.2020
2910 Clouds 17 1011 48 10000 5.1 220 14:54 11.02.2020
2911 Clouds 17 1011 48 10000 5.1 260 14:36 11.02.2020
2912 Clouds 17 1011 48 10000 5.1 260 14:18 11.02.2020
2913 Clouds 17 1011 48 10000 5.1 240 13:41 11.02.2020
2914 Clouds 18 1012 48 10000 4.1 250 13:21 11.02.2020
2915 Clouds 18 1012 48 10000 5.1 250 12:58 11.02.2020
2916 Clouds 18 1013 48 10000 6.2 240 12:39 11.02.2020
2917 Clouds 17 1013 48 10000 6.2 240 12:20 11.02.2020
2918 Clouds 17 1013 48 10000 5.1 230 11:41 11.02.2020
2919 Clouds 17 1014 59 10000 5.1 240 11:21 11.02.2020
2920 Clouds 17 1015 48 10000 4.1 290 10:58 11.02.2020
2921 Clouds 16 1015 48 10000 4.1 290 10:39 11.02.2020
2922 Clouds 16 1014 55 10000 5.8 270 10:20 11.02.2020
2923 Clouds 16 1014 55 10000 5.8 270 09:56 11.02.2020
2924 Clouds 15 1014 59 10000 5.8 270 09:38 11.02.2020
2925 Clouds 15 1014 59 10000 5.8 270 09:19 11.02.2020
2926 Clouds 14 1014 63 10000 2.1 120 08:46 11.02.2020
2927 Clouds 14 1014 67 10000 5.38 274 08:24 11.02.2020
2928 Clouds 12 1014 71 10000 4.72 292 07:48 11.02.2020
2929 Clouds 11 1014 71 10000 4.72 292 07:26 11.02.2020
2930 Clouds 10 1014 67 10000 4.72 292 06:44 11.02.2020
2931 Clouds 10 1014 67 10000 1.5 0 06:22 11.02.2020
2932 Clouds 10 1014 67 10000 2.1 80 05:58 11.02.2020
2933 Clouds 10 1014 67 10000 1 0 05:25 11.02.2020
2934 Clouds 10 1014 67 10000 1 0 04:42 11.02.2020
2935 Clouds 11 1014 76 10000 1.5 0 03:26 11.02.2020
2936 Clouds 11 1015 62 10000 1 0 02:33 11.02.2020
2937 Clouds 11 1015 62 10000 1 0 01:38 11.02.2020
2938 Clouds 11 1016 66 10000 3.1 30 00:42 11.02.2020
2939 Clouds 11 1016 62 10000 6.87 292 00:20 11.02.2020
2940 Clouds 11 1017 81 10000 1 0 23:39 10.02.2020
2941 Clouds 11 1017 81 10000 1 0 23:20 10.02.2020
2942 Clouds 11 1017 81 10000 4.21 290 22:42 10.02.2020
2943 Clouds 12 1017 81 10000 1 0 22:21 10.02.2020
2944 Clouds 12 1018 58 10000 3.6 290 21:57 10.02.2020
2945 Clouds 12 1018 58 10000 3.6 290 21:39 10.02.2020
2946 Clouds 12 1018 58 10000 3.6 290 21:39 10.02.2020
2947 Clouds 12 1017 71 10000 4.21 290 21:20 10.02.2020
2948 Clouds 12 1017 66 10000 2.6 240 20:54 10.02.2020
2949 Clouds 12 1018 66 10000 3.1 70 20:36 10.02.2020
2950 Clouds 12 1018 66 10000 3.1 70 20:18 10.02.2020
2951 Clouds 12 1018 58 10000 2.1 70 19:54 10.02.2020
2952 Clouds 12 1019 58 10000 3.76 283 19:36 10.02.2020
2953 Clouds 12 1019 58 10000 3.76 283 19:18 10.02.2020
2954 Clouds 12 1019 50 10000 3.76 283 18:41 10.02.2020
2955 Clouds 12 1020 44 10000 4.1 280 18:22 10.02.2020
2956 Clouds 12 1019 47 10000 6.2 270 17:59 10.02.2020
2957 Clouds 13 1019 47 10000 6.2 270 17:39 10.02.2020
2958 Clouds 13 1019 47 10000 6.2 270 17:39 10.02.2020
2959 Clouds 13 1019 41 10000 5.1 260 17:20 10.02.2020
2960 Clouds 13 1019 44 10000 1.5 0 16:59 10.02.2020
2961 Clouds 13 1019 44 10000 1.5 0 16:40 10.02.2020
2962 Clouds 14 1020 41 10000 4.1 260 16:20 10.02.2020
2963 Rain 14 1020 41 10000 4.1 260 15:58 10.02.2020
2964 Rain 15 1020 41 10000 4.1 260 15:39 10.02.2020
2965 Clouds 15 1020 39 10000 5.1 290 15:20 10.02.2020
2966 Clouds 15 1021 39 10000 5.1 300 14:56 10.02.2020
2967 Clouds 15 1021 39 10000 4.1 300 14:38 10.02.2020
2968 Clouds 15 1021 39 10000 4.1 300 14:19 10.02.2020
2969 Clouds 15 1022 36 10000 4.1 300 13:43 10.02.2020
2970 Clouds 15 1022 36 10000 3.1 320 13:24 10.02.2020
2971 Clouds 15 1024 44 10000 3.6 270 12:56 10.02.2020
2972 Clouds 15 1023 41 10000 1.5 0 12:38 10.02.2020
2973 Clouds 15 1023 41 10000 1.5 0 12:19 10.02.2020
2974 Clouds 14 1024 47 10000 1.5 0 11:45 10.02.2020
2975 Clouds 13 1026 47 10000 1.5 0 11:21 10.02.2020
2976 Clouds 13 1025 50 10000 1.5 0 10:48 10.02.2020
2977 Clouds 13 1025 50 10000 1.5 0 10:48 10.02.2020
2978 Clouds 13 1025 62 10000 2.6 120 10:30 10.02.2020
2979 Clouds 12 1026 71 9000 1.5 0 09:55 10.02.2020
2980 Clouds 11 1026 76 9000 1.5 0 09:36 10.02.2020
2981 Clouds 11 1026 76 9000 1.5 0 09:18 10.02.2020
2982 Clouds 10 1027 93 9000 1.5 0 08:40 10.02.2020
2983 Clouds 8 1027 93 9000 1.5 0 08:21 10.02.2020
2984 Clouds 8 1027 93 9000 1.64 315 07:55 10.02.2020
2985 Clouds 7 1027 93 9000 1.64 315 07:32 10.02.2020
2986 Clouds 5 1028 100 9000 1.64 315 06:49 10.02.2020
2987 Rain 5 1028 93 10000 1.5 0 05:35 10.02.2020
2988 Clouds 5 1028 93 10000 1.45 360 03:55 10.02.2020
2989 Clouds 5 1029 93 10000 1.45 360 03:18 10.02.2020
2990 Clouds 5 1029 93 10000 1.45 360 02:42 10.02.2020
2991 Clouds 5 1030 86 10000 0.27 261 01:24 10.02.2020
2992 Clouds 5 1030 86 10000 0.27 261 00:40 10.02.2020
2993 Clouds 5 1030 86 10000 0.27 261 00:21 10.02.2020
2994 Clouds 6 1030 86 10000 0.27 261 23:41 09.02.2020
2995 Clouds 6 1031 86 10000 0.27 261 23:23 09.02.2020
2996 Clouds 6 1031 86 10000 1.43 164 22:44 09.02.2020
2997 Clouds 6 1031 86 10000 1.43 164 22:23 09.02.2020
2998 Clouds 6 1031 80 10000 1.43 164 21:57 09.02.2020
2999 Clouds 6 1031 80 10000 1.43 164 21:38 09.02.2020
3000 Clouds 6 1031 80 10000 1.43 164 21:19 09.02.2020
3001 Clouds 6 1031 86 10000 1.43 164 20:45 09.02.2020
3002 Clouds 6 1031 81 10000 1.66 166 20:21 09.02.2020
3003 Clouds 7 1032 86 10000 1.66 166 19:55 09.02.2020
3004 Clouds 7 1032 75 10000 1.5 0 19:37 09.02.2020
3005 Clouds 7 1032 75 10000 1.5 0 19:18 09.02.2020
3006 Clouds 7 1032 75 10000 1.66 166 18:42 09.02.2020
3007 Clouds 7 1031 70 10000 1.66 166 18:23 09.02.2020
3008 Clouds 8 1031 66 10000 1.66 166 17:58 09.02.2020
3009 Clouds 8 1031 66 10000 1.66 166 17:39 09.02.2020
3010 Clouds 9 1031 66 10000 2.58 176 17:20 09.02.2020
3011 Clouds 10 1031 62 10000 1 0 16:41 09.02.2020
3012 Clouds 10 1031 57 10000 2.1 180 16:22 09.02.2020
3013 Clouds 10 1031 57 10000 1.5 0 15:58 09.02.2020
3014 Clouds 11 1031 57 10000 1.5 0 15:40 09.02.2020
3015 Clouds 11 1031 54 10000 1.5 0 15:21 09.02.2020
3016 Clouds 11 1031 54 10000 1.5 0 14:56 09.02.2020
3017 Clouds 11 1031 54 10000 1.5 0 14:37 09.02.2020
3018 Clouds 11 1031 50 10000 3.1 180 14:19 09.02.2020
3019 Clouds 11 1032 46 10000 3.1 180 13:42 09.02.2020
3020 Clouds 11 1032 53 10000 3.1 180 13:24 09.02.2020
3021 Clouds 11 1032 50 10000 2.6 200 12:55 09.02.2020
3022 Clouds 11 1033 53 10000 2.6 180 12:37 09.02.2020
3023 Clouds 11 1033 53 10000 2.6 180 12:18 09.02.2020
3024 Clouds 11 1033 53 10000 2.6 180 12:18 09.02.2020
3025 Clouds 10 1033 50 10000 2.1 150 11:40 09.02.2020
3026 Clouds 10 1033 53 10000 2.6 180 11:19 09.02.2020
3027 Clouds 9 1033 57 10000 0.99 128 10:56 09.02.2020
3028 Clouds 9 1033 57 10000 0.99 128 10:38 09.02.2020
3029 Clouds 9 1033 53 10000 0.99 128 10:19 09.02.2020
3030 Clouds 8 1033 61 10000 0.99 128 09:39 09.02.2020
3031 Clouds 7 1033 70 10000 0.99 128 09:20 09.02.2020
3032 Clouds 6 1033 70 10000 0.99 128 08:44 09.02.2020
3033 Clouds 5 1032 80 10000 1.07 117 08:25 09.02.2020
3034 Clouds 4 1032 69 10000 1.87 34 07:54 09.02.2020
3035 Clouds 3 1032 86 10000 1.87 34 07:34 09.02.2020
3036 Clouds 2 1032 69 10000 1.87 34 06:44 09.02.2020
3037 Clouds 2 1031 86 10000 1.5 0 05:56 09.02.2020
3038 Clouds 2 1031 86 10000 1.87 34 05:35 09.02.2020
3039 Clouds 2 1031 71 10000 2.1 350 04:52 09.02.2020
3040 Clouds 2 1031 86 10000 1.5 0 03:51 09.02.2020
3041 Clouds 2 1031 86 10000 1.5 0 02:44 09.02.2020
3042 Clouds 2 1031 86 10000 1.5 0 01:55 09.02.2020
3043 Clouds 2 1031 86 10000 1.82 19 01:34 09.02.2020
3044 Clouds 2 1031 86 10000 1.82 19 00:41 09.02.2020
3045 Clouds 2 1031 86 10000 1.82 19 00:21 09.02.2020
3046 Clouds 2 1031 86 10000 1.82 19 23:42 08.02.2020
3047 Clouds 2 1031 86 10000 2.01 35 23:20 08.02.2020
3048 Clouds 3 1031 73 10000 2.01 35 22:42 08.02.2020
3049 Clouds 3 1031 73 10000 2.01 35 22:21 08.02.2020
3050 Clouds 3 1031 73 10000 2.01 35 21:58 08.02.2020
3051 Clouds 3 1031 73 10000 2.01 35 21:40 08.02.2020
3052 Clouds 3 1031 73 10000 2.01 35 21:19 08.02.2020
3053 Clouds 3 1031 73 10000 1.5 0 20:55 08.02.2020
3054 Clouds 4 1030 73 10000 2.01 35 20:37 08.02.2020
3055 Clouds 4 1030 71 10000 3.47 46 20:18 08.02.2020
3056 Clouds 4 1031 71 10000 3.47 46 19:54 08.02.2020
3057 Clouds 4 1030 86 10000 3.47 46 19:36 08.02.2020
3058 Clouds 4 1030 86 10000 3.47 46 19:18 08.02.2020
3059 Clouds 4 1030 71 10000 3.47 46 18:42 08.02.2020
3060 Clouds 4 1030 71 10000 3.47 46 18:22 08.02.2020
3061 Clouds 5 1029 71 10000 1.5 0 17:43 08.02.2020
3062 Clouds 5 1029 71 10000 3.6 90 17:21 08.02.2020
3063 Clouds 5 1029 65 10000 4.6 100 16:58 08.02.2020
3064 Clouds 6 1029 61 10000 4.47 58 16:38 08.02.2020
3065 Clouds 6 1029 61 10000 4.47 58 16:20 08.02.2020
3066 Clouds 6 1029 61 10000 2.6 80 15:42 08.02.2020
3067 Clouds 6 1029 61 10000 4.6 100 15:19 08.02.2020
3068 Clouds 6 1029 61 10000 4.1 100 14:58 08.02.2020
3069 Clouds 6 1029 61 10000 4.1 100 14:39 08.02.2020
3070 Clouds 6 1029 65 10000 2.1 120 14:18 08.02.2020
3071 Clouds 7 1029 65 10000 4.27 55 13:43 08.02.2020
3072 Clouds 7 1029 65 10000 1.5 0 13:23 08.02.2020
3073 Clouds 6 1029 70 10000 2.1 250 12:55 08.02.2020
3074 Rain 6 1029 70 10000 1.5 0 12:36 08.02.2020
3075 Rain 6 1029 70 10000 1.5 0 12:18 08.02.2020
3076 Clouds 6 1029 70 10000 3.76 23 11:41 08.02.2020
3077 Clouds 6 1029 70 10000 1.5 0 11:21 08.02.2020
3078 Clouds 5 1029 70 10000 4.1 340 10:43 08.02.2020
3079 Drizzle 6 1028 70 8000 5.1 0 10:25 08.02.2020
3080 Drizzle 6 1028 65 8000 5.7 350 09:55 08.02.2020
3081 Clouds 6 1027 56 10000 5.1 350 09:36 08.02.2020
3082 Clouds 6 1027 56 10000 5.1 350 09:18 08.02.2020
3083 Clouds 6 1027 49 10000 3.1 330 08:40 08.02.2020
3084 Clouds 6 1026 45 10000 2.1 320 08:22 08.02.2020
3085 Clouds 6 1026 48 10000 1.5 0 07:51 08.02.2020
3086 Clouds 6 1026 48 10000 1.5 0 07:32 08.02.2020
3087 Clouds 6 1025 52 10000 1.5 0 06:49 08.02.2020
3088 Clouds 6 1025 52 10000 2.6 310 06:21 08.02.2020
3089 Clouds 6 1024 52 10000 7.28 344 05:33 08.02.2020
3090 Clouds 6 1024 56 10000 3.14 352 04:53 08.02.2020
3091 Clouds 6 1023 69 10000 3.14 352 04:24 08.02.2020
3092 Clouds 6 1023 64 10000 3.14 352 03:35 08.02.2020
3093 Clouds 5 1023 69 10000 3.14 352 02:28 08.02.2020
3094 Clouds 5 1023 69 10000 3.14 352 02:28 08.02.2020
3095 Clouds 5 1023 64 10000 2.42 336 01:29 08.02.2020
3096 Clouds 5 1022 64 10000 2.31 340 00:46 08.02.2020
3097 Clouds 5 1022 64 10000 2.31 340 00:25 08.02.2020
3098 Clouds 5 1022 64 10000 2.31 340 23:57 07.02.2020
3099 Clouds 5 1022 64 10000 2.31 340 23:39 07.02.2020
3100 Clouds 5 1022 64 10000 1.5 310 23:19 07.02.2020
3101 Clouds 5 1022 60 10000 1.5 310 22:41 07.02.2020
3102 Clouds 5 1022 64 10000 2.74 339 22:19 07.02.2020
3103 Clouds 5 1022 64 10000 2.74 339 22:19 07.02.2020
3104 Clouds 5 1021 64 10000 2.74 339 21:57 07.02.2020
3105 Clouds 5 1021 64 10000 2.74 339 21:39 07.02.2020
3106 Clouds 5 1021 69 10000 2.74 339 21:19 07.02.2020
3107 Clouds 6 1021 64 10000 2.74 339 20:39 07.02.2020
3108 Clouds 6 1021 64 10000 2.7 349 20:19 07.02.2020
3109 Clouds 6 1021 64 10000 2.7 349 20:19 07.02.2020
3110 Clouds 6 1021 60 10000 2.7 349 19:54 07.02.2020
3111 Clouds 6 1020 48 10000 2.7 349 19:36 07.02.2020
3112 Clouds 6 1020 48 10000 2.7 349 19:18 07.02.2020
3113 Clouds 6 1020 45 10000 2.1 270 18:43 07.02.2020
3114 Clouds 6 1020 42 10000 1.5 0 18:25 07.02.2020
3115 Clouds 6 1019 42 10000 1.5 0 17:55 07.02.2020
3116 Clouds 6 1019 39 10000 2.6 360 17:37 07.02.2020
3117 Clouds 7 1019 39 10000 2.6 360 17:18 07.02.2020
3118 Clouds 7 1019 39 10000 4.6 360 16:42 07.02.2020
3119 Clouds 7 1019 39 10000 5.1 360 16:23 07.02.2020
3120 Clouds 8 1019 36 10000 4.6 360 15:53 07.02.2020
3121 Clouds 8 1019 36 10000 5.1 360 15:28 07.02.2020
3122 Clouds 8 1019 36 10000 5.1 360 15:28 07.02.2020
3123 Clouds 8 1019 39 10000 4.6 350 14:55 07.02.2020
3124 Clouds 8 1019 36 10000 4.6 350 14:37 07.02.2020
3125 Clouds 8 1019 36 10000 4.6 350 14:19 07.02.2020
3126 Clouds 8 1019 39 10000 5.1 360 13:56 07.02.2020
3127 Clouds 8 1019 36 10000 4.6 340 13:38 07.02.2020
3128 Clouds 8 1019 36 10000 4.6 340 13:19 07.02.2020
3129 Clouds 8 1019 36 10000 5.1 340 12:41 07.02.2020
3130 Clouds 8 1019 39 10000 5.7 350 12:23 07.02.2020
3131 Clouds 8 1020 39 10000 4.6 350 11:45 07.02.2020
3132 Clouds 8 1020 39 10000 4.6 350 11:45 07.02.2020
3133 Clouds 7 1020 45 10000 3.1 360 11:24 07.02.2020
3134 Clouds 7 1020 45 10000 4.1 360 10:58 07.02.2020
3135 Clouds 6 1020 52 10000 4.1 360 10:39 07.02.2020
3136 Clouds 6 1020 52 10000 4.1 360 10:19 07.02.2020
3137 Clouds 6 1020 48 10000 3.6 360 09:41 07.02.2020
3138 Clouds 6 1020 52 10000 3.1 340 09:23 07.02.2020
3139 Clouds 5 1020 52 10000 2.1 340 08:50 07.02.2020
3140 Clouds 5 1019 52 10000 4.1 360 08:24 07.02.2020
3141 Clouds 5 1019 52 10000 4.1 360 08:24 07.02.2020
3142 Clouds 4 1019 55 10000 5.1 350 07:55 07.02.2020
3143 Clouds 4 1018 55 10000 3.6 340 07:37 07.02.2020
3144 Clouds 3 1018 55 10000 3.6 340 07:18 07.02.2020
3145 Clouds 3 1018 55 10000 5.1 350 06:42 07.02.2020
3146 Clouds 3 1018 60 10000 5.1 340 06:21 07.02.2020
3147 Clouds 3 1019 69 10000 5.7 10 05:39 07.02.2020
3148 Clouds 4 1017 64 10000 7.65 341 03:55 07.02.2020
3149 Clouds 3 1017 83 9000 3.1 270 02:24 07.02.2020
3150 Rain 4 1018 86 9000 5.1 350 01:22 07.02.2020
3151 Clouds 4 1018 86 9000 4.1 330 00:37 07.02.2020
3152 Clouds 4 1017 80 9000 5.1 340 23:39 06.02.2020
3153 Clouds 4 1017 80 9000 5.1 340 23:20 06.02.2020
3154 Clouds 4 1017 75 9000 5.1 360 22:57 06.02.2020
3155 Clouds 4 1017 75 9000 5.1 360 22:39 06.02.2020
3156 Clouds 4 1017 70 9000 4.1 360 22:20 06.02.2020
3157 Clouds 4 1016 70 9000 5.7 360 21:37 06.02.2020
3158 Clouds 4 1016 70 9000 4.6 360 21:19 06.02.2020
3159 Clouds 5 1016 75 9000 4.1 360 20:56 06.02.2020
3160 Clouds 5 1015 65 10000 4.6 360 20:37 06.02.2020
3161 Clouds 5 1015 65 10000 4.6 360 20:18 06.02.2020
3162 Clouds 5 1015 84 10000 4.6 350 19:57 06.02.2020
3163 Clouds 5 1014 65 10000 4.6 350 19:38 06.02.2020
3164 Clouds 5 1014 65 10000 4.6 350 19:20 06.02.2020
3165 Clouds 5 1014 70 10000 3.6 350 18:55 06.02.2020
3166 Clouds 5 1013 75 10000 4.1 360 18:37 06.02.2020
3167 Clouds 5 1013 75 10000 4.1 360 18:19 06.02.2020
3168 Clouds 5 1012 75 10000 5.7 350 17:42 06.02.2020
3169 Clouds 5 1012 75 10000 4.1 360 17:20 06.02.2020
3170 Clouds 5 1012 75 10000 4.1 350 16:45 06.02.2020
3171 Clouds 5 1012 75 10000 7.2 350 16:27 06.02.2020
3172 Clouds 5 1012 70 10000 8.7 360 15:58 06.02.2020
3173 Rain 5 1011 75 10000 4.1 340 15:40 06.02.2020
3174 Rain 6 1011 75 10000 4.1 340 15:20 06.02.2020
3175 Rain 6 1010 81 10000 4.1 350 14:46 06.02.2020
3176 Rain 6 1010 81 8000 4.1 350 14:25 06.02.2020
3177 Rain 6 1010 81 6000 5.1 350 13:46 06.02.2020
3178 Rain 6 1009 81 6000 6.7 340 13:27 06.02.2020
3179 Rain 5 1009 86 10000 8.7 350 12:57 06.02.2020
3180 Rain 5 1009 86 6000 6.2 350 12:37 06.02.2020
3181 Rain 5 1009 86 6000 6.2 350 12:18 06.02.2020
3182 Rain 5 1009 86 6000 10.74 10 11:56 06.02.2020
3183 Rain 5 1008 86 9000 7.7 350 11:37 06.02.2020
3184 Rain 5 1008 86 9000 7.7 350 11:37 06.02.2020
3185 Rain 5 1008 86 9000 7.7 350 11:18 06.02.2020
3186 Rain 5 1008 86 7000 7.7 350 10:41 06.02.2020
3187 Rain 5 1007 86 7000 5.1 350 10:22 06.02.2020
3188 Rain 5 1007 86 9000 4.1 350 09:59 06.02.2020
3189 Rain 6 1007 86 9000 4.1 350 09:41 06.02.2020
3190 Rain 6 1007 80 9000 4.1 350 09:20 06.02.2020
3191 Rain 7 1006 75 10000 5.1 350 08:46 06.02.2020
3192 Clouds 7 1006 75 10000 5.1 360 08:24 06.02.2020
3193 Clouds 6 1005 75 10000 4.1 350 07:56 06.02.2020
3194 Clouds 6 1004 70 10000 4.1 350 07:33 06.02.2020
3195 Clouds 6 1004 70 10000 3.6 330 06:53 06.02.2020
3196 Clouds 5 1003 78 10000 3.1 340 06:19 06.02.2020
3197 Clouds 5 1002 78 10000 3.6 320 05:40 06.02.2020
3198 Clouds 5 1001 58 10000 2.6 350 04:18 06.02.2020
3199 Clouds 5 1000 75 10000 4.98 351 03:18 06.02.2020
3200 Clouds 5 1000 75 10000 4.98 351 03:18 06.02.2020
3201 Clouds 5 1000 52 10000 4.11 344 01:57 06.02.2020
3202 Clouds 5 1000 75 10000 2.83 337 01:24 06.02.2020
3203 Clouds 5 1001 86 10000 2.1 360 00:41 06.02.2020
3204 Rain 6 999 75 10000 2.83 337 00:19 06.02.2020
3205 Rain 6 999 75 10000 2.83 337 23:42 05.02.2020
3206 Rain 6 999 80 10000 5.2 346 23:23 05.02.2020
3207 Rain 6 999 86 10000 3.1 350 22:54 05.02.2020
3208 Rain 6 998 86 9000 5.7 330 22:36 05.02.2020
3209 Rain 6 998 86 9000 5.7 330 22:36 05.02.2020
3210 Rain 6 998 86 9000 5.7 330 22:18 05.02.2020
3211 Rain 7 998 81 8000 6.2 340 21:40 05.02.2020
3212 Clouds 7 997 70 10000 5.2 346 21:22 05.02.2020
3213 Clouds 7 997 65 10000 5.2 346 20:55 05.02.2020
3214 Clouds 7 996 65 10000 5.06 329 20:36 05.02.2020
3215 Clouds 7 996 65 10000 6.45 356 20:18 05.02.2020
3216 Clouds 7 996 65 10000 6.45 356 19:55 05.02.2020
3217 Clouds 7 995 61 10000 2.6 310 19:36 05.02.2020
3218 Clouds 7 995 61 10000 2.6 310 19:18 05.02.2020
3219 Clouds 7 995 70 10000 4.1 340 18:43 05.02.2020
3220 Clouds 7 995 70 10000 5.1 340 18:20 05.02.2020
3221 Clouds 7 995 70 10000 5.1 340 18:20 05.02.2020
3222 Clouds 7 995 65 10000 6.7 340 17:55 05.02.2020
3223 Clouds 7 994 70 10000 6.2 330 17:36 05.02.2020
3224 Clouds 8 994 70 10000 6.2 330 17:18 05.02.2020
3225 Clouds 9 993 66 10000 5.7 320 16:42 05.02.2020
3226 Clouds 10 992 57 10000 6.7 330 16:24 05.02.2020
3227 Clouds 11 991 58 10000 5.7 330 15:57 05.02.2020
3228 Clouds 11 991 47 10000 2.6 280 15:38 05.02.2020
3229 Clouds 12 991 47 10000 2.6 280 15:18 05.02.2020
3230 Clouds 13 990 50 10000 3.6 280 14:42 05.02.2020
3231 Rain 13 990 50 10000 4.1 280 14:23 05.02.2020
3232 Rain 13 990 51 10000 2.6 280 13:57 05.02.2020
3233 Rain 13 990 54 10000 4.6 290 13:38 05.02.2020
3234 Clouds 13 990 54 10000 4.6 290 13:19 05.02.2020
3235 Clouds 14 990 51 10000 4.1 290 12:40 05.02.2020
3236 Clouds 14 990 51 10000 4.1 290 12:22 05.02.2020
3237 Clouds 14 990 54 10000 4.6 270 11:42 05.02.2020
3238 Clouds 13 990 54 10000 3.6 270 11:24 05.02.2020
3239 Clouds 13 989 58 10000 4.6 260 10:59 05.02.2020
3240 Clouds 12 990 71 10000 1.5 0 10:39 05.02.2020
3241 Rain 11 990 71 10000 1.5 0 10:19 05.02.2020
3242 Rain 11 990 71 10000 1.5 0 10:19 05.02.2020
3243 Rain 11 989 81 9000 4.6 300 09:44 05.02.2020
3244 Rain 11 989 87 8000 6.2 290 09:22 05.02.2020
3245 Rain 14 988 82 9000 7.2 150 08:58 05.02.2020
3246 Clouds 15 988 82 9000 7.2 150 08:39 05.02.2020
3247 Clouds 15 989 77 9000 7.7 150 08:21 05.02.2020
3248 Clouds 15 990 77 9000 4.1 160 07:43 05.02.2020
3249 Clouds 14 991 82 9000 1.5 0 07:20 05.02.2020
3250 Clouds 14 992 81 10000 5.99 202 06:42 05.02.2020
3251 Clouds 14 992 81 10000 1.5 0 06:21 05.02.2020
3252 Clouds 14 992 81 10000 2.1 140 05:48 05.02.2020
3253 Clouds 13 993 81 10000 6.33 202 05:18 05.02.2020
3254 Clouds 13 994 87 10000 6.33 202 04:41 05.02.2020
3255 Clouds 13 996 87 10000 1.5 0 03:18 05.02.2020
3256 Clouds 13 997 81 10000 2 230 02:23 05.02.2020
3257 Clouds 12 996 87 10000 2 230 01:35 05.02.2020
3258 Clouds 13 999 87 10000 4.76 189 00:25 05.02.2020
3259 Clouds 13 1000 87 10000 4.76 189 23:42 04.02.2020
3260 Clouds 13 1000 87 10000 1.5 0 23:23 04.02.2020
3261 Clouds 13 1001 82 10000 3.83 269 22:58 04.02.2020
3262 Clouds 13 1001 87 10000 3.83 269 22:40 04.02.2020
3263 Clouds 13 1001 87 10000 3.83 269 22:21 04.02.2020
3264 Clouds 13 1002 82 10000 3.83 269 21:57 04.02.2020
3265 Clouds 13 1002 76 10000 1.5 0 21:38 04.02.2020
3266 Clouds 14 1002 76 10000 1.5 0 21:19 04.02.2020
3267 Clouds 14 1002 72 10000 3.1 220 20:57 04.02.2020
3268 Clouds 14 1003 76 10000 2.6 260 20:37 04.02.2020
3269 Clouds 14 1003 76 10000 2.6 260 20:19 04.02.2020
3270 Clouds 14 1003 81 10000 1.5 0 19:55 04.02.2020
3271 Clouds 14 1003 76 10000 1.59 235 19:36 04.02.2020
3272 Clouds 14 1003 76 10000 1.59 235 19:18 04.02.2020
3273 Clouds 13 1004 76 10000 1.59 235 18:41 04.02.2020
3274 Clouds 13 1004 76 10000 2.1 0 18:21 04.02.2020
3275 Clouds 14 1004 76 10000 3.6 150 17:58 04.02.2020
3276 Clouds 14 1004 72 10000 3.6 170 17:40 04.02.2020
3277 Clouds 14 1004 72 10000 3.6 170 17:19 04.02.2020
3278 Clouds 15 1005 59 10000 3.6 220 16:39 04.02.2020
3279 Clouds 15 1005 59 10000 3.6 220 16:21 04.02.2020
3280 Clouds 16 1005 55 10000 3.6 210 15:57 04.02.2020
3281 Clouds 16 1005 55 10000 3.6 210 15:39 04.02.2020
3282 Clouds 16 1006 55 10000 1.5 0 15:20 04.02.2020
3283 Clear 16 1007 52 10000 3.6 220 14:56 04.02.2020
3284 Clear 17 1007 52 10000 3.6 220 14:37 04.02.2020
3285 Clear 17 1007 52 10000 5.7 190 14:19 04.02.2020
3286 Clear 17 1008 48 10000 6.2 170 13:41 04.02.2020
3287 Clear 17 1008 48 10000 7.2 180 13:23 04.02.2020
3288 Clear 18 1009 52 10000 4.1 210 12:58 04.02.2020
3289 Clear 18 1010 52 10000 3.63 211 12:39 04.02.2020
3290 Clear 18 1010 52 10000 3.63 211 12:20 04.02.2020
3291 Clear 17 1011 59 10000 2.1 130 11:56 04.02.2020
3292 Clear 17 1011 59 10000 2.1 130 11:37 04.02.2020
3293 Clear 17 1011 59 10000 2.6 160 11:18 04.02.2020
3294 Clear 17 1012 59 10000 2.1 170 10:45 04.02.2020
3295 Clear 16 1012 63 10000 2.1 150 10:26 04.02.2020
3296 Clear 16 1012 63 10000 1.63 233 09:57 04.02.2020
3297 Clear 15 1012 67 10000 1.63 233 09:38 04.02.2020
3298 Clear 15 1012 67 10000 1.63 233 09:19 04.02.2020
3299 Clear 14 1013 67 10000 1.63 233 08:45 04.02.2020
3300 Clear 14 1013 67 10000 1.63 233 08:45 04.02.2020
3301 Clear 13 1013 81 10000 1.44 248 08:27 04.02.2020
3302 Clouds 12 1013 93 10000 2.11 312 07:50 04.02.2020
3303 Clouds 11 1013 93 10000 2.11 312 07:24 04.02.2020
3304 Clouds 11 1013 93 10000 2.11 312 07:24 04.02.2020
3305 Clouds 10 1013 87 10000 2.11 312 06:53 04.02.2020
3306 Clouds 10 1014 81 10000 1.5 260 06:34 04.02.2020
3307 Clouds 10 1013 81 10000 2.11 312 05:34 04.02.2020
3308 Clouds 11 1013 76 10000 3.42 320 04:27 04.02.2020
3309 Clouds 11 1013 81 10000 3.42 320 03:46 04.02.2020
3310 Clouds 11 1014 71 10000 3.42 320 03:27 04.02.2020
3311 Clouds 11 1014 71 10000 2.6 330 02:37 04.02.2020
3312 Clouds 11 1014 71 10000 2.6 330 02:18 04.02.2020
3313 Clouds 11 1014 87 10000 4.37 307 01:44 04.02.2020
3314 Clouds 11 1014 87 10000 4.69 303 00:55 04.02.2020
3315 Clouds 11 1014 87 10000 4.69 303 00:23 04.02.2020
3316 Clouds 11 1014 81 10000 4.69 303 23:48 03.02.2020
3317 Clouds 12 1014 76 10000 4.69 303 23:28 03.02.2020
3318 Clouds 12 1014 76 10000 5.05 310 22:58 03.02.2020
3319 Clouds 12 1014 76 10000 5.05 310 22:38 03.02.2020
3320 Clouds 12 1014 76 10000 5.05 310 22:19 03.02.2020
3321 Clouds 13 1014 71 10000 5.05 310 21:41 03.02.2020
3322 Clouds 13 1014 71 10000 4.1 340 21:20 03.02.2020
3323 Clouds 13 1014 71 10000 5.05 310 20:55 03.02.2020
3324 Clouds 14 1014 71 10000 5.05 310 20:37 03.02.2020
3325 Clouds 14 1014 71 10000 2.95 296 20:18 03.02.2020
3326 Clouds 14 1013 71 10000 2.95 296 19:41 03.02.2020
3327 Clouds 14 1014 62 10000 2.95 296 19:22 03.02.2020
3328 Clouds 14 1013 62 10000 2.95 296 18:57 03.02.2020
3329 Clouds 14 1013 62 10000 2.1 100 18:38 03.02.2020
3330 Clouds 14 1013 62 10000 2.1 100 18:20 03.02.2020
3331 Clouds 14 1013 62 10000 2.1 100 18:20 03.02.2020
3332 Clouds 15 1013 59 10000 1 0 17:56 03.02.2020
3333 Clouds 15 1013 59 10000 1 0 17:38 03.02.2020
3334 Clouds 15 1013 59 10000 1.5 0 17:19 03.02.2020
3335 Clouds 15 1013 55 10000 1.5 0 16:40 03.02.2020
3336 Clouds 16 1013 52 10000 2.6 250 16:21 03.02.2020
3337 Clouds 16 1013 52 10000 4.1 260 15:56 03.02.2020
3338 Clouds 17 1013 52 10000 4.1 260 15:38 03.02.2020
3339 Clouds 17 1014 48 10000 3.1 270 15:19 03.02.2020
3340 Clouds 17 1014 48 10000 3.1 260 14:56 03.02.2020
3341 Clouds 17 1014 48 10000 4.6 210 14:37 03.02.2020
3342 Clouds 17 1014 48 10000 4.6 210 14:19 03.02.2020
3343 Clouds 17 1014 48 10000 3.6 230 13:42 03.02.2020
3344 Clouds 17 1014 48 10000 4.6 230 13:21 03.02.2020
3345 Clouds 17 1014 48 10000 5.1 210 12:58 03.02.2020
3346 Clouds 17 1014 48 10000 5.1 210 12:39 03.02.2020
3347 Clouds 17 1015 52 10000 2.6 220 12:21 03.02.2020
3348 Clouds 16 1016 48 10000 4.6 250 11:55 03.02.2020
3349 Clouds 16 1016 59 10000 3.6 250 11:36 03.02.2020
3350 Clouds 16 1016 59 10000 3.6 250 11:36 03.02.2020
3351 Clouds 16 1016 59 10000 3.6 250 11:18 03.02.2020
3352 Clouds 16 1017 63 10000 2.1 270 10:40 03.02.2020
3353 Clouds 15 1017 67 10000 2.92 273 10:21 03.02.2020
3354 Clouds 15 1018 76 10000 2.92 273 09:44 03.02.2020
3355 Clouds 14 1018 82 10000 2.92 273 09:21 03.02.2020
3356 Clouds 13 1018 93 10000 2.92 273 08:55 03.02.2020
3357 Clouds 13 1019 81 10000 1.5 0 08:37 03.02.2020
3358 Clouds 12 1018 93 10000 2.44 300 08:18 03.02.2020
3359 Rain 10 1017 93 10000 2.44 300 07:40 03.02.2020
3360 Rain 10 1017 93 10000 2.44 300 07:21 03.02.2020
3361 Clouds 9 1017 93 10000 2.44 300 06:50 03.02.2020
3362 Clouds 9 1017 100 10000 2.44 300 06:28 03.02.2020
3363 Clouds 9 1018 93 9000 2.44 300 05:37 03.02.2020
3364 Clouds 8 1018 93 9000 2.59 311 05:18 03.02.2020
3365 Clouds 9 1018 100 9000 2.59 311 03:42 03.02.2020
3366 Clouds 9 1018 93 9000 2.59 311 02:35 03.02.2020
3367 Clouds 10 1018 100 9000 1.5 0 01:42 03.02.2020
3368 Rain 10 1019 93 9000 2.46 326 00:47 03.02.2020
3369 Clouds 10 1019 93 9000 2.46 326 00:24 03.02.2020
3370 Clouds 10 1019 93 9000 2.46 326 23:39 02.02.2020
3371 Clouds 10 1019 93 9000 1.25 311 23:21 02.02.2020
3372 Clouds 11 1019 93 10000 1.25 311 22:57 02.02.2020
3373 Clouds 11 1019 93 10000 1.25 311 22:38 02.02.2020
3374 Clouds 11 1019 93 10000 1.25 311 22:38 02.02.2020
3375 Clouds 11 1019 93 10000 1.25 311 22:19 02.02.2020
3376 Clouds 11 1019 93 10000 1.25 311 21:55 02.02.2020
3377 Clouds 11 1019 87 10000 1.25 311 21:37 02.02.2020
3378 Clouds 12 1019 87 10000 1.25 311 21:19 02.02.2020
3379 Clouds 12 1019 81 10000 1.5 0 20:55 02.02.2020
3380 Clouds 12 1019 87 10000 1.25 311 20:37 02.02.2020
3381 Clouds 12 1019 87 10000 1.3 241 20:19 02.02.2020
3382 Clouds 12 1019 87 10000 1.3 241 19:55 02.02.2020
3383 Clouds 12 1018 81 10000 1.3 241 19:37 02.02.2020
3384 Clouds 12 1018 81 10000 1.3 241 19:18 02.02.2020
3385 Clouds 13 1018 81 10000 1.3 241 18:39 02.02.2020
3386 Clouds 13 1018 76 10000 1.3 241 18:21 02.02.2020
3387 Clouds 13 1018 72 10000 2.1 180 17:58 02.02.2020
3388 Clouds 14 1017 72 10000 2.1 180 17:38 02.02.2020
3389 Clouds 14 1017 72 10000 2.1 180 17:19 02.02.2020
3390 Clouds 15 1017 63 10000 2.6 180 16:58 02.02.2020
3391 Clouds 15 1018 63 10000 4.1 190 16:39 02.02.2020
3392 Clouds 15 1016 55 10000 3.1 170 16:19 02.02.2020
3393 Clouds 15 1017 67 10000 2.6 130 15:59 02.02.2020
3394 Clouds 16 1017 59 10000 2.6 180 15:39 02.02.2020
3395 Clouds 16 1017 59 10000 2.6 180 15:20 02.02.2020
3396 Clouds 16 1017 59 10000 2.6 180 14:57 02.02.2020
3397 Clouds 16 1017 59 10000 2.6 180 14:39 02.02.2020
3398 Clouds 17 1017 63 10000 2.6 190 14:18 02.02.2020
3399 Clouds 17 1017 63 10000 3.1 180 13:55 02.02.2020
3400 Clouds 17 1017 63 10000 3.1 180 13:36 02.02.2020
3401 Clouds 17 1017 63 10000 3.1 150 13:18 02.02.2020
3402 Clouds 17 1017 63 10000 2.6 160 12:42 02.02.2020
3403 Clouds 17 1018 63 10000 2.1 180 12:22 02.02.2020
3404 Clouds 16 1018 63 10000 2.1 160 11:56 02.02.2020
3405 Clouds 16 1018 63 10000 2.1 140 11:38 02.02.2020
3406 Clouds 16 1018 63 10000 2.1 140 11:18 02.02.2020
3407 Clouds 15 1019 67 10000 2.1 140 10:55 02.02.2020
3408 Clouds 15 1019 67 10000 2.1 140 10:55 02.02.2020
3409 Clouds 15 1019 67 10000 1.38 268 10:36 02.02.2020
3410 Clouds 15 1019 67 10000 1.31 265 10:18 02.02.2020
3411 Clouds 14 1019 67 10000 1.38 268 09:41 02.02.2020
3412 Clouds 13 1018 76 10000 1.38 268 09:21 02.02.2020
3413 Clouds 13 1018 81 10000 1.38 268 08:58 02.02.2020
3414 Clouds 12 1018 81 10000 1.38 268 08:40 02.02.2020
3415 Clouds 11 1018 87 10000 1.84 317 08:21 02.02.2020
3416 Clouds 11 1018 93 10000 1.5 0 07:45 02.02.2020
3417 Clouds 10 1018 93 10000 1.84 317 07:27 02.02.2020
3418 Clouds 8 1017 93 10000 1.84 317 06:41 02.02.2020
3419 Clouds 8 1017 93 10000 1.84 317 06:23 02.02.2020
3420 Clouds 8 1017 93 10000 1.84 317 05:47 02.02.2020
3421 Clear 9 1017 93 10000 2.34 318 04:38 02.02.2020
3422 Clear 9 1018 93 10000 2.34 318 03:25 02.02.2020
3423 Clear 10 1018 93 10000 2.34 318 02:27 02.02.2020
3424 Clear 10 1018 93 10000 1.86 317 01:52 02.02.2020
3425 Clear 10 1018 87 10000 1.95 318 01:19 02.02.2020
3426 Clear 10 1018 87 10000 1.95 318 00:43 02.02.2020
3427 Clear 10 1019 87 10000 1.95 318 00:20 02.02.2020
3428 Clear 10 1019 87 10000 1.95 318 23:45 01.02.2020
3429 Clear 10 1019 87 10000 0.89 300 23:21 01.02.2020
3430 Clear 10 1019 81 10000 0.89 300 22:48 01.02.2020
3431 Clear 10 1019 81 10000 0.89 300 22:19 01.02.2020
3432 Clear 10 1019 81 10000 0.89 300 22:19 01.02.2020
3433 Clear 11 1019 81 10000 0.89 300 21:45 01.02.2020
3434 Clear 11 1019 81 10000 0.89 300 21:20 01.02.2020
3435 Clear 11 1019 81 10000 0.89 300 21:20 01.02.2020
3436 Clear 11 1019 81 10000 0.89 300 20:58 01.02.2020
3437 Clear 11 1019 81 10000 0.89 300 20:40 01.02.2020
3438 Clear 11 1019 81 10000 0.87 181 20:20 01.02.2020
3439 Clear 12 1018 81 10000 1 0 19:56 01.02.2020
3440 Clear 12 1018 76 10000 0.52 180 19:38 01.02.2020
3441 Clear 12 1018 76 10000 0.52 180 19:19 01.02.2020
3442 Clear 12 1018 81 10000 0.52 180 18:57 01.02.2020
3443 Clear 12 1018 81 10000 0.52 180 18:38 01.02.2020
3444 Clear 13 1018 81 10000 0.52 180 18:20 01.02.2020
3445 Clear 13 1018 76 10000 2.1 130 17:56 01.02.2020
3446 Clear 14 1017 71 10000 2.6 140 17:38 01.02.2020
3447 Clear 14 1017 71 10000 2.6 140 17:19 01.02.2020
3448 Clear 15 1017 63 10000 3.6 160 16:42 01.02.2020
3449 Clear 16 1017 52 10000 4.1 190 16:23 01.02.2020
3450 Clear 16 1017 52 10000 4.1 190 15:58 01.02.2020
3451 Clear 17 1017 52 10000 4.1 180 15:38 01.02.2020
3452 Clear 17 1017 52 10000 4.1 180 15:18 01.02.2020
3453 Clear 17 1017 42 10000 3.6 180 14:41 01.02.2020
3454 Clear 18 1017 45 10000 1.75 218 14:21 01.02.2020
3455 Clear 18 1017 45 10000 1.75 218 13:45 01.02.2020
3456 Clear 18 1017 42 10000 2.38 239 13:24 01.02.2020
3457 Clear 18 1017 42 10000 2.38 239 12:59 01.02.2020
3458 Clear 18 1017 42 10000 2.38 239 12:41 01.02.2020
3459 Clear 18 1017 45 10000 2.38 239 12:22 01.02.2020
3460 Clear 17 1017 45 10000 2.38 239 11:44 01.02.2020
3461 Clear 17 1018 48 10000 2.3 274 11:24 01.02.2020
3462 Clear 16 1018 51 10000 2.3 274 10:59 01.02.2020
3463 Clear 16 1018 51 10000 2.3 274 10:40 01.02.2020
3464 Clear 16 1018 51 10000 2.3 274 10:40 01.02.2020
3465 Clear 16 1018 51 10000 2.3 274 10:22 01.02.2020
3466 Clear 15 1018 54 10000 2.3 274 09:59 01.02.2020
3467 Clear 14 1018 54 10000 2.3 274 09:40 01.02.2020
3468 Clear 14 1018 58 10000 2.3 274 09:21 01.02.2020
3469 Clear 13 1018 62 10000 2.3 274 08:54 01.02.2020
3470 Clear 10 1017 81 10000 3.69 323 07:59 01.02.2020
3471 Clear 10 1017 87 10000 3.69 323 07:40 01.02.2020
3472 Clear 9 1017 87 10000 3.69 323 07:22 01.02.2020
3473 Clear 8 1017 87 10000 3.69 323 06:43 01.02.2020
3474 Clouds 8 1017 81 10000 2.1 30 05:54 01.02.2020
3475 Clouds 9 1017 81 10000 2.1 30 05:54 01.02.2020
3476 Clouds 9 1016 81 10000 1.5 0 04:22 01.02.2020
3477 Clouds 9 1016 81 10000 1.5 0 04:22 01.02.2020
3478 Clouds 10 1016 66 10000 2.1 340 03:25 01.02.2020
3479 Clouds 9 1016 71 10000 2.1 340 02:53 01.02.2020
3480 Clouds 9 1016 71 10000 1.5 0 02:31 01.02.2020
3481 Clouds 10 1016 66 10000 2.1 350 01:59 01.02.2020
3482 Clouds 10 1016 66 10000 2.1 350 01:38 01.02.2020
3483 Clouds 10 1016 66 10000 5.7 302 00:46 01.02.2020
3484 Clouds 11 1017 66 10000 1.5 0 00:23 01.02.2020
3485 Clouds 11 1017 71 10000 1.5 0 23:39 31.01.2020
3486 Clouds 11 1017 71 10000 1.5 0 23:18 31.01.2020
3487 Clouds 11 1016 66 10000 4.31 290 22:56 31.01.2020
3488 Clouds 11 1017 76 10000 4.31 290 22:37 31.01.2020
3489 Clouds 11 1017 76 10000 4.31 290 22:19 31.01.2020
3490 Clouds 11 1017 76 10000 4.31 290 21:39 31.01.2020
3491 Clouds 12 1017 76 10000 4.31 290 21:21 31.01.2020
3492 Clouds 12 1017 62 10000 1.5 0 20:57 31.01.2020
3493 Clouds 12 1017 71 10000 4.31 290 20:39 31.01.2020
3494 Clouds 12 1017 71 10000 2.61 274 20:21 31.01.2020
3495 Clouds 12 1017 62 10000 2.61 274 19:57 31.01.2020
3496 Clouds 12 1017 76 10000 2.61 274 19:38 31.01.2020
3497 Clouds 12 1017 76 10000 2.61 274 19:20 31.01.2020
3498 Clouds 13 1017 71 10000 2.61 274 18:56 31.01.2020
3499 Clouds 12 1017 71 10000 2.61 274 18:36 31.01.2020
3500 Clouds 12 1017 71 10000 2.61 274 18:18 31.01.2020
3501 Clouds 12 1017 62 10000 1 0 17:43 31.01.2020
3502 Clouds 13 1017 58 10000 1.5 0 17:24 31.01.2020
3503 Clouds 13 1017 51 10000 3.1 220 16:57 31.01.2020
3504 Clear 14 1019 58 10000 5.1 200 16:38 31.01.2020
3505 Clear 14 1019 58 10000 5.1 200 16:19 31.01.2020
3506 Clouds 14 1018 41 10000 3.1 230 15:57 31.01.2020
3507 Clouds 14 1018 41 10000 3.1 230 15:57 31.01.2020
3508 Clouds 14 1018 33 10000 5.1 230 15:38 31.01.2020
3509 Clouds 15 1018 33 10000 5.1 230 15:19 31.01.2020
3510 Clouds 15 1018 38 10000 4.1 240 14:42 31.01.2020
3511 Clouds 15 1018 41 10000 3.6 190 14:23 31.01.2020
3512 Clouds 14 1019 51 10000 2.1 190 13:54 31.01.2020
3513 Clouds 14 1019 54 10000 2.1 200 13:34 31.01.2020
3514 Clouds 14 1020 58 10000 2.6 150 12:59 31.01.2020
3515 Clouds 14 1020 58 10000 2.6 160 12:40 31.01.2020
3516 Clouds 14 1020 58 10000 2.6 160 12:22 31.01.2020
3517 Clouds 14 1021 58 10000 2.1 150 11:45 31.01.2020
3518 Clouds 13 1021 58 10000 2.1 150 11:26 31.01.2020
3519 Clouds 13 1021 54 10000 1 0 10:59 31.01.2020
3520 Clouds 13 1021 54 10000 1 0 10:41 31.01.2020
3521 Clouds 13 1022 58 10000 2.39 187 10:21 31.01.2020
3522 Clouds 12 1021 62 10000 2.39 187 09:57 31.01.2020
3523 Clouds 12 1021 62 10000 2.39 187 09:38 31.01.2020
3524 Clouds 12 1021 62 10000 2.39 187 09:38 31.01.2020
3525 Clouds 12 1022 62 10000 1.9 190 09:19 31.01.2020
3526 Clouds 11 1022 66 10000 1.9 190 08:50 31.01.2020
3527 Clouds 11 1022 66 10000 1.9 190 08:50 31.01.2020
3528 Clouds 11 1022 66 10000 1.9 190 08:50 31.01.2020
3529 Clouds 10 1022 75 10000 2.39 187 08:25 31.01.2020
3530 Clouds 8 1021 75 10000 0.43 97 07:53 31.01.2020
3531 Clouds 7 1021 75 10000 1.5 0 07:24 31.01.2020
3532 Clouds 6 1021 75 10000 0.43 97 06:43 31.01.2020
3533 Clouds 6 1021 80 10000 1.5 0 06:18 31.01.2020
3534 Clouds 6 1021 75 10000 0.43 97 05:43 31.01.2020
3535 Clouds 6 1022 80 10000 3.6 290 04:54 31.01.2020
3536 Clouds 8 1022 48 10000 1.5 0 02:58 31.01.2020
3537 Clouds 8 1022 65 10000 1 0 01:38 31.01.2020
3538 Clouds 9 1021 66 10000 1.5 0 00:45 31.01.2020
3539 Clouds 9 1021 66 10000 1.5 0 00:26 31.01.2020
3540 Clouds 9 1020 70 10000 1.5 0 23:57 30.01.2020
3541 Clouds 10 1020 61 10000 1.5 0 23:24 30.01.2020
3542 Clouds 10 1020 57 10000 1.5 0 22:57 30.01.2020
3543 Clouds 10 1020 57 10000 1.5 0 22:57 30.01.2020
3544 Clouds 10 1020 57 10000 1.5 0 22:36 30.01.2020
3545 Clouds 10 1020 57 10000 1.5 0 22:18 30.01.2020
3546 Clouds 11 1020 53 10000 1.5 0 21:55 30.01.2020
3547 Clouds 10 1020 57 10000 2.1 300 21:37 30.01.2020
3548 Clouds 11 1020 57 10000 2.1 300 21:18 30.01.2020
3549 Clouds 11 1019 57 10000 2.1 300 20:40 30.01.2020
3550 Clouds 11 1019 50 10000 1.5 0 20:22 30.01.2020
3551 Clouds 11 1019 50 10000 1.5 0 20:22 30.01.2020
3552 Clouds 11 1019 46 10000 1.5 0 19:56 30.01.2020
3553 Clouds 11 1018 53 10000 1.5 0 19:38 30.01.2020
3554 Clouds 11 1018 53 10000 1.5 0 19:18 30.01.2020
3555 Clouds 11 1018 47 10000 2.6 330 18:41 30.01.2020
3556 Clouds 12 1017 47 10000 3.1 330 18:21 30.01.2020
3557 Clouds 12 1017 50 10000 1.5 0 17:57 30.01.2020
3558 Clouds 12 1017 50 10000 1.5 0 17:37 30.01.2020
3559 Clouds 13 1016 47 10000 2.6 360 17:19 30.01.2020
3560 Clouds 13 1016 47 10000 4.1 10 16:56 30.01.2020
3561 Clouds 14 1015 44 10000 1.5 10 16:38 30.01.2020
3562 Clouds 15 1015 44 10000 1.5 10 16:19 30.01.2020
3563 Clouds 15 1015 33 10000 2.6 330 15:43 30.01.2020
3564 Clouds 16 1015 53 10000 2.1 320 15:20 30.01.2020
3565 Clouds 16 1014 53 10000 2.1 300 14:50 30.01.2020
3566 Clouds 16 1014 53 10000 2.1 300 14:50 30.01.2020
3567 Clouds 16 1014 34 10000 3.1 290 14:27 30.01.2020
3568 Clouds 16 1014 32 10000 3.1 290 13:57 30.01.2020
3569 Clouds 16 1014 39 10000 2.1 300 13:38 30.01.2020
3570 Clouds 16 1016 36 10000 3.1 310 13:38 30.01.2020
3571 Clouds 16 1014 39 10000 2.1 300 13:19 30.01.2020
3572 Clouds 16 1014 42 10000 3.6 350 12:43 30.01.2020
3573 Clouds 16 1015 48 10000 2.6 360 12:24 30.01.2020
3574 Clouds 16 1015 48 10000 3.6 340 11:58 30.01.2020
3575 Clouds 16 1015 48 10000 3.6 340 11:40 30.01.2020
3576 Clouds 16 1015 39 10000 3.1 320 11:21 30.01.2020
3577 Clouds 16 1015 42 10000 3.6 330 10:43 30.01.2020
3578 Clouds 16 1015 45 10000 2.6 310 10:24 30.01.2020
3579 Clouds 15 1015 55 10000 2.1 290 09:56 30.01.2020
3580 Clouds 15 1014 67 10000 1.5 0 09:37 30.01.2020
3581 Clouds 14 1014 67 10000 1.5 0 09:19 30.01.2020
3582 Clouds 14 1014 62 10000 1.5 0 08:42 30.01.2020
3583 Clouds 13 1014 76 10000 5.64 295 08:22 30.01.2020
3584 Clouds 13 1014 71 10000 5.64 295 07:52 30.01.2020
3585 Clouds 12 1013 71 10000 5.64 295 07:32 30.01.2020
3586 Clouds 12 1013 67 10000 5.64 295 06:47 30.01.2020
3587 Clouds 12 1012 67 10000 1.5 0 06:29 30.01.2020
3588 Clouds 13 1012 67 10000 1.5 0 05:47 30.01.2020
3589 Clouds 12 1012 81 10000 1.5 0 05:27 30.01.2020
3590 Clouds 12 1012 81 10000 4.23 297 04:23 30.01.2020
3591 Clouds 12 1012 81 10000 4.23 297 03:46 30.01.2020
3592 Clouds 12 1012 81 10000 1.5 0 02:52 30.01.2020
3593 Clouds 13 1012 71 10000 1.5 0 00:54 30.01.2020
3594 Clouds 13 1012 81 10000 3.95 299 00:23 30.01.2020
3595 Clouds 13 1012 71 10000 1.5 0 23:49 29.01.2020
3596 Clouds 13 1012 67 10000 1.5 0 23:23 29.01.2020
3597 Clouds 14 1012 62 10000 1.5 0 22:59 29.01.2020
3598 Clouds 14 1012 62 10000 1.5 0 22:59 29.01.2020
3599 Clouds 14 1012 62 10000 1.5 0 22:39 29.01.2020
3600 Clouds 13 1012 62 10000 2.6 290 22:19 29.01.2020
3601 Clouds 13 1012 71 10000 1.5 0 21:59 29.01.2020
3602 Clouds 13 1012 71 10000 1.5 0 21:40 29.01.2020
3603 Clouds 13 1012 71 10000 1.5 0 21:20 29.01.2020
3604 Clouds 13 1012 62 10000 1.5 0 20:59 29.01.2020
3605 Clouds 13 1012 62 10000 1.5 0 20:39 29.01.2020
3606 Clouds 14 1012 62 10000 1.5 0 20:21 29.01.2020
3607 Clouds 14 1012 71 10000 1.5 0 19:57 29.01.2020
3608 Clouds 14 1012 71 10000 2.39 268 19:38 29.01.2020
3609 Clouds 14 1012 71 10000 2.39 268 19:20 29.01.2020
3610 Clouds 14 1012 67 10000 1.5 0 18:55 29.01.2020
3611 Clouds 14 1012 62 10000 2.39 268 18:37 29.01.2020
3612 Clouds 14 1012 67 10000 1.5 0 18:37 29.01.2020
3613 Clouds 14 1012 62 10000 2.39 268 18:18 29.01.2020
3614 Clouds 14 1012 62 10000 2.39 268 18:18 29.01.2020
3615 Clouds 15 1012 59 10000 2.39 268 17:40 29.01.2020
3616 Clouds 15 1012 59 10000 2.37 277 17:22 29.01.2020
3617 Clouds 15 1012 59 10000 2.37 277 17:22 29.01.2020
3618 -273 0 0 0 0 0 17:22 29.01.2020
3619 Clouds 16 1011 55 10000 2.1 230 16:42 29.01.2020
3620 Clouds 16 1011 51 10000 3.1 260 16:23 29.01.2020
3621 Clouds 16 1011 55 10000 2.1 210 15:59 29.01.2020
3622 Clouds 17 1011 52 10000 2.6 200 15:38 29.01.2020
3623 Clouds 17 1011 52 10000 2.6 200 15:20 29.01.2020
3624 Clouds 17 1011 55 10000 3.1 200 14:45 29.01.2020
3625 Clouds 17 1011 51 10000 3.1 200 14:22 29.01.2020
3626 Clouds 17 1011 55 10000 4.1 180 13:57 29.01.2020
3627 Clouds 17 1011 55 10000 4.1 180 13:38 29.01.2020
3628 Clouds 17 1012 55 10000 4.1 180 13:20 29.01.2020
3629 Clouds 17 1012 55 10000 4.1 200 12:56 29.01.2020
3630 Clouds 17 1012 55 10000 3.6 190 12:37 29.01.2020
3631 Clouds 17 1012 55 10000 3.6 190 12:19 29.01.2020
3632 Clouds 17 1013 55 10000 2.6 210 11:45 29.01.2020
3633 Clouds 16 1013 48 10000 4.1 230 11:22 29.01.2020
3634 Clouds 16 1013 48 10000 3.6 260 10:47 29.01.2020
3635 Clouds 15 1013 48 10000 5.51 277 10:28 29.01.2020
3636 Clouds 14 1013 62 10000 5.51 277 09:59 29.01.2020
3637 Clouds 14 1013 62 10000 5.51 277 09:40 29.01.2020
3638 Clouds 14 1013 62 10000 5.51 277 09:21 29.01.2020
3639 Clouds 14 1013 67 10000 5.51 277 08:56 29.01.2020
3640 Clouds 14 1013 67 10000 5.51 277 08:56 29.01.2020
3641 Clouds 13 1013 71 10000 5.51 277 08:38 29.01.2020
3642 Clouds 13 1013 71 10000 3.17 252 08:18 29.01.2020
3643 Clouds 12 1013 81 10000 3.17 252 07:43 29.01.2020
3644 Clouds 11 1013 81 10000 3.17 252 07:23 29.01.2020
3645 Clouds 10 1013 71 10000 3.17 252 06:39 29.01.2020
3646 Clouds 10 1013 87 10000 1 0 06:21 29.01.2020
3647 Clouds 10 1013 87 10000 1 0 05:55 29.01.2020
3648 Clouds 10 1013 81 10000 1.5 0 05:36 29.01.2020
3649 Clouds 10 1014 93 10000 1 0 04:49 29.01.2020
3650 Clouds 10 1014 93 10000 1 0 04:49 29.01.2020
3651 Clouds 10 1013 87 10000 1.5 0 04:25 29.01.2020
3652 Clouds 10 1014 87 10000 1 0 02:41 29.01.2020
3653 Clouds 11 1014 81 10000 4.37 284 01:49 29.01.2020
3654 Clouds 11 1014 81 10000 5.17 288 00:41 29.01.2020
3655 Clouds 11 1015 66 10000 1 0 00:23 29.01.2020
3656 Clouds 11 1015 71 10000 5.17 288 23:44 28.01.2020
3657 Clouds 11 1015 76 10000 1.5 0 23:21 28.01.2020
3658 Clouds 11 1016 76 10000 5.4 294 22:58 28.01.2020
3659 Clouds 11 1016 76 10000 5.4 294 22:40 28.01.2020
3660 Clouds 11 1015 76 10000 1.5 0 22:21 28.01.2020
3661 Clouds 11 1015 71 10000 1 0 21:42 28.01.2020
3662 Clouds 12 1015 71 10000 2.1 150 21:22 28.01.2020
3663 Clouds 12 1015 71 10000 1.5 0 20:57 28.01.2020
3664 Clouds 12 1015 71 10000 1.5 0 20:39 28.01.2020
3665 Clouds 12 1015 71 10000 1.5 0 20:39 28.01.2020
3666 Clouds 12 1015 62 10000 1.5 0 20:21 28.01.2020
3667 Clouds 12 1015 62 10000 2.72 289 19:39 28.01.2020
3668 Clouds 12 1015 62 10000 2.72 289 19:20 28.01.2020
3669 Clouds 13 1014 62 10000 1 0 18:58 28.01.2020
3670 Clouds 13 1014 62 10000 1 0 18:58 28.01.2020
3671 Clouds 13 1014 62 10000 1 0 18:39 28.01.2020
3672 Clear 13 1014 62 10000 1.5 0 18:21 28.01.2020
3673 Clear 13 1014 58 10000 1.5 0 17:57 28.01.2020
3674 Clear 13 1014 58 10000 1.5 0 17:37 28.01.2020
3675 Clear 14 1014 58 10000 1.5 0 17:19 28.01.2020
3676 Clouds 14 1014 41 10000 1.5 0 16:54 28.01.2020
3677 Clouds 14 1014 39 10000 1.5 360 16:36 28.01.2020
3678 Clouds 15 1014 39 10000 1.5 360 16:18 28.01.2020
3679 Clouds 15 1014 39 10000 2.6 330 15:41 28.01.2020
3680 Clouds 16 1014 39 10000 1.5 0 15:19 28.01.2020
3681 Clouds 16 1014 39 10000 1.5 0 15:19 28.01.2020
3682 Clouds 16 1014 45 10000 4.1 310 14:54 28.01.2020
3683 Clouds 16 1014 45 10000 3.1 310 14:36 28.01.2020
3684 Clouds 16 1014 45 10000 3.1 310 14:18 28.01.2020
3685 Clouds 16 1014 42 10000 3.1 290 13:39 28.01.2020
3686 Clouds 16 1015 45 10000 2.6 290 13:21 28.01.2020
3687 Clouds 16 1015 45 10000 2.6 300 12:42 28.01.2020
3688 Clear 16 1016 45 10000 3.1 290 12:23 28.01.2020
3689 Clear 15 1016 42 10000 2.6 320 11:48 28.01.2020
3690 Clear 15 1016 44 10000 3.6 300 11:23 28.01.2020
3691 Clear 14 1016 44 10000 2.6 320 10:59 28.01.2020
3692 Clear 14 1016 44 10000 2.6 320 10:40 28.01.2020
3693 Clear 14 1016 48 10000 2.6 290 10:20 28.01.2020
3694 Clear 13 1016 54 10000 1.5 0 09:55 28.01.2020
3695 Clear 13 1016 66 10000 1.5 0 09:36 28.01.2020
3696 Clear 12 1016 66 10000 1.5 0 09:18 28.01.2020
3697 Clear 11 1017 76 10000 2.1 0 08:40 28.01.2020
3698 Clear 10 1017 76 10000 2.1 0 08:19 28.01.2020
3699 Clear 8 1016 87 10000 4.28 314 07:38 28.01.2020
3700 Clouds 7 1016 87 10000 4.28 314 06:51 28.01.2020
3701 Clouds 7 1015 93 10000 4.28 314 06:28 28.01.2020
3702 Clouds 8 1015 93 10000 4.28 314 05:55 28.01.2020
3703 Rain 7 1015 93 10000 4.28 314 05:27 28.01.2020
3704 Clouds 8 1015 87 10000 5.11 303 04:30 28.01.2020
3705 Clouds 9 1015 81 10000 1.5 0 02:58 28.01.2020
3706 Clouds 9 1014 71 10000 4.87 295 02:25 28.01.2020
3707 Clouds 9 1014 71 10000 4.87 295 02:25 28.01.2020
3708 Clouds 9 1014 87 10000 4.87 295 01:57 28.01.2020
3709 Clouds 9 1014 76 10000 4.87 295 01:32 28.01.2020
3710 Clouds 9 1015 71 10000 1.5 0 00:51 28.01.2020
3711 Clouds 10 1015 71 10000 1.5 0 00:29 28.01.2020
3712 Clouds 10 1015 76 10000 4.53 296 23:51 27.01.2020
3713 Clouds 10 1015 93 10000 4.53 296 23:30 27.01.2020
3714 Clouds 10 1015 93 10000 4.13 303 22:59 27.01.2020
3715 Clouds 10 1015 93 10000 4.13 303 22:40 27.01.2020
3716 Clouds 10 1015 93 10000 4.13 303 22:19 27.01.2020
3717 Rain 10 1015 93 8000 4.13 303 21:55 27.01.2020
3718 Rain 10 1015 93 8000 4.13 303 21:37 27.01.2020
3719 Rain 10 1015 93 8000 4.13 303 21:18 27.01.2020
3720 Clouds 10 1015 93 8000 4.13 303 20:43 27.01.2020
3721 Clouds 11 1015 100 8000 3.13 303 20:22 27.01.2020
3722 Clouds 11 1015 100 8000 3.35 300 19:59 27.01.2020
3723 Clouds 11 1015 100 8000 3.35 300 19:41 27.01.2020
3724 Clouds 11 1015 93 9000 3.35 300 19:22 27.01.2020
3725 Clouds 11 1016 81 10000 3.6 200 18:56 27.01.2020
3726 Rain 11 1015 93 8000 3.35 300 18:38 27.01.2020
3727 Rain 12 1015 93 8000 3.35 300 18:19 27.01.2020
3728 Rain 12 1015 93 8000 3.35 300 17:39 27.01.2020
3729 Rain 12 1015 93 7000 4.51 288 17:21 27.01.2020
3730 Clouds 12 1015 93 7000 4.51 288 16:59 27.01.2020
3731 Clouds 12 1015 93 7000 4.51 288 16:40 27.01.2020
3732 Clouds 12 1015 100 7000 1.5 0 16:22 27.01.2020
3733 Clouds 12 1015 100 7000 1.5 0 15:55 27.01.2020
3734 Clouds 12 1015 100 7000 1.5 0 15:55 27.01.2020
3735 Drizzle 12 1016 100 5000 4.51 288 15:36 27.01.2020
3736 Drizzle 12 1016 100 5000 4.51 288 15:36 27.01.2020
3737 Drizzle 12 1016 100 5000 4.51 288 15:18 27.01.2020
3738 Rain 12 1016 100 5000 4.51 288 14:42 27.01.2020
3739 Rain 12 1016 93 4000 4.51 288 14:22 27.01.2020
3740 Rain 12 1016 93 4000 2.19 236 14:22 27.01.2020
3741 Rain 12 1016 93 5000 2.19 236 13:57 27.01.2020
3742 Rain 13 1016 93 5000 2.41 242 13:37 27.01.2020
3743 Rain 13 1016 93 5000 2.41 242 13:18 27.01.2020
3744 Rain 14 1017 93 5000 2.41 242 12:44 27.01.2020
3745 Rain 14 1017 93 5000 2.41 242 12:23 27.01.2020
3746 Rain 14 1017 93 5000 2.41 242 12:23 27.01.2020
3747 Rain 14 1018 93 9000 2.41 242 11:58 27.01.2020
3748 Rain 14 1018 93 9000 2.41 242 11:40 27.01.2020
3749 Rain 14 1018 87 9000 2.66 112 11:20 27.01.2020
3750 Clouds 15 1018 82 10000 2.66 112 10:43 27.01.2020
3751 Clouds 15 1018 87 10000 2.66 112 10:24 27.01.2020
3752 Clouds 14 1018 87 10000 1.5 0 09:54 27.01.2020
3753 Clouds 15 1018 87 10000 2.66 112 09:36 27.01.2020
3754 Clouds 14 1018 87 10000 2.66 112 09:18 27.01.2020
3755 Clouds 14 1019 87 10000 2.66 112 08:42 27.01.2020
3756 Clouds 13 1018 93 10000 1.5 0 08:20 27.01.2020
3757 Clouds 12 1019 93 9000 1.5 0 07:53 27.01.2020
3758 Clouds 12 1019 93 9000 1.5 0 07:33 27.01.2020
3759 Clouds 11 1019 93 9000 1.5 0 06:51 27.01.2020
3760 Clouds 11 1019 100 9000 1.32 77 06:24 27.01.2020
3761 Clouds 11 1019 93 9000 0.84 40 05:22 27.01.2020
3762 Clouds 11 1020 93 9000 0.84 40 03:43 27.01.2020
3763 Clouds 11 1020 93 9000 0.84 40 02:32 27.01.2020
3764 Drizzle 11 1021 100 7000 0.87 171 01:29 27.01.2020
3765 Drizzle 11 1021 93 7000 0.87 171 00:43 27.01.2020
3766 Drizzle 11 1021 93 7000 0.87 171 00:23 27.01.2020
3767 Drizzle 11 1021 93 7000 0.87 171 23:59 26.01.2020
3768 Drizzle 11 1021 93 7000 0.87 171 23:59 26.01.2020
3769 Drizzle 11 1022 93 7000 0.87 171 23:41 26.01.2020
3770 Drizzle 11 1022 93 7000 0.87 171 23:41 26.01.2020
3771 Drizzle 11 1022 93 7000 2.59 55 23:18 26.01.2020
3772 Clouds 11 1023 93 7000 2.59 55 22:54 26.01.2020
3773 Clouds 11 1023 93 10000 2.59 55 22:36 26.01.2020
3774 Clouds 11 1023 93 10000 2.59 55 22:18 26.01.2020
3775 Clouds 11 1023 93 7000 2.59 55 21:54 26.01.2020
3776 Drizzle 11 1022 93 7000 2.59 55 21:36 26.01.2020
3777 Drizzle 11 1022 93 7000 2.59 55 21:18 26.01.2020
3778 Clouds 11 1022 93 7000 2.59 55 20:54 26.01.2020
3779 Clouds 11 1022 93 7000 2.59 55 20:36 26.01.2020
3780 Clouds 12 1022 93 7000 0.61 177 20:18 26.01.2020
3781 Drizzle 12 1022 93 7000 0.61 177 19:40 26.01.2020
3782 Drizzle 12 1022 87 7000 0.61 177 19:21 26.01.2020
3783 Clouds 12 1023 93 10000 0.61 177 18:59 26.01.2020
3784 Clouds 12 1023 93 10000 0.61 177 18:40 26.01.2020
3785 Clouds 12 1023 93 10000 0.61 177 18:22 26.01.2020
3786 Clouds 12 1023 93 10000 0.61 177 17:58 26.01.2020
3787 Clouds 12 1023 87 10000 0.61 177 17:38 26.01.2020
3788 Clouds 12 1023 87 10000 1.3 137 17:18 26.01.2020
3789 Clouds 12 1023 87 10000 1.3 137 17:18 26.01.2020
3790 Clouds 13 1023 82 10000 1.3 137 16:57 26.01.2020
3791 Clouds 13 1023 82 10000 1.3 137 16:39 26.01.2020
3792 Clouds 13 1023 82 10000 1.3 137 16:20 26.01.2020
3793 Clouds 13 1022 82 0 1.34 180 15:55 26.01.2020
3794 Clouds 13 1024 81 0 1.3 137 15:36 26.01.2020
3795 Clouds 13 1023 73 0 0.89 247 15:18 26.01.2020
3796 Clouds 14 1024 78 0 0.45 223 14:40 26.01.2020
3797 Clouds 14 1008 65 0 1.79 249 14:19 26.01.2020
3798 Clouds 14 1022 77 0 2.24 184 13:42 26.01.2020
3799 Clouds 14 1009 64 0 1.55 144 13:20 26.01.2020
3800 Clouds 14 1009 66 0 1.34 255 12:57 26.01.2020
3801 Clouds 14 1025 76 0 1.55 144 12:39 26.01.2020
3802 Clouds 14 1023 78 0 0.45 153 12:20 26.01.2020
3803 Clouds 14 1026 79 0 0.45 255 11:57 26.01.2020
3804 Clouds 14 1026 78 0 1.55 144 11:37 26.01.2020
3805 Clouds 13 1026 81 10000 1.13 115 11:18 26.01.2020
3806 Clouds 13 1026 81 10000 1.13 115 10:57 26.01.2020
3807 Clouds 13 1026 81 10000 1.13 115 10:38 26.01.2020
3808 Clouds 13 1026 81 10000 1.13 115 10:38 26.01.2020
3809 Clouds 13 1026 81 10000 1.13 115 10:20 26.01.2020
3810 Clouds 13 1026 81 10000 1.13 115 10:20 26.01.2020
3811 Clouds 13 1026 76 10000 1.13 115 09:56 26.01.2020
3812 Clouds 12 1025 76 10000 1.13 115 09:38 26.01.2020
3813 Clouds 12 1025 76 10000 1.13 115 09:19 26.01.2020
3814 Clouds 11 1025 87 10000 1.13 115 08:42 26.01.2020
3815 Clouds 10 1025 87 10000 1.13 115 08:22 26.01.2020
3816 Clouds 9 1025 93 10000 1.21 340 07:54 26.01.2020
3817 Clouds 9 1025 93 10000 1.21 340 07:36 26.01.2020
3818 Clouds 9 1025 93 10000 1.21 340 07:36 26.01.2020
3819 Clouds 8 1025 93 10000 1.21 340 07:18 26.01.2020
3820 Clouds 8 1025 93 10000 1.21 340 06:26 26.01.2020
3821 Clouds 8 1025 93 10000 1.21 340 05:29 26.01.2020
3822 Clouds 8 1024 93 10000 1.71 343 04:44 26.01.2020
3823 Clouds 9 1025 93 10000 1.71 343 02:38 26.01.2020
3824 Clouds 9 1025 100 10000 1.68 345 01:46 26.01.2020
3825 Clouds 9 1025 93 10000 1.66 343 01:23 26.01.2020
3826 Clouds 9 1025 93 10000 1.66 343 00:44 26.01.2020
3827 Rain 9 1026 93 10000 1.66 343 00:26 26.01.2020
3828 Clouds 9 1027 81 0 1.66 343 23:40 25.01.2020
3829 Clouds 9 1025 80 0 0.45 69 23:21 25.01.2020
3830 Clouds 9 1027 81 0 0.5 65 22:56 25.01.2020
3831 Clouds 10 1027 82 0 0.5 65 22:37 25.01.2020
3832 Clouds 10 1027 82 0 0.5 65 22:18 25.01.2020
3833 Clouds 10 1027 82 0 0.5 65 21:55 25.01.2020
3834 Clouds 10 1027 82 0 0.5 65 21:37 25.01.2020
3835 Clouds 11 1026 76 0 0.5 65 21:19 25.01.2020
3836 Clouds 10 1027 82 0 0.5 65 20:43 25.01.2020
3837 Clouds 11 1026 72 0 1.18 166 20:24 25.01.2020
3838 Clouds 10 1010 84 0 1.36 140 19:48 25.01.2020
3839 Clouds 10 1027 81 0 1.36 140 19:20 25.01.2020
3840 Clouds 11 1025 74 0 1.18 166 18:59 25.01.2020
3841 Clouds 11 1025 79 0 1.36 140 18:41 25.01.2020
3842 Clouds 11 1025 74 0 1.18 166 18:21 25.01.2020
3843 Clouds 11 1025 74 0 1.18 166 17:56 25.01.2020
3844 Clouds 11 1025 74 0 1.36 140 17:37 25.01.2020
3845 Clouds 11 1025 74 0 2.1 156 17:18 25.01.2020
3846 Clouds 12 1024 72 0 0.45 191 16:42 25.01.2020
3847 Clouds 12 1024 72 0 0.45 191 16:42 25.01.2020
3848 Clouds 12 1024 70 0 0.45 162 16:23 25.01.2020
3849 Clouds 13 1024 68 0 1.79 206 15:56 25.01.2020
3850 Clouds 13 1025 67 0 1.34 213 15:38 25.01.2020
3851 Clouds 13 1025 64 0 0.89 186 15:19 25.01.2020
3852 Clouds 14 1024 73 0 3.58 150 14:42 25.01.2020
3853 Clear 14 1027 71 0 0.89 264 14:19 25.01.2020
3854 Clear 14 1025 66 0 1.34 272 13:45 25.01.2020
3855 Clear 13 1027 73 0 2.24 226 13:26 25.01.2020
3856 Clear 14 1027 70 0 1.79 194 12:57 25.01.2020
3857 Clouds 13 1027 66 10000 1.55 169 12:37 25.01.2020
3858 Clouds 13 1027 66 10000 1.55 169 12:19 25.01.2020
3859 Clouds 13 1027 66 10000 1.55 169 12:19 25.01.2020
3860 Clouds 13 1027 66 10000 1.55 169 11:40 25.01.2020
3861 Clouds 13 1027 66 10000 1.55 169 11:40 25.01.2020
3862 Clouds 13 1027 62 10000 1.25 176 11:19 25.01.2020
3863 Clear 12 1028 66 10000 1.25 176 10:55 25.01.2020
3864 Clear 12 1028 62 10000 1.25 176 10:37 25.01.2020
3865 Clear 11 1028 62 10000 1.25 176 10:18 25.01.2020
3866 Clear 11 1028 66 10000 1.25 176 09:40 25.01.2020
3867 Clear 10 1028 70 10000 1.25 176 09:19 25.01.2020
3868 Clear 9 1028 75 10000 1.25 176 08:43 25.01.2020
3869 Clear 7 1027 93 10000 0.63 333 07:57 25.01.2020
3870 Clear 5 1027 93 10000 0.63 333 07:36 25.01.2020
3871 Clouds 4 1027 86 10000 0.63 333 06:33 25.01.2020
3872 Clouds 4 1027 86 10000 0.63 333 06:33 25.01.2020
3873 Clouds 4 1027 86 10000 0.63 333 05:57 25.01.2020
3874 Clouds 4 1027 86 10000 0.63 333 05:38 25.01.2020
3875 Clouds 4 1027 86 10000 0.61 351 04:19 25.01.2020
3876 Clouds 4 1027 93 10000 1.5 0 03:49 25.01.2020
3877 Clouds 4 1028 86 10000 0.61 351 02:37 25.01.2020
3878 Clouds 5 1028 80 10000 0.3 221 01:57 25.01.2020
3879 Clouds 4 1028 80 10000 0.39 170 01:23 25.01.2020
3880 Clouds 5 1029 80 10000 0.39 170 00:39 25.01.2020
3881 Clouds 5 1029 80 10000 0.39 170 00:18 25.01.2020
3882 Clouds 5 1029 80 10000 0.39 170 23:42 24.01.2020
3883 Clouds 5 1029 80 10000 0.39 170 23:42 24.01.2020
3884 Clouds 5 1029 80 10000 0.77 180 23:24 24.01.2020
3885 Clouds 5 1030 80 10000 0.77 180 22:46 24.01.2020
3886 Clouds 5 1030 80 10000 1.5 0 22:28 24.01.2020
3887 Clouds 5 1030 80 10000 0.77 180 21:59 24.01.2020
3888 Clouds 5 1030 80 10000 0.77 180 21:40 24.01.2020
3889 Clouds 5 1030 80 10000 1.5 0 21:19 24.01.2020
3890 Clouds 6 1030 80 10000 0.77 180 20:44 24.01.2020
3891 Clouds 6 1030 80 10000 1.18 184 20:22 24.01.2020
3892 Clouds 6 1030 75 10000 1.18 184 19:58 24.01.2020
3893 Clouds 6 1030 75 10000 1.18 184 19:58 24.01.2020
3894 Clouds 6 1030 75 10000 1.18 184 19:40 24.01.2020
3895 Clouds 7 1030 75 10000 1.18 184 19:22 24.01.2020
3896 Clouds 7 1030 75 10000 1.18 184 19:22 24.01.2020
3897 Clouds 7 1030 70 10000 1.18 184 18:56 24.01.2020
3898 Clouds 7 1030 65 10000 1.18 184 18:37 24.01.2020
3899 Clouds 7 1030 65 10000 1.18 184 18:19 24.01.2020
3900 Clouds 8 1030 70 10000 1.18 184 17:42 24.01.2020
3901 Clouds 8 1030 66 10000 2.1 210 17:21 24.01.2020
3902 Clouds 8 1030 66 10000 2.1 210 17:21 24.01.2020
3903 Clouds 9 1030 53 10000 2.6 190 16:55 24.01.2020
3904 Clouds 10 1030 50 10000 3.1 190 16:36 24.01.2020
3905 Clouds 10 1030 50 10000 3.1 190 16:18 24.01.2020
3906 Clouds 10 1030 50 10000 3.6 190 15:40 24.01.2020
3907 Clouds 11 1030 46 10000 3.6 200 15:20 24.01.2020
3908 Clouds 11 1030 43 10000 3.6 170 14:42 24.01.2020
3909 Clouds 11 1031 43 10000 3.1 190 14:23 24.01.2020
3910 Clouds 11 1031 43 10000 3.1 200 13:57 24.01.2020
3911 Clear 11 1031 43 10000 2.1 210 13:39 24.01.2020
3912 Clear 11 1031 43 10000 2.1 210 13:19 24.01.2020
3913 Clear 11 1031 43 10000 2.1 210 13:19 24.01.2020
3914 Clouds 11 1031 43 10000 2.6 160 12:41 24.01.2020
3915 Clouds 11 1032 43 10000 1.5 0 12:18 24.01.2020
3916 Clouds 11 1032 46 10000 1.5 0 11:43 24.01.2020
3917 Clouds 10 1033 50 10000 1.5 0 11:19 24.01.2020
3918 Clouds 10 1033 50 10000 1.51 340 10:43 24.01.2020
3919 Clouds 10 1033 57 10000 1.51 340 10:22 24.01.2020
3920 Clouds 10 1033 57 10000 1.51 340 09:57 24.01.2020
3921 Clouds 9 1033 57 10000 1.51 340 09:39 24.01.2020
3922 Clouds 9 1033 65 10000 1.51 340 09:21 24.01.2020
3923 Clouds 7 1033 75 10000 1.51 340 08:41 24.01.2020
3924 Clouds 6 1033 75 10000 2.29 19 08:20 24.01.2020
3925 Clouds 6 1033 80 10000 1.5 0 07:51 24.01.2020
3926 Clouds 5 1033 63 10000 1.92 20 07:32 24.01.2020
3927 Clouds 4 1032 63 10000 1.5 0 06:48 24.01.2020
3928 Clouds 4 1032 63 10000 1.92 20 06:29 24.01.2020
3929 Clouds 5 1032 86 10000 1.92 20 05:58 24.01.2020
3930 Clouds 5 1032 67 10000 2.3 10 04:57 24.01.2020
3931 Clouds 6 1032 75 10000 1 0 02:53 24.01.2020
3932 Clouds 6 1032 70 10000 2.3 10 02:25 24.01.2020
3933 Clouds 7 1032 70 10000 3.16 8 01:45 24.01.2020
3934 Clouds 7 1032 75 10000 2.55 14 01:26 24.01.2020
3935 Clouds 7 1031 80 10000 2.55 14 00:25 24.01.2020
3936 Clouds 7 1031 75 10000 2.55 14 23:49 23.01.2020
3937 Clouds 7 1031 75 10000 2.55 14 23:31 23.01.2020
3938 Clouds 7 1031 75 10000 1 0 22:59 23.01.2020
3939 Clouds 7 1031 70 10000 3.36 356 22:38 23.01.2020
3940 Clouds 7 1031 70 10000 3.36 356 22:19 23.01.2020
3941 Clouds 7 1031 70 10000 1.5 0 21:57 23.01.2020
3942 Clouds 7 1030 61 10000 3.36 356 21:39 23.01.2020
3943 Clouds 8 1030 61 10000 3.36 356 21:20 23.01.2020
3944 Clouds 8 1030 57 10000 3.36 356 20:59 23.01.2020
3945 Clouds 8 1030 65 10000 1 0 20:38 23.01.2020
3946 Clouds 8 1030 65 10000 1 0 20:19 23.01.2020
3947 Clouds 8 1030 65 10000 1 0 20:19 23.01.2020
3948 Clouds 8 1029 65 10000 2.1 360 19:56 23.01.2020
3949 Clouds 8 1029 61 10000 5.03 5 19:38 23.01.2020
3950 Clouds 8 1029 61 10000 5.03 5 19:19 23.01.2020
3951 Clouds 8 1028 57 10000 2.6 0 18:43 23.01.2020
3952 Clouds 8 1028 57 10000 2.6 0 18:21 23.01.2020
3953 Clouds 9 1028 57 10000 4.1 300 17:58 23.01.2020
3954 Clouds 9 1028 57 10000 4.1 300 17:40 23.01.2020
3955 Clouds 9 1027 57 10000 5.1 320 17:20 23.01.2020
3956 Clouds 9 1027 53 10000 6.2 20 16:56 23.01.2020
3957 Clouds 9 1027 53 10000 6.2 20 16:37 23.01.2020
3958 Clouds 10 1026 50 10000 4.1 10 16:18 23.01.2020
3959 Clouds 10 1026 50 10000 4.1 10 15:55 23.01.2020
3960 Clouds 11 1025 47 10000 4.1 10 15:37 23.01.2020
3961 Clouds 11 1025 47 10000 4.1 10 15:18 23.01.2020
3962 Clouds 12 1025 47 10000 5.1 360 14:55 23.01.2020
3963 Clouds 12 1026 47 10000 13.9 50 14:37 23.01.2020
3964 Clouds 12 1026 47 10000 13.9 50 14:19 23.01.2020
3965 Clouds 13 1024 44 10000 7.7 360 13:40 23.01.2020
3966 Clouds 14 1024 44 10000 7.7 360 13:20 23.01.2020
3967 Clear 14 1023 44 10000 9.3 350 12:47 23.01.2020
3968 Clear 15 1022 52 10000 9.3 350 12:25 23.01.2020
3969 Clear 15 1023 29 10000 10.3 340 11:59 23.01.2020
3970 Clear 15 1023 29 10000 10.3 340 11:39 23.01.2020
3971 Clear 15 1023 29 10000 11.3 340 11:20 23.01.2020
3972 Clear 14 1023 23 10000 5.1 350 10:45 23.01.2020
3973 Clear 14 1023 54 10000 2.6 150 10:23 23.01.2020
3974 Clear 13 1023 53 10000 2.96 355 09:59 23.01.2020
3975 Clear 12 1023 61 10000 2.9 4 09:39 23.01.2020
3976 Clear 11 1023 61 10000 2.96 355 09:20 23.01.2020
3977 Clear 10 1022 61 10000 2.96 355 08:43 23.01.2020
3978 Clouds 8 1022 81 10000 3.42 335 08:24 23.01.2020
3979 Clouds 6 1022 86 10000 3.42 335 07:49 23.01.2020
3980 Clouds 5 1022 48 10000 3.42 335 07:27 23.01.2020
3981 Clouds 4 1022 48 10000 3.42 335 06:54 23.01.2020
3982 Clouds 4 1021 93 10000 3.42 335 06:24 23.01.2020
3983 Clouds 5 1021 93 10000 3.42 335 05:58 23.01.2020
3984 Clouds 5 1021 86 10000 2.89 325 04:24 23.01.2020
3985 Clouds 5 1022 86 10000 1.5 0 02:48 23.01.2020
3986 Clouds 5 1023 80 10000 3.12 315 01:50 23.01.2020
3987 Clouds 6 1024 53 10000 1.5 0 00:29 23.01.2020
3988 Clear 6 1024 69 10000 3.12 318 23:57 22.01.2020
3989 Clear 6 1024 64 10000 3.12 318 23:38 22.01.2020
3990 Clear 6 1024 64 10000 2.67 319 23:20 22.01.2020
3991 Clear 6 1024 64 10000 1.5 0 22:42 22.01.2020
3992 Clear 6 1024 64 10000 2.67 319 22:23 22.01.2020
3993 Clear 7 1024 69 10000 2.67 319 21:56 22.01.2020
3994 Clear 7 1025 60 10000 1.5 0 21:36 22.01.2020
3995 Clear 7 1025 60 10000 1.5 0 21:18 22.01.2020
3996 Clear 7 1025 65 10000 2.67 319 20:41 22.01.2020
3997 Clear 7 1025 60 10000 1.8 327 20:23 22.01.2020
3998 Clear 8 1025 60 10000 1.5 0 19:58 22.01.2020
3999 Clear 8 1025 60 10000 1.5 0 19:39 22.01.2020
4000 Clear 8 1025 56 10000 1.8 327 19:19 22.01.2020
4001 Clear 8 1025 44 10000 1.5 0 18:57 22.01.2020
4002 Clear 8 1025 61 10000 1.5 0 18:38 22.01.2020
4003 Clear 8 1025 61 10000 1.5 0 18:20 22.01.2020
4004 Clear 9 1025 66 10000 1.5 0 17:55 22.01.2020
4005 Clear 9 1025 57 10000 1.5 0 17:37 22.01.2020
4006 Clear 10 1025 57 10000 1.5 0 17:19 22.01.2020
4007 Clear 11 1025 54 10000 1.5 0 16:43 22.01.2020
4008 Clear 12 1026 44 10000 1.5 0 16:23 22.01.2020
4009 Clear 12 1026 35 10000 1.5 0 15:59 22.01.2020
4010 Clear 12 1026 35 10000 1.5 0 15:41 22.01.2020
4011 Clear 13 1026 38 10000 2.6 230 15:22 22.01.2020
4012 Clear 13 1026 43 10000 1.5 0 14:58 22.01.2020
4013 Clear 13 1026 43 10000 1.5 0 14:37 22.01.2020
4014 Clear 13 1028 50 10000 3.6 70 14:18 22.01.2020
4015 Clear 13 1028 50 10000 3.6 60 13:55 22.01.2020
4016 Clear 13 1028 24 10000 3.6 340 13:36 22.01.2020
4017 Clear 13 1028 24 10000 3.6 340 13:36 22.01.2020
4018 Clear 13 1028 24 10000 3.6 340 13:36 22.01.2020
4019 Clear 13 1028 24 10000 3.6 340 13:18 22.01.2020
4020 Clear 13 1028 24 10000 3.6 310 12:55 22.01.2020
4021 Clear 13 1029 26 10000 3.6 320 12:37 22.01.2020
4022 Clear 13 1029 26 10000 3.6 320 12:18 22.01.2020
4023 Clouds 12 1030 28 10000 3.1 300 11:56 22.01.2020
4024 Clouds 12 1030 30 10000 2.6 290 11:37 22.01.2020
4025 Clouds 11 1030 30 10000 2.6 290 11:18 22.01.2020
4026 Clouds 11 1031 34 10000 3.6 320 10:44 22.01.2020
4027 Clouds 10 1031 34 10000 3.6 310 10:20 22.01.2020
4028 Clouds 10 1031 37 10000 4.1 310 09:44 22.01.2020
4029 Clouds 9 1031 39 10000 4.1 300 09:25 22.01.2020
4030 Clouds 8 1031 39 10000 4.1 300 08:58 22.01.2020
4031 Clouds 8 1031 39 10000 4.1 300 08:40 22.01.2020
4032 Clouds 7 1031 39 10000 3.6 320 08:21 22.01.2020
4033 Clouds 6 1031 42 10000 2.6 300 07:58 22.01.2020
4034 Clouds 6 1031 42 10000 2.6 300 07:40 22.01.2020
4035 Clouds 5 1031 48 10000 2.6 300 07:21 22.01.2020
4036 Clouds 4 1031 45 10000 1.5 0 06:31 22.01.2020
4037 Clouds 4 1031 45 10000 1.5 0 05:41 22.01.2020
4038 Clouds 4 1031 45 10000 3.1 320 04:20 22.01.2020
4039 Clouds 4 1032 42 10000 5.1 340 03:23 22.01.2020
4040 Clouds 4 1032 42 10000 5.1 340 03:23 22.01.2020
4041 Clouds 4 1032 42 10000 3.6 360 02:27 22.01.2020
4042 Clouds 4 1034 64 10000 4.6 40 00:45 22.01.2020
4043 Clouds 4 1035 60 10000 2.6 90 00:26 22.01.2020
4044 Clouds 5 1034 42 10000 5.1 350 23:39 21.01.2020
4045 Clouds 5 1034 45 10000 5.1 360 23:21 21.01.2020
4046 Clouds 5 1034 48 10000 4.6 350 22:59 21.01.2020
4047 Clouds 5 1034 48 10000 4.6 350 22:39 21.01.2020
4048 Clouds 5 1034 48 10000 4.1 350 22:20 21.01.2020
4049 Clouds 4 1034 60 10000 2.6 360 21:56 21.01.2020
4050 Clouds 5 1034 60 10000 2.6 360 21:38 21.01.2020
4051 Clouds 4 1035 69 10000 1.5 0 21:19 21.01.2020
4052 Clouds 5 1035 65 10000 1.5 0 20:56 21.01.2020
4053 Clouds 5 1035 60 10000 3.83 352 20:37 21.01.2020
4054 Clouds 5 1035 60 10000 4.03 347 20:18 21.01.2020
4055 Clouds 5 1035 60 10000 4.03 347 20:18 21.01.2020
4056 Clouds 5 1035 60 10000 4.03 347 19:56 21.01.2020
4057 Clouds 6 1035 56 10000 4.03 347 19:37 21.01.2020
4058 Clouds 6 1035 56 10000 4.03 347 19:19 21.01.2020
4059 Clouds 6 1036 64 10000 4.03 347 18:55 21.01.2020
4060 Clouds 6 1036 64 10000 1.5 0 18:36 21.01.2020
4061 Clouds 6 1036 64 10000 1.5 0 18:18 21.01.2020
4062 Clouds 6 1036 64 10000 2.1 340 17:43 21.01.2020
4063 Clouds 7 1036 57 10000 3.6 340 17:20 21.01.2020
4064 Clouds 7 1036 61 10000 4.6 340 16:58 21.01.2020
4065 Clouds 7 1036 57 10000 4.6 340 16:37 21.01.2020
4066 Clouds 8 1036 57 10000 4.6 340 16:18 21.01.2020
4067 Clouds 8 1036 57 10000 3.6 340 15:41 21.01.2020
4068 Clouds 8 1036 57 10000 6.2 350 15:21 21.01.2020
4069 Clouds 8 1036 57 10000 4.1 340 14:58 21.01.2020
4070 Clouds 8 1036 61 10000 4.6 340 14:37 21.01.2020
4071 Clouds 8 1036 61 10000 4.6 340 14:19 21.01.2020
4072 Clouds 8 1037 61 10000 4.6 340 13:39 21.01.2020
4073 Clouds 8 1037 61 10000 5.1 350 13:19 21.01.2020
4074 Clouds 8 1038 61 10000 5.1 350 12:43 21.01.2020
4075 Clouds 8 1038 56 10000 5.1 350 12:25 21.01.2020
4076 Clouds 8 1038 61 10000 4.6 350 11:57 21.01.2020
4077 Clouds 8 1038 61 10000 4.6 350 11:38 21.01.2020
4078 Clouds 8 1038 61 10000 4.6 350 11:20 21.01.2020
4079 Clouds 8 1039 61 10000 4.1 340 10:44 21.01.2020
4080 Clouds 7 1039 65 10000 4.1 340 10:23 21.01.2020
4081 Clouds 7 1039 65 10000 4.1 340 10:23 21.01.2020
4082 Clouds 8 1039 61 10000 4.1 340 09:59 21.01.2020
4083 Clouds 7 1039 61 10000 4.1 340 09:40 21.01.2020
4084 Clouds 7 1038 65 10000 4.6 340 09:22 21.01.2020
4085 Clouds 7 1038 65 10000 4.1 340 08:48 21.01.2020
4086 Clouds 7 1038 65 10000 3.6 340 08:27 21.01.2020
4087 Clouds 6 1038 70 10000 4.1 330 07:57 21.01.2020
4088 Clouds 6 1038 70 10000 3.6 340 07:38 21.01.2020
4089 Clouds 6 1038 70 10000 3.6 340 07:20 21.01.2020
4090 Clouds 6 1038 70 10000 3.6 340 06:45 21.01.2020
4091 Clouds 6 1038 65 10000 4.1 330 06:23 21.01.2020
4092 Clouds 6 1038 65 10000 4.1 330 06:23 21.01.2020
4093 Clouds 6 1038 61 10000 3.1 320 05:41 21.01.2020
4094 Clouds 7 1038 70 10000 2.6 310 04:39 21.01.2020
4095 Clouds 7 1038 70 10000 2.6 330 02:55 21.01.2020
4096 Clouds 7 1038 61 10000 3.6 340 01:47 21.01.2020
4097 Clouds 7 1038 57 10000 4.1 340 00:54 21.01.2020
4098 Clouds 7 1038 61 10000 3.1 350 00:32 21.01.2020
4099 Clouds 7 1038 57 10000 2.6 330 23:57 20.01.2020
4100 Clouds 7 1038 61 10000 2.1 320 23:37 20.01.2020
4101 Clouds 7 1038 61 10000 2.1 320 23:18 20.01.2020
4102 Clouds 7 1038 57 10000 3.6 350 22:56 20.01.2020
4103 Clouds 7 1038 57 10000 3.6 350 22:37 20.01.2020
4104 Clouds 7 1038 57 10000 3.6 350 22:18 20.01.2020
4105 Clouds 7 1038 61 10000 4.1 340 21:57 20.01.2020
4106 Clouds 7 1038 65 10000 3.1 340 21:36 20.01.2020
4107 Clouds 7 1038 65 10000 3.1 340 21:18 20.01.2020
4108 Clouds 7 1038 65 10000 3.6 340 20:55 20.01.2020
4109 Clouds 7 1038 70 10000 3.1 350 20:36 20.01.2020
4110 Clouds 7 1038 70 10000 3.1 350 20:18 20.01.2020
4111 Clouds 7 1038 70 10000 2.1 350 19:56 20.01.2020
4112 Clouds 7 1038 65 10000 2.1 350 19:37 20.01.2020
4113 Clouds 7 1038 65 10000 2.1 350 19:18 20.01.2020
4114 Clouds 7 1037 65 10000 2.1 340 18:42 20.01.2020
4115 Rain 7 1037 65 10000 3.1 310 18:21 20.01.2020
4116 Rain 7 1036 70 10000 4.1 340 17:39 20.01.2020
4117 Clouds 7 1036 70 10000 4.1 350 17:19 20.01.2020
4118 Clouds 7 1036 70 10000 5.1 340 16:58 20.01.2020
4119 Clouds 7 1036 70 10000 4.1 350 16:37 20.01.2020
4120 Clouds 7 1036 70 10000 4.1 350 16:18 20.01.2020
4121 Clouds 8 1036 66 10000 4.1 360 15:41 20.01.2020
4122 Clouds 8 1035 66 10000 4.1 360 15:22 20.01.2020
4123 Clouds 8 1035 66 10000 4.1 350 14:59 20.01.2020
4124 Clouds 8 1035 61 10000 5.1 10 14:41 20.01.2020
4125 Clouds 8 1035 61 10000 5.1 10 14:21 20.01.2020
4126 Clouds 8 1035 61 10000 4.1 360 13:57 20.01.2020
4127 Clouds 9 1035 61 10000 4.1 360 13:38 20.01.2020
4128 Clouds 9 1035 61 10000 4.1 360 13:20 20.01.2020
4129 Clouds 9 1035 57 10000 5.1 360 12:44 20.01.2020
4130 Clouds 9 1035 61 10000 3.1 360 12:25 20.01.2020
4131 Clouds 9 1035 61 10000 3.1 360 12:25 20.01.2020
4132 Clouds 8 1035 61 10000 4.1 10 11:56 20.01.2020
4133 Clouds 8 1035 61 10000 3.1 340 11:37 20.01.2020
4134 Clouds 8 1035 61 10000 3.1 340 11:19 20.01.2020
4135 Clouds 8 1035 61 10000 2.1 350 10:47 20.01.2020
4136 Clouds 8 1034 66 10000 5.44 15 10:21 20.01.2020
4137 Clouds 8 1034 70 10000 5.44 15 09:42 20.01.2020
4138 Clouds 8 1034 70 10000 5.44 15 09:24 20.01.2020
4139 Rain 8 1033 75 10000 5.44 15 08:59 20.01.2020
4140 Clouds 8 1033 75 10000 5.44 15 08:39 20.01.2020
4141 Clouds 7 1033 100 10000 3.1 350 08:20 20.01.2020
4142 Clouds 7 1032 70 10000 3.06 357 07:41 20.01.2020
4143 Clouds 7 1032 75 10000 3.06 357 07:21 20.01.2020
4144 Clouds 7 1032 75 10000 1.5 0 06:44 20.01.2020
4145 Clouds 7 1031 75 10000 1.5 0 06:24 20.01.2020
4146 Clouds 7 1031 75 10000 1.5 0 05:41 20.01.2020
4147 Clouds 7 1031 81 10000 1.5 0 05:20 20.01.2020
4148 Clouds 7 1030 81 10000 1.5 0 04:24 20.01.2020
4149 Clouds 7 1029 81 10000 3.46 353 02:33 20.01.2020
4150 Clouds 7 1029 75 10000 1.5 0 01:40 20.01.2020
4151 Clouds 7 1029 75 10000 1.5 0 01:20 20.01.2020
4152 Clouds 7 1028 75 10000 1.5 0 00:43 20.01.2020
4153 Clouds 7 1028 81 10000 1.5 0 00:21 20.01.2020
4154 Clouds 7 1028 75 10000 1.5 0 23:38 19.01.2020
4155 Clouds 7 1028 75 10000 1.5 0 23:19 19.01.2020
4156 Clouds 7 1027 75 10000 1.5 0 22:56 19.01.2020
4157 Clouds 7 1027 75 10000 1.5 0 22:37 19.01.2020
4158 Clouds 7 1027 75 10000 1.5 0 22:19 19.01.2020
4159 Clouds 7 1027 75 10000 1.5 0 21:56 19.01.2020
4160 Clouds 7 1026 75 10000 1.5 0 21:38 19.01.2020
4161 Clouds 7 1026 75 10000 1.5 0 21:38 19.01.2020
4162 Clouds 7 1026 75 10000 1.5 0 21:19 19.01.2020
4163 Clouds 7 1026 75 10000 1.5 0 20:57 19.01.2020
4164 Rain 7 1026 75 10000 1.5 0 20:38 19.01.2020
4165 Rain 7 1026 75 10000 3.1 340 20:20 19.01.2020
4166 Rain 7 1026 75 10000 2.1 310 19:56 19.01.2020
4167 Clouds 7 1026 75 10000 2.1 310 19:37 19.01.2020
4168 Clouds 7 1025 75 10000 2.1 360 19:19 19.01.2020
4169 Clouds 7 1025 75 10000 1.5 0 18:55 19.01.2020
4170 Clouds 7 1024 70 10000 2.6 360 18:37 19.01.2020
4171 Rain 7 1024 70 10000 2.6 360 18:19 19.01.2020
4172 Rain 7 1023 76 10000 3.1 360 17:58 19.01.2020
4173 Rain 7 1023 70 10000 3.1 350 17:39 19.01.2020
4174 Rain 7 1023 70 10000 3.1 350 17:20 19.01.2020
4175 Rain 7 1022 76 10000 2.6 340 16:57 19.01.2020
4176 Rain 8 1022 70 10000 3.6 340 16:38 19.01.2020
4177 Clouds 8 1022 70 10000 3.6 340 16:19 19.01.2020
4178 Clouds 8 1022 76 10000 3.1 340 15:57 19.01.2020
4179 Clouds 8 1022 66 10000 3.6 350 15:37 19.01.2020
4180 Clouds 8 1022 66 10000 3.6 350 15:37 19.01.2020
4181 Clouds 8 1022 66 10000 3.6 350 15:19 19.01.2020
4182 Clouds 8 1022 66 10000 3.6 340 14:57 19.01.2020
4183 Clouds 8 1022 66 10000 3.6 340 14:38 19.01.2020
4184 Clouds 8 1021 62 10000 3.6 360 14:18 19.01.2020
4185 Clouds 9 1021 62 10000 3.1 350 13:55 19.01.2020
4186 Clouds 9 1021 61 10000 3.6 340 13:37 19.01.2020
4187 Clouds 9 1021 61 10000 3.6 340 13:18 19.01.2020
4188 Clouds 9 1021 62 10000 3.6 340 12:54 19.01.2020
4189 Clouds 9 1021 66 10000 4.6 350 12:36 19.01.2020
4190 Clouds 9 1021 66 10000 4.6 350 12:18 19.01.2020
4191 Clouds 9 1022 61 10000 5.1 340 11:39 19.01.2020
4192 Clouds 9 1022 61 10000 5.1 340 11:20 19.01.2020
4193 Clouds 9 1022 66 10000 3.6 360 10:55 19.01.2020
4194 Clouds 9 1022 66 10000 3.6 360 10:37 19.01.2020
4195 Clouds 9 1022 70 10000 3.6 360 10:37 19.01.2020
4196 Clouds 9 1022 70 10000 3.6 360 10:19 19.01.2020
4197 Clouds 9 1022 66 10000 4.6 350 09:45 19.01.2020
4198 Clouds 9 1021 70 10000 3.6 350 09:27 19.01.2020
4199 Clouds 8 1021 70 10000 3.49 6 08:58 19.01.2020
4200 Clouds 8 1021 70 10000 3.49 6 08:39 19.01.2020
4201 Clouds 7 1021 70 10000 4.23 350 08:21 19.01.2020
4202 Clouds 7 1021 75 10000 1.5 0 07:42 19.01.2020
4203 Clouds 7 1021 75 10000 2.1 330 07:22 19.01.2020
4204 Clouds 7 1021 75 10000 2.1 330 06:53 19.01.2020
4205 Clouds 7 1021 75 10000 1.5 0 06:21 19.01.2020
4206 Clouds 7 1021 70 10000 1 0 02:44 19.01.2020
4207 Clouds 7 1021 75 10000 3.1 340 02:21 19.01.2020
4208 Clouds 7 1021 65 10000 2.6 330 01:25 19.01.2020
4209 Clouds 8 1021 65 10000 1.5 0 00:50 19.01.2020
4210 Clouds 8 1021 65 10000 2.1 330 00:29 19.01.2020
4211 Clouds 8 1021 70 10000 1 0 23:58 18.01.2020
4212 Clouds 8 1022 70 10000 1.5 0 23:40 18.01.2020
4213 Clouds 8 1022 70 10000 1.5 0 23:21 18.01.2020
4214 Clouds 8 1021 75 10000 1.5 0 22:55 18.01.2020
4215 Clouds 8 1021 70 10000 1 0 22:37 18.01.2020
4216 Clouds 8 1021 70 10000 1 0 22:19 18.01.2020
4217 Clouds 8 1021 65 10000 1.5 0 21:57 18.01.2020
4218 Clouds 8 1021 61 10000 2.1 350 21:37 18.01.2020
4219 Clouds 8 1021 61 10000 2.1 350 21:19 18.01.2020
4220 Clouds 8 1022 66 10000 2.1 340 20:43 18.01.2020
4221 Clouds 8 1022 66 10000 2.6 350 20:21 18.01.2020
4222 Clouds 8 1022 66 10000 3.1 340 19:58 18.01.2020
4223 Clouds 8 1022 66 10000 3.1 340 19:40 18.01.2020
4224 Clouds 8 1022 66 10000 3.1 340 19:22 18.01.2020
4225 Clouds 8 1022 70 10000 3.1 340 18:42 18.01.2020
4226 Clouds 8 1022 70 10000 3.1 340 18:22 18.01.2020
4227 Clouds 8 1022 70 10000 2.6 340 17:56 18.01.2020
4228 Clouds 8 1022 61 10000 2.6 350 17:37 18.01.2020
4229 Clouds 8 1022 61 10000 2.6 350 17:19 18.01.2020
4230 Clouds 8 1021 61 10000 3.1 340 16:55 18.01.2020
4231 Clouds 8 1021 61 10000 3.1 340 16:55 18.01.2020
4232 Clouds 9 1022 66 10000 4.1 340 16:36 18.01.2020
4233 Clouds 9 1022 66 10000 4.1 340 16:18 18.01.2020
4234 Clouds 9 1022 61 10000 4.1 330 15:41 18.01.2020
4235 Clouds 9 1022 61 10000 5.1 330 15:23 18.01.2020
4236 Clouds 9 1022 61 10000 4.1 340 14:57 18.01.2020
4237 Clouds 9 1022 61 10000 4.1 340 14:39 18.01.2020
4238 Clouds 9 1022 61 10000 5.1 330 14:18 18.01.2020
4239 Clouds 9 1022 61 10000 4.1 340 13:43 18.01.2020
4240 Clouds 9 1022 61 10000 4.1 340 13:24 18.01.2020
4241 Clouds 9 1023 66 10000 5.1 330 12:57 18.01.2020
4242 Clouds 9 1023 66 10000 5.1 330 12:57 18.01.2020
4243 Clouds 9 1023 66 10000 5.1 330 12:38 18.01.2020
4244 Clouds 9 1023 66 10000 5.1 330 12:20 18.01.2020
4245 Clouds 9 1023 61 10000 5.1 330 11:44 18.01.2020
4246 Clouds 9 1024 61 10000 4.1 330 11:21 18.01.2020
4247 Clouds 9 1024 66 10000 4.1 330 10:57 18.01.2020
4248 Clouds 9 1024 61 10000 3.1 340 10:38 18.01.2020
4249 Clouds 8 1024 61 10000 3.1 340 10:19 18.01.2020
4250 Clouds 8 1024 57 10000 3.1 340 09:46 18.01.2020
4251 Clouds 8 1024 61 10000 2.6 350 09:28 18.01.2020
4252 Clouds 8 1024 61 10000 2.6 340 08:55 18.01.2020
4253 Clouds 8 1024 66 10000 3.1 340 08:37 18.01.2020
4254 Clouds 8 1024 66 10000 3.1 340 08:19 18.01.2020
4255 Clouds 7 1024 66 10000 3.1 340 07:45 18.01.2020
4256 Clouds 7 1025 75 10000 3.1 350 07:26 18.01.2020
4257 Rain 7 1024 70 10000 3.1 340 06:47 18.01.2020
4258 Rain 7 1023 66 10000 2.1 350 05:59 18.01.2020
4259 Rain 7 1023 66 10000 3.1 350 05:21 18.01.2020
4260 Clouds 8 1024 70 10000 3.6 350 02:55 18.01.2020
4261 Clouds 8 1024 76 10000 2.1 360 01:54 18.01.2020
4262 Clouds 8 1024 76 10000 2.6 330 01:30 18.01.2020
4263 Clouds 8 1024 81 10000 2.6 340 00:37 18.01.2020
4264 Clouds 8 1024 81 10000 2.6 340 00:37 18.01.2020
4265 Clouds 8 1024 81 10000 2.6 340 00:37 18.01.2020
4266 Clouds 8 1024 81 10000 2.6 340 00:18 18.01.2020
4267 Clouds 8 1024 81 10000 2.6 340 23:41 17.01.2020
4268 Rain 8 1025 81 10000 3.6 350 23:20 17.01.2020
4269 Drizzle 8 1025 81 9000 10 358 22:45 17.01.2020
4270 Rain 8 1025 93 9000 1.5 0 22:22 17.01.2020
4271 Rain 8 1025 81 9000 2.1 350 21:59 17.01.2020
4272 Drizzle 8 1025 70 10000 1.5 0 21:41 17.01.2020
4273 Drizzle 8 1025 70 10000 1.5 0 21:22 17.01.2020
4274 Rain 8 1024 61 10000 4.1 360 20:58 17.01.2020
4275 Rain 8 1024 61 10000 4.1 360 20:38 17.01.2020
4276 Rain 8 1024 57 10000 2.6 10 20:20 17.01.2020
4277 Rain 8 1024 53 10000 5.1 350 19:55 17.01.2020
4278 Rain 8 1024 53 10000 5.1 350 19:55 17.01.2020
4279 Clouds 8 1024 53 10000 5.1 350 19:37 17.01.2020
4280 Clouds 8 1024 53 10000 5.1 350 19:19 17.01.2020
4281 Clouds 8 1024 67 10000 4.1 350 18:56 17.01.2020
4282 Clouds 8 1024 67 10000 4.1 360 18:36 17.01.2020
4283 Clouds 8 1024 67 10000 4.1 360 18:18 17.01.2020
4284 Clouds 8 1023 67 10000 4.6 360 17:39 17.01.2020
4285 Clouds 8 1023 53 10000 3.1 360 17:20 17.01.2020
4286 Clouds 9 1023 53 10000 4.1 360 16:43 17.01.2020
4287 Clouds 9 1022 50 10000 3.6 360 16:21 17.01.2020
4288 Clouds 9 1022 50 10000 6.2 340 15:58 17.01.2020
4289 Clouds 9 1022 53 10000 4.1 360 15:39 17.01.2020
4290 Clouds 10 1022 53 10000 4.1 360 15:20 17.01.2020
4291 Clouds 10 1022 46 10000 7.2 350 14:43 17.01.2020
4292 Clouds 10 1022 46 10000 7.2 350 14:24 17.01.2020
4293 Clouds 10 1022 59 10000 6.2 360 13:43 17.01.2020
4294 Clouds 10 1022 57 10000 6.2 360 13:23 17.01.2020
4295 Clouds 10 1022 43 10000 6.7 10 12:47 17.01.2020
4296 Clouds 10 1023 46 10000 7.7 10 12:23 17.01.2020
4297 Clouds 10 1023 50 10000 4.6 350 11:43 17.01.2020
4298 Clouds 10 1023 46 10000 6.7 350 11:20 17.01.2020
4299 Clouds 10 1024 46 10000 7.2 360 10:57 17.01.2020
4300 Clouds 10 1024 46 10000 7.2 360 10:57 17.01.2020
4301 Clouds 10 1024 46 10000 7.2 360 10:39 17.01.2020
4302 Clouds 10 1024 50 10000 6.2 340 10:20 17.01.2020
4303 Clouds 10 1023 53 10000 4.1 340 09:56 17.01.2020
4304 Clouds 10 1023 53 10000 3.1 340 09:37 17.01.2020
4305 Clouds 9 1023 53 10000 3.1 340 09:18 17.01.2020
4306 Clouds 9 1023 53 10000 4.1 340 08:42 17.01.2020
4307 Clouds 9 1023 53 10000 5.1 350 08:23 17.01.2020
4308 Clouds 9 1023 57 10000 4.6 330 07:49 17.01.2020
4309 Clouds 9 1023 53 10000 6.2 350 07:30 17.01.2020
4310 Clouds 9 1022 57 10000 6.2 350 06:56 17.01.2020
4311 Clouds 9 1022 57 10000 7.7 350 06:37 17.01.2020
4312 Clouds 9 1021 57 10000 4.6 340 05:22 17.01.2020
4313 Clouds 9 1021 57 10000 4.1 330 03:38 17.01.2020
4314 Clouds 9 1020 68 0 1.34 119 02:43 17.01.2020
4315 Clouds 9 1020 63 0 2.68 355 01:45 17.01.2020
4316 Clouds 9 1020 65 0 2.24 15 01:27 17.01.2020
4317 Clouds 9 1020 62 0 2.24 329 00:43 17.01.2020
4318 Clouds 9 1021 57 10000 3.1 320 00:20 17.01.2020
4319 Clouds 9 1021 57 10000 3.1 320 23:42 16.01.2020
4320 Clouds 9 1021 57 10000 3.1 320 23:24 16.01.2020
4321 Clouds 9 1022 57 10000 4.1 350 22:43 16.01.2020
4322 Clouds 9 1022 66 10000 4.1 300 22:22 16.01.2020
4323 Clouds 9 1021 62 10000 5.1 320 21:57 16.01.2020
4324 Clouds 9 1022 62 10000 4.1 310 21:39 16.01.2020
4325 Clouds 9 1022 62 10000 4.1 310 21:19 16.01.2020
4326 Clouds 9 1021 62 10000 6.2 340 20:59 16.01.2020
4327 Clouds 9 1021 62 10000 6.2 340 20:40 16.01.2020
4328 Clouds 9 1021 66 10000 6.2 300 20:20 16.01.2020
4329 Clouds 10 1021 66 10000 5.1 320 19:57 16.01.2020
4330 Clouds 9 1021 66 10000 5.1 320 19:39 16.01.2020
4331 Clouds 9 1021 66 10000 5.1 330 19:20 16.01.2020
4332 Clouds 9 1021 66 10000 8.2 340 18:56 16.01.2020
4333 Clouds 9 1021 66 10000 8.2 340 18:37 16.01.2020
4334 Clouds 10 1021 66 10000 8.2 340 18:18 16.01.2020
4335 Clouds 10 1021 66 10000 7.7 340 17:56 16.01.2020
4336 Clouds 10 1021 66 10000 7.7 340 17:56 16.01.2020
4337 Clouds 10 1021 66 10000 7.7 340 17:38 16.01.2020
4338 Clouds 10 1021 66 10000 7.7 330 17:20 16.01.2020
4339 Clouds 11 1021 62 10000 7.7 340 16:40 16.01.2020
4340 Clouds 11 1021 62 10000 7.7 330 16:21 16.01.2020
4341 Clouds 11 1021 58 10000 7.7 330 15:57 16.01.2020
4342 Clouds 11 1021 58 10000 5.1 340 15:38 16.01.2020
4343 Clouds 12 1021 58 10000 5.1 340 15:20 16.01.2020
4344 Clouds 12 1021 58 10000 8.7 350 14:42 16.01.2020
4345 Clouds 12 1021 58 10000 8.7 350 14:24 16.01.2020
4346 Clouds 12 1021 58 10000 5.7 350 13:55 16.01.2020
4347 Clouds 13 1022 58 10000 9.3 340 13:37 16.01.2020
4348 Clouds 12 1022 58 10000 9.3 340 13:19 16.01.2020
4349 Clouds 12 1022 62 10000 7.7 330 12:41 16.01.2020
4350 Clouds 12 1022 62 10000 6.2 330 12:21 16.01.2020
4351 Clouds 12 1023 62 10000 5.1 320 11:43 16.01.2020
4352 Clouds 12 1023 58 10000 9.3 340 11:24 16.01.2020
4353 Clouds 12 1023 62 10000 7.7 350 10:59 16.01.2020
4354 Clouds 11 1023 62 10000 8.7 350 10:38 16.01.2020
4355 Clouds 11 1023 62 10000 8.7 350 10:20 16.01.2020
4356 Clouds 11 1023 62 10000 8.7 350 09:54 16.01.2020
4357 Clouds 11 1023 62 10000 7.7 330 09:36 16.01.2020
4358 Clouds 11 1023 62 10000 7.7 330 09:18 16.01.2020
4359 Clouds 10 1024 66 10000 4.6 340 08:42 16.01.2020
4360 Clouds 10 1023 66 10000 4.1 330 08:22 16.01.2020
4361 Clouds 9 1023 71 10000 6.2 330 07:43 16.01.2020
4362 Clouds 9 1023 71 10000 6.2 330 07:25 16.01.2020
4363 Clouds 8 1023 71 10000 6.2 330 06:55 16.01.2020
4364 Clouds 8 1023 71 10000 5.7 340 06:35 16.01.2020
4365 Clouds 8 1023 71 10000 4.6 330 05:56 16.01.2020
4366 Clouds 8 1023 66 10000 4.6 320 05:30 16.01.2020
4367 Clouds 8 1023 71 10000 5.1 320 04:37 16.01.2020
4368 Clouds 8 1024 71 10000 4.1 320 03:27 16.01.2020
4369 Clouds 8 1024 71 10000 4.1 320 02:24 16.01.2020
4370 Clouds 9 1024 66 10000 4.1 320 00:44 16.01.2020
4371 Clouds 8 1024 66 10000 4.6 320 00:24 16.01.2020
4372 Clouds 9 1025 66 10000 4.6 330 23:46 15.01.2020
4373 Clouds 9 1025 66 10000 4.1 320 23:22 15.01.2020
4374 Clouds 9 1026 62 10000 3.1 310 22:57 15.01.2020
4375 Clouds 9 1026 62 10000 3.1 310 22:39 15.01.2020
4376 Clouds 9 1026 71 10000 3.1 310 22:19 15.01.2020
4377 Clouds 9 1025 66 10000 3.6 320 21:57 15.01.2020
4378 Clouds 9 1025 66 10000 4.6 320 21:37 15.01.2020
4379 Clouds 9 1025 66 10000 4.6 320 21:37 15.01.2020
4380 Clouds 8 1025 66 10000 4.6 320 21:19 15.01.2020
4381 Clouds 9 1025 66 10000 4.1 320 20:57 15.01.2020
4382 Clouds 9 1025 66 10000 5.1 330 20:39 15.01.2020
4383 Clouds 9 1025 66 10000 5.1 330 20:39 15.01.2020
4384 Clouds 9 1025 66 10000 5.1 330 20:20 15.01.2020
4385 Clouds 9 1025 71 10000 4.1 330 19:55 15.01.2020
4386 Clouds 9 1025 66 10000 6.2 330 19:37 15.01.2020
4387 Clouds 10 1025 66 10000 6.2 330 19:18 15.01.2020
4388 Clouds 10 1025 71 10000 5.7 330 18:56 15.01.2020
4389 Clouds 10 1025 71 10000 5.7 330 18:56 15.01.2020
4390 Clouds 9 1025 71 10000 6.2 330 18:38 15.01.2020
4391 Clouds 10 1025 71 10000 6.2 330 18:19 15.01.2020
4392 Clouds 10 1025 71 10000 6.2 330 17:56 15.01.2020
4393 Clouds 10 1025 71 10000 6.2 330 17:37 15.01.2020
4394 Clouds 10 1025 71 10000 6.2 330 17:18 15.01.2020
4395 Clouds 11 1025 71 10000 6.2 340 16:41 15.01.2020
4396 Clouds 11 1025 66 10000 7.2 340 16:22 15.01.2020
4397 Clouds 11 1024 66 10000 6.2 340 15:58 15.01.2020
4398 Clouds 11 1024 66 10000 6.2 340 15:39 15.01.2020
4399 Clouds 11 1024 71 10000 6.2 340 15:20 15.01.2020
4400 Clouds 12 1024 71 10000 7.2 330 14:43 15.01.2020
4401 Clouds 12 1025 66 10000 4.6 340 14:20 15.01.2020
4402 Clouds 12 1025 71 10000 5.1 340 13:55 15.01.2020
4403 Clouds 12 1025 76 10000 4.6 330 13:37 15.01.2020
4404 Clouds 12 1025 76 10000 4.6 330 13:18 15.01.2020
4405 Clouds 12 1025 76 10000 4.6 330 12:41 15.01.2020
4406 Clouds 12 1026 76 10000 4.1 340 12:20 15.01.2020
4407 Clouds 12 1026 76 10000 4.1 340 12:20 15.01.2020
4408 Clouds 12 1026 76 10000 3.6 340 11:58 15.01.2020
4409 Clouds 12 1026 76 10000 4.1 330 11:38 15.01.2020
4410 Clouds 11 1026 76 10000 4.1 330 11:19 15.01.2020
4411 Clouds 11 1027 76 10000 3.6 340 10:46 15.01.2020
4412 Clouds 11 1027 76 10000 3.6 340 10:28 15.01.2020
4413 Clouds 11 1027 76 10000 3.6 340 09:54 15.01.2020
4414 Clouds 10 1027 76 10000 3.1 350 09:36 15.01.2020
4415 Clouds 10 1027 76 10000 3.1 350 09:18 15.01.2020
4416 Clouds 10 1026 71 10000 2.1 340 08:41 15.01.2020
4417 Clouds 9 1026 76 10000 3.1 330 08:23 15.01.2020
4418 Clouds 9 1026 76 10000 2.1 320 07:53 15.01.2020
4419 Clouds 9 1026 81 10000 2.6 330 07:32 15.01.2020
4420 Clouds 8 1026 81 10000 2.1 320 06:47 15.01.2020
4421 Clouds 9 1026 81 10000 2.1 310 06:21 15.01.2020
4422 Clouds 8 1026 81 10000 5.1 350 04:45 15.01.2020
4423 Clouds 7 1026 81 10000 3.1 330 02:39 15.01.2020
4424 Clouds 7 1026 81 10000 2.6 340 01:28 15.01.2020
4425 Clouds 7 1026 81 10000 2.6 340 01:28 15.01.2020
4426 Clouds 7 1026 87 10000 2.57 21 00:59 15.01.2020
4427 Clouds 7 1025 87 10000 2.57 21 00:36 15.01.2020
4428 Clouds 7 1025 87 10000 2.57 21 00:18 15.01.2020
4429 Clouds 7 1025 87 10000 2.57 21 23:45 14.01.2020
4430 Clouds 7 1025 87 10000 2.1 340 23:24 14.01.2020
4431 Clouds 8 1026 93 10000 1.5 0 22:54 14.01.2020
4432 Clouds 8 1026 93 10000 2.1 360 22:36 14.01.2020
4433 Clouds 8 1026 93 10000 2.1 360 22:18 14.01.2020
4434 Clouds 8 1026 87 10000 1.5 0 21:54 14.01.2020
4435 Clouds 8 1025 87 10000 2.97 8 21:36 14.01.2020
4436 Clouds 8 1025 87 10000 2.97 8 21:18 14.01.2020
4437 Clouds 8 1025 87 10000 2.97 8 21:18 14.01.2020
4438 Clouds 8 1026 81 10000 1.5 0 20:41 14.01.2020
4439 Clouds 9 1026 87 10000 1.5 0 20:22 14.01.2020
4440 Clouds 9 1026 87 10000 1.5 0 19:56 14.01.2020
4441 Clouds 9 1026 87 10000 1.5 0 19:38 14.01.2020
4442 Clouds 9 1026 87 10000 1.5 0 19:20 14.01.2020
4443 Clouds 9 1025 87 10000 1.54 5 18:58 14.01.2020
4444 Clouds 10 1025 81 10000 1.54 5 18:39 14.01.2020
4445 Clouds 10 1025 81 10000 1.54 5 18:19 14.01.2020
4446 Clouds 10 1025 81 10000 1.54 5 17:39 14.01.2020
4447 Clouds 11 1025 76 10000 2.41 165 17:19 14.01.2020
4448 Clouds 11 1024 71 10000 2.41 165 16:59 14.01.2020
4449 Clouds 12 1024 71 10000 2.41 165 16:40 14.01.2020
4450 Clouds 12 1024 62 10000 2.41 165 16:21 14.01.2020
4451 Clouds 12 1024 62 10000 2.41 165 15:55 14.01.2020
4452 Clouds 13 1024 62 10000 1.5 0 15:37 14.01.2020
4453 Clouds 13 1024 62 10000 1.5 0 15:18 14.01.2020
4454 Clouds 13 1024 58 10000 1.5 0 14:43 14.01.2020
4455 Clouds 13 1024 54 10000 2.1 150 14:20 14.01.2020
4456 Clouds 14 1024 54 10000 2.2 187 13:43 14.01.2020
4457 Clouds 14 1024 58 10000 1.5 0 13:20 14.01.2020
4458 Clouds 13 1024 58 10000 2.1 140 12:59 14.01.2020
4459 Clouds 14 1024 58 10000 1.5 0 12:40 14.01.2020
4460 Clouds 13 1024 58 10000 1.5 0 12:20 14.01.2020
4461 Clouds 13 1024 58 10000 1.5 0 12:20 14.01.2020
4462 Clouds 13 1024 58 10000 0.99 181 11:43 14.01.2020
4463 Clouds 13 1025 58 10000 1.5 0 11:23 14.01.2020
4464 Clouds 12 1025 62 10000 1.32 81 10:58 14.01.2020
4465 Clouds 12 1025 62 10000 1.32 81 10:39 14.01.2020
4466 Clouds 12 1025 62 9000 1.32 81 10:20 14.01.2020
4467 Clouds 12 1025 66 9000 1.32 81 09:57 14.01.2020
4468 Clouds 11 1025 71 9000 1.32 81 09:39 14.01.2020
4469 Clouds 10 1025 71 9000 1.32 81 09:20 14.01.2020
4470 Clouds 9 1025 81 9000 1.32 81 08:44 14.01.2020
4471 Clouds 7 1025 81 9000 1.5 0 08:23 14.01.2020
4472 Clouds 7 1025 86 9000 1.5 0 07:53 14.01.2020
4473 Clouds 6 1024 86 9000 1.5 0 07:31 14.01.2020
4474 Clouds 5 1024 80 10000 2.01 17 06:51 14.01.2020
4475 Clouds 6 1024 81 10000 2.6 350 06:27 14.01.2020
4476 Clouds 6 1024 93 10000 2.01 17 05:25 14.01.2020
4477 Rain 6 1024 86 10000 2.36 15 03:52 14.01.2020
4478 Clouds 6 1025 81 10000 2.36 15 02:43 14.01.2020
4479 Clouds 6 1024 86 10000 1.62 21 01:53 14.01.2020
4480 Clouds 6 1025 87 10000 1.5 0 00:51 14.01.2020
4481 Clouds 7 1025 87 10000 1.5 0 00:32 14.01.2020
4482 Clouds 7 1025 87 10000 1.5 0 00:32 14.01.2020
4483 Clouds 7 1025 87 10000 1.5 0 23:55 13.01.2020
4484 Clouds 7 1025 87 10000 1.5 0 23:37 13.01.2020
4485 Clouds 7 1025 87 10000 1.5 0 23:18 13.01.2020
4486 Clouds 7 1025 87 10000 1.5 0 22:42 13.01.2020
4487 Clouds 8 1025 81 10000 1.5 0 22:21 13.01.2020
4488 Clouds 8 1025 76 10000 2.6 340 21:57 13.01.2020
4489 Clouds 8 1025 76 10000 2.1 320 21:38 13.01.2020
4490 Clouds 8 1025 76 10000 2.1 320 21:38 13.01.2020
4491 Clouds 8 1025 76 10000 2.1 320 21:19 13.01.2020
4492 Clouds 9 1025 76 10000 2.6 300 20:58 13.01.2020
4493 Clouds 9 1025 76 10000 2.6 300 20:40 13.01.2020
4494 Clouds 9 1025 76 10000 1.5 0 20:22 13.01.2020
4495 Clouds 9 1025 76 10000 2.6 300 19:59 13.01.2020
4496 Clouds 9 1025 76 10000 2.6 300 19:39 13.01.2020
4497 Clouds 9 1025 76 10000 2.6 300 19:20 13.01.2020
4498 Clouds 9 1025 76 10000 2.6 290 18:56 13.01.2020
4499 Clouds 10 1025 71 10000 2.1 0 18:37 13.01.2020
4500 Clouds 10 1025 71 10000 2.1 0 18:37 13.01.2020
4501 Clouds 10 1025 71 10000 2.1 0 18:18 13.01.2020
4502 Clouds 10 1024 66 10000 2.1 340 17:43 13.01.2020
4503 Clouds 11 1024 66 10000 2.1 340 17:25 13.01.2020
4504 Clouds 11 1024 62 10000 2.6 340 16:57 13.01.2020
4505 Clouds 11 1023 66 0 0.45 45 16:38 13.01.2020
4506 Clouds 11 1012 53 0 0.89 296 16:20 13.01.2020
4507 Clouds 12 1023 60 0 0.45 26 15:44 13.01.2020
4508 Clouds 12 1026 61 0 1.34 331 15:24 13.01.2020
4509 Clouds 12 1024 58 0 1.34 336 14:59 13.01.2020
4510 Clouds 12 1026 61 0 0.89 25 14:39 13.01.2020
4511 Clouds 12 1026 61 0 0.89 25 14:39 13.01.2020
4512 Clouds 12 1026 61 0 0.89 25 14:39 13.01.2020
4513 Clouds 12 1023 62 0 2.68 351 14:20 13.01.2020
4514 Clouds 12 1026 60 0 1.79 30 13:55 13.01.2020
4515 Clouds 12 1023 58 0 0.89 30 13:37 13.01.2020
4516 Clouds 12 1026 60 0 2.24 15 13:19 13.01.2020
4517 Clouds 12 1026 62 10000 4.1 350 12:43 13.01.2020
4518 Clouds 13 1026 62 10000 4.1 350 12:23 13.01.2020
4519 Clouds 12 1026 62 10000 4.1 350 11:57 13.01.2020
4520 Clouds 12 1026 58 10000 4.1 340 11:37 13.01.2020
4521 Clouds 12 1026 58 10000 4.1 340 11:37 13.01.2020
4522 Clouds 12 1026 58 10000 4.1 340 11:19 13.01.2020
4523 Clouds 12 1026 58 10000 3.6 340 10:56 13.01.2020
4524 Clouds 12 1026 62 10000 4.1 340 10:37 13.01.2020
4525 Clouds 12 1026 62 10000 4.1 340 10:19 13.01.2020
4526 Clouds 11 1026 66 10000 4.6 340 09:44 13.01.2020
4527 Clouds 11 1026 71 10000 4.1 330 09:24 13.01.2020
4528 Clouds 11 1026 76 10000 3.1 360 08:57 13.01.2020
4529 Clouds 10 1026 76 10000 2.1 360 08:37 13.01.2020
4530 Clouds 10 1026 76 10000 2.1 360 08:18 13.01.2020
4531 Clouds 9 1026 81 10000 4.1 360 07:44 13.01.2020
4532 Clouds 9 1026 81 10000 4.6 350 07:26 13.01.2020
4533 Clouds 9 1026 76 10000 2.6 330 06:39 13.01.2020
4534 Clouds 9 1026 81 10000 2.6 300 05:42 13.01.2020
4535 Clouds 9 1026 81 10000 2.6 280 05:19 13.01.2020
4536 Clouds 9 1026 81 10000 3.38 354 03:46 13.01.2020
4537 Clouds 9 1026 81 10000 2.1 300 02:51 13.01.2020
4538 Clouds 9 1026 81 10000 2.6 320 02:30 13.01.2020
4539 Clouds 9 1026 76 10000 2.6 330 01:33 13.01.2020
4540 Clouds 9 1025 76 10000 2.6 330 00:55 13.01.2020
4541 Clouds 9 1025 76 10000 3.1 330 00:36 13.01.2020
4542 Clouds 9 1025 76 10000 3.1 330 00:18 13.01.2020
4543 Clouds 9 1026 76 10000 3.6 310 23:40 12.01.2020
4544 Clouds 9 1026 76 10000 2.1 290 23:22 12.01.2020
4545 Clouds 9 1026 76 10000 2.1 300 22:57 12.01.2020
4546 Clouds 9 1026 76 10000 2.1 300 22:39 12.01.2020
4547 Clouds 9 1026 76 10000 2.1 330 22:19 12.01.2020
4548 Clouds 9 1025 76 10000 2.6 350 21:54 12.01.2020
4549 Clouds 9 1025 76 10000 2.6 350 21:54 12.01.2020
4550 Clouds 9 1025 76 10000 2.1 300 21:36 12.01.2020
4551 Clouds 9 1025 76 10000 2.1 300 21:18 12.01.2020
4552 Clouds 9 1025 76 10000 3.6 310 20:54 12.01.2020
4553 Clouds 10 1025 76 10000 2.6 310 20:36 12.01.2020
4554 Clouds 10 1025 76 10000 2.6 310 20:18 12.01.2020
4555 Clouds 10 1025 76 10000 2.6 300 19:54 12.01.2020
4556 Clouds 10 1025 76 10000 2.6 300 19:54 12.01.2020
4557 Clouds 10 1025 76 10000 3.1 310 19:36 12.01.2020
4558 Clouds 10 1025 76 10000 3.1 310 19:18 12.01.2020
4559 Clouds 10 1025 76 10000 3.1 310 18:56 12.01.2020
4560 Clouds 10 1025 76 10000 3.1 320 18:38 12.01.2020
4561 Clouds 10 1025 76 10000 3.1 320 18:19 12.01.2020
4562 Clouds 10 1024 71 10000 3.1 310 17:42 12.01.2020
4563 Clouds 10 1024 66 10000 2.6 310 17:21 12.01.2020
4564 Clouds 10 1024 66 10000 3.1 320 16:58 12.01.2020
4565 Clouds 11 1024 58 10000 4.1 330 16:38 12.01.2020
4566 Clouds 11 1024 58 10000 4.1 330 16:20 12.01.2020
4567 Clouds 11 1024 58 10000 5.7 350 15:55 12.01.2020
4568 Clouds 11 1023 54 10000 5.7 350 15:37 12.01.2020
4569 Clouds 12 1023 54 10000 5.7 350 15:19 12.01.2020
4570 Clouds 12 1023 54 10000 4.6 340 14:42 12.01.2020
4571 Clouds 13 1023 54 10000 3.6 340 14:23 12.01.2020
4572 Clouds 13 1023 54 10000 3.6 340 13:57 12.01.2020
4573 Clouds 13 1023 50 10000 3.6 330 13:39 12.01.2020
4574 Clouds 13 1023 50 10000 3.6 330 13:20 12.01.2020
4575 Clouds 13 1023 54 10000 3.6 330 12:55 12.01.2020
4576 Clouds 13 1024 50 10000 3.6 330 12:37 12.01.2020
4577 Clouds 13 1024 50 10000 3.6 330 12:18 12.01.2020
4578 Clouds 13 1024 54 10000 3.1 330 11:41 12.01.2020
4579 Clouds 13 1024 54 10000 3.6 340 11:22 12.01.2020
4580 Clouds 12 1024 54 10000 4.1 340 10:56 12.01.2020
4581 Clouds 13 1024 54 10000 4.1 330 10:37 12.01.2020
4582 Clouds 12 1024 54 10000 4.1 330 10:18 12.01.2020
4583 Clouds 11 1024 58 10000 2.1 320 09:42 12.01.2020
4584 Clouds 11 1024 58 10000 2.1 320 09:22 12.01.2020
4585 Clouds 10 1024 62 10000 1.5 0 08:48 12.01.2020
4586 Clouds 8 1023 81 10000 3.55 354 08:24 12.01.2020
4587 Clouds 8 1023 75 10000 1.5 0 07:47 12.01.2020
4588 Clouds 6 1023 75 10000 1.5 0 07:26 12.01.2020
4589 Clouds 6 1023 75 10000 1.5 0 07:26 12.01.2020
4590 Clouds 7 1023 81 10000 1.5 0 06:59 12.01.2020
4591 Clouds 7 1022 81 10000 1.5 0 06:36 12.01.2020
4592 Clouds 6 1022 81 10000 1 0 05:52 12.01.2020
4593 Clouds 6 1022 86 10000 3.47 7 04:56 12.01.2020
4594 Clouds 7 1022 87 10000 3.47 7 03:43 12.01.2020
4595 Clouds 7 1022 87 10000 3.47 7 02:46 12.01.2020
4596 Clouds 7 1022 87 10000 2.1 360 02:24 12.01.2020
4597 Clouds 7 1022 81 10000 1 0 01:34 12.01.2020
4598 Clouds 7 1022 81 10000 1.5 0 00:46 12.01.2020
4599 Clouds 7 1022 87 10000 1 0 00:22 12.01.2020
4600 Clouds 7 1022 81 10000 2.1 360 23:57 11.01.2020
4601 Clouds 7 1022 81 10000 2.1 360 23:39 11.01.2020
4602 Clouds 8 1023 81 10000 2.33 17 23:18 11.01.2020
4603 Clouds 8 1022 81 10000 2.1 360 22:56 11.01.2020
4604 Clouds 8 1022 81 10000 1.5 0 22:37 11.01.2020
4605 Clouds 8 1022 81 10000 1.5 0 22:19 11.01.2020
4606 Clouds 8 1022 81 10000 1 0 21:44 11.01.2020
4607 Clouds 8 1022 81 10000 1.5 0 21:19 11.01.2020
4608 Clouds 8 1022 81 10000 2.33 17 20:56 11.01.2020
4609 Clouds 8 1022 87 10000 1 0 20:38 11.01.2020
4610 Clouds 8 1022 87 10000 1 0 20:19 11.01.2020
4611 Clouds 9 1021 75 10000 1.5 0 19:56 11.01.2020
4612 Clouds 9 1021 81 10000 1.5 0 19:38 11.01.2020
4613 Clouds 9 1021 81 10000 1.5 0 19:20 11.01.2020
4614 Clouds 9 1021 81 10000 1 0 18:55 11.01.2020
4615 Clouds 9 1021 81 10000 1.5 0 18:36 11.01.2020
4616 Clouds 9 1021 81 10000 1.5 0 18:18 11.01.2020
4617 Clouds 9 1021 81 10000 1.5 0 18:18 11.01.2020
4618 Clouds 9 1021 81 10000 1.5 0 18:18 11.01.2020
4619 Clouds 9 1021 81 10000 1.5 0 18:18 11.01.2020
4620 Clouds 10 1021 81 10000 1.5 0 17:57 11.01.2020
4621 Clouds 10 1021 81 10000 1.02 35 17:38 11.01.2020
4622 Clouds 10 1021 81 10000 1.11 173 17:18 11.01.2020
4623 Clouds 11 1021 71 10000 1.11 173 16:43 11.01.2020
4624 Clouds 12 1021 62 10000 1.5 0 16:24 11.01.2020
4625 Clouds 12 1021 66 10000 1.5 0 15:56 11.01.2020
4626 Clouds 13 1021 58 10000 2.1 200 15:38 11.01.2020
4627 Clouds 13 1021 58 10000 2.1 200 15:19 11.01.2020
4628 Clouds 13 1021 51 10000 1.11 173 14:46 11.01.2020
4629 Clear 13 1020 47 10000 1.5 0 14:25 11.01.2020
4630 Clear 14 1020 47 10000 1.45 169 13:57 11.01.2020
4631 Clear 14 1020 47 10000 1.45 169 13:38 11.01.2020
4632 Clear 14 1021 44 10000 1.5 0 13:19 11.01.2020
4633 Clear 14 1021 44 10000 1.28 178 12:55 11.01.2020
4634 Clouds 13 1022 50 10000 1.5 0 12:36 11.01.2020
4635 Clouds 13 1022 50 10000 1.5 0 12:18 11.01.2020
4636 Clouds 13 1022 50 10000 1.28 178 11:42 11.01.2020
4637 Clouds 13 1023 50 10000 1.28 178 11:23 11.01.2020
4638 Clear 12 1023 47 10000 0.46 68 10:46 11.01.2020
4639 Clear 12 1023 47 10000 0.46 68 10:25 11.01.2020
4640 Clear 11 1023 53 10000 0.46 68 09:43 11.01.2020
4641 Clear 11 1023 57 10000 0.46 68 09:21 11.01.2020
4642 Clear 11 1023 57 10000 0.46 68 09:21 11.01.2020
4643 Clear 10 1023 65 10000 0.46 68 08:57 11.01.2020
4644 Clear 8 1023 44 10000 0.46 68 08:38 11.01.2020
4645 Clear 7 1023 53 10000 1.48 5 08:19 11.01.2020
4646 Clear 6 1023 69 10000 1.48 5 07:42 11.01.2020
4647 Clear 5 1023 69 10000 1.48 5 07:23 11.01.2020
4648 Clear 5 1023 74 10000 1.48 5 06:43 11.01.2020
4649 Clear 5 1022 69 10000 1.48 5 05:29 11.01.2020
4650 Clear 5 1022 69 10000 1.6 23 04:40 11.01.2020
4651 Clear 5 1022 69 10000 1.6 23 04:21 11.01.2020
4652 Clear 6 1023 69 10000 1.6 23 02:46 11.01.2020
4653 Clear 6 1023 69 10000 1.72 18 01:47 11.01.2020
4654 Clear 6 1023 69 10000 1.74 16 01:27 11.01.2020
4655 Clear 6 1023 65 10000 1.74 16 00:52 11.01.2020
4656 Clear 6 1023 65 10000 1.74 16 00:29 11.01.2020
4657 Clear 6 1023 65 10000 1.74 16 23:59 10.01.2020
4658 Clear 6 1023 65 10000 1.74 16 23:39 10.01.2020
4659 Clear 6 1023 65 10000 1.72 21 23:20 10.01.2020
4660 Clear 7 1023 65 10000 1.72 21 22:41 10.01.2020
4661 Clear 7 1023 55 10000 1.72 21 22:22 10.01.2020
4662 Clear 7 1023 55 10000 1.72 21 21:59 10.01.2020
4663 Clear 7 1023 55 10000 1.72 21 21:41 10.01.2020
4664 Clear 7 1024 70 10000 1.5 240 21:21 10.01.2020
4665 Clear 7 1022 55 10000 1.72 21 20:59 10.01.2020
4666 Clear 7 1022 55 10000 1.72 21 20:40 10.01.2020
4667 Clear 7 1022 55 10000 1.68 22 20:22 10.01.2020
4668 Clear 8 1022 55 10000 1.63 10 19:41 10.01.2020
4669 Clear 8 1022 55 10000 1.63 10 19:21 10.01.2020
4670 Clear 8 1022 55 10000 1.63 10 18:58 10.01.2020
4671 Clear 8 1022 55 10000 1.63 10 18:40 10.01.2020
4672 Clear 8 1022 65 10000 1.63 10 18:18 10.01.2020
4673 Clear 9 1022 66 10000 1.63 10 17:56 10.01.2020
4674 Clear 9 1022 70 10000 1.63 10 17:38 10.01.2020
4675 Clear 10 1022 70 10000 0.65 299 17:20 10.01.2020
4676 Clear 10 1023 71 10000 2.6 60 16:55 10.01.2020
4677 Clear 11 1021 43 10000 0.65 299 16:36 10.01.2020
4678 Clear 11 1021 43 10000 0.65 299 16:18 10.01.2020
4679 Clear 12 1021 33 10000 0.65 299 15:55 10.01.2020
4680 Clear 12 1021 33 10000 0.65 299 15:36 10.01.2020
4681 Clear 12 1021 33 10000 0.65 299 15:18 10.01.2020
4682 Clear 13 1021 30 10000 0.65 299 14:42 10.01.2020
4683 Clear 13 1021 30 10000 0.64 296 14:20 10.01.2020
4684 Clear 13 1021 28 10000 0.64 296 13:58 10.01.2020
4685 Clear 13 1021 28 10000 0.64 296 13:58 10.01.2020
4686 Clear 13 1022 28 10000 0.64 296 13:40 10.01.2020
4687 Clear 13 1022 28 10000 0.54 262 13:22 10.01.2020
4688 Clear 13 1022 30 10000 0.54 262 12:57 10.01.2020
4689 Clear 13 1022 32 10000 1.5 0 12:38 10.01.2020
4690 Clear 13 1022 32 10000 1.5 0 12:18 10.01.2020
4691 Clear 12 1023 32 10000 1.5 0 11:54 10.01.2020
4692 Clear 12 1023 30 10000 0.54 262 11:36 10.01.2020
4693 Clear 12 1023 30 10000 1.35 12 11:18 10.01.2020
4694 Clear 11 1023 30 10000 1.35 12 10:42 10.01.2020
4695 Clear 11 1024 34 10000 1.35 12 10:24 10.01.2020
4696 Clear 11 1024 37 10000 1 0 09:56 10.01.2020
4697 Clear 10 1024 37 10000 1 0 09:37 10.01.2020
4698 Clear 9 1024 45 10000 1 0 09:19 10.01.2020
4699 Clear 8 1024 52 10000 1.5 0 08:42 10.01.2020
4700 Clear 7 1024 56 10000 2.35 2 08:23 10.01.2020
4701 Clear 5 1023 59 10000 2.1 340 07:45 10.01.2020
4702 Clouds 5 1023 69 10000 1 0 07:26 10.01.2020
4703 Clouds 4 1023 69 10000 1.5 0 06:46 10.01.2020
4704 Clouds 4 1023 51 10000 2.6 270 06:26 10.01.2020
4705 Clouds 4 1023 55 10000 2.6 310 05:51 10.01.2020
4706 Clouds 4 1023 52 10000 2.5 358 03:45 10.01.2020
4707 Clouds 4 1023 45 10000 2.5 358 03:22 10.01.2020
4708 Clouds 4 1023 42 10000 1.5 0 02:49 10.01.2020
4709 Clouds 4 1023 52 10000 1.5 0 01:47 10.01.2020
4710 Clouds 4 1023 48 10000 1.5 0 01:28 10.01.2020
4711 Clouds 4 1025 64 10000 2.1 330 00:44 10.01.2020
4712 Clouds 4 1024 42 10000 4.1 330 23:58 09.01.2020
4713 Clouds 5 1025 60 10000 3.6 30 23:39 09.01.2020
4714 Clouds 5 1025 60 10000 3.6 30 23:20 09.01.2020
4715 Clouds 5 1024 39 10000 4.1 330 22:57 09.01.2020
4716 Clouds 5 1024 45 10000 4.1 330 22:39 09.01.2020
4717 Clouds 5 1024 45 10000 4.1 330 22:19 09.01.2020
4718 Clouds 5 1024 45 10000 4.1 330 22:19 09.01.2020
4719 Clouds 5 1024 45 10000 4.1 330 22:19 09.01.2020
4720 Clouds 6 1024 39 10000 4.1 330 21:57 09.01.2020
4721 Clouds 6 1024 39 10000 4.1 330 21:38 09.01.2020
4722 Clouds 6 1024 45 10000 4.1 330 21:19 09.01.2020
4723 Clouds 6 1024 49 10000 2.88 359 20:58 09.01.2020
4724 Clouds 6 1025 52 10000 6.2 30 20:39 09.01.2020
4725 Clouds 6 1025 52 10000 6.2 30 20:39 09.01.2020
4726 Clouds 6 1025 52 10000 6.2 30 20:20 09.01.2020
4727 Clouds 6 1025 52 10000 6.2 30 20:20 09.01.2020
4728 Clouds 6 1024 49 10000 3.6 340 19:58 09.01.2020
4729 Clouds 6 1025 49 10000 3.16 350 19:38 09.01.2020
4730 Clouds 7 1024 49 10000 3.16 350 19:19 09.01.2020
4731 Clouds 7 1024 49 10000 3.16 350 18:55 09.01.2020
4732 Clouds 7 1024 49 10000 3.16 350 18:55 09.01.2020
4733 Clouds 7 1024 49 10000 3.16 350 18:37 09.01.2020
4734 Clouds 7 1024 52 10000 3.16 350 18:19 09.01.2020
4735 Clouds 7 1024 52 10000 2.1 320 17:41 09.01.2020
4736 Clouds 8 1024 49 10000 2.1 350 17:18 09.01.2020
4737 Clouds 8 1024 49 10000 2.1 350 16:55 09.01.2020
4738 Clouds 8 1024 53 10000 2.6 330 16:36 09.01.2020
4739 Clouds 9 1024 53 10000 4.6 350 16:18 09.01.2020
4740 Clouds 9 1024 53 10000 2.6 340 15:41 09.01.2020
4741 Clouds 9 1024 53 10000 2.6 340 15:19 09.01.2020
4742 Clouds 9 1024 53 10000 2.6 340 14:55 09.01.2020
4743 Clouds 9 1024 53 10000 4.1 350 14:36 09.01.2020
4744 Clouds 9 1024 57 10000 2.6 330 14:18 09.01.2020
4745 Clouds 9 1024 57 10000 2.6 330 13:54 09.01.2020
4746 Clouds 9 1024 49 10000 5.1 350 13:36 09.01.2020
4747 Clouds 9 1024 48 10000 4.1 340 13:18 09.01.2020
4748 Clouds 9 1024 46 10000 5.7 340 12:41 09.01.2020
4749 Clouds 9 1024 46 10000 5.7 340 12:22 09.01.2020
4750 Clouds 9 1025 45 10000 3.6 340 11:58 09.01.2020
4751 Clouds 9 1025 45 10000 5.1 350 11:40 09.01.2020
4752 Clouds 9 1026 45 10000 4.1 350 11:22 09.01.2020
4753 Clouds 8 1026 49 10000 3.6 360 10:44 09.01.2020
4754 Clouds 8 1026 52 10000 2.6 360 10:23 09.01.2020
4755 Clouds 8 1026 52 10000 2.6 360 09:59 09.01.2020
4756 Clouds 8 1026 52 10000 3.1 10 09:39 09.01.2020
4757 Clouds 7 1026 52 10000 3.1 10 09:21 09.01.2020
4758 Clouds 7 1026 52 10000 2.6 360 09:21 09.01.2020
4759 Clouds 7 1026 52 10000 2.6 360 08:55 09.01.2020
4760 Clouds 7 1026 52 10000 5.32 350 08:37 09.01.2020
4761 Clouds 7 1026 52 10000 5.68 343 08:19 09.01.2020
4762 Clouds 6 1026 52 10000 1.5 0 07:42 09.01.2020
4763 Clouds 6 1026 52 10000 1.5 0 07:42 09.01.2020
4764 Clouds 5 1026 52 10000 4.83 346 07:23 09.01.2020
4765 Clouds 6 1026 52 10000 1.5 0 06:39 09.01.2020
4766 Clouds 6 1026 52 10000 1.5 0 06:20 09.01.2020
4767 Clouds 6 1025 52 10000 3.1 330 05:49 09.01.2020
4768 Clouds 5 1025 48 10000 3.6 340 04:44 09.01.2020
4769 Clouds 5 1025 48 10000 4.1 350 03:54 09.01.2020
4770 Clouds 6 1026 52 10000 1.5 0 02:54 09.01.2020
4771 Clouds 6 1026 52 10000 5.4 343 02:28 09.01.2020
4772 Clouds 6 1026 52 10000 3.1 350 01:39 09.01.2020
4773 Clouds 6 1026 48 10000 3.6 320 00:43 09.01.2020
4774 Clouds 6 1026 45 10000 3.1 320 00:21 09.01.2020
4775 Clouds 6 1026 45 10000 3.1 320 23:55 08.01.2020
4776 Clouds 6 1026 45 10000 3.6 330 23:37 08.01.2020
4777 Clouds 6 1026 48 10000 2.6 320 23:18 08.01.2020
4778 Clouds 6 1026 48 10000 3.6 320 22:39 08.01.2020
4779 Clouds 6 1026 45 10000 4.1 340 22:21 08.01.2020
4780 Clouds 6 1026 45 10000 4.1 340 21:58 08.01.2020
4781 Clouds 6 1026 45 10000 3.6 340 21:39 08.01.2020
4782 Clouds 6 1026 45 10000 5.1 340 21:20 08.01.2020
4783 Clouds 6 1026 45 10000 5.1 340 20:58 08.01.2020
4784 Clouds 6 1026 42 10000 5.1 350 20:40 08.01.2020
4785 Clouds 6 1026 42 10000 5.1 360 20:20 08.01.2020
4786 Clouds 6 1026 42 10000 5.1 360 19:56 08.01.2020
4787 Clouds 6 1026 39 10000 5.1 350 19:37 08.01.2020
4788 Clouds 6 1026 42 10000 6.2 350 19:19 08.01.2020
4789 Clouds 6 1026 42 10000 6.2 350 18:56 08.01.2020
4790 Clouds 6 1026 45 10000 5.7 360 18:37 08.01.2020
4791 Clouds 6 1026 45 10000 5.1 360 18:18 08.01.2020
4792 Clouds 6 1026 45 10000 5.1 360 17:55 08.01.2020
4793 Clouds 6 1025 48 10000 5.1 360 17:36 08.01.2020
4794 Clouds 6 1025 52 10000 5.1 360 17:18 08.01.2020
4795 Clouds 6 1025 52 10000 5.1 360 16:54 08.01.2020
4796 Clouds 7 1026 48 10000 7.2 340 16:36 08.01.2020
4797 Clouds 7 1025 45 10000 5.1 360 16:18 08.01.2020
4798 Clouds 7 1025 45 10000 6.2 360 15:40 08.01.2020
4799 Clouds 7 1025 45 10000 6.2 360 15:20 08.01.2020
4800 Clouds 8 1025 49 10000 7.7 350 14:56 08.01.2020
4801 Clouds 8 1024 42 10000 7.2 360 14:38 08.01.2020
4802 Clouds 8 1024 42 10000 7.2 360 14:19 08.01.2020
4803 Rain 8 1024 42 10000 7.2 350 13:40 08.01.2020
4804 Rain 8 1024 42 10000 7.2 350 13:19 08.01.2020
4805 Clouds 8 1024 45 10000 7.2 360 12:42 08.01.2020
4806 Clouds 8 1024 45 10000 7.2 360 12:19 08.01.2020
4807 Clouds 8 1024 45 10000 7.2 360 11:55 08.01.2020
4808 Clouds 8 1024 45 10000 7.2 360 11:55 08.01.2020
4809 Clouds 8 1024 42 10000 7.7 360 11:37 08.01.2020
4810 Clouds 8 1024 42 10000 7.7 360 11:19 08.01.2020
4811 Clouds 8 1024 42 10000 7.7 360 10:55 08.01.2020
4812 Clouds 8 1024 42 10000 7.2 360 10:37 08.01.2020
4813 Clouds 7 1024 45 10000 6.7 350 10:18 08.01.2020
4814 Clouds 7 1024 45 10000 5.1 360 09:41 08.01.2020
4815 Clouds 7 1024 45 10000 5.1 360 09:19 08.01.2020
4816 Clouds 7 1024 52 10000 6.2 350 08:56 08.01.2020
4817 Clouds 6 1024 56 10000 4.1 340 08:37 08.01.2020
4818 Clouds 6 1024 60 10000 4.1 340 08:19 08.01.2020
4819 Clouds 6 1023 77 10000 4.1 340 07:48 08.01.2020
4820 Clouds 6 1023 77 10000 4.1 340 07:29 08.01.2020
4821 Clouds 5 1023 70 10000 7.2 340 06:45 08.01.2020
4822 Clouds 5 1022 70 10000 5.1 350 06:22 08.01.2020
4823 Clouds 5 1022 56 10000 5.7 330 05:41 08.01.2020
4824 Clouds 5 1022 56 10000 5.7 330 05:41 08.01.2020
4825 Clouds 5 1022 56 10000 5.1 320 04:56 08.01.2020
4826 Clouds 5 1022 56 10000 3.1 330 04:24 08.01.2020
4827 Clouds 5 1022 56 10000 2.6 310 02:45 08.01.2020
4828 Clouds 5 1022 56 10000 2.6 310 02:22 08.01.2020
4829 Clouds 5 1022 56 10000 2.6 320 01:46 08.01.2020
4830 Clouds 5 1022 52 10000 3.1 310 01:19 08.01.2020
4831 Clouds 6 1022 52 10000 2.6 320 00:28 08.01.2020
4832 Clouds 6 1022 52 10000 2.6 310 23:57 07.01.2020
4833 Clouds 6 1022 52 10000 2.6 320 23:39 07.01.2020
4834 Clouds 6 1022 52 10000 2.1 330 23:20 07.01.2020
4835 Clouds 6 1022 52 10000 2.1 330 23:20 07.01.2020
4836 Clouds 6 1022 52 10000 3.1 350 22:40 07.01.2020
4837 Clouds 6 1021 52 10000 3.1 360 22:20 07.01.2020
4838 Clouds 6 1021 52 10000 3.1 360 21:56 07.01.2020
4839 Clouds 6 1022 56 10000 1.5 0 21:38 07.01.2020
4840 Clouds 6 1021 56 10000 2.1 360 21:20 07.01.2020
4841 Clouds 6 1021 56 10000 2.1 360 20:55 07.01.2020
4842 Clouds 6 1021 56 10000 2.1 320 20:36 07.01.2020
4843 Clouds 6 1021 56 10000 2.6 340 20:18 07.01.2020
4844 Clouds 6 1021 52 10000 2.6 330 19:38 07.01.2020
4845 Clouds 6 1021 52 10000 3.1 330 19:20 07.01.2020
4846 Clouds 6 1021 52 10000 3.1 330 18:58 07.01.2020
4847 Clouds 6 1021 52 10000 2.6 350 18:40 07.01.2020
4848 Clouds 6 1020 52 10000 5.1 350 18:19 07.01.2020
4849 Clouds 6 1020 52 10000 5.1 350 17:59 07.01.2020
4850 Clouds 6 1020 52 10000 5.7 330 17:39 07.01.2020
4851 Clouds 6 1020 52 10000 3.1 340 17:21 07.01.2020
4852 Clouds 6 1020 52 10000 3.1 340 16:57 07.01.2020
4853 Clouds 6 1019 70 10000 5.1 340 16:38 07.01.2020
4854 Clouds 6 1019 65 10000 5.1 340 16:19 07.01.2020
4855 Clouds 6 1019 65 10000 5.1 340 15:58 07.01.2020
4856 Clouds 6 1019 65 10000 3.6 310 15:39 07.01.2020
4857 Clouds 6 1019 70 10000 3.6 310 15:21 07.01.2020
4858 Clouds 6 1019 70 10000 3.6 310 14:54 07.01.2020
4859 Clouds 6 1018 75 10000 5.1 330 14:36 07.01.2020
4860 Clouds 6 1018 70 9000 6.7 360 14:18 07.01.2020
4861 Clouds 6 1018 56 9000 7.7 360 13:39 07.01.2020
4862 Clouds 6 1017 60 10000 8.2 360 13:19 07.01.2020
4863 Clouds 6 1017 56 10000 9.8 360 12:41 07.01.2020
4864 Rain 6 1018 56 9000 10.3 360 12:20 07.01.2020
4865 Rain 5 1018 56 9000 10.3 360 11:57 07.01.2020
4866 Rain 5 1018 52 8000 10.8 360 11:38 07.01.2020
4867 Clouds 5 1018 56 8000 8.7 350 11:20 07.01.2020
4868 Clouds 5 1018 65 8000 8.7 360 10:42 07.01.2020
4869 Clouds 5 1018 65 8000 8.7 360 10:24 07.01.2020
4870 Clouds 5 1019 65 8000 8.2 360 09:59 07.01.2020
4871 Clouds 5 1018 82 8000 8.7 360 09:38 07.01.2020
4872 Clouds 5 1018 82 8000 8.7 360 09:20 07.01.2020
4873 Clouds 4 1018 65 8000 6.2 350 08:46 07.01.2020
4874 Clouds 4 1018 65 8000 5.1 350 08:26 07.01.2020
4875 Clouds 4 1018 65 8000 5.1 350 07:54 07.01.2020
4876 Rain 4 1018 65 8000 4.1 360 07:28 07.01.2020
4877 Rain 4 1018 85 10000 3.6 360 06:54 07.01.2020
4878 Drizzle 4 1017 85 8000 4.1 350 06:34 07.01.2020
4879 Rain 4 1017 80 8000 5.1 310 05:55 07.01.2020
4880 Clouds 4 1017 69 10000 2.6 350 04:41 07.01.2020
4881 Drizzle 4 1016 85 8000 2.6 350 03:29 07.01.2020
4882 Rain 4 1016 84 7000 4.1 350 02:24 07.01.2020
4883 Rain 4 1016 80 7000 4.6 350 01:57 07.01.2020
4884 Rain 4 1015 80 7000 3.6 350 01:32 07.01.2020
4885 Drizzle 4 1015 75 7000 5.1 360 00:37 07.01.2020
4886 Drizzle 4 1015 75 7000 4.6 360 00:19 07.01.2020
4887 Drizzle 4 1015 75 7000 4.6 360 23:55 06.01.2020
4888 Drizzle 4 1015 75 7000 5.1 350 23:36 06.01.2020
4889 Drizzle 4 1015 75 7000 5.1 350 23:36 06.01.2020
4890 Rain 4 1015 75 7000 4.1 360 23:18 06.01.2020
4891 Rain 4 1015 81 7000 5.1 360 22:42 06.01.2020
4892 Rain 5 1015 81 7000 5.1 360 22:22 06.01.2020
4893 Rain 5 1014 70 7000 5.1 360 21:57 06.01.2020
4894 Rain 5 1014 75 7000 5.1 360 21:38 06.01.2020
4895 Rain 5 1014 75 8000 4.6 360 21:20 06.01.2020
4896 Rain 5 1014 75 8000 4.6 360 21:20 06.01.2020
4897 Rain 5 1014 75 8000 4.6 360 20:56 06.01.2020
4898 Rain 5 1013 81 8000 4.6 360 20:38 06.01.2020
4899 Rain 5 1013 81 7000 5.1 360 20:20 06.01.2020
4900 Rain 5 1013 81 7000 5.1 360 19:56 06.01.2020
4901 Rain 5 1013 86 8000 4.6 360 19:38 06.01.2020
4902 Rain 5 1013 86 8000 4.6 360 19:19 06.01.2020
4903 Rain 4 1013 86 8000 4.1 360 18:47 06.01.2020
4904 Rain 4 1013 86 8000 4.1 360 18:21 06.01.2020
4905 Rain 4 1013 86 8000 8.2 340 17:58 06.01.2020
4906 Rain 4 1012 80 8000 7.2 330 17:37 06.01.2020
4907 Rain 4 1012 86 8000 7.7 340 17:18 06.01.2020
4908 Rain 4 1012 80 8000 8.2 330 16:44 06.01.2020
4909 Rain 4 1012 80 8000 8.2 330 16:25 06.01.2020
4910 Rain 4 1012 80 8000 8.2 330 16:25 06.01.2020
4911 Rain 4 1012 80 8000 8.2 330 15:59 06.01.2020
4912 Rain 4 1012 80 8000 7.2 330 15:39 06.01.2020
4913 Rain 4 1011 80 8000 6.2 330 15:19 06.01.2020
4914 Rain 4 1011 80 8000 6.2 330 14:57 06.01.2020
4915 Rain 4 1011 80 8000 5.1 330 14:39 06.01.2020
4916 Rain 4 1011 80 6000 8.2 360 14:19 06.01.2020
4917 Rain 4 1011 80 6000 8.2 360 13:54 06.01.2020
4918 Rain 4 1011 80 8000 6.2 320 13:36 06.01.2020
4919 Rain 4 1011 86 8000 5.1 320 13:18 06.01.2020
4920 Rain 4 1011 80 8000 6.7 320 12:41 06.01.2020
4921 Rain 4 1011 86 8000 4.1 330 12:20 06.01.2020
4922 Rain 4 1011 86 8000 4.1 330 11:57 06.01.2020
4923 Rain 4 1012 86 8000 4.1 330 11:38 06.01.2020
4924 Rain 4 1012 80 8000 4.1 300 11:20 06.01.2020
4925 Rain 4 1012 80 8000 4.6 320 10:45 06.01.2020
4926 Rain 4 1012 80 8000 4.6 320 10:27 06.01.2020
4927 Rain 4 1012 81 8000 6.2 350 09:59 06.01.2020
4928 Rain 4 1012 81 8000 7.7 350 09:37 06.01.2020
4929 Rain 4 1011 80 8000 4.6 310 09:19 06.01.2020
4930 Rain 4 1011 80 8000 3.1 310 08:43 06.01.2020
4931 Rain 4 1011 80 8000 3.1 310 08:24 06.01.2020
4932 Rain 4 1010 80 8000 2.6 360 07:51 06.01.2020
4933 Rain 4 1010 80 8000 2.6 360 07:26 06.01.2020
4934 Rain 4 1009 80 7000 2.6 320 06:45 06.01.2020
4935 Rain 4 1009 80 7000 3.1 320 06:19 06.01.2020
4936 Rain 4 1009 86 7000 2.1 320 05:42 06.01.2020
4937 Rain 4 1009 86 7000 3.6 330 04:33 06.01.2020
4938 Rain 5 1009 86 7000 2.6 0 03:59 06.01.2020
4939 Rain 5 1009 81 7000 5.1 280 02:46 06.01.2020
4940 Rain 6 1009 81 7000 5.1 280 02:23 06.01.2020
4941 Rain 6 1009 86 7000 5.7 350 01:43 06.01.2020
4942 Rain 6 1009 86 7000 5.7 350 01:21 06.01.2020
4943 Rain 6 1009 86 7000 2.1 320 00:41 06.01.2020
4944 Rain 6 1009 93 7000 3.6 330 00:20 06.01.2020
4945 Rain 5 1009 86 7000 4.6 330 23:41 05.01.2020
4946 Rain 5 1009 86 7000 4.6 330 23:22 05.01.2020
4947 Rain 5 1009 86 7000 3.6 340 22:56 05.01.2020
4948 Rain 5 1009 86 7000 2.1 220 22:37 05.01.2020
4949 Rain 5 1009 86 7000 2.1 220 22:19 05.01.2020
4950 Rain 5 1008 86 7000 2.6 0 22:19 05.01.2020
4951 Rain 5 1008 86 7000 2.6 0 21:54 05.01.2020
4952 Rain 5 1008 86 7000 1.5 340 21:36 05.01.2020
4953 Rain 5 1008 86 7000 3.1 350 21:18 05.01.2020
4954 Rain 5 1008 86 7000 3.1 350 21:18 05.01.2020
4955 Rain 5 1008 86 7000 3.1 350 20:54 05.01.2020
4956 Rain 6 1008 86 7000 5.7 340 20:36 05.01.2020
4957 Rain 6 1008 86 7000 5.7 340 20:36 05.01.2020
4958 Rain 6 1008 87 8000 7.2 340 20:18 05.01.2020
4959 Rain 6 1008 87 8000 7.2 340 19:54 05.01.2020
4960 Rain 6 1008 87 8000 7.2 340 19:36 05.01.2020
4961 Rain 6 1008 87 8000 5.7 350 19:18 05.01.2020
4962 Rain 6 1008 87 8000 5.7 350 18:54 05.01.2020
4963 Rain 6 1008 87 8000 5.7 350 18:54 05.01.2020
4964 Rain 6 1009 87 8000 3.1 340 18:36 05.01.2020
4965 Rain 6 1009 87 8000 6.2 350 18:18 05.01.2020
4966 Rain 6 1009 87 8000 6.2 350 18:18 05.01.2020
4967 Rain 6 1009 87 8000 6.2 350 17:39 05.01.2020
4968 Rain 7 1009 87 8000 6.2 350 17:21 05.01.2020
4969 Rain 7 1008 81 8000 7.2 340 16:58 05.01.2020
4970 Drizzle 7 1008 81 9000 5.1 340 16:40 05.01.2020
4971 Drizzle 7 1009 81 9000 5.1 340 16:20 05.01.2020
4972 Drizzle 8 1009 81 9000 6.7 340 15:41 05.01.2020
4973 Rain 8 1009 81 9000 5.7 340 15:22 05.01.2020
4974 Rain 8 1009 81 9000 5.7 340 15:22 05.01.2020
4975 Rain 8 1009 81 9000 5.7 340 14:58 05.01.2020
4976 Drizzle 9 1009 75 10000 8.2 330 14:40 05.01.2020
4977 Drizzle 10 1009 75 10000 8.2 330 14:22 05.01.2020
4978 Clouds 10 1008 62 10000 5.1 340 13:59 05.01.2020
4979 Clouds 11 1008 62 10000 4.6 350 13:39 05.01.2020
4980 Clouds 11 1008 62 10000 4.6 350 13:20 05.01.2020
4981 Clouds 11 1008 58 10000 5.1 340 12:57 05.01.2020
4982 Clouds 11 1009 58 10000 3.6 320 12:38 05.01.2020
4983 Clouds 11 1009 54 10000 5.1 340 12:20 05.01.2020
4984 Clouds 11 1009 54 10000 5.1 340 12:20 05.01.2020
4985 Clouds 11 1009 54 10000 5.1 340 11:55 05.01.2020
4986 Clouds 11 1010 58 10000 5.1 350 11:36 05.01.2020
4987 Clouds 11 1010 58 10000 5.1 340 11:18 05.01.2020
4988 Clouds 11 1011 62 10000 3.1 340 10:41 05.01.2020
4989 Clouds 11 1011 57 10000 3.6 330 10:20 05.01.2020
4990 Clouds 11 1011 62 10000 3.1 340 10:20 05.01.2020
4991 Clouds 11 1011 57 10000 3.6 330 09:57 05.01.2020
4992 Clouds 11 1011 58 10000 2.6 320 09:38 05.01.2020
4993 Clouds 10 1011 62 10000 6.72 12 09:20 05.01.2020
4994 Clouds 10 1011 62 10000 6.72 12 08:45 05.01.2020
4995 Clouds 9 1011 53 10000 4.5 0 08:21 05.01.2020
4996 Clouds 9 1011 53 10000 1.5 0 07:47 05.01.2020
4997 Clouds 9 1011 53 10000 1.5 0 07:29 05.01.2020
4998 Clouds 7 1011 61 10000 2.6 320 06:55 05.01.2020
4999 Clouds 8 1011 81 10000 4.5 0 05:43 05.01.2020
5000 Clouds 8 1011 81 10000 2.65 327 04:56 05.01.2020
5001 Clouds 8 1012 87 10000 2.65 327 04:19 05.01.2020
5002 Clouds 8 1012 81 10000 2.65 327 03:40 05.01.2020
5003 Clouds 8 1014 86 10000 1 0 02:36 05.01.2020
5004 Clouds 8 1014 86 10000 1 0 02:36 05.01.2020
5005 Clouds 8 1014 80 10000 3.27 317 02:18 05.01.2020
5006 Clouds 8 1014 80 10000 3.27 317 01:36 05.01.2020
5007 Clouds 8 1014 86 10000 1 0 01:18 05.01.2020
5008 Clouds 8 1015 75 10000 2.1 250 00:39 05.01.2020
5009 Clouds 8 1015 75 10000 2.1 250 00:21 05.01.2020
5010 Clouds 8 1014 80 10000 3.07 320 23:58 04.01.2020
5011 Clouds 8 1015 75 10000 3.07 320 23:38 04.01.2020
5012 Clouds 8 1015 70 10000 3.03 308 23:18 04.01.2020
5013 Clouds 8 1015 75 10000 3.03 308 22:39 04.01.2020
5014 Clouds 8 1015 75 10000 3.03 308 22:39 04.01.2020
5015 Clouds 8 1015 75 10000 3.03 308 22:21 04.01.2020
5016 Clouds 8 1015 75 10000 3.03 308 21:57 04.01.2020
5017 Clouds 9 1016 70 10000 3.03 308 21:38 04.01.2020
5018 Clouds 8 1017 57 10000 0.5 0 21:19 04.01.2020
5019 Clouds 8 1017 57 10000 0.5 0 21:19 04.01.2020
5020 Clouds 8 1017 57 10000 0.5 0 20:56 04.01.2020
5021 Clouds 9 1017 61 10000 0.5 0 20:37 04.01.2020
5022 Clear 9 1016 51 10000 2.7 310 20:19 04.01.2020
5023 Clear 9 1016 51 10000 2.7 310 19:42 04.01.2020
5024 Clear 9 1016 51 10000 2.7 310 19:23 04.01.2020
5025 Clear 9 1016 65 10000 2.7 310 18:58 04.01.2020
5026 Clear 10 1016 65 10000 2.7 310 18:39 04.01.2020
5027 Clear 10 1016 65 10000 2.7 310 18:20 04.01.2020
5028 Clear 10 1016 65 10000 2.7 310 17:58 04.01.2020
5029 Clear 10 1016 57 10000 1.5 0 17:40 04.01.2020
5030 -273 0 0 0 0 0 17:22 04.01.2020
5031 Clear 12 1016 66 10000 1.61 282 16:42 04.01.2020
5032 Clear 12 1016 66 10000 1.61 282 16:24 04.01.2020
5033 Clear 13 1016 54 10000 1.61 282 15:59 04.01.2020
5034 Clear 13 1016 54 10000 1.61 282 15:59 04.01.2020
5035 Clear 14 1016 51 10000 1.61 282 15:41 04.01.2020
5036 Clear 14 1016 44 10000 2.1 200 15:19 04.01.2020
5037 Clear 14 1016 44 10000 2.1 200 14:58 04.01.2020
5038 Clear 14 1016 44 10000 2.1 200 14:58 04.01.2020
5039 Clear 15 1016 41 10000 2.1 170 14:40 04.01.2020
5040 Clear 15 1016 44 10000 1.5 0 14:19 04.01.2020
5041 Clear 15 1016 44 10000 1.5 0 13:56 04.01.2020
5042 Clear 15 1016 38 10000 1.34 247 13:37 04.01.2020
5043 Clear 15 1017 38 10000 1.34 247 13:18 04.01.2020
5044 Clear 15 1017 31 10000 1.5 0 12:42 04.01.2020
5045 Clear 15 1017 36 10000 2.1 190 12:20 04.01.2020
5046 Clear 15 1017 36 10000 2.1 190 11:59 04.01.2020
5047 Clear 14 1018 33 10000 1.5 0 11:40 04.01.2020
5048 Clear 13 1018 26 10000 0.82 308 11:20 04.01.2020
5049 Clear 13 1020 24 10000 1 0 10:58 04.01.2020
5050 Clear 13 1019 30 10000 0.82 308 10:38 04.01.2020
5051 Clear 13 1019 37 10000 1.5 0 10:19 04.01.2020
5052 Clear 13 1019 24 10000 0.82 308 09:42 04.01.2020
5053 Clear 12 1019 24 10000 0.82 308 09:24 04.01.2020
5054 Clouds 10 1019 27 10000 2.1 290 08:44 04.01.2020
5055 Clouds 9 1019 27 10000 2.1 290 08:25 04.01.2020
5056 Clouds 7 1019 31 10000 2.6 290 07:51 04.01.2020
5057 Clouds 7 1019 34 10000 2.1 310 07:32 04.01.2020
5058 Clouds 6 1019 29 10000 2.1 330 06:39 04.01.2020
5059 Clouds 7 1019 29 10000 1.5 0 05:52 04.01.2020
5060 Clouds 7 1018 39 10000 2.1 340 04:48 04.01.2020
5061 Clouds 7 1018 39 10000 2.1 340 04:28 04.01.2020
5062 Clouds 7 1019 39 10000 2.1 320 03:20 04.01.2020
5063 Clouds 7 1019 34 10000 1.5 0 02:38 04.01.2020
5064 Clouds 7 1019 34 10000 1.5 0 02:18 04.01.2020
5065 Clouds 7 1020 34 10000 1.5 0 01:32 04.01.2020
5066 Clouds 7 1020 34 10000 1.5 0 01:32 04.01.2020
5067 Clouds 7 1020 34 10000 1.5 0 01:32 04.01.2020
5068 Clouds 7 1020 39 10000 1.5 0 00:58 04.01.2020
5069 Clouds 7 1020 34 10000 2.1 300 00:29 04.01.2020
5070 Clouds 7 1020 31 10000 3.1 330 23:57 03.01.2020
5071 Clouds 7 1020 31 10000 2.1 310 23:29 03.01.2020
5072 Clouds 6 1020 31 10000 3.96 352 22:57 03.01.2020
5073 Clouds 6 1020 31 10000 3.96 352 22:57 03.01.2020
5074 Clouds 6 1020 45 10000 3.96 352 22:39 03.01.2020
5075 Clouds 6 1021 42 10000 3.96 352 22:18 03.01.2020
5076 Clouds 6 1021 42 10000 3.96 352 21:57 03.01.2020
5077 Clouds 6 1021 31 10000 3.96 352 21:37 03.01.2020
5078 Clouds 6 1021 39 10000 3.96 352 21:18 03.01.2020
5079 Clouds 6 1021 39 10000 3.96 352 20:54 03.01.2020
5080 Clouds 7 1021 36 10000 3.96 352 20:36 03.01.2020
5081 Clouds 7 1021 36 10000 2.1 310 20:18 03.01.2020
5082 Clouds 7 1021 34 10000 3.6 340 19:42 03.01.2020
5083 Clouds 7 1021 34 10000 5.08 348 19:23 03.01.2020
5084 Clouds 7 1021 34 10000 5.08 348 18:54 03.01.2020
5085 Clouds 7 1021 34 10000 2.6 330 18:36 03.01.2020
5086 Clouds 7 1021 36 10000 2.6 330 18:18 03.01.2020
5087 Clouds 8 1021 36 10000 3.1 330 17:41 03.01.2020
5088 Clouds 8 1021 39 10000 4.1 320 17:21 03.01.2020
5089 Clouds 8 1021 39 10000 3.1 310 16:45 03.01.2020
5090 Clouds 8 1021 39 10000 3.1 310 16:26 03.01.2020
5091 Clouds 9 1021 39 10000 3.6 320 16:00 03.01.2020
5092 Clouds 9 1020 43 10000 4.1 330 15:41 03.01.2020
5093 Clouds 9 1021 43 10000 5.7 330 15:19 03.01.2020
5094 Clouds 10 1020 43 10000 5.7 330 14:40 03.01.2020
5095 Clouds 10 1020 43 10000 5.7 330 14:40 03.01.2020
5096 Clouds 10 1020 43 10000 5.7 330 14:20 03.01.2020
5097 Clouds 10 1020 48 10000 6.2 340 13:59 03.01.2020
5098 Clouds 10 1021 48 10000 4.6 350 13:40 03.01.2020
5099 Clouds 10 1021 48 10000 4.6 350 13:21 03.01.2020
5100 Clouds 10 1021 46 10000 8.91 351 12:41 03.01.2020
5101 Clouds 10 1021 46 10000 8.91 351 12:22 03.01.2020
5102 Clouds 10 1022 46 10000 8.91 351 11:54 03.01.2020
5103 Clouds 10 1022 44 10000 8.91 351 11:35 03.01.2020
5104 Clouds 9 1022 57 10000 10.27 353 10:58 03.01.2020
5105 Clouds 9 1023 49 10000 10.27 353 10:40 03.01.2020
5106 Clouds 9 1023 49 10000 10.27 353 10:22 03.01.2020
5107 Clouds 9 1023 49 10000 10.27 353 09:56 03.01.2020
5108 Clouds 8 1023 49 10000 10.27 353 09:38 03.01.2020
5109 Clouds 8 1023 52 10000 10.27 353 09:20 03.01.2020
5110 Clouds 8 1023 52 10000 10.27 353 08:45 03.01.2020
5111 Clouds 7 1023 52 10000 10.03 351 08:23 03.01.2020
5112 Clouds 7 1023 56 10000 7.93 345 07:57 03.01.2020
5113 Clouds 7 1023 56 10000 7.93 345 07:38 03.01.2020
5114 Clouds 7 1023 64 10000 5.1 330 07:18 03.01.2020
5115 Clouds 6 1023 64 10000 7.93 345 06:42 03.01.2020
5116 Clouds 6 1023 64 10000 7.93 345 06:23 03.01.2020
5117 Clouds 7 1022 56 10000 10.13 3 05:20 03.01.2020
5118 Clouds 7 1023 62 10000 10.13 3 03:45 03.01.2020
5119 Clouds 7 1023 62 10000 10.13 3 02:55 03.01.2020
5120 Clouds 7 1023 67 10000 11.93 7 01:54 03.01.2020
5121 Clouds 7 1023 67 10000 11.93 7 01:36 03.01.2020
5122 Clouds 7 1023 66 10000 12.29 7 01:36 03.01.2020
5123 Clouds 7 1023 52 10000 12.29 7 00:46 03.01.2020
5124 Clouds 7 1023 52 10000 12.29 7 00:26 03.01.2020
5125 Clouds 7 1023 52 10000 12.29 7 23:54 02.01.2020
5126 Clouds 7 1023 52 10000 12.29 7 23:36 02.01.2020
5127 Clouds 7 1023 52 10000 10.81 8 23:18 02.01.2020
5128 Clouds 7 1024 52 10000 10.81 8 22:42 02.01.2020
5129 Clouds 7 1024 52 10000 10.81 8 22:20 02.01.2020
5130 Clouds 7 1024 49 10000 10.81 8 21:57 02.01.2020
5131 Clouds 7 1024 49 10000 10.81 8 21:38 02.01.2020
5132 Clouds 7 1024 52 10000 10.81 8 21:20 02.01.2020
5133 Clouds 7 1024 52 10000 10.81 8 20:56 02.01.2020
5134 Clouds 7 1024 49 10000 10.81 8 20:38 02.01.2020
5135 Clouds 7 1024 49 10000 11.66 8 20:20 02.01.2020
5136 Clouds 7 1024 49 10000 11.66 8 19:55 02.01.2020
5137 Clouds 7 1024 49 10000 11.66 8 19:36 02.01.2020
5138 Clouds 7 1024 45 10000 11.66 8 19:18 02.01.2020
5139 Clouds 7 1024 45 10000 11.66 8 18:54 02.01.2020
5140 Clouds 7 1024 45 10000 11.66 8 18:36 02.01.2020
5141 Clouds 7 1024 45 10000 11.66 8 18:18 02.01.2020
5142 Clouds 7 1024 45 10000 11.66 8 17:55 02.01.2020
5143 Clouds 7 1024 45 10000 11.66 8 17:36 02.01.2020
5144 Clouds 7 1023 49 10000 12.63 9 17:18 02.01.2020
5145 Clouds 7 1023 52 10000 12.63 9 16:41 02.01.2020
5146 Clouds 7 1023 52 10000 12.63 9 16:21 02.01.2020
5147 Clouds 7 1023 49 10000 12.63 9 15:58 02.01.2020
5148 Clouds 7 1023 49 10000 12.63 9 15:40 02.01.2020
5149 Clouds 7 1023 49 10000 12.63 9 15:40 02.01.2020
5150 Clouds 7 1024 60 10000 12.63 9 15:22 02.01.2020
5151 Clouds 7 1024 60 10000 12.63 9 14:57 02.01.2020
5152 Clouds 6 1024 70 9000 12.63 9 14:37 02.01.2020
5153 Clouds 6 1024 75 8000 13.74 13 14:18 02.01.2020
5154 Rain 6 1024 70 6000 8.7 10 13:51 02.01.2020
5155 Rain 6 1024 70 6000 8.7 10 13:32 02.01.2020
5156 Rain 6 1024 75 6000 5.1 350 12:58 02.01.2020
5157 Rain 7 1025 80 6000 7.7 320 12:39 02.01.2020
5158 Rain 7 1025 81 8000 7.2 350 12:20 02.01.2020
5159 Rain 7 1025 81 8000 7.2 350 11:41 02.01.2020
5160 Rain 7 1025 75 8000 7.2 330 11:20 02.01.2020
5161 Rain 7 1025 70 8000 6.7 350 10:45 02.01.2020
5162 Rain 6 1025 70 8000 6.7 350 10:27 02.01.2020
5163 Rain 5 1025 55 6000 8.7 10 09:56 02.01.2020
5164 Rain 5 1025 49 10000 5.1 10 09:35 02.01.2020
5165 Clouds 5 1024 61 10000 4.6 340 08:53 02.01.2020
5166 Rain 5 1024 65 10000 4.1 350 08:32 02.01.2020
5167 Rain 4 1024 70 8000 5.1 360 07:57 02.01.2020
5168 Rain 4 1024 75 8000 5.7 20 07:31 02.01.2020
5169 Rain 4 1025 80 8000 5.1 10 06:57 02.01.2020
5170 Rain 4 1025 80 8000 5.1 10 06:57 02.01.2020
5171 Rain 4 1024 75 10000 5.1 20 06:39 02.01.2020
5172 Rain 4 1024 75 10000 5.1 360 05:38 02.01.2020
5173 Rain 5 1024 80 10000 1.5 0 04:34 02.01.2020
5174 Rain 6 1024 75 10000 2.1 20 03:23 02.01.2020
5175 Clouds 7 1024 75 10000 2.6 330 02:21 02.01.2020
5176 Rain 7 1024 70 10000 3.6 280 01:49 02.01.2020
5177 Rain 7 1024 70 10000 3.6 280 01:25 02.01.2020
5178 Clouds 7 1024 65 10000 3.6 350 00:38 02.01.2020
5179 Clouds 8 1024 67 10000 2.6 340 00:20 02.01.2020
5180 Clouds 8 1024 67 10000 1.5 0 23:42 01.01.2020
5181 Clouds 8 1024 61 10000 2.1 350 23:21 01.01.2020
5182 Clouds 8 1024 61 10000 2.1 350 23:21 01.01.2020
5183 Clouds 8 1024 65 10000 2.6 340 22:39 01.01.2020
5184 Clouds 8 1024 65 10000 2.6 340 22:39 01.01.2020
5185 Clouds 8 1024 65 10000 2.6 340 22:20 01.01.2020
5186 Clouds 8 1024 65 10000 2.6 340 22:20 01.01.2020
5187 Clouds 8 1024 70 10000 3.1 330 21:58 01.01.2020
5188 Clouds 8 1022 61 10000 3.6 330 21:39 01.01.2020
5189 Clouds 8 1022 61 10000 3.6 330 21:20 01.01.2020
5190 Clouds 8 1023 65 10000 3.1 330 20:57 01.01.2020
5191 Drizzle 8 1024 61 10000 2.6 360 20:38 01.01.2020
5192 Clouds 8 1023 61 10000 3.1 360 20:20 01.01.2020
5193 Clouds 8 1023 61 10000 3.1 360 19:56 01.01.2020
5194 Clouds 8 1023 70 10000 3.1 360 19:37 01.01.2020
5195 Clouds 8 1023 70 10000 3.1 360 19:19 01.01.2020
5196 Clouds 8 1023 70 10000 3.1 360 18:56 01.01.2020
5197 Clouds 8 1023 70 10000 3.1 350 18:37 01.01.2020
5198 Clouds 8 1023 75 10000 4.6 360 18:19 01.01.2020
5199 Clouds 8 1023 75 10000 4.6 360 17:57 01.01.2020
5200 Drizzle 8 1022 75 10000 1.5 0 17:39 01.01.2020
5201 Clouds 8 1022 70 10000 4.6 350 17:19 01.01.2020
5202 Clouds 8 1022 70 10000 4.6 350 16:56 01.01.2020
5203 Clouds 8 1022 70 10000 4.6 350 16:56 01.01.2020
5204 Clouds 8 1022 76 10000 2.1 320 16:37 01.01.2020
5205 Clouds 8 1021 76 10000 1.5 0 16:19 01.01.2020
5206 Rain 8 1021 76 10000 1.5 0 15:54 01.01.2020
5207 Rain 8 1021 70 10000 1.5 0 15:36 01.01.2020
5208 Rain 8 1021 66 10000 3.6 360 15:18 01.01.2020
5209 Clouds 8 1021 57 10000 4.6 17 14:41 01.01.2020
5210 Clouds 8 1021 57 10000 10.44 11 14:23 01.01.2020
5211 Clouds 9 1020 57 10000 4.1 350 13:57 01.01.2020
5212 Clouds 9 1020 57 10000 5.1 340 13:38 01.01.2020
5213 Clouds 10 1020 53 10000 5.1 340 13:19 01.01.2020
5214 Clouds 10 1020 53 10000 5.1 340 12:57 01.01.2020
5215 Clouds 10 1020 53 10000 6.2 330 12:39 01.01.2020
5216 Clouds 10 1020 53 10000 6.7 340 12:19 01.01.2020
5217 Clouds 11 1020 53 10000 6.7 340 11:56 01.01.2020
5218 Clouds 10 1020 53 10000 6.2 350 11:37 01.01.2020
5219 Clouds 10 1021 50 10000 5.1 340 11:18 01.01.2020
5220 Clouds 10 1021 50 10000 5.1 340 10:54 01.01.2020
5221 Clouds 10 1021 43 10000 4.1 350 10:36 01.01.2020
5222 Clouds 10 1021 43 10000 2.1 280 10:18 01.01.2020
5223 Clouds 9 1021 43 10000 3.6 340 09:38 01.01.2020
5224 Clouds 9 1021 43 10000 1.5 0 09:19 01.01.2020
5225 Clouds 8 1021 43 10000 1.5 0 08:56 01.01.2020
5226 Clouds 7 1021 39 10000 3.66 3 08:37 01.01.2020
5227 Clouds 7 1021 39 10000 3.66 3 08:37 01.01.2020
5228 Clouds 7 1021 48 10000 2.36 351 08:19 01.01.2020
5229 Clouds 6 1021 48 10000 2.36 351 07:55 01.01.2020
5230 Clouds 5 1021 80 10000 2.36 351 07:37 01.01.2020
5231 Clouds 3 1020 35 10000 2.36 351 06:45 01.01.2020
5232 Clouds 3 1020 35 10000 2.36 351 06:22 01.01.2020
5233 Clouds 3 1020 69 10000 2.36 351 05:23 01.01.2020
5234 Clouds 3 1021 74 10000 2.52 345 03:47 01.01.2020
5235 Clouds 3 1021 74 10000 2.52 345 03:24 01.01.2020
5236 Clouds 3 1021 74 10000 2.52 345 02:57 01.01.2020
5237 Clouds 3 1021 48 10000 2.52 345 02:37 01.01.2020
5238 Rain 3 1021 41 10000 2.36 347 01:59 01.01.2020
5239 Rain 3 1022 55 10000 2.36 347 01:38 01.01.2020
5240 Rain 3 1022 55 10000 2.36 347 01:20 01.01.2020
5241 Clouds 3 1022 64 10000 1.5 340 00:44 01.01.2020
5242 Clouds 3 1022 64 10000 1.5 340 00:25 01.01.2020
5243 Clouds 4 1022 64 10000 2.43 344 23:41 31.12.2019
5244 Clouds 4 1022 64 10000 2.38 348 23:22 31.12.2019
5245 Clouds 4 1023 69 10000 2.38 348 22:58 31.12.2019
5246 Clouds 4 1023 65 10000 3.1 360 22:39 31.12.2019
5247 Clouds 4 1023 65 10000 2.38 348 22:20 31.12.2019
5248 Clouds 5 1023 65 10000 2.38 348 21:59 31.12.2019
5249 Clouds 5 1023 60 10000 2.1 0 21:40 31.12.2019
5250 Clouds 5 1024 56 10000 1.5 0 21:22 31.12.2019
5251 Clouds 5 1024 56 10000 1.5 0 20:57 31.12.2019
5252 Clouds 5 1024 49 10000 2.38 348 20:37 31.12.2019
5253 Clouds 5 1024 49 10000 1.5 330 20:19 31.12.2019
5254 Clouds 6 1024 49 10000 1.5 330 19:55 31.12.2019
5255 Clouds 6 1024 49 10000 2.1 330 19:36 31.12.2019
5256 Clouds 6 1024 45 10000 3.06 344 19:18 31.12.2019
5257 Clouds 6 1024 45 10000 3.06 344 18:54 31.12.2019
5258 Clouds 6 1024 52 10000 2.1 330 18:36 31.12.2019
5259 Clouds 7 1024 45 10000 3.06 344 18:18 31.12.2019
5260 Clouds 7 1024 45 10000 3.06 344 18:18 31.12.2019
5261 Clouds 7 1024 45 10000 3.06 344 17:54 31.12.2019
5262 Clouds 7 1024 52 10000 2.6 340 17:36 31.12.2019
5263 Clouds 7 1024 49 10000 2.6 320 17:18 31.12.2019
5264 Clouds 7 1024 49 10000 2.6 320 16:55 31.12.2019
5265 Clouds 7 1024 49 10000 2.6 320 16:36 31.12.2019
5266 Clouds 7 1024 49 10000 3.1 320 16:18 31.12.2019
5267 Clouds 8 1024 49 10000 3.1 320 15:55 31.12.2019
5268 Clouds 8 1024 49 10000 3.6 320 15:37 31.12.2019
5269 Clouds 8 1024 49 10000 4.6 340 15:18 31.12.2019
5270 Clouds 8 1024 49 10000 4.6 340 14:55 31.12.2019
5271 Clouds 8 1024 49 10000 3.1 330 14:36 31.12.2019
5272 Clouds 8 1024 49 10000 4.6 340 14:18 31.12.2019
5273 Clouds 8 1024 49 10000 4.6 340 13:54 31.12.2019
5274 Clouds 7 1024 49 10000 6.2 340 13:36 31.12.2019
5275 Clouds 7 1024 49 10000 4.6 340 13:18 31.12.2019
5276 Clouds 7 1024 52 10000 5.7 340 12:40 31.12.2019
5277 Clouds 7 1024 52 10000 5.7 340 12:40 31.12.2019
5278 Clouds 7 1024 52 10000 5.7 340 12:20 31.12.2019
5279 Clouds 7 1024 52 10000 5.1 340 12:20 31.12.2019
5280 Clouds 7 1024 52 10000 5.1 340 11:57 31.12.2019
5281 Clouds 7 1025 52 10000 5.1 340 11:39 31.12.2019
5282 Clouds 7 1025 61 10000 3.1 350 11:20 31.12.2019
5283 Clouds 7 1025 61 10000 3.1 350 10:58 31.12.2019
5284 Clouds 6 1025 65 10000 3.6 350 10:38 31.12.2019
5285 Clouds 6 1025 65 10000 3.6 350 10:20 31.12.2019
5286 Clouds 6 1025 65 10000 2.6 350 09:59 31.12.2019
5287 Clouds 6 1025 70 10000 4.1 350 09:40 31.12.2019
5288 Drizzle 5 1025 70 8000 3.6 350 09:21 31.12.2019
5289 Drizzle 5 1025 70 8000 3.6 350 08:58 31.12.2019
5290 Drizzle 5 1025 70 8000 4.1 350 08:39 31.12.2019
5291 Clouds 5 1025 80 8000 4.1 340 08:20 31.12.2019
5292 Clouds 4 1025 75 10000 6.2 350 07:43 31.12.2019
5293 Clouds 4 1025 75 10000 6.2 350 07:22 31.12.2019
5294 Rain 4 1024 75 10000 6.7 350 06:50 31.12.2019
5295 Rain 4 1025 86 7000 6.2 360 05:59 31.12.2019
5296 Rain 4 1024 86 6000 7.7 360 04:30 31.12.2019
5297 Rain 4 1024 86 6000 7.7 350 03:59 31.12.2019
5298 Rain 4 1024 93 6000 8.7 340 02:56 31.12.2019
5299 Rain 4 1024 86 6000 8.7 350 02:19 31.12.2019
5300 Rain 4 1023 93 6000 4.1 340 01:48 31.12.2019
5301 Rain 4 1023 93 6000 4.1 340 01:48 31.12.2019
5302 Rain 4 1023 93 6000 4.1 340 01:28 31.12.2019
5303 Rain 5 1023 86 6000 2.6 320 00:47 31.12.2019
5304 Rain 5 1023 86 6000 2.6 320 00:23 31.12.2019
5305 Rain 5 1023 86 6000 2.6 320 00:23 31.12.2019
5306 Rain 5 1023 86 6000 2.1 300 23:58 30.12.2019
5307 Rain 5 1023 93 6000 3.1 320 23:38 30.12.2019
5308 Rain 5 1023 93 6000 3.1 320 23:20 30.12.2019
5309 Rain 5 1023 93 6000 4.1 310 22:58 30.12.2019
5310 Rain 5 1023 86 6000 5.1 330 22:40 30.12.2019
5311 Rain 5 1023 86 6000 7.7 310 22:20 30.12.2019
5312 Rain 5 1023 86 6000 5.1 330 22:20 30.12.2019
5313 Rain 5 1022 93 6000 3.6 310 21:57 30.12.2019
5314 Rain 5 1022 93 6000 3.6 310 21:39 30.12.2019
5315 Rain 5 1022 93 6000 3.6 310 21:39 30.12.2019
5316 Rain 4 1022 86 6000 5.1 320 21:19 30.12.2019
5317 Rain 4 1022 86 6000 5.1 320 20:58 30.12.2019
5318 Rain 4 1022 93 6000 5.1 340 20:40 30.12.2019
5319 Rain 4 1022 93 6000 5.1 340 20:20 30.12.2019
5320 Rain 4 1022 93 6000 5.7 350 19:58 30.12.2019
5321 Rain 4 1022 86 6000 3.6 350 19:38 30.12.2019
5322 Rain 4 1021 93 6000 4.6 330 19:19 30.12.2019
5323 Rain 4 1021 93 6000 4.6 330 18:58 30.12.2019
5324 Rain 4 1021 93 6000 6.2 310 18:40 30.12.2019
5325 Rain 4 1020 93 6000 7.7 310 18:20 30.12.2019
5326 Rain 3 1020 93 6000 7.7 310 17:56 30.12.2019
5327 Rain 3 1020 93 6000 5.1 310 17:56 30.12.2019
5328 Rain 3 1020 93 6000 5.1 310 17:38 30.12.2019
5329 Rain 3 1020 93 5000 6.2 310 17:19 30.12.2019
5330 Rain 3 1020 93 5000 6.2 310 16:58 30.12.2019
5331 Rain 3 1020 100 5000 2.6 320 16:37 30.12.2019
5332 Rain 3 1020 93 3500 3.1 170 16:19 30.12.2019
5333 Rain 3 1020 93 3500 3.1 170 15:56 30.12.2019
5334 Rain 3 1019 100 3500 2.6 310 15:37 30.12.2019
5335 Rain 3 1019 93 3000 6.7 320 15:18 30.12.2019
5336 Rain 3 1019 93 3000 7.7 320 14:43 30.12.2019
5337 Rain 3 1018 93 2000 7.2 320 14:20 30.12.2019
5338 Rain 3 1018 93 1500 7.7 320 13:58 30.12.2019
5339 Rain 3 1018 93 1500 7.7 320 13:40 30.12.2019
5340 Rain 3 1018 93 1500 8.2 320 13:21 30.12.2019
5341 Rain 3 1018 93 1500 8.2 320 13:21 30.12.2019
5342 Rain 3 1018 93 1500 8.2 320 12:56 30.12.2019
5343 Rain 3 1018 93 1500 7.7 320 12:37 30.12.2019
5344 Rain 3 1018 93 3000 6.7 310 12:18 30.12.2019
5345 Rain 3 1018 93 3000 6.7 310 11:45 30.12.2019
5346 Rain 3 1018 93 3000 6.7 350 11:20 30.12.2019
5347 Rain 3 1018 93 3000 6.7 350 10:58 30.12.2019
5348 Rain 4 1018 93 3000 7.2 350 10:40 30.12.2019
5349 Rain 4 1020 100 4000 6.2 330 10:19 30.12.2019
5350 Rain 4 1018 93 4000 6.7 350 09:42 30.12.2019
5351 Rain 4 1018 93 4000 6.7 350 09:20 30.12.2019
5352 Rain 4 1018 93 4000 6.7 350 08:56 30.12.2019
5353 Rain 4 1018 93 4000 6.2 350 08:37 30.12.2019
5354 Rain 5 1017 93 4000 6.2 340 08:18 30.12.2019
5355 Rain 4 1017 100 5000 5.1 340 07:42 30.12.2019
5356 Rain 4 1017 100 4000 4.1 340 06:59 30.12.2019
5357 Rain 4 1017 93 6000 4.1 340 06:24 30.12.2019
5358 Rain 5 1017 93 5000 2.6 350 04:23 30.12.2019
5359 Thunderstorm 5 1017 93 5000 4.6 350 03:42 30.12.2019
5360 Rain 6 1017 80 10000 3.1 320 02:41 30.12.2019
5361 Rain 6 1017 80 10000 4.1 340 02:20 30.12.2019
5362 Clouds 6 1016 80 10000 3.6 320 01:26 30.12.2019
5363 Rain 6 1016 80 10000 5.1 330 00:47 30.12.2019
5364 Rain 5 1016 80 10000 5.1 330 00:26 30.12.2019
5365 Rain 6 1017 80 10000 5.1 330 23:40 29.12.2019
5366 Clouds 6 1017 80 10000 5.7 340 23:22 29.12.2019
5367 Clouds 6 1017 80 10000 5.7 340 22:57 29.12.2019
5368 Clouds 6 1017 80 10000 5.7 340 22:38 29.12.2019
5369 Clouds 6 1017 80 10000 5.7 340 22:38 29.12.2019
5370 Clouds 6 1017 80 10000 5.1 330 22:20 29.12.2019
5371 Clouds 5 1017 80 10000 5.1 330 21:54 29.12.2019
5372 Clouds 5 1017 80 10000 5.7 340 21:36 29.12.2019
5373 Clouds 5 1017 80 10000 5.1 350 21:18 29.12.2019
5374 Clouds 5 1017 80 10000 5.1 350 20:55 29.12.2019
5375 Rain 5 1017 80 8000 12.3 10 20:36 29.12.2019
5376 Rain 5 1017 86 8000 5.7 350 20:18 29.12.2019
5377 Rain 5 1018 86 8000 5.7 350 19:40 29.12.2019
5378 Rain 5 1018 86 8000 5.7 350 19:22 29.12.2019
5379 Rain 5 1018 86 8000 5.7 350 18:59 29.12.2019
5380 Rain 5 1018 93 8000 5.7 350 18:40 29.12.2019
5381 Rain 5 1018 93 8000 5.7 350 18:21 29.12.2019
5382 Rain 5 1017 80 8000 6.2 360 17:58 29.12.2019
5383 Rain 6 1017 86 8000 5.1 360 17:39 29.12.2019
5384 Rain 6 1017 86 8000 5.1 360 17:20 29.12.2019
5385 Rain 6 1017 75 10000 6.2 340 16:58 29.12.2019
5386 Rain 5 1017 86 10000 5.1 340 16:40 29.12.2019
5387 Rain 5 1017 86 10000 5.1 340 16:40 29.12.2019
5388 Rain 5 1017 86 10000 5.1 340 16:21 29.12.2019
5389 Rain 5 1017 86 10000 5.1 340 16:21 29.12.2019
5390 Rain 5 1017 86 10000 5.1 340 15:59 29.12.2019
5391 Rain 5 1017 86 10000 4.6 350 15:40 29.12.2019
5392 Rain 5 1017 86 10000 4.6 350 15:20 29.12.2019
5393 Rain 6 1017 86 6000 5.1 360 15:00 29.12.2019
5394 Rain 6 1017 86 8000 4.1 350 14:41 29.12.2019
5395 Rain 6 1017 86 8000 7.2 350 14:19 29.12.2019
5396 Rain 6 1017 86 8000 7.2 350 13:59 29.12.2019
5397 Rain 6 1017 86 8000 5.1 340 13:40 29.12.2019
5398 Rain 6 1017 86 10000 6.2 340 13:22 29.12.2019
5399 Rain 6 1017 86 8000 5.1 340 13:22 29.12.2019
5400 Rain 6 1017 86 10000 6.2 340 12:58 29.12.2019
5401 Rain 6 1017 93 9000 5.7 340 12:39 29.12.2019
5402 Rain 6 1017 93 9000 5.7 340 12:21 29.12.2019
5403 Rain 6 1017 65 10000 9.8 360 11:43 29.12.2019
5404 Clouds 6 1017 65 10000 9.8 360 11:22 29.12.2019
5405 Rain 6 1017 61 10000 11.8 30 10:57 29.12.2019
5406 Rain 6 1018 93 7000 5.1 330 10:39 29.12.2019
5407 Rain 6 1018 93 7000 6.7 330 10:18 29.12.2019
5408 Rain 6 1018 86 7000 5.1 340 09:46 29.12.2019
5409 Rain 6 1018 86 7000 5.1 340 09:28 29.12.2019
5410 Rain 6 1018 86 8000 5.1 340 08:59 29.12.2019
5411 Rain 6 1018 86 8000 6.2 350 08:40 29.12.2019
5412 Rain 5 1017 86 8000 4.6 330 08:21 29.12.2019
5413 Rain 5 1017 86 10000 4.6 350 07:45 29.12.2019
5414 Rain 5 1017 86 10000 4.6 350 07:26 29.12.2019
5415 Rain 4 1016 86 10000 4.6 340 06:42 29.12.2019
5416 Rain 4 1016 93 10000 5.1 350 06:19 29.12.2019
5417 Rain 5 1016 93 10000 4.1 340 05:44 29.12.2019
5418 Rain 4 1016 86 10000 3.1 320 04:33 29.12.2019
5419 Rain 4 1016 86 10000 3.1 350 03:36 29.12.2019
5420 Rain 4 1016 86 10000 1.5 330 02:30 29.12.2019
5421 Rain 4 1016 86 10000 1.5 330 02:30 29.12.2019
5422 Rain 4 1016 86 10000 3.6 350 01:52 29.12.2019
5423 Rain 4 1016 86 10000 3.6 350 01:29 29.12.2019
5424 Rain 4 1016 86 10000 4.6 350 00:47 29.12.2019
5425 Rain 4 1016 86 10000 4.6 350 00:25 29.12.2019
5426 Rain 4 1016 86 10000 5.1 350 23:56 28.12.2019
5427 Rain 4 1016 86 10000 4.6 360 23:37 28.12.2019
5428 Rain 4 1016 80 10000 5.7 360 23:18 28.12.2019
5429 Rain 4 1016 80 10000 5.7 360 23:18 28.12.2019
5430 Rain 4 1016 80 10000 5.7 360 23:18 28.12.2019
5431 Rain 5 1016 86 10000 4.6 360 22:38 28.12.2019
5432 Rain 5 1016 86 10000 4.1 360 22:19 28.12.2019
5433 Rain 5 1016 86 10000 4.1 360 21:56 28.12.2019
5434 Clouds 5 1016 75 10000 4.6 360 21:37 28.12.2019
5435 Clouds 5 1016 75 10000 6.2 360 21:19 28.12.2019
5436 Clouds 6 1016 75 10000 6.2 360 20:54 28.12.2019
5437 Clouds 6 1016 75 10000 6.2 360 20:54 28.12.2019
5438 Clouds 6 1015 75 10000 4.6 350 20:36 28.12.2019
5439 Clouds 5 1015 80 10000 5.1 360 20:18 28.12.2019
5440 Clouds 6 1015 75 10000 3.1 360 19:43 28.12.2019
5441 Clouds 6 1015 75 10000 3.1 360 19:24 28.12.2019
5442 Clouds 5 1015 77 10000 2.6 310 18:59 28.12.2019
5443 Clouds 6 1015 75 10000 5.7 350 18:41 28.12.2019
5444 Clouds 6 1015 75 10000 5.7 350 18:20 28.12.2019
5445 Clouds 6 1014 65 10000 5.7 340 17:59 28.12.2019
5446 Clouds 6 1014 65 10000 5.1 350 17:39 28.12.2019
5447 Clouds 6 1014 65 10000 5.1 350 17:21 28.12.2019
5448 Clouds 6 1014 65 10000 5.1 340 16:51 28.12.2019
5449 Clouds 6 1014 65 10000 5.1 340 16:27 28.12.2019
5450 Clouds 7 1014 65 10000 6.2 350 15:58 28.12.2019
5451 Clouds 7 1014 61 10000 6.2 350 15:39 28.12.2019
5452 Clouds 7 1014 61 10000 6.2 350 15:21 28.12.2019
5453 Clouds 7 1014 57 10000 6.2 350 15:21 28.12.2019
5454 Clouds 7 1014 57 10000 6.2 350 15:21 28.12.2019
5455 Clouds 8 1014 53 10000 5.7 360 14:47 28.12.2019
5456 Clouds 8 1014 53 10000 5.7 360 14:26 28.12.2019
5457 Clouds 9 1014 46 10000 6.2 350 13:58 28.12.2019
5458 Clouds 9 1014 40 10000 5.7 320 13:39 28.12.2019
5459 Clouds 9 1014 40 10000 5.7 320 13:20 28.12.2019
5460 Clouds 9 1014 40 10000 5.7 320 13:20 28.12.2019
5461 Clouds 9 1014 43 10000 6.2 340 12:56 28.12.2019
5462 Clouds 10 1014 40 10000 5.1 330 12:37 28.12.2019
5463 Clouds 10 1014 39 10000 7.2 330 12:19 28.12.2019
5464 Clouds 9 1014 43 10000 7.7 340 11:40 28.12.2019
5465 Clouds 9 1014 43 10000 7.7 340 11:21 28.12.2019
5466 Clouds 9 1015 46 10000 6.7 330 10:55 28.12.2019
5467 Clouds 9 1015 49 10000 6.7 340 10:36 28.12.2019
5468 Clouds 9 1015 49 10000 5.7 330 10:18 28.12.2019
5469 Clouds 9 1015 49 10000 4.1 330 09:45 28.12.2019
5470 Clouds 9 1015 49 10000 4.1 330 09:23 28.12.2019
5471 Clouds 8 1015 49 10000 5.1 330 08:58 28.12.2019
5472 Clouds 8 1015 52 10000 4.1 320 08:39 28.12.2019
5473 Clouds 8 1015 52 10000 5.1 330 08:20 28.12.2019
5474 Clouds 8 1015 52 10000 3.6 330 07:43 28.12.2019
5475 Clouds 8 1015 52 10000 3.6 320 06:59 28.12.2019
5476 Clouds 8 1015 60 10000 2.6 330 05:43 28.12.2019
5477 Clouds 8 1016 57 10000 3.6 330 03:48 28.12.2019
5478 Clouds 8 1016 61 10000 2.1 320 02:50 28.12.2019
5479 Clouds 8 1016 61 10000 2.1 320 02:20 28.12.2019
5480 Clouds 8 1017 65 10000 2.6 320 01:53 28.12.2019
5481 Clouds 8 1017 65 10000 3.1 350 01:22 28.12.2019
5482 Clouds 8 1016 57 10000 2.6 330 00:44 28.12.2019
5483 Clouds 8 1016 57 10000 2.6 330 00:26 28.12.2019
5484 Clouds 8 1016 65 10000 2.6 320 23:57 27.12.2019
5485 Clouds 8 1016 66 10000 2.6 340 23:37 27.12.2019
5486 Clouds 8 1016 61 10000 2.1 310 23:18 27.12.2019
5487 Clouds 8 1016 61 10000 1.5 0 22:55 27.12.2019
5488 Clouds 8 1016 61 10000 1.5 0 22:37 27.12.2019
5489 Clouds 8 1017 70 10000 1 0 22:19 27.12.2019
5490 Clouds 9 1018 61 10000 3.1 20 21:41 27.12.2019
5491 Clouds 9 1018 61 10000 3.1 20 21:23 27.12.2019
5492 Clouds 9 1017 53 10000 2.6 340 20:44 27.12.2019
5493 Clouds 9 1017 53 10000 2.6 340 20:26 27.12.2019
5494 Clouds 9 1016 53 10000 2.1 340 19:58 27.12.2019
5495 Clouds 9 1017 57 10000 1.5 0 19:40 27.12.2019
5496 Clouds 9 1016 57 10000 1.5 0 19:19 27.12.2019
5497 Clouds 9 1016 57 10000 1.5 0 18:55 27.12.2019
5498 Clouds 9 1016 57 10000 2.38 19 18:36 27.12.2019
5499 Clouds 9 1016 57 10000 1.5 330 18:18 27.12.2019
5500 Clouds 9 1016 57 10000 1.5 330 17:55 27.12.2019
5501 Clouds 9 1016 57 10000 2.38 19 17:36 27.12.2019
5502 Clouds 9 1016 57 10000 3.58 26 17:18 27.12.2019
5503 Clouds 9 1016 57 10000 1.5 0 16:41 27.12.2019
5504 Clouds 10 1016 53 10000 1.5 0 16:22 27.12.2019
5505 Clouds 10 1016 53 10000 1.5 0 15:57 27.12.2019
5506 Clouds 10 1016 50 10000 2.6 360 15:37 27.12.2019
5507 Clouds 11 1016 43 10000 3.58 26 15:19 27.12.2019
5508 Clouds 11 1016 43 10000 3.58 26 14:56 27.12.2019
5509 Clouds 11 1016 43 10000 1.5 0 14:37 27.12.2019
5510 Clouds 11 1016 43 10000 1.5 0 14:19 27.12.2019
5511 Clouds 11 1017 43 10000 2.1 0 14:19 27.12.2019
5512 Clouds 12 1017 46 10000 1.5 0 13:46 27.12.2019
5513 Clouds 12 1017 46 10000 1.5 0 13:23 27.12.2019
5514 Clouds 12 1017 46 10000 2.6 350 12:49 27.12.2019
5515 Clouds 11 1017 46 10000 2.6 350 12:29 27.12.2019
5516 Clouds 11 1017 50 10000 3.1 340 11:59 27.12.2019
5517 Clouds 11 1017 50 10000 1.5 0 11:41 27.12.2019
5518 Clouds 11 1018 53 10000 2.1 340 11:20 27.12.2019
5519 Clouds 11 1019 53 10000 3.1 330 10:47 27.12.2019
5520 Clouds 11 1019 50 10000 3.1 330 10:24 27.12.2019
5521 Clouds 10 1018 53 10000 2.6 340 09:58 27.12.2019
5522 Clouds 10 1018 53 10000 2.6 340 09:39 27.12.2019
5523 Clouds 10 1018 53 10000 2.6 340 09:21 27.12.2019
5524 Clouds 10 1019 50 10000 3.1 330 08:49 27.12.2019
5525 Clouds 10 1018 53 10000 2.35 9 08:30 27.12.2019
5526 Clouds 8 1018 61 10000 1.5 0 07:48 27.12.2019
5527 Clouds 8 1018 61 10000 1.5 0 07:26 27.12.2019
5528 Clouds 7 1018 75 10000 3.66 355 06:33 27.12.2019
5529 Clouds 7 1017 61 10000 3.1 350 04:51 27.12.2019
5530 Clouds 8 1018 65 10000 3.6 350 02:49 27.12.2019
5531 Clouds 8 1017 75 10000 6.05 2 01:56 27.12.2019
5532 Clouds 7 1017 61 10000 5.36 359 01:23 27.12.2019
5533 Clouds 7 1017 61 10000 5.36 359 00:53 27.12.2019
5534 Clouds 7 1017 57 10000 5.36 359 00:34 27.12.2019
5535 Clouds 7 1017 57 10000 5.36 359 23:59 26.12.2019
5536 Clouds 8 1017 70 10000 5.36 359 23:40 26.12.2019
5537 Clouds 8 1017 70 10000 2.1 210 23:21 26.12.2019
5538 Clouds 8 1017 66 10000 7.85 358 22:43 26.12.2019
5539 Clouds 9 1016 61 10000 7.85 358 22:21 26.12.2019
5540 Clouds 9 1016 61 10000 7.85 358 21:58 26.12.2019
5541 Clouds 9 1016 61 10000 7.85 358 21:38 26.12.2019
5542 Clouds 9 1016 61 10000 7.85 358 21:20 26.12.2019
5543 Clouds 9 1016 61 10000 7.85 358 20:45 26.12.2019
5544 Clouds 9 1016 61 10000 7.85 358 20:45 26.12.2019
5545 Clouds 9 1016 61 10000 7.9 2 20:23 26.12.2019
5546 Clouds 10 1015 66 10000 7.9 2 19:58 26.12.2019
5547 Clouds 10 1015 57 10000 3.1 300 19:39 26.12.2019
5548 Clouds 10 1015 53 10000 4.1 320 19:20 26.12.2019
5549 Clouds 10 1015 53 10000 4.1 320 18:57 26.12.2019
5550 Rain 9 1015 53 10000 3.1 310 18:38 26.12.2019
5551 Rain 9 1015 53 10000 2.6 350 18:19 26.12.2019
5552 Clouds 10 1014 46 10000 3.6 350 17:43 26.12.2019
5553 Clouds 10 1014 46 10000 3.6 350 17:43 26.12.2019
5554 Clouds 10 1014 46 10000 3.6 350 17:22 26.12.2019
5555 Clouds 10 1014 50 10000 4.1 350 16:58 26.12.2019
5556 Clouds 11 1014 46 10000 3.1 350 16:40 26.12.2019
5557 Clouds 11 1014 46 10000 3.1 350 16:21 26.12.2019
5558 Clouds 11 1013 47 10000 3.1 350 15:41 26.12.2019
5559 Clouds 11 1013 50 10000 5.7 350 15:22 26.12.2019
5560 Clouds 11 1013 50 10000 5.7 350 14:59 26.12.2019
5561 Clouds 11 1012 50 10000 3.6 350 14:39 26.12.2019
5562 Clouds 11 1012 50 10000 3.6 350 14:20 26.12.2019
5563 Rain 10 1012 57 10000 3.1 10 13:43 26.12.2019
5564 Rain 11 1012 54 10000 6.2 10 13:21 26.12.2019
5565 Rain 11 1012 54 10000 6.2 10 12:58 26.12.2019
5566 Clouds 11 1012 47 10000 5.1 350 12:38 26.12.2019
5567 Clouds 11 1012 41 10000 5.1 330 12:19 26.12.2019
5568 Clouds 11 1012 41 10000 5.1 330 11:57 26.12.2019
5569 Clouds 12 1012 43 10000 5.1 330 11:38 26.12.2019
5570 Clouds 11 1012 50 10000 3.6 330 11:20 26.12.2019
5571 Clouds 11 1012 46 10000 4.1 320 10:42 26.12.2019
5572 Clouds 10 1013 46 10000 3.1 320 10:19 26.12.2019
5573 Clouds 10 1013 46 10000 1 0 09:50 26.12.2019
5574 Clouds 9 1013 46 10000 1 0 09:31 26.12.2019
5575 Clouds 9 1012 57 10000 5.94 350 08:43 26.12.2019
5576 Rain 8 1012 57 10000 5.67 351 08:25 26.12.2019
5577 Clouds 8 1012 70 10000 3.62 344 07:53 26.12.2019
5578 Rain 8 1012 65 10000 3.62 344 07:28 26.12.2019
5579 Rain 7 1011 86 10000 3.62 344 06:54 26.12.2019
5580 Clouds 7 1011 86 10000 3.62 344 06:32 26.12.2019
5581 Clouds 7 1010 86 10000 3.62 344 05:46 26.12.2019
5582 Clouds 7 1010 86 10000 5.09 342 04:59 26.12.2019
5583 Clouds 8 1010 81 10000 5.09 342 04:30 26.12.2019
5584 Clouds 8 1010 70 10000 2.1 340 02:58 26.12.2019
5585 Clouds 8 1011 70 10000 1.5 0 02:34 26.12.2019
5586 Rain 8 1010 75 10000 4.7 343 01:51 26.12.2019
5587 Rain 8 1010 70 10000 4.7 343 01:33 26.12.2019
5588 Rain 8 1010 66 10000 6.28 343 00:50 26.12.2019
5589 Rain 8 1010 66 10000 6.28 343 00:27 26.12.2019
5590 Rain 8 1010 66 10000 6.28 343 23:59 25.12.2019
5591 Rain 9 1010 66 10000 6.28 343 23:40 25.12.2019
5592 Clouds 9 1009 61 10000 6.01 342 23:21 25.12.2019
5593 Clouds 9 1009 61 10000 2.1 330 22:59 25.12.2019
5594 Clouds 9 1009 61 10000 2.1 330 22:39 25.12.2019
5595 Clouds 9 1009 61 10000 3.6 330 22:21 25.12.2019
5596 Clouds 9 1009 61 10000 3.6 330 21:59 25.12.2019
5597 Clouds 9 1009 61 10000 6.01 342 21:39 25.12.2019
5598 Clouds 9 1009 65 10000 6.01 342 21:20 25.12.2019
5599 Clouds 9 1009 65 10000 6.01 342 20:56 25.12.2019
5600 Clouds 9 1009 70 10000 6.01 342 20:38 25.12.2019
5601 Clouds 9 1009 65 10000 6.03 340 20:18 25.12.2019
5602 Clouds 9 1008 65 10000 6.03 340 19:43 25.12.2019
5603 Clouds 9 1008 65 10000 6.03 340 19:43 25.12.2019
5604 Clouds 9 1008 65 10000 6.03 340 19:25 25.12.2019
5605 Clouds 10 1008 50 10000 6.03 340 18:58 25.12.2019
5606 Clouds 10 1008 46 10000 6.03 340 18:37 25.12.2019
5607 Clouds 10 1008 40 10000 2.6 310 18:19 25.12.2019
5608 Clouds 10 1008 50 10000 1.5 0 17:42 25.12.2019
5609 Clouds 10 1007 40 10000 1.5 0 17:19 25.12.2019
5610 Clouds 11 1007 40 10000 1.5 0 16:58 25.12.2019
5611 Clouds 11 1007 37 10000 1.5 0 16:37 25.12.2019
5612 Clouds 11 1007 34 10000 3.1 330 16:18 25.12.2019
5613 Clouds 11 1007 34 10000 3.1 330 15:57 25.12.2019
5614 Clouds 12 1007 32 10000 5.1 330 15:39 25.12.2019
5615 Clouds 12 1007 35 10000 5.1 340 15:20 25.12.2019
5616 Clouds 12 1007 35 10000 5.1 340 14:57 25.12.2019
5617 Clouds 12 1007 32 10000 5.7 330 14:39 25.12.2019
5618 Clouds 12 1007 37 10000 6.2 330 14:20 25.12.2019
5619 Clouds 12 1007 35 10000 6.7 330 13:45 25.12.2019
5620 Clouds 12 1007 35 10000 6.7 340 13:21 25.12.2019
5621 Clouds 12 1007 35 10000 6.7 340 12:57 25.12.2019
5622 Clouds 12 1007 35 10000 5.1 320 12:38 25.12.2019
5623 Clouds 12 1007 35 10000 5.1 320 12:20 25.12.2019
5624 Clouds 12 1007 40 10000 3.6 330 11:43 25.12.2019
5625 Clouds 12 1007 40 10000 3.6 330 11:23 25.12.2019
5626 Clouds 12 1007 37 10000 4.1 330 10:59 25.12.2019
5627 Clouds 12 1008 37 10000 3.6 330 10:37 25.12.2019
5628 Clouds 11 1008 40 10000 2.6 330 10:19 25.12.2019
5629 Clouds 11 1008 40 10000 3.1 310 09:45 25.12.2019
5630 Clouds 11 1008 40 10000 3.1 310 09:27 25.12.2019
5631 Clouds 11 1008 50 10000 1.5 0 08:47 25.12.2019
5632 Clouds 11 1008 50 10000 1.5 0 08:28 25.12.2019
5633 Clouds 9 1008 46 10000 2.6 320 07:49 25.12.2019
5634 Clouds 9 1008 46 10000 2.6 320 07:31 25.12.2019
5635 Clouds 9 1008 52 10000 2.6 290 06:49 25.12.2019
5636 Clouds 9 1008 52 10000 2.6 290 06:22 25.12.2019
5637 Clouds 9 1007 46 10000 3.1 330 05:18 25.12.2019
5638 Clouds 9 1007 46 10000 2.6 350 04:38 25.12.2019
5639 Clouds 9 1007 49 10000 3.1 330 04:18 25.12.2019
5640 Clouds 9 1007 49 10000 2.6 330 03:40 25.12.2019
5641 Clouds 10 1008 53 10000 3.6 330 02:39 25.12.2019
5642 Clouds 10 1008 50 10000 2.6 340 01:59 25.12.2019
5643 Clouds 10 1008 53 10000 2.6 220 01:25 25.12.2019
5644 Clouds 10 1008 50 10000 3.6 330 00:52 25.12.2019
5645 Clouds 10 1008 50 10000 3.6 330 00:29 25.12.2019
5646 Clouds 10 1007 46 10000 1.5 0 23:56 24.12.2019
5647 Clouds 10 1008 53 10000 2.6 320 23:38 24.12.2019
5648 Clouds 10 1008 61 10000 1.5 0 23:20 24.12.2019
5649 Clouds 11 1008 57 10000 1 0 22:40 24.12.2019
5650 Clouds 11 1008 57 10000 1 0 22:21 24.12.2019
5651 Clouds 11 1008 54 10000 5.75 336 21:43 24.12.2019
5652 Clouds 11 1008 54 10000 5.75 336 21:23 24.12.2019
5653 Clouds 11 1007 54 10000 1.5 0 20:55 24.12.2019
5654 Clouds 11 1008 54 10000 1.5 0 20:36 24.12.2019
5655 Clouds 11 1007 54 10000 5.07 348 20:18 24.12.2019
5656 Clouds 11 1007 50 10000 5.07 348 19:43 24.12.2019
5657 Clouds 11 1007 50 10000 5.07 348 19:19 24.12.2019
5658 Clouds 12 1006 41 10000 4.1 330 18:43 24.12.2019
5659 Clouds 12 1006 41 10000 3.1 320 18:24 24.12.2019
5660 Clouds 12 1006 41 10000 3.1 320 17:58 24.12.2019
5661 Clouds 12 1007 50 10000 3.6 300 17:38 24.12.2019
5662 Clouds 12 1005 41 10000 2.6 320 17:20 24.12.2019
5663 Clouds 12 1005 41 10000 2.6 320 16:55 24.12.2019
5664 Clouds 12 1005 43 10000 3.1 300 16:37 24.12.2019
5665 Clouds 12 1005 43 10000 2.6 290 16:19 24.12.2019
5666 Clouds 12 1005 43 10000 2.6 290 16:19 24.12.2019
5667 Clouds 12 1006 47 10000 4.6 340 15:55 24.12.2019
5668 Clouds 12 1006 47 10000 4.6 340 15:36 24.12.2019
5669 Clouds 12 1004 47 10000 2.1 310 15:18 24.12.2019
5670 Clouds 12 1004 47 10000 2.1 310 14:55 24.12.2019
5671 Clouds 12 1004 47 10000 4.1 310 14:36 24.12.2019
5672 Clouds 13 1004 44 10000 4.1 300 14:18 24.12.2019
5673 Clouds 13 1004 44 10000 4.1 300 13:55 24.12.2019
5674 Clouds 12 1003 47 10000 4.1 300 13:37 24.12.2019
5675 Clouds 13 1003 47 10000 4.1 310 13:18 24.12.2019
5676 Clouds 12 1003 47 10000 4.1 310 12:55 24.12.2019
5677 Clouds 12 1003 47 10000 4.1 320 12:36 24.12.2019
5678 Clouds 13 1004 44 10000 6.2 300 12:18 24.12.2019
5679 Clouds 13 1004 44 10000 6.2 300 11:54 24.12.2019
5680 Clouds 13 1004 43 10000 6.2 320 11:36 24.12.2019
5681 Clouds 13 1004 43 10000 6.2 320 11:36 24.12.2019
5682 Clouds 13 1003 44 10000 3.6 330 11:18 24.12.2019
5683 Clouds 13 1003 44 10000 3.6 330 10:55 24.12.2019
5684 Clouds 13 1003 44 10000 4.1 310 10:36 24.12.2019
5685 Clouds 13 1003 44 10000 4.1 300 10:18 24.12.2019
5686 Clouds 13 1003 44 10000 4.1 300 09:54 24.12.2019
5687 Clouds 13 1003 44 10000 3.1 320 09:36 24.12.2019
5688 Clouds 13 1002 44 10000 3.1 310 09:18 24.12.2019
5689 Clouds 12 1002 50 10000 2.1 290 08:42 24.12.2019
5690 Clouds 11 1002 57 10000 2.75 334 08:20 24.12.2019
5691 Clouds 11 1001 53 10000 1 310 07:45 24.12.2019
5692 Clouds 10 1001 53 10000 1 310 07:24 24.12.2019
5693 Clouds 10 1001 53 10000 1 310 07:24 24.12.2019
5694 Clouds 9 1000 50 10000 3.6 320 06:44 24.12.2019
5695 Clouds 9 1000 50 10000 3.6 320 06:22 24.12.2019
5696 Clouds 9 999 50 10000 2.75 334 05:57 24.12.2019
5697 Clouds 10 999 57 10000 3.6 326 05:20 24.12.2019
5698 Clouds 10 999 70 10000 3.6 326 04:36 24.12.2019
5699 Clouds 10 999 70 10000 3.6 326 03:50 24.12.2019
5700 Clouds 11 998 54 10000 3.6 326 02:59 24.12.2019
5701 Clouds 11 998 54 10000 3.98 307 02:19 24.12.2019
5702 Clouds 11 998 50 10000 3.98 307 01:42 24.12.2019
5703 Clouds 12 998 50 10000 3.98 307 01:20 24.12.2019
5704 Clouds 12 997 54 10000 3.54 309 00:43 24.12.2019
5705 Clouds 12 997 62 10000 3.54 309 00:23 24.12.2019
5706 Clouds 11 997 62 10000 3.54 309 23:55 23.12.2019
5707 Clouds 11 997 76 10000 3.54 309 23:37 23.12.2019
5708 Clouds 12 997 76 10000 4.05 320 23:19 23.12.2019
5709 Clouds 12 997 76 10000 4.05 320 22:54 23.12.2019
5710 Clouds 12 997 71 10000 4.05 320 22:36 23.12.2019
5711 Clouds 12 997 66 10000 4.05 320 22:18 23.12.2019
5712 Clouds 12 997 66 10000 4.05 320 21:55 23.12.2019
5713 Clouds 12 996 62 10000 4.05 320 21:36 23.12.2019
5714 Clouds 13 996 66 10000 4.05 320 21:18 23.12.2019
5715 Clouds 13 996 66 10000 4.05 320 20:56 23.12.2019
5716 Clouds 12 996 87 10000 4.05 320 20:38 23.12.2019
5717 Clouds 12 996 81 10000 8.09 297 20:18 23.12.2019
5718 Clouds 12 996 81 10000 8.06 302 19:55 23.12.2019
5719 Clouds 12 995 81 10000 8.06 302 19:36 23.12.2019
5720 Clouds 12 995 87 10000 8.06 302 19:18 23.12.2019
5721 Clouds 12 995 87 10000 8.06 302 18:55 23.12.2019
5722 Clouds 12 994 76 10000 8.06 302 18:36 23.12.2019
5723 Clouds 12 994 71 10000 1.5 0 18:18 23.12.2019
5724 Clouds 13 994 71 10000 1.5 0 17:55 23.12.2019
5725 Clouds 13 994 81 10000 1.5 0 17:37 23.12.2019
5726 Clouds 13 994 81 10000 4.88 287 17:18 23.12.2019
5727 Clouds 13 994 81 10000 4.88 287 16:42 23.12.2019
5728 Clouds 13 994 81 10000 4.88 287 16:19 23.12.2019
5729 Clouds 14 994 67 10000 1.5 0 15:59 23.12.2019
5730 Clouds 14 994 71 10000 1.5 0 15:38 23.12.2019
5731 Clouds 14 994 71 10000 1.5 0 15:20 23.12.2019
5732 Clouds 14 994 71 10000 1.5 0 14:59 23.12.2019
5733 Clouds 14 994 71 10000 1.5 0 14:41 23.12.2019
5734 Clouds 14 994 71 10000 1.5 0 14:22 23.12.2019
5735 Clouds 14 994 62 10000 1.5 0 13:58 23.12.2019
5736 Clouds 14 995 67 10000 1.5 0 13:40 23.12.2019
5737 Clouds 14 995 67 10000 1.5 0 13:22 23.12.2019
5738 Clouds 14 995 72 10000 1.5 0 12:56 23.12.2019
5739 Clouds 14 995 76 10000 1.5 0 12:37 23.12.2019
5740 Clouds 14 996 76 10000 1.5 0 12:19 23.12.2019
5741 Clouds 15 997 76 10000 1.5 0 11:44 23.12.2019
5742 Clouds 15 997 76 10000 1.5 0 11:26 23.12.2019
5743 Clouds 14 998 76 10000 1.5 0 10:57 23.12.2019
5744 Clouds 14 998 76 10000 1.5 0 10:57 23.12.2019
5745 Clouds 14 998 82 10000 2.95 260 10:39 23.12.2019
5746 Clouds 14 998 82 10000 2.95 260 10:20 23.12.2019
5747 Rain 14 998 82 10000 2.95 260 09:59 23.12.2019
5748 Rain 14 998 93 10000 2.95 260 09:39 23.12.2019
5749 Rain 14 998 93 8000 2.95 260 09:21 23.12.2019
5750 Rain 14 998 93 8000 2.95 260 08:56 23.12.2019
5751 Rain 14 998 81 8000 1.5 0 08:38 23.12.2019
5752 Clouds 14 997 62 10000 6.7 240 08:20 23.12.2019
5753 Drizzle 13 998 76 10000 1.5 0 07:43 23.12.2019
5754 Clouds 13 998 81 10000 1.5 0 07:20 23.12.2019
5755 Clouds 13 998 81 10000 1.5 0 06:53 23.12.2019
5756 Clouds 13 997 81 10000 1.5 0 06:25 23.12.2019
5757 Clouds 13 997 76 10000 2.25 288 05:50 23.12.2019
5758 Clouds 13 997 66 10000 2.25 288 05:27 23.12.2019
5759 Clouds 14 997 71 10000 5.6 245 04:31 23.12.2019
5760 Clouds 13 998 76 10000 5.6 245 03:18 23.12.2019
5761 Clouds 13 998 76 10000 5.6 245 02:40 23.12.2019
5762 Clouds 13 999 93 10000 2.61 253 02:19 23.12.2019
5763 Clouds 13 998 93 10000 2.61 253 01:42 23.12.2019
5764 Rain 13 998 93 10000 3.6 268 01:20 23.12.2019
5765 Rain 13 998 93 10000 3.6 268 00:43 23.12.2019
5766 Clouds 12 998 87 10000 3.6 268 00:22 23.12.2019
5767 Clouds 12 998 87 10000 3.6 268 23:39 22.12.2019
5768 Clouds 12 999 81 10000 1.5 0 23:21 22.12.2019
5769 Clouds 12 999 81 10000 1.5 0 22:58 22.12.2019
5770 Clouds 12 999 81 10000 1.5 0 22:58 22.12.2019
5771 Rain 13 999 81 10000 1.5 0 22:40 22.12.2019
5772 Rain 13 999 81 10000 1.5 0 22:19 22.12.2019
5773 Rain 12 999 71 8000 2.1 220 21:57 22.12.2019
5774 Rain 12 1000 76 7000 4.1 290 21:39 22.12.2019
5775 Rain 12 1000 76 7000 4.1 290 21:21 22.12.2019
5776 Rain 14 1000 76 5000 7.2 290 20:58 22.12.2019
5777 Rain 15 999 93 8000 3.1 180 20:39 22.12.2019
5778 Rain 16 1000 77 6000 3.6 230 20:18 22.12.2019
5779 Rain 16 1000 77 6000 3.6 230 19:56 22.12.2019
5780 Rain 17 1000 77 8000 6.2 170 19:37 22.12.2019
5781 Rain 17 1000 63 8000 5.7 170 19:19 22.12.2019
5782 Rain 17 1001 55 10000 6.2 170 18:41 22.12.2019
5783 Clouds 17 1002 52 10000 6.2 190 18:23 22.12.2019
5784 Clouds 17 1002 52 10000 6.2 190 17:56 22.12.2019
5785 Clouds 17 1002 59 10000 5.1 160 17:37 22.12.2019
5786 Clouds 17 1002 59 10000 5.1 170 17:18 22.12.2019
5787 Clouds 17 1002 59 10000 5.1 170 16:57 22.12.2019
5788 Clouds 17 1003 63 10000 6.2 190 16:38 22.12.2019
5789 Clouds 17 1003 63 10000 6.2 190 16:19 22.12.2019
5790 Clouds 17 1003 55 10000 6.2 190 15:56 22.12.2019
5791 Rain 17 1003 63 10000 3.6 140 15:37 22.12.2019
5792 Rain 17 1003 63 10000 3.6 140 15:37 22.12.2019
5793 Clouds 17 1004 68 10000 3.6 150 15:19 22.12.2019
5794 Rain 17 1004 68 10000 3.6 150 14:55 22.12.2019
5795 Rain 17 1004 59 10000 3.1 170 14:36 22.12.2019
5796 Rain 18 1004 63 10000 3.6 160 14:18 22.12.2019
5797 Clouds 18 1004 63 10000 3.6 160 13:55 22.12.2019
5798 Clouds 18 1005 63 10000 2.6 140 13:36 22.12.2019
5799 Clouds 18 1006 68 10000 3.1 130 13:18 22.12.2019
5800 Clouds 18 1006 68 10000 3.1 130 12:55 22.12.2019
5801 Clouds 18 1006 68 10000 3.1 150 12:37 22.12.2019
5802 Clouds 18 1007 63 10000 3.1 170 12:18 22.12.2019
5803 Clouds 18 1007 63 10000 3.1 170 11:54 22.12.2019
5804 Clouds 18 1008 63 10000 3.1 160 11:36 22.12.2019
5805 Clouds 18 1008 63 10000 3.1 170 11:18 22.12.2019
5806 Clouds 18 1008 63 10000 3.1 170 10:54 22.12.2019
5807 Clouds 18 1009 63 10000 2.1 150 10:36 22.12.2019
5808 Clouds 18 1009 59 10000 2.1 180 10:18 22.12.2019
5809 Clouds 17 1010 67 10000 5.7 197 09:40 22.12.2019
5810 Clouds 17 1010 67 10000 5.7 197 09:22 22.12.2019
5811 Clouds 17 1010 72 10000 1.5 0 08:59 22.12.2019
5812 Clouds 17 1010 67 10000 5.7 197 08:38 22.12.2019
5813 Clouds 17 1011 63 10000 5.31 173 08:18 22.12.2019
5814 Clouds 16 1011 63 10000 5.31 173 07:38 22.12.2019
5815 Clouds 15 1010 55 10000 1.5 0 07:20 22.12.2019
5816 Clouds 15 1011 67 10000 1.5 0 06:40 22.12.2019
5817 Clouds 16 1011 63 10000 2.6 200 05:54 22.12.2019
5818 Clouds 15 1011 59 10000 2.6 210 05:21 22.12.2019
5819 Clouds 15 1011 59 10000 4.1 220 04:29 22.12.2019
5820 Clouds 16 1011 55 10000 3.6 200 03:53 22.12.2019
5821 Clouds 16 1011 55 10000 5.1 220 02:40 22.12.2019
5822 Clouds 16 1012 55 10000 2.6 180 01:47 22.12.2019
5823 Clouds 16 1012 55 10000 2.6 180 01:28 22.12.2019
5824 Clouds 16 1012 59 10000 2.6 210 00:47 22.12.2019
5825 Clouds 16 1012 59 10000 2.6 210 00:23 22.12.2019
5826 Clouds 16 1012 63 10000 4.6 180 23:56 21.12.2019
5827 Clouds 16 1013 76 10000 5.08 193 23:38 21.12.2019
5828 Clouds 15 1013 82 10000 3.34 212 23:19 21.12.2019
5829 Clouds 15 1013 87 10000 3.34 212 22:41 21.12.2019
5830 Clouds 15 1013 87 10000 3.34 212 22:19 21.12.2019
5831 Clouds 15 1013 87 10000 3.34 212 21:57 21.12.2019
5832 Clouds 15 1013 87 10000 3.34 212 21:38 21.12.2019
5833 Clouds 15 1013 87 10000 3.34 212 21:19 21.12.2019
5834 Clouds 15 1014 93 10000 3.34 212 20:59 21.12.2019
5835 Clouds 15 1013 93 10000 3.34 212 20:39 21.12.2019
5836 Clouds 15 1013 93 10000 3.14 213 20:21 21.12.2019
5837 Clouds 15 1014 93 10000 3.14 213 19:58 21.12.2019
5838 Clouds 15 1014 87 10000 3.14 213 19:40 21.12.2019
5839 Clouds 15 1014 87 10000 3.14 213 19:19 21.12.2019
5840 Clouds 15 1014 82 10000 3.14 213 18:45 21.12.2019
5841 Clouds 15 1014 82 10000 3.14 213 18:24 21.12.2019
5842 Clouds 15 1014 82 10000 3.14 213 17:58 21.12.2019
5843 Clouds 15 1014 82 10000 3.14 213 17:39 21.12.2019
5844 Clouds 16 1014 82 10000 3.27 225 17:21 21.12.2019
5845 Clouds 16 1013 72 10000 3.27 225 16:59 21.12.2019
5846 Clouds 16 1014 72 10000 3.27 225 16:41 21.12.2019
5847 Clouds 16 1014 72 10000 3.27 225 16:41 21.12.2019
5848 Clouds 16 1013 67 10000 1 0 16:19 21.12.2019
5849 Clouds 16 1013 67 10000 1 0 16:19 21.12.2019
5850 Clouds 16 1013 67 10000 1 0 15:57 21.12.2019
5851 Clouds 17 1014 67 10000 1 0 15:38 21.12.2019
5852 Clouds 17 1014 67 10000 1 0 15:38 21.12.2019
5853 Clouds 17 1014 72 10000 1 0 15:19 21.12.2019
5854 Clouds 17 1014 72 10000 1 0 14:57 21.12.2019
5855 Clouds 17 1014 63 10000 1.5 0 14:38 21.12.2019
5856 Clouds 18 1014 59 10000 1.5 0 14:18 21.12.2019
5857 Clouds 18 1014 59 10000 1.5 0 13:55 21.12.2019
5858 Clouds 18 1014 59 10000 2.6 210 13:37 21.12.2019
5859 Clouds 18 1015 56 10000 2.1 210 13:18 21.12.2019
5860 Clouds 18 1015 56 10000 2.1 210 12:54 21.12.2019
5861 Clouds 18 1015 55 10000 2.1 230 12:36 21.12.2019
5862 Clouds 17 1016 63 10000 2.1 210 12:18 21.12.2019
5863 Clouds 17 1016 68 10000 2.1 190 11:42 21.12.2019
5864 Clouds 17 1016 68 10000 2.1 190 11:24 21.12.2019
5865 Clouds 17 1017 68 10000 2.1 200 10:56 21.12.2019
5866 Clouds 17 1017 72 9000 1 0 10:38 21.12.2019
5867 Clouds 17 1017 77 9000 3.64 265 10:19 21.12.2019
5868 Clouds 17 1017 77 9000 1 0 09:43 21.12.2019
5869 Clouds 16 1017 82 9000 3.64 265 09:21 21.12.2019
5870 Clouds 16 1017 82 9000 3.64 265 08:57 21.12.2019
5871 Clouds 15 1017 87 9000 3.64 265 08:37 21.12.2019
5872 Clouds 14 1017 87 9000 2.74 292 08:19 21.12.2019
5873 Clouds 13 1018 93 10000 2.74 292 07:44 21.12.2019
5874 Clouds 13 1018 93 10000 2.74 292 07:22 21.12.2019
5875 Clouds 12 1018 93 10000 2.74 292 06:44 21.12.2019
5876 Clouds 12 1018 93 10000 2.74 292 06:25 21.12.2019
5877 Clouds 12 1017 100 10000 1.5 0 05:51 21.12.2019
5878 Clouds 12 1017 100 10000 3.28 295 04:58 21.12.2019
5879 Clouds 12 1017 93 10000 2.1 330 03:57 21.12.2019
5880 Clouds 12 1018 93 10000 3.28 295 02:53 21.12.2019
5881 Rain 13 1018 93 10000 3.49 294 01:59 21.12.2019
5882 Rain 13 1020 82 10000 1 0 01:38 21.12.2019
5883 Rain 13 1018 93 10000 1.5 0 01:20 21.12.2019
5884 Clouds 13 1018 93 10000 3.21 292 00:37 21.12.2019
5885 Clouds 14 1019 93 10000 1.5 0 00:18 21.12.2019
5886 Clouds 14 1019 93 10000 1.5 0 23:38 20.12.2019
5887 Clouds 14 1019 93 10000 2.21 283 23:19 20.12.2019
5888 Clouds 14 1019 93 10000 1.5 0 22:43 20.12.2019
5889 Clouds 14 1019 93 10000 1.5 0 22:21 20.12.2019
5890 Clouds 14 1019 93 10000 1.5 0 21:59 20.12.2019
5891 Clouds 14 1019 93 10000 2.21 283 21:40 20.12.2019
5892 Clouds 14 1019 93 10000 2.21 283 21:20 20.12.2019
5893 Clouds 15 1019 93 10000 2.21 283 20:41 20.12.2019
5894 Clouds 15 1019 93 10000 0.37 342 20:22 20.12.2019
5895 Clouds 15 1019 93 10000 1.5 0 19:59 20.12.2019
5896 Clouds 15 1020 82 10000 1.5 0 19:41 20.12.2019
5897 Clouds 16 1020 82 10000 1.5 0 19:20 20.12.2019
5898 Clouds 16 1020 82 10000 1.5 0 18:56 20.12.2019
5899 Clouds 16 1020 82 10000 1.5 0 18:56 20.12.2019
5900 Clouds 16 1020 82 10000 1.5 0 18:56 20.12.2019
5901 Clouds 16 1019 82 10000 1.5 0 18:38 20.12.2019
5902 Clouds 16 1020 82 10000 1.5 0 18:20 20.12.2019
5903 Clouds 16 1020 82 10000 1.5 0 17:54 20.12.2019
5904 Clouds 16 1019 77 10000 1.5 170 17:36 20.12.2019
5905 Clouds 16 1019 77 10000 1.5 170 17:18 20.12.2019
5906 Clouds 16 1019 77 10000 4.1 210 16:40 20.12.2019
5907 Clouds 17 1019 72 10000 3.6 190 16:20 20.12.2019
5908 Clouds 17 1019 72 10000 3.6 190 16:20 20.12.2019
5909 Clouds 17 1019 72 10000 1.5 0 15:57 20.12.2019
5910 Clouds 18 1019 72 10000 4.1 180 15:39 20.12.2019
5911 Clouds 18 1019 72 10000 4.1 180 15:20 20.12.2019
5912 Clouds 18 1020 72 10000 3.6 200 14:59 20.12.2019
5913 Clouds 18 1020 72 10000 3.6 200 14:40 20.12.2019
5914 Clouds 18 1019 72 10000 4.1 220 14:22 20.12.2019
5915 Clouds 18 1019 68 10000 4.6 190 13:55 20.12.2019
5916 Clouds 18 1020 72 10000 4.1 210 13:36 20.12.2019
5917 Clouds 18 1020 72 10000 4.1 210 13:18 20.12.2019
5918 Clouds 19 1020 72 10000 4.1 230 12:41 20.12.2019
5919 Clouds 19 1021 68 10000 3.6 220 12:19 20.12.2019
5920 Clouds 18 1021 72 10000 3.1 210 11:59 20.12.2019
5921 Clouds 18 1022 72 10000 2.6 210 11:40 20.12.2019
5922 Clouds 18 1022 72 10000 2.6 210 11:21 20.12.2019
5923 Clouds 17 1022 72 9000 1.5 0 10:59 20.12.2019
5924 Clouds 17 1022 72 9000 1.5 0 10:41 20.12.2019
5925 Clouds 17 1023 72 9000 1.64 211 10:21 20.12.2019
5926 Clouds 16 1023 77 8000 1.64 211 09:58 20.12.2019
5927 Clouds 16 1023 77 8000 1.64 211 09:40 20.12.2019
5928 Clouds 16 1023 87 8000 1.64 211 09:20 20.12.2019
5929 Clouds 15 1023 100 8000 3.1 360 08:44 20.12.2019
5930 Clouds 15 1023 100 8000 1.5 0 08:26 20.12.2019
5931 Clouds 14 1023 100 10000 1.5 0 07:59 20.12.2019
5932 Clouds 14 1023 100 10000 1.5 0 07:41 20.12.2019
5933 Clouds 14 1023 100 10000 1.95 227 07:19 20.12.2019
5934 Clouds 14 1023 100 10000 1.95 227 06:52 20.12.2019
5935 Clouds 13 1023 100 10000 1.5 0 06:33 20.12.2019
5936 Clouds 13 1023 93 10000 1.95 227 05:55 20.12.2019
5937 Clouds 13 1023 93 10000 1.95 227 05:36 20.12.2019
5938 Clouds 13 1023 93 10000 2.46 165 04:33 20.12.2019
5939 Clouds 14 1024 100 10000 2.46 165 03:30 20.12.2019
5940 Clouds 14 1024 100 10000 2.46 165 02:44 20.12.2019
5941 Clouds 14 1024 93 10000 2.32 174 01:52 20.12.2019
5942 Clouds 14 1024 93 10000 2.32 174 01:33 20.12.2019
5943 Clouds 14 1024 93 10000 2.09 170 00:48 20.12.2019
5944 Clouds 14 1024 87 10000 2.09 170 00:29 20.12.2019
5945 Clouds 14 1025 93 10000 2.09 170 23:54 19.12.2019
5946 Clouds 14 1025 93 10000 2.09 170 23:36 19.12.2019
5947 Clouds 14 1025 93 10000 2.16 163 23:18 19.12.2019
5948 Clouds 15 1025 87 10000 2.16 163 22:37 19.12.2019
5949 Clouds 15 1025 87 10000 2.16 163 22:19 19.12.2019
5950 Clouds 15 1026 87 10000 2.16 163 21:56 19.12.2019
5951 Clouds 15 1026 82 10000 2.16 163 21:37 19.12.2019
5952 Clouds 15 1026 82 10000 2.16 163 21:18 19.12.2019
5953 Clouds 15 1026 82 10000 2.16 163 20:56 19.12.2019
5954 Clouds 15 1026 82 10000 2.16 163 20:36 19.12.2019
5955 Clouds 15 1026 82 10000 2.72 151 20:18 19.12.2019
5956 Clouds 15 1026 82 10000 2.72 151 19:57 19.12.2019
5957 Clouds 15 1026 82 10000 2.72 151 19:39 19.12.2019
5958 Clouds 15 1026 87 10000 2.72 151 19:19 19.12.2019
5959 Clouds 15 1026 87 10000 2.72 151 18:41 19.12.2019
5960 Clouds 15 1026 77 10000 2.72 151 18:23 19.12.2019
5961 Clouds 15 1026 77 10000 2.72 151 17:58 19.12.2019
5962 Clouds 15 1026 77 10000 2.72 151 17:40 19.12.2019
5963 Clouds 15 1026 82 10000 3.25 152 17:19 19.12.2019
5964 Clouds 15 1026 82 10000 3.25 152 17:19 19.12.2019
5965 Clouds 15 1026 82 10000 3.25 152 16:59 19.12.2019
5966 Clouds 15 1026 82 10000 3.25 152 16:41 19.12.2019
5967 Clouds 16 1026 82 10000 3.25 152 16:22 19.12.2019
5968 Clouds 16 1026 77 10000 3.25 152 15:59 19.12.2019
5969 Clouds 16 1026 77 10000 3.25 152 15:40 19.12.2019
5970 Clouds 16 1026 77 10000 3.25 152 15:20 19.12.2019
5971 Clouds 16 1026 77 10000 3.25 152 14:59 19.12.2019
5972 Clouds 16 1026 77 10000 3.25 152 14:41 19.12.2019
5973 Clouds 16 1026 77 10000 3.25 152 14:41 19.12.2019
5974 Clouds 17 1026 77 10000 3.03 162 14:19 19.12.2019
5975 Clouds 17 1026 72 10000 3.03 162 13:57 19.12.2019
5976 Clouds 17 1027 72 10000 3.37 158 13:38 19.12.2019
5977 Clouds 17 1027 72 10000 3.37 158 13:19 19.12.2019
5978 Clouds 16 1027 72 10000 3.37 158 12:55 19.12.2019
5979 Clouds 16 1027 72 10000 3.37 158 12:37 19.12.2019
5980 Clouds 16 1027 72 10000 3.37 158 12:19 19.12.2019
5981 Clouds 16 1028 72 10000 3.37 158 11:57 19.12.2019
5982 Clouds 16 1028 72 10000 3.37 158 11:39 19.12.2019
5983 Clouds 16 1028 72 10000 3.07 159 11:18 19.12.2019
5984 Clouds 16 1028 77 10000 3.07 159 10:55 19.12.2019
5985 Clouds 15 1028 82 10000 3.07 159 10:37 19.12.2019
5986 Clouds 15 1028 82 10000 3.07 159 10:18 19.12.2019
5987 Clouds 15 1028 77 10000 3.07 159 09:40 19.12.2019
5988 Clouds 15 1028 82 10000 3.07 159 09:40 19.12.2019
5989 Clouds 15 1028 82 10000 3.07 159 09:21 19.12.2019
5990 Clouds 14 1028 82 9000 3.07 159 08:58 19.12.2019
5991 Clouds 14 1028 87 8000 3.07 159 08:40 19.12.2019
5992 Clouds 13 1028 87 8000 1.77 82 08:19 19.12.2019
5993 Clouds 13 1028 87 10000 1.77 82 07:57 19.12.2019
5994 Clouds 12 1027 87 10000 1.77 82 07:38 19.12.2019
5995 Clouds 12 1027 87 10000 1.77 82 07:19 19.12.2019
5996 Clouds 12 1027 93 10000 1.77 82 06:50 19.12.2019
5997 Clouds 11 1027 87 10000 1.77 82 06:29 19.12.2019
5998 Clouds 12 1027 93 10000 1.77 82 05:55 19.12.2019
5999 Clouds 12 1027 93 10000 1.77 82 05:36 19.12.2019
6000 Clouds 12 1027 87 10000 1.36 56 04:52 19.12.2019
6001 Clouds 12 1027 93 10000 1.36 56 03:21 19.12.2019
6002 Clouds 12 1027 87 10000 1.36 44 02:22 19.12.2019
6003 Clouds 11 1027 93 10000 1.26 42 01:22 19.12.2019
6004 Clouds 11 1027 93 10000 1.26 42 00:43 19.12.2019
6005 Clouds 11 1027 93 10000 1.26 42 00:24 19.12.2019
6006 Mist 12 1029 100 5000 1.26 42 23:57 18.12.2019
6007 Clouds 12 1027 93 10000 1.26 42 23:38 18.12.2019
6008 Clouds 12 1027 93 10000 0.72 73 23:18 18.12.2019
6009 Clouds 12 1028 93 10000 0.72 73 22:55 18.12.2019
6010 Clouds 12 1028 93 10000 0.72 73 22:37 18.12.2019
6011 Clouds 12 1028 93 10000 0.72 73 22:19 18.12.2019
6012 Clouds 12 1028 87 10000 0.72 73 21:56 18.12.2019
6013 Clouds 12 1028 87 10000 0.72 73 21:56 18.12.2019
6014 Rain 12 1027 87 10000 0.72 73 21:37 18.12.2019
6015 Rain 12 1027 87 10000 0.72 73 21:19 18.12.2019
6016 Rain 12 1027 93 10000 0.72 73 20:55 18.12.2019
6017 Rain 12 1027 93 10000 0.72 73 20:55 18.12.2019
6018 Rain 12 1027 87 10000 0.72 73 20:37 18.12.2019
6019 Clouds 12 1027 87 10000 0.38 143 20:19 18.12.2019
6020 Clouds 12 1027 93 10000 0.38 143 19:55 18.12.2019
6021 Clouds 12 1027 93 10000 0.38 143 19:37 18.12.2019
6022 Clouds 12 1027 93 10000 0.38 143 19:18 18.12.2019
6023 Clouds 12 1027 93 10000 0.38 143 19:18 18.12.2019
6024 Clouds 13 1027 87 10000 0.38 143 18:44 18.12.2019
6025 Clouds 13 1027 87 10000 0.38 143 18:25 18.12.2019
6026 Clouds 13 1027 87 10000 0.38 143 18:25 18.12.2019
6027 Clouds 13 1026 93 10000 0.38 143 17:57 18.12.2019
6028 Clouds 13 1026 93 10000 0.38 143 17:39 18.12.2019
6029 Clouds 14 1026 93 10000 1.19 166 17:19 18.12.2019
6030 Clouds 14 1026 82 10000 1.19 166 16:56 18.12.2019
6031 Clouds 14 1026 82 10000 1.19 166 16:38 18.12.2019
6032 Clouds 15 1026 77 10000 1.19 166 16:20 18.12.2019
6033 Clouds 16 1026 77 10000 1.19 166 15:55 18.12.2019
6034 Clouds 16 1026 72 10000 1.19 166 15:37 18.12.2019
6035 Clouds 17 1026 72 10000 1.5 0 15:18 18.12.2019
6036 Clouds 17 1026 68 10000 1.5 0 14:42 18.12.2019
6037 Clouds 17 1026 72 10000 1.77 178 14:22 18.12.2019
6038 Clouds 17 1026 72 10000 1.77 178 13:57 18.12.2019
6039 Clouds 17 1026 68 10000 1.5 0 13:38 18.12.2019
6040 Clouds 17 1026 63 10000 1.85 175 13:20 18.12.2019
6041 Clouds 17 1026 63 10000 1.85 175 12:57 18.12.2019
6042 Clouds 17 1026 63 10000 1.85 175 12:38 18.12.2019
6043 Clouds 17 1026 72 10000 1.85 175 12:19 18.12.2019
6044 Clouds 17 1027 72 10000 1.85 175 11:55 18.12.2019
6045 Clouds 17 1026 72 10000 1.85 175 11:55 18.12.2019
6046 Clouds 17 1027 72 10000 1.85 175 11:37 18.12.2019
6047 Clouds 17 1027 67 10000 0.05 192 11:19 18.12.2019
6048 Clouds 16 1027 67 10000 0.05 192 10:55 18.12.2019
6049 Clouds 16 1027 67 10000 0.05 192 10:37 18.12.2019
6050 Clouds 16 1027 72 10000 0.05 192 10:19 18.12.2019
6051 Clouds 16 1027 72 10000 0.05 192 09:50 18.12.2019
6052 Clouds 16 1027 72 10000 0.05 192 09:50 18.12.2019
6053 Clouds 15 1027 76 10000 0.05 192 09:18 18.12.2019
6054 Clouds 13 1027 81 10000 0.05 192 08:41 18.12.2019
6055 Clouds 12 1027 81 10000 1.35 333 08:22 18.12.2019
6056 Clouds 11 1027 93 10000 1.48 333 07:43 18.12.2019
6057 Clouds 11 1027 93 10000 1.48 333 07:23 18.12.2019
6058 Clouds 10 1026 100 10000 1.48 333 06:56 18.12.2019
6059 Clouds 10 1026 93 10000 1.48 333 06:27 18.12.2019
6060 Clouds 10 1026 93 10000 2.1 330 05:54 18.12.2019
6061 Clouds 10 1026 93 10000 1.5 0 04:59 18.12.2019
6062 Clouds 11 1026 93 10000 2.1 330 02:55 18.12.2019
6063 Clouds 10 1026 93 10000 2.1 330 02:37 18.12.2019
6064 Rain 11 1026 100 10000 1.52 348 02:18 18.12.2019
6065 Rain 11 1026 100 10000 1.5 0 01:41 18.12.2019
6066 Clouds 11 1026 100 10000 1.5 0 01:22 18.12.2019
6067 Clouds 11 1025 93 10000 1.5 0 00:41 18.12.2019
6068 Clouds 11 1025 93 10000 1.5 0 00:23 18.12.2019
6069 Clouds 11 1025 93 10000 1.5 0 23:57 17.12.2019
6070 Clouds 11 1025 93 10000 2.1 330 23:39 17.12.2019
6071 Clouds 11 1026 93 10000 1.5 0 23:19 17.12.2019
6072 Clouds 11 1026 93 10000 1.5 0 22:56 17.12.2019
6073 Clouds 11 1026 87 10000 1.5 320 22:38 17.12.2019
6074 Clouds 11 1026 93 10000 2.6 330 22:19 17.12.2019
6075 Clouds 11 1026 93 10000 2.6 330 21:55 17.12.2019
6076 Clouds 12 1026 93 10000 2.6 340 21:37 17.12.2019
6077 Clear 12 1026 87 10000 1.29 328 21:19 17.12.2019
6078 Clear 12 1026 87 10000 1.29 328 20:57 17.12.2019
6079 Clear 12 1025 93 10000 1.33 324 20:38 17.12.2019
6080 Clear 12 1025 87 10000 0.68 268 20:18 17.12.2019
6081 Clear 12 1025 87 10000 0.7 271 19:56 17.12.2019
6082 Rain 12 1025 87 10000 0.7 271 19:38 17.12.2019
6083 Rain 13 1025 81 10000 1.5 0 19:18 17.12.2019
6084 Rain 13 1025 81 10000 1.5 0 18:54 17.12.2019
6085 Clear 13 1025 87 10000 1.5 0 18:36 17.12.2019
6086 Clear 13 1025 82 10000 1.5 0 18:18 17.12.2019
6087 Clear 14 1025 87 10000 1.5 0 17:42 17.12.2019
6088 Clear 14 1025 87 10000 1.5 0 17:42 17.12.2019
6089 Clear 14 1024 82 10000 1.61 207 17:21 17.12.2019
6090 Clear 14 1024 82 10000 1.61 207 16:57 17.12.2019
6091 Clear 15 1024 77 10000 1.5 0 16:38 17.12.2019
6092 Clouds 16 1024 77 10000 1.61 207 16:19 17.12.2019
6093 Clouds 16 1024 77 10000 1.61 207 15:59 17.12.2019
6094 Clouds 17 1024 72 10000 1.61 207 15:37 17.12.2019
6095 Clouds 17 1024 68 10000 1.61 207 15:19 17.12.2019
6096 Clouds 17 1024 68 10000 1.61 207 14:56 17.12.2019
6097 Clouds 17 1024 68 10000 1.61 207 14:38 17.12.2019
6098 Clouds 18 1024 68 10000 1.5 0 14:19 17.12.2019
6099 Clouds 18 1024 68 10000 1.5 0 13:56 17.12.2019
6100 Clear 18 1024 68 10000 2.1 160 13:38 17.12.2019
6101 Clouds 18 1024 68 10000 1.5 0 13:19 17.12.2019
6102 Clouds 18 1024 68 10000 1.5 0 12:56 17.12.2019
6103 Clear 17 1024 63 10000 1.5 0 12:37 17.12.2019
6104 Clear 17 1024 63 10000 1.5 0 12:18 17.12.2019
6105 Clear 17 1024 63 10000 1.5 0 11:56 17.12.2019
6106 Clear 17 1025 63 10000 1.5 0 11:36 17.12.2019
6107 Clear 17 1025 67 10000 0.45 249 11:18 17.12.2019
6108 Clear 17 1025 67 10000 0.45 249 11:18 17.12.2019
6109 Clear 17 1025 67 10000 0.45 249 11:18 17.12.2019
6110 Clear 17 1025 72 10000 0.45 249 10:55 17.12.2019
6111 Clear 16 1025 72 10000 0.45 249 10:37 17.12.2019
6112 Clear 16 1025 72 10000 0.45 249 10:18 17.12.2019
6113 Clear 16 1025 77 10000 0.45 249 09:42 17.12.2019
6114 Clear 15 1025 76 10000 0.45 249 09:21 17.12.2019
6115 Clear 15 1025 76 10000 0.45 249 08:58 17.12.2019
6116 Clear 14 1025 87 10000 0.45 249 08:40 17.12.2019
6117 Clear 12 1025 93 10000 1.93 336 08:21 17.12.2019
6118 Clear 12 1025 93 10000 1.93 336 07:58 17.12.2019
6119 Clear 12 1025 93 10000 1.93 336 07:39 17.12.2019
6120 Rain 11 1025 93 10000 1.93 336 07:20 17.12.2019
6121 Clouds 10 1024 100 10000 1.93 336 06:42 17.12.2019
6122 Clouds 10 1024 100 10000 1.93 336 06:24 17.12.2019
6123 Clouds 11 1024 93 10000 1.93 336 05:41 17.12.2019
6124 Clouds 10 1024 100 10000 2.17 328 04:51 17.12.2019
6125 Clouds 11 1024 100 10000 2.17 328 03:50 17.12.2019
6126 Clouds 11 1024 93 10000 2.17 328 02:25 17.12.2019
6127 Clouds 12 1024 100 10000 1.98 329 01:21 17.12.2019
6128 Clouds 12 1024 100 10000 2.04 327 00:47 17.12.2019
6129 Clouds 12 1024 93 10000 2.04 327 00:21 17.12.2019
6130 Clouds 12 1024 93 10000 2.04 327 00:21 17.12.2019
6131 Clouds 12 1024 93 10000 2.04 327 00:21 17.12.2019
6132 Rain 12 1024 93 10000 2.04 327 23:57 16.12.2019
6133 Rain 12 1024 100 10000 2.04 327 23:38 16.12.2019
6134 Clouds 12 1025 93 10000 1.59 308 23:18 16.12.2019
6135 Clouds 13 1025 93 10000 1.59 308 22:54 16.12.2019
6136 Clouds 13 1025 93 10000 1.59 308 22:36 16.12.2019
6137 Clouds 13 1025 93 10000 1.59 308 22:18 16.12.2019
6138 Clouds 13 1025 93 10000 1.59 308 21:54 16.12.2019
6139 Clouds 13 1025 93 10000 1.59 308 21:36 16.12.2019
6140 Clouds 13 1025 93 10000 1.59 308 21:18 16.12.2019
6141 Clouds 13 1025 93 10000 1.59 308 20:54 16.12.2019
6142 Clouds 13 1026 87 10000 1.5 200 20:36 16.12.2019
6143 Clouds 13 1025 93 10000 0.58 257 20:18 16.12.2019
6144 Clouds 13 1025 93 10000 0.58 257 19:54 16.12.2019
6145 Clouds 13 1025 93 10000 0.58 257 19:36 16.12.2019
6146 Clouds 13 1025 93 10000 1 0 19:18 16.12.2019
6147 Clouds 13 1025 100 10000 0.58 257 18:42 16.12.2019
6148 Clouds 13 1024 93 10000 0.58 257 18:20 16.12.2019
6149 Clouds 14 1024 93 10000 0.58 257 17:59 16.12.2019
6150 Clouds 14 1024 93 10000 0.58 257 17:40 16.12.2019
6151 Clouds 14 1024 93 10000 0.58 257 17:40 16.12.2019
6152 Clouds 14 1024 87 10000 1.49 199 17:21 16.12.2019
6153 Clouds 15 1024 87 10000 1.49 199 16:58 16.12.2019
6154 Clouds 15 1024 87 10000 1.49 199 16:39 16.12.2019
6155 Clouds 15 1024 87 10000 1.49 199 16:39 16.12.2019
6156 Clouds 15 1024 87 10000 1.49 199 16:20 16.12.2019
6157 Clouds 16 1024 82 10000 1.5 170 15:59 16.12.2019
6158 Clouds 17 1024 68 10000 1.49 199 15:39 16.12.2019
6159 Clouds 17 1024 68 10000 1.49 199 15:39 16.12.2019
6160 Clouds 17 1024 68 10000 1.5 0 15:21 16.12.2019
6161 Clouds 17 1024 68 10000 1.5 0 14:58 16.12.2019
6162 Clouds 17 1024 63 10000 1.5 0 14:38 16.12.2019
6163 Clouds 17 1024 68 10000 1.5 0 14:20 16.12.2019
6164 Clouds 18 1024 68 10000 1.5 0 13:58 16.12.2019
6165 Clouds 18 1024 68 10000 1.5 0 13:38 16.12.2019
6166 Clouds 17 1024 68 10000 1.5 140 13:20 16.12.2019
6167 Clouds 18 1024 68 10000 1.5 140 12:58 16.12.2019
6168 Clouds 18 1025 68 10000 1.5 0 12:39 16.12.2019
6169 Clouds 17 1025 68 10000 1.55 183 12:20 16.12.2019
6170 Clouds 17 1025 68 10000 1.56 187 11:59 16.12.2019
6171 Clouds 17 1025 72 10000 1.55 183 11:41 16.12.2019
6172 Clouds 17 1025 72 10000 0.59 112 11:21 16.12.2019
6173 Clouds 17 1025 72 10000 0.55 93 10:58 16.12.2019
6174 Clouds 16 1026 72 10000 0.55 93 10:40 16.12.2019
6175 Clouds 16 1026 67 10000 0.55 93 10:20 16.12.2019
6176 Clouds 16 1026 72 10000 0.59 112 09:46 16.12.2019
6177 Clouds 15 1026 72 10000 0.55 93 09:28 16.12.2019
6178 Clouds 15 1026 76 10000 0.59 112 08:58 16.12.2019
6179 Clouds 14 1026 81 10000 0.59 112 08:38 16.12.2019
6180 Clouds 12 1025 87 10000 0.67 37 08:18 16.12.2019
6181 Clouds 12 1025 87 10000 0.67 49 07:47 16.12.2019
6182 Clouds 11 1025 87 10000 0.67 49 07:29 16.12.2019
6183 Clouds 10 1025 100 10000 0.67 49 06:46 16.12.2019
6184 Clouds 10 1025 93 10000 0.67 49 06:26 16.12.2019
6185 Clouds 10 1025 93 10000 0.67 49 05:56 16.12.2019
6186 Clouds 10 1025 93 10000 0.67 49 05:35 16.12.2019
6187 Clouds 10 1024 93 10000 0.46 44 04:33 16.12.2019
6188 Clear 11 1024 93 10000 0.46 44 02:49 16.12.2019
6189 Clear 11 1024 93 10000 0.26 111 01:45 16.12.2019
6190 Clear 11 1024 93 10000 0.25 124 00:55 16.12.2019
6191 Clear 11 1023 87 10000 0.25 124 00:36 16.12.2019
6192 Clouds 11 1023 87 10000 0.25 124 00:18 16.12.2019
6193 Clouds 11 1024 93 10000 0.25 124 23:40 15.12.2019
6194 Clouds 11 1023 87 10000 0.75 20 23:21 15.12.2019
6195 Clouds 11 1023 87 10000 0.75 20 22:56 15.12.2019
6196 Clouds 11 1023 87 10000 0.75 20 22:38 15.12.2019
6197 Clouds 11 1023 81 10000 0.75 20 22:18 15.12.2019
6198 Clouds 12 1023 81 10000 0.75 20 21:57 15.12.2019
6199 Clouds 12 1023 87 10000 0.75 20 21:38 15.12.2019
6200 Clouds 12 1023 87 10000 0.75 20 21:19 15.12.2019
6201 Clouds 12 1023 87 10000 0.75 20 20:57 15.12.2019
6202 Clouds 12 1023 87 10000 0.75 20 20:38 15.12.2019
6203 Clouds 12 1022 87 10000 1.68 25 20:19 15.12.2019
6204 Clouds 12 1022 87 10000 1.46 27 19:57 15.12.2019
6205 Clouds 12 1022 81 10000 1.68 25 19:39 15.12.2019
6206 Clouds 12 1022 81 10000 1.68 25 19:39 15.12.2019
6207 Clouds 12 1022 81 10000 1.68 25 19:19 15.12.2019
6208 Clouds 13 1022 81 10000 1.46 27 18:57 15.12.2019
6209 Clouds 13 1021 87 10000 1.68 25 18:38 15.12.2019
6210 Clouds 13 1021 87 10000 1.68 25 18:38 15.12.2019
6211 Clouds 13 1021 87 10000 1.5 0 18:18 15.12.2019
6212 Clouds 13 1021 87 10000 1.5 0 17:56 15.12.2019
6213 Clouds 14 1021 82 10000 1.5 0 17:37 15.12.2019
6214 Clouds 14 1020 82 10000 1.95 8 17:19 15.12.2019
6215 Clouds 14 1020 82 10000 1.95 8 16:57 15.12.2019
6216 Clouds 15 1020 72 10000 1.95 8 16:39 15.12.2019
6217 Clouds 16 1020 67 10000 1.95 8 16:20 15.12.2019
6218 Clouds 16 1019 63 10000 1.5 0 15:55 15.12.2019
6219 Clouds 16 1019 63 10000 1.5 0 15:37 15.12.2019
6220 Clouds 17 1019 59 10000 2.1 350 15:18 15.12.2019
6221 Clouds 16 1019 63 10000 2.6 360 14:55 15.12.2019
6222 Clouds 16 1019 63 10000 2.6 360 14:55 15.12.2019
6223 Clouds 17 1019 63 10000 2.6 360 14:36 15.12.2019
6224 Clouds 17 1019 63 10000 2.1 340 14:18 15.12.2019
6225 Clouds 17 1019 63 10000 2.1 340 13:55 15.12.2019
6226 Clouds 17 1019 67 10000 2.1 330 13:36 15.12.2019
6227 Rain 17 1018 67 10000 2.1 350 13:18 15.12.2019
6228 Rain 17 1018 67 10000 2.1 350 13:18 15.12.2019
6229 Rain 17 1018 67 10000 2.1 350 12:56 15.12.2019
6230 Rain 17 1018 67 10000 2.1 0 12:37 15.12.2019
6231 Clouds 17 1018 67 10000 3.1 340 12:19 15.12.2019
6232 Clouds 17 1018 67 10000 3.1 350 11:38 15.12.2019
6233 Clouds 17 1018 63 10000 3.1 350 11:20 15.12.2019
6234 Clouds 16 1018 63 10000 3.1 350 10:58 15.12.2019
6235 Clouds 16 1017 67 10000 3.1 350 10:40 15.12.2019
6236 Clouds 16 1017 72 10000 2.6 340 10:20 15.12.2019
6237 Clouds 16 1017 72 10000 2.6 340 09:59 15.12.2019
6238 Clouds 15 1017 77 10000 2.6 330 09:38 15.12.2019
6239 Clouds 15 1016 77 10000 2.1 330 09:20 15.12.2019
6240 Clouds 15 1016 77 10000 2.1 330 08:55 15.12.2019
6241 Clouds 14 1015 77 10000 2.6 310 08:37 15.12.2019
6242 Clouds 13 1015 77 10000 1.5 0 08:19 15.12.2019
6243 Rain 13 1015 77 10000 1.5 0 07:53 15.12.2019
6244 Rain 12 1014 77 10000 2.1 310 07:32 15.12.2019
6245 Clouds 12 1013 82 10000 3.1 330 06:30 15.12.2019
6246 Clouds 12 1012 82 10000 1.5 0 05:50 15.12.2019
6247 Clouds 12 1012 82 10000 3.74 345 05:23 15.12.2019
6248 Clouds 12 1011 87 10000 3.74 345 04:24 15.12.2019
6249 Clouds 11 1009 82 10000 3.74 345 02:59 15.12.2019
6250 Clouds 12 1008 82 10000 3.74 345 02:32 15.12.2019
6251 Clouds 12 1007 76 10000 3.1 320 01:42 15.12.2019
6252 Clouds 12 1007 82 10000 1.5 0 01:19 15.12.2019
6253 Clouds 12 1006 82 10000 2.6 340 00:51 15.12.2019
6254 Clouds 12 1006 82 10000 2.6 340 00:33 15.12.2019
6255 Rain 11 1005 81 10000 4.28 0 23:55 14.12.2019
6256 Rain 11 1005 81 10000 4.28 0 23:37 14.12.2019
6257 Rain 11 1004 81 10000 3.91 358 23:18 14.12.2019
6258 Rain 11 1004 81 10000 3.91 358 23:18 14.12.2019
6259 Clouds 11 1004 81 10000 3.91 358 22:56 14.12.2019
6260 Clouds 11 1004 81 10000 3.91 358 22:37 14.12.2019
6261 Clouds 11 1003 81 10000 2.1 340 22:18 14.12.2019
6262 Clouds 11 1003 81 10000 2.1 340 22:18 14.12.2019
6263 Clouds 11 1003 81 10000 2.1 340 21:55 14.12.2019
6264 Clouds 11 1002 81 10000 2.1 300 21:36 14.12.2019
6265 Clouds 11 1002 76 10000 1 0 21:18 14.12.2019
6266 Clouds 12 1001 76 10000 3.1 330 20:42 14.12.2019
6267 Clouds 12 1000 76 10000 3.1 360 20:20 14.12.2019
6268 Clouds 12 1000 76 10000 3.1 360 19:59 14.12.2019
6269 Clouds 12 1000 76 10000 2.1 360 19:39 14.12.2019
6270 Clouds 12 999 76 10000 2.1 10 19:21 14.12.2019
6271 Clouds 12 999 76 10000 2.1 10 18:57 14.12.2019
6272 Clouds 12 998 81 10000 7.72 349 18:38 14.12.2019
6273 Clouds 12 998 81 10000 7.72 349 18:38 14.12.2019
6274 Clouds 12 997 76 10000 7.72 349 18:20 14.12.2019
6275 Clouds 11 997 76 10000 7.72 349 17:57 14.12.2019
6276 Clouds 11 996 81 10000 2.6 330 17:38 14.12.2019
6277 Clouds 11 996 93 10000 5.46 345 17:20 14.12.2019
6278 Clouds 11 995 93 10000 5.46 345 16:41 14.12.2019
6279 Clouds 11 994 93 10000 5.46 345 16:19 14.12.2019
6280 Clouds 12 994 93 10000 5.46 345 15:55 14.12.2019
6281 Rain 12 994 100 10000 1.5 0 15:37 14.12.2019
6282 Rain 12 993 100 10000 5.46 345 15:19 14.12.2019
6283 Rain 11 993 100 10000 5.46 345 14:54 14.12.2019
6284 Rain 12 993 100 6000 5.46 345 14:36 14.12.2019
6285 Rain 12 992 93 5000 9.66 140 14:18 14.12.2019
6286 Rain 12 992 100 7000 9.66 140 13:42 14.12.2019
6287 Rain 12 991 93 8000 9.66 140 13:19 14.12.2019
6288 Rain 12 991 93 8000 9.66 140 13:19 14.12.2019
6289 Rain 13 991 93 8000 2.3 172 12:57 14.12.2019
6290 Rain 12 991 93 5000 6.35 301 12:38 14.12.2019
6291 Rain 12 991 93 5000 2.3 172 12:38 14.12.2019
6292 Rain 12 991 87 5000 1.5 0 12:20 14.12.2019
6293 Rain 13 991 87 5000 1.5 0 11:56 14.12.2019
6294 Rain 13 991 93 9000 2.3 172 11:38 14.12.2019
6295 Rain 13 990 93 9000 2.6 190 11:19 14.12.2019
6296 Rain 13 990 93 9000 2.6 190 10:56 14.12.2019
6297 Rain 13 991 93 2000 3.6 120 10:38 14.12.2019
6298 Rain 13 992 87 7000 3.6 150 10:19 14.12.2019
6299 Rain 13 992 87 9000 4.6 140 09:43 14.12.2019
6300 Rain 13 992 87 9000 4.6 140 09:23 14.12.2019
6301 Rain 14 992 87 6000 6.7 150 08:59 14.12.2019
6302 Rain 14 992 87 6000 6.7 150 08:59 14.12.2019
6303 Rain 14 992 82 8000 6.7 160 08:40 14.12.2019
6304 Rain 14 992 77 9000 5.7 160 08:19 14.12.2019
6305 Rain 14 992 72 10000 4.6 160 07:41 14.12.2019
6306 Rain 14 993 67 10000 5.7 160 07:22 14.12.2019
6307 Rain 14 993 67 10000 5.7 160 06:55 14.12.2019
6308 Rain 14 994 72 10000 4.1 170 06:36 14.12.2019
6309 Rain 14 994 77 10000 5.1 160 05:56 14.12.2019
6310 Clouds 13 995 93 10000 3.6 170 04:35 14.12.2019
6311 Clouds 12 998 87 10000 6.65 175 02:25 14.12.2019
6312 Clouds 11 999 93 10000 7.12 226 01:46 14.12.2019
6313 Clouds 11 999 93 10000 7.12 226 01:28 14.12.2019
6314 Clouds 11 1000 93 10000 9 225 00:44 14.12.2019
6315 Clouds 11 1000 93 10000 9 225 00:26 14.12.2019
6316 Clouds 11 1000 93 10000 9 225 23:43 13.12.2019
6317 Clouds 11 1001 87 10000 3.36 221 23:22 13.12.2019
6318 Clouds 11 1001 87 10000 3.36 221 22:59 13.12.2019
6319 Clouds 10 1001 87 10000 3.36 221 22:40 13.12.2019
6320 Clouds 11 1001 87 10000 3.36 221 22:19 13.12.2019
6321 Clouds 10 1001 87 10000 3.36 221 21:55 13.12.2019
6322 Clouds 11 1001 87 10000 3.36 221 21:36 13.12.2019
6323 Clouds 11 1001 93 10000 3.36 221 21:18 13.12.2019
6324 Clouds 11 1002 87 10000 3.36 221 20:40 13.12.2019
6325 Clouds 11 1002 87 10000 3 258 20:21 13.12.2019
6326 Clouds 11 1002 87 10000 3 258 19:58 13.12.2019
6327 Clouds 11 1002 87 10000 3 258 19:40 13.12.2019
6328 Clouds 11 1002 87 10000 3 258 19:21 13.12.2019
6329 Clouds 12 1002 81 10000 3 258 18:58 13.12.2019
6330 Clouds 12 1002 81 10000 3 258 18:40 13.12.2019
6331 Clouds 12 1002 93 10000 3 258 18:19 13.12.2019
6332 Clouds 12 1002 93 10000 3 258 18:19 13.12.2019
6333 Clouds 12 1002 87 10000 3 258 17:43 13.12.2019
6334 Clouds 12 1002 81 10000 1.93 225 17:20 13.12.2019
6335 Clouds 12 1002 81 10000 1.93 225 17:20 13.12.2019
6336 Clouds 13 1001 71 10000 1.93 225 16:59 13.12.2019
6337 Clouds 13 1001 62 10000 1.93 225 16:39 13.12.2019
6338 Clouds 13 1001 62 10000 1.93 225 16:20 13.12.2019
6339 Clouds 14 1001 58 10000 1.93 225 15:58 13.12.2019
6340 Clouds 14 1001 55 10000 2.1 240 15:37 13.12.2019
6341 Clouds 14 1001 55 10000 2.1 240 15:18 13.12.2019
6342 Clouds 15 1001 55 10000 2.1 230 14:41 13.12.2019
6343 Clouds 15 1001 55 10000 2.1 230 14:20 13.12.2019
6344 Clouds 15 1001 51 10000 2.1 240 13:57 13.12.2019
6345 Clouds 15 1002 55 10000 3.1 230 13:38 13.12.2019
6346 Clouds 15 1002 55 10000 3.1 230 13:19 13.12.2019
6347 Clouds 15 1002 59 10000 3.1 220 12:42 13.12.2019
6348 Clouds 15 1002 67 10000 3.05 248 12:20 13.12.2019
6349 Clouds 15 1003 72 10000 3.05 248 11:57 13.12.2019
6350 Clouds 15 1003 72 10000 3.05 248 11:39 13.12.2019
6351 Clouds 14 1003 72 10000 2.01 258 11:21 13.12.2019
6352 Clouds 13 1003 76 10000 2.01 258 10:42 13.12.2019
6353 Clouds 13 1004 76 10000 2.01 258 10:23 13.12.2019
6354 Clouds 12 1004 81 10000 2.01 258 09:56 13.12.2019
6355 Clouds 12 1004 81 10000 2.01 258 09:38 13.12.2019
6356 Clouds 11 1004 81 10000 2.01 258 09:18 13.12.2019
6357 Clouds 11 1003 87 10000 2.01 258 08:41 13.12.2019
6358 Clouds 11 1003 93 10000 2.64 260 08:23 13.12.2019
6359 Rain 10 1004 93 10000 0.5 260 07:46 13.12.2019
6360 Rain 10 1003 93 10000 1.75 300 07:21 13.12.2019
6361 Clouds 10 1003 100 10000 1.75 300 06:55 13.12.2019
6362 Clouds 9 1003 87 10000 1.75 300 06:29 13.12.2019
6363 Rain 9 1003 93 10000 1.75 300 05:46 13.12.2019
6364 Rain 9 1003 87 10000 1.75 300 05:27 13.12.2019
6365 Clouds 9 1003 87 10000 1.43 354 04:35 13.12.2019
6366 Clouds 9 1003 87 10000 1.43 354 03:46 13.12.2019
6367 Clouds 9 1004 87 10000 1.43 354 02:34 13.12.2019
6368 Clouds 9 1004 87 10000 0.66 25 01:47 13.12.2019
6369 Clouds 10 1004 87 10000 0.57 16 00:57 13.12.2019
6370 Clouds 10 1004 93 10000 0.57 16 00:37 13.12.2019
6371 Rain 10 1004 87 10000 0.57 16 23:59 12.12.2019
6372 Rain 10 1004 87 10000 0.57 16 23:59 12.12.2019
6373 Rain 10 1005 93 10000 0.57 16 23:39 12.12.2019
6374 Rain 10 1005 93 10000 1.56 21 23:21 12.12.2019
6375 Clouds 10 1005 93 10000 1.56 21 22:56 12.12.2019
6376 Clouds 10 1005 93 10000 1.56 21 22:56 12.12.2019
6377 Clouds 10 1005 87 10000 1.56 21 22:37 12.12.2019
6378 Clouds 10 1005 87 10000 1.56 21 22:18 12.12.2019
6379 Clouds 10 1005 87 10000 1.56 21 21:55 12.12.2019
6380 Clouds 10 1005 87 10000 1.56 21 21:36 12.12.2019
6381 Clouds 10 1005 87 10000 1.56 21 21:18 12.12.2019
6382 Clouds 10 1005 93 10000 1.56 21 20:56 12.12.2019
6383 Clouds 11 1005 87 10000 1.56 21 20:38 12.12.2019
6384 Clouds 11 1005 87 10000 2.18 14 20:20 12.12.2019
6385 Clouds 11 1005 87 10000 1.89 2 19:43 12.12.2019
6386 Clouds 11 1005 87 10000 1.89 2 19:23 12.12.2019
6387 Clouds 11 1005 76 10000 1.89 2 18:58 12.12.2019
6388 Clouds 11 1005 76 10000 1.89 2 18:40 12.12.2019
6389 Clouds 11 1005 76 10000 1.89 2 18:21 12.12.2019
6390 Clouds 11 1004 81 10000 1.89 2 17:59 12.12.2019
6391 Clouds 11 1004 81 10000 1.89 2 17:40 12.12.2019
6392 Clouds 11 1004 81 10000 2.03 345 17:21 12.12.2019
6393 Clouds 11 1005 81 10000 2.03 345 16:59 12.12.2019
6394 Clouds 11 1005 81 10000 2.03 345 16:41 12.12.2019
6395 Clouds 12 1005 82 10000 2.03 345 16:21 12.12.2019
6396 Clouds 12 1005 82 10000 2.03 345 16:21 12.12.2019
6397 Clouds 12 1005 71 10000 1.5 0 15:58 12.12.2019
6398 Rain 12 1005 71 10000 1.5 0 15:40 12.12.2019
6399 Rain 12 1004 71 10000 1.5 0 15:18 12.12.2019
6400 Rain 12 1004 71 10000 3.1 330 14:56 12.12.2019
6401 Rain 12 1004 71 10000 3.1 330 14:36 12.12.2019
6402 Clouds 13 1004 71 10000 3.1 330 14:18 12.12.2019
6403 Clouds 13 1004 71 10000 3.6 330 13:54 12.12.2019
6404 Clouds 13 1004 67 10000 3.1 330 13:36 12.12.2019
6405 Clouds 13 1004 67 10000 3.1 330 13:18 12.12.2019
6406 Clouds 13 1004 67 10000 3.1 340 12:41 12.12.2019
6407 Clouds 13 1005 71 10000 2.6 330 12:22 12.12.2019
6408 Clouds 13 1005 71 10000 1.5 340 11:59 12.12.2019
6409 Clouds 12 1005 76 10000 1.5 280 11:40 12.12.2019
6410 Clouds 12 1005 76 10000 1.5 280 11:21 12.12.2019
6411 Clouds 12 1005 76 10000 1.5 280 10:58 12.12.2019
6412 Clouds 12 1005 76 10000 1.5 280 10:40 12.12.2019
6413 Clouds 12 1005 76 10000 1.5 280 10:21 12.12.2019
6414 Clouds 12 1005 76 10000 2.75 3 09:56 12.12.2019
6415 Clouds 12 1005 76 10000 1.5 300 09:38 12.12.2019
6416 Rain 12 1005 76 10000 1.5 300 09:19 12.12.2019
6417 Rain 11 1005 81 10000 3.1 320 08:47 12.12.2019
6418 Rain 11 1004 81 10000 3.6 330 08:28 12.12.2019
6419 Clouds 10 1004 76 10000 3.1 330 07:54 12.12.2019
6420 Clouds 10 1004 81 10000 4.1 330 07:36 12.12.2019
6421 Clouds 10 1004 81 10000 4.1 330 07:18 12.12.2019
6422 Clouds 10 1004 81 10000 2.6 320 06:41 12.12.2019
6423 Clouds 10 1004 81 10000 2.6 320 06:21 12.12.2019
6424 Clouds 9 1004 81 10000 2.1 310 05:26 12.12.2019
6425 Clouds 10 1004 93 10000 1 0 04:31 12.12.2019
6426 Clouds 10 1005 93 10000 3.78 7 02:41 12.12.2019
6427 Clouds 10 1005 93 10000 2.1 320 02:23 12.12.2019
6428 Clouds 10 1005 93 10000 3.68 14 01:58 12.12.2019
6429 Clouds 10 1005 93 10000 1.5 0 01:35 12.12.2019
6430 Clouds 10 1005 93 10000 1.5 0 00:49 12.12.2019
6431 Rain 10 1005 93 10000 1.5 0 00:22 12.12.2019
6432 Rain 10 1005 87 10000 1.5 0 23:58 11.12.2019
6433 Rain 10 1006 87 10000 2.1 40 23:37 11.12.2019
6434 Rain 10 1006 87 10000 2.1 40 23:18 11.12.2019
6435 Drizzle 11 1007 93 10000 4.2 28 22:56 11.12.2019
6436 Rain 11 1006 93 10000 4.2 28 22:38 11.12.2019
6437 Rain 11 1006 93 10000 4.2 28 22:18 11.12.2019
6438 Rain 11 1006 93 10000 4.2 28 22:18 11.12.2019
6439 Rain 11 1006 93 10000 4.2 28 21:54 11.12.2019
6440 Rain 11 1006 93 10000 1 0 21:36 11.12.2019
6441 Rain 11 1006 93 10000 1 0 21:18 11.12.2019
6442 Thunderstorm 11 1006 93 10000 1.5 0 20:55 11.12.2019
6443 Rain 11 1006 93 10000 1.5 0 20:36 11.12.2019
6444 Rain 11 1006 93 10000 1.5 0 20:18 11.12.2019
6445 Rain 11 1006 100 10000 1.5 0 19:42 11.12.2019
6446 Thunderstorm 12 1007 100 9000 1 0 19:23 11.12.2019
6447 Thunderstorm 12 1006 87 10000 2.1 0 18:59 11.12.2019
6448 Thunderstorm 12 1006 87 10000 2.1 0 18:40 11.12.2019
6449 Rain 12 1006 81 10000 1.5 0 18:19 11.12.2019
6450 Rain 13 1006 81 10000 2.6 310 17:56 11.12.2019
6451 Clouds 13 1006 81 10000 3.7 31 17:38 11.12.2019
6452 Clouds 13 1006 81 10000 3.7 31 17:38 11.12.2019
6453 Clouds 13 1006 81 10000 3.54 153 17:18 11.12.2019
6454 Clouds 13 1006 76 10000 1.5 0 16:55 11.12.2019
6455 Clouds 14 1005 71 10000 1.5 0 16:37 11.12.2019
6456 Clouds 14 1005 71 10000 1.5 0 16:18 11.12.2019
6457 Clouds 14 1005 67 10000 1.5 0 15:56 11.12.2019
6458 Clouds 14 1005 67 10000 2.1 350 15:37 11.12.2019
6459 Clouds 15 1005 67 10000 2.1 350 15:19 11.12.2019
6460 Clouds 15 1006 77 10000 1.5 0 14:55 11.12.2019
6461 Clouds 15 1006 72 10000 3.54 153 14:36 11.12.2019
6462 Clouds 15 1006 72 10000 1.74 162 14:18 11.12.2019
6463 Clouds 15 1007 59 10000 4.6 240 13:43 11.12.2019
6464 Rain 15 1006 72 10000 2.06 158 13:23 11.12.2019
6465 Rain 15 1006 72 10000 1.5 0 12:58 11.12.2019
6466 Rain 15 1006 67 10000 2.06 158 12:39 11.12.2019
6467 Clouds 16 1006 67 10000 2.06 158 12:21 11.12.2019
6468 Clouds 15 1006 77 10000 3.1 140 11:58 11.12.2019
6469 Clouds 15 1006 72 10000 1.5 0 11:39 11.12.2019
6470 Clouds 15 1006 72 10000 1.5 0 11:19 11.12.2019
6471 Clouds 15 1006 77 10000 1.77 284 10:59 11.12.2019
6472 Clouds 15 1007 77 10000 1.77 284 10:39 11.12.2019
6473 Clouds 15 1007 77 10000 1.77 284 10:21 11.12.2019
6474 Clouds 15 1006 87 10000 1.77 284 09:56 11.12.2019
6475 Clouds 14 1006 100 10000 1.77 284 09:38 11.12.2019
6476 Clouds 14 1006 100 10000 1.77 284 09:19 11.12.2019
6477 Clouds 14 1006 100 6000 1.77 284 08:55 11.12.2019
6478 Clouds 13 1005 100 10000 1.77 284 08:36 11.12.2019
6479 Rain 13 1005 100 10000 2.62 309 08:18 11.12.2019
6480 Rain 12 1005 100 10000 2.62 309 07:42 11.12.2019
6481 Clouds 11 1005 100 10000 2.62 309 07:23 11.12.2019
6482 Rain 11 1005 100 10000 2.62 309 06:46 11.12.2019
6483 Rain 11 1005 100 10000 2.62 309 06:24 11.12.2019
6484 Rain 11 1004 100 10000 2.62 309 05:54 11.12.2019
6485 Rain 12 1004 100 10000 2.62 309 05:34 11.12.2019
6486 Rain 11 1004 100 10000 1.56 340 04:51 11.12.2019
6487 Clouds 11 1004 100 10000 1.56 340 03:26 11.12.2019
6488 Rain 12 1004 100 10000 1.56 340 02:35 11.12.2019
6489 Rain 12 1004 100 10000 4.05 140 01:22 11.12.2019
6490 Clouds 12 1005 100 10000 1.49 155 00:38 11.12.2019
6491 Clouds 12 1005 100 10000 1.49 155 00:19 11.12.2019
6492 Clouds 12 1005 100 10000 1.49 155 23:44 10.12.2019
6493 Rain 12 1005 100 10000 4.38 204 23:23 10.12.2019
6494 Rain 12 1006 100 10000 4.38 204 22:56 10.12.2019
6495 Rain 12 1006 100 10000 4.38 204 22:56 10.12.2019
6496 Rain 12 1006 100 10000 4.38 204 22:38 10.12.2019
6497 Thunderstorm 12 1005 93 8000 4.38 204 22:20 10.12.2019
6498 Thunderstorm 12 1006 100 8000 2.1 360 21:54 10.12.2019
6499 Thunderstorm 12 1006 93 8000 2.1 0 21:36 10.12.2019
6500 Thunderstorm 12 1006 93 8000 2.1 0 21:18 10.12.2019
6501 Thunderstorm 12 1005 93 8000 4.6 180 20:55 10.12.2019
6502 Thunderstorm 12 1005 87 9000 2.1 0 20:36 10.12.2019
6503 Thunderstorm 13 1005 87 9000 2.1 0 20:18 10.12.2019
6504 Thunderstorm 13 1005 87 9000 2.1 0 20:18 10.12.2019
6505 Rain 13 1005 87 10000 4.49 150 19:44 10.12.2019
6506 Rain 13 1005 87 10000 4.49 150 19:26 10.12.2019
6507 Rain 13 1005 87 10000 4.49 150 19:26 10.12.2019
6508 Rain 13 1005 87 10000 4.49 150 18:59 10.12.2019
6509 Rain 13 1005 87 10000 4.49 150 18:39 10.12.2019
6510 Rain 13 1005 87 10000 4.49 150 18:19 10.12.2019
6511 Rain 12 1005 87 10000 1 0 17:55 10.12.2019
6512 Clouds 12 1005 87 10000 4.49 150 17:37 10.12.2019
6513 Rain 12 1005 87 10000 4.98 106 17:19 10.12.2019
6514 Rain 13 1006 82 10000 1.5 0 16:42 10.12.2019
6515 Rain 13 1006 82 10000 1.5 0 16:20 10.12.2019
6516 Rain 13 1006 76 10000 4.98 106 15:55 10.12.2019
6517 Rain 13 1006 82 10000 4.1 60 15:37 10.12.2019
6518 Rain 13 1006 82 10000 4.1 60 15:18 10.12.2019
6519 Rain 13 1006 82 10000 4.1 60 15:18 10.12.2019
6520 Rain 13 1006 82 10000 4.1 60 15:18 10.12.2019
6521 Rain 13 1006 77 10000 3.1 80 14:55 10.12.2019
6522 Rain 13 1006 82 10000 2.1 60 14:36 10.12.2019
6523 Rain 14 1006 82 10000 2.1 60 14:18 10.12.2019
6524 Rain 13 1006 87 10000 1.5 0 13:56 10.12.2019
6525 Rain 13 1006 87 10000 1.5 0 13:56 10.12.2019
6526 Rain 14 1006 93 6000 1.5 0 13:37 10.12.2019
6527 Rain 14 1006 93 6000 1.5 0 13:18 10.12.2019
6528 Rain 14 1007 87 6000 3.6 170 12:40 10.12.2019
6529 Rain 14 1007 87 6000 3.6 170 12:40 10.12.2019
6530 Rain 14 1007 72 10000 5.63 111 12:21 10.12.2019
6531 Rain 14 1007 77 10000 5.63 111 11:42 10.12.2019
6532 Clouds 15 1007 77 10000 1.5 0 11:23 10.12.2019
6533 Clouds 15 1008 77 10000 4.45 127 10:56 10.12.2019
6534 Clouds 15 1008 82 10000 4.45 127 10:37 10.12.2019
6535 Clouds 14 1008 82 10000 4.45 127 10:19 10.12.2019
6536 Clouds 14 1008 82 10000 4.45 127 09:55 10.12.2019
6537 Clouds 14 1008 82 10000 4.45 127 09:55 10.12.2019
6538 Clouds 14 1008 82 10000 4.45 127 09:37 10.12.2019
6539 Clouds 14 1008 82 10000 4.45 127 09:19 10.12.2019
6540 Clouds 13 1008 93 10000 4.45 127 08:54 10.12.2019
6541 Clouds 13 1008 100 10000 4.42 114 08:36 10.12.2019
6542 Clouds 13 1008 100 10000 4.45 127 08:36 10.12.2019
6543 Rain 12 1008 100 10000 3.16 140 08:18 10.12.2019
6544 Rain 12 1008 93 10000 3.16 140 07:43 10.12.2019
6545 Rain 12 1008 93 10000 3.16 140 07:43 10.12.2019
6546 Rain 12 1008 100 10000 1 0 07:25 10.12.2019
6547 Rain 12 1008 100 10000 3.16 140 06:47 10.12.2019
6548 Rain 12 1008 93 10000 3.16 140 06:21 10.12.2019
6549 Rain 12 1008 100 10000 3.16 140 05:55 10.12.2019
6550 Rain 12 1009 93 10000 2.04 29 04:55 10.12.2019
6551 Rain 12 1009 93 10000 2.04 29 03:39 10.12.2019
6552 Rain 12 1009 93 10000 2.04 29 02:46 10.12.2019
6553 Clouds 12 1009 93 10000 2.48 64 01:45 10.12.2019
6554 Clouds 12 1009 93 10000 1.5 0 01:24 10.12.2019
6555 Clouds 12 1009 100 10000 1 0 00:42 10.12.2019
6556 Clouds 12 1010 100 10000 1.39 20 00:22 10.12.2019
6557 Rain 13 1010 93 8000 1.5 0 23:42 09.12.2019
6558 Rain 13 1010 82 10000 1.5 0 23:42 09.12.2019
6559 Rain 13 1010 82 10000 1.5 0 23:23 09.12.2019
6560 Clouds 12 1010 87 10000 1.25 158 22:58 09.12.2019
6561 Clouds 12 1010 82 10000 1.25 158 22:40 09.12.2019
6562 Clouds 12 1010 82 10000 1.25 158 22:20 09.12.2019
6563 Clouds 12 1011 82 10000 1.25 158 21:57 09.12.2019
6564 Clouds 12 1011 82 10000 1.25 158 21:39 09.12.2019
6565 Clouds 12 1011 82 10000 1.25 158 21:39 09.12.2019
6566 Clouds 12 1011 87 10000 1.25 158 21:19 09.12.2019
6567 Clouds 12 1011 82 10000 1.25 158 20:57 09.12.2019
6568 Clouds 12 1011 82 10000 1.25 158 20:39 09.12.2019
6569 Clouds 12 1011 82 10000 4.44 162 20:20 09.12.2019
6570 Clouds 12 1011 76 10000 4.44 162 19:56 09.12.2019
6571 Clouds 12 1011 76 10000 4.44 162 19:38 09.12.2019
6572 Clouds 13 1011 76 10000 4.44 162 19:19 09.12.2019
6573 Clouds 13 1011 82 10000 4.44 162 18:58 09.12.2019
6574 Clouds 13 1011 82 10000 4.44 162 18:39 09.12.2019
6575 Clouds 13 1011 82 10000 4.44 162 18:20 09.12.2019
6576 Clouds 13 1011 77 10000 4.44 162 17:58 09.12.2019
6577 Clouds 13 1011 77 10000 4.44 162 17:40 09.12.2019
6578 Clouds 13 1011 77 10000 3.71 152 17:21 09.12.2019
6579 Clouds 14 1011 77 10000 3.71 152 16:56 09.12.2019
6580 Clouds 14 1011 77 10000 3.71 152 16:56 09.12.2019
6581 Clouds 14 1011 72 10000 3.71 152 16:38 09.12.2019
6582 Clouds 14 1011 72 10000 3.71 152 16:20 09.12.2019
6583 Clouds 15 1011 72 10000 2.1 160 15:56 09.12.2019
6584 Clouds 15 1012 72 10000 2.1 160 15:37 09.12.2019
6585 Clouds 16 1012 72 10000 2.1 160 15:19 09.12.2019
6586 Clouds 16 1012 67 10000 2.6 170 14:57 09.12.2019
6587 Clouds 16 1012 67 10000 2.6 170 14:39 09.12.2019
6588 Clouds 16 1012 63 10000 2.6 150 14:18 09.12.2019
6589 Clouds 16 1012 63 10000 2.6 160 13:40 09.12.2019
6590 Clouds 16 1013 63 10000 2.1 170 13:20 09.12.2019
6591 Clouds 16 1013 63 10000 2.6 150 12:58 09.12.2019
6592 Clouds 16 1013 63 10000 2.6 150 12:40 09.12.2019
6593 Clouds 16 1013 63 10000 2.23 150 12:21 09.12.2019
6594 Clouds 16 1014 63 10000 2.23 150 11:59 09.12.2019
6595 Clouds 16 1014 63 10000 2.23 150 11:40 09.12.2019
6596 Clouds 16 1014 63 10000 1.19 152 11:21 09.12.2019
6597 Clouds 16 1015 52 10000 1.19 152 10:57 09.12.2019
6598 Clouds 15 1015 59 10000 1.19 152 10:38 09.12.2019
6599 Clouds 15 1015 59 10000 1.19 152 10:19 09.12.2019
6600 Clouds 15 1015 62 10000 1.19 152 09:43 09.12.2019
6601 Clouds 14 1015 71 10000 1.19 152 09:23 09.12.2019
6602 Clouds 13 1017 76 10000 1.19 152 08:55 09.12.2019
6603 Clouds 11 1015 81 10000 1.31 140 08:37 09.12.2019
6604 Clouds 11 1015 81 10000 1.04 60 08:19 09.12.2019
6605 Clouds 10 1015 81 10000 1.04 60 07:48 09.12.2019
6606 Rain 9 1015 87 10000 1.04 60 07:30 09.12.2019
6607 Clouds 8 1016 81 10000 1.04 60 06:55 09.12.2019
6608 Clouds 8 1016 81 10000 1.04 60 06:29 09.12.2019
6609 Clouds 9 1016 81 10000 1.04 60 05:31 09.12.2019
6610 Clouds 9 1016 81 10000 1.5 0 04:58 09.12.2019
6611 Clouds 9 1016 81 10000 1.07 28 04:27 09.12.2019
6612 Clouds 9 1016 81 10000 1.07 28 04:27 09.12.2019
6613 Clouds 9 1017 76 10000 1.07 28 02:28 09.12.2019
6614 Clouds 9 1017 71 10000 1.74 17 01:46 09.12.2019
6615 Clouds 9 1017 76 10000 1.73 10 00:57 09.12.2019
6616 Clouds 10 1017 76 10000 1.73 10 00:33 09.12.2019
6617 Clouds 10 1017 81 10000 1.73 10 23:55 08.12.2019
6618 Clouds 10 1017 81 10000 1.73 10 23:55 08.12.2019
6619 Clouds 10 1018 87 10000 1.73 10 23:37 08.12.2019
6620 Clouds 10 1018 87 10000 2.18 16 23:18 08.12.2019
6621 Clouds 10 1018 81 10000 2.18 16 22:56 08.12.2019
6622 Clouds 11 1018 76 10000 2.18 16 22:38 08.12.2019
6623 Clouds 11 1018 76 10000 2.18 16 22:18 08.12.2019
6624 Clear 11 1018 71 10000 2.18 16 21:55 08.12.2019
6625 Clear 11 1018 76 10000 2.18 16 21:37 08.12.2019
6626 Clear 11 1018 76 10000 2.18 16 21:19 08.12.2019
6627 Clear 12 1018 71 10000 2.18 16 20:55 08.12.2019
6628 Clear 12 1018 71 10000 2.18 16 20:37 08.12.2019
6629 Clear 12 1018 71 10000 2.49 359 20:18 08.12.2019
6630 Clear 12 1018 71 10000 1 0 19:55 08.12.2019
6631 Clear 13 1018 66 10000 1 0 19:36 08.12.2019
6632 Clear 12 1018 66 10000 1 0 19:18 08.12.2019
6633 Clear 13 1018 71 10000 1 0 18:54 08.12.2019
6634 Clear 13 1018 67 10000 1.5 300 18:36 08.12.2019
6635 Clear 13 1018 67 10000 1.5 300 18:18 08.12.2019
6636 Clear 14 1017 62 10000 2.49 359 17:54 08.12.2019
6637 Clear 14 1017 58 10000 2.49 359 17:36 08.12.2019
6638 Clear 14 1017 58 10000 2.51 14 17:18 08.12.2019
6639 Clouds 14 1017 58 10000 1.5 0 16:42 08.12.2019
6640 Clouds 15 1017 48 10000 2.51 14 16:24 08.12.2019
6641 Clouds 16 1017 42 10000 1.5 330 15:59 08.12.2019
6642 Clouds 16 1016 45 10000 1.5 0 15:37 08.12.2019
6643 Clouds 16 1016 45 10000 1.5 0 15:18 08.12.2019
6644 Clouds 16 1016 45 10000 1.5 0 15:18 08.12.2019
6645 Clouds 17 1016 42 10000 2.6 340 14:57 08.12.2019
6646 Clouds 17 1016 39 10000 4.1 320 14:37 08.12.2019
6647 Clouds 17 1016 39 10000 4.1 320 14:19 08.12.2019
6648 Clouds 17 1016 42 10000 3.1 360 13:41 08.12.2019
6649 Clouds 17 1016 42 10000 4.1 350 13:22 08.12.2019
6650 Clouds 17 1017 42 10000 3.6 330 12:59 08.12.2019
6651 Clouds 18 1017 42 10000 3.6 330 12:40 08.12.2019
6652 Clouds 18 1017 42 10000 3.6 320 12:20 08.12.2019
6653 Clouds 17 1017 42 10000 3.6 0 11:58 08.12.2019
6654 Clouds 17 1017 42 10000 3.1 330 11:37 08.12.2019
6655 Clouds 17 1017 42 10000 3.1 330 11:19 08.12.2019
6656 Clouds 17 1018 48 10000 3.1 350 10:57 08.12.2019
6657 Clouds 17 1018 55 10000 3.1 350 10:38 08.12.2019
6658 Clouds 16 1018 55 10000 3.1 350 10:19 08.12.2019
6659 Clouds 16 1018 55 10000 2.1 340 09:55 08.12.2019
6660 Clouds 15 1018 59 10000 2.3 337 09:37 08.12.2019
6661 Clouds 15 1018 59 10000 2.3 337 09:18 08.12.2019
6662 Clouds 14 1017 63 10000 2.3 337 08:42 08.12.2019
6663 Clouds 13 1017 71 10000 2.1 310 08:23 08.12.2019
6664 Clouds 12 1017 71 10000 2.1 350 07:57 08.12.2019
6665 Clouds 11 1017 76 10000 2.6 320 07:39 08.12.2019
6666 Clouds 11 1017 76 10000 2.6 320 07:18 08.12.2019
6667 Clouds 10 1016 71 10000 2.6 320 06:41 08.12.2019
6668 Clouds 11 1016 71 10000 2.6 320 06:21 08.12.2019
6669 Clouds 11 1016 76 10000 2.91 2 05:26 08.12.2019
6670 Clouds 11 1016 81 10000 2.45 1 04:54 08.12.2019
6671 Clouds 11 1016 81 10000 2.45 1 03:40 08.12.2019
6672 Clouds 11 1016 71 10000 2.1 350 02:46 08.12.2019
6673 Clouds 11 1016 71 10000 1.5 0 02:27 08.12.2019
6674 Clouds 11 1016 76 10000 2.69 356 01:41 08.12.2019
6675 Clouds 11 1016 93 10000 1 0 00:56 08.12.2019
6676 Clouds 11 1016 93 10000 1.5 0 00:36 08.12.2019
6677</